<?xml version="1.0" encoding="UTF-8" standalone="no" ?>
<gpx xmlns="http://www.topografix.com/GPX/1/1" xmlns:xsi="http://www.w3.org/2001/XMLSchema-instance" xsi:schemaLocation="http://www.topografix.com/GPX/1/1 http://www.topografix.com/GPX/1/1/gpx.xsd" version="1.1" creator="VisuGPX - https://www.visugpx.com">
  <metadata>
    <name>Traversée du bois de Charenton à Vincennes</name>
  </metadata>
  <trk>
    <name><![CDATA[Saint-Maurice Randonnée]]></name>
    <trkseg>
      <trkpt lat="48.81727" lon="2.42026">
        <ele>22</ele>
        <time>2020-07-22T17:37:07Z</time>
      </trkpt>
      <trkpt lat="48.81727" lon="2.42027">
        <ele>22</ele>
        <time>2020-07-22T17:37:08Z</time>
      </trkpt>
      <trkpt lat="48.81727" lon="2.42028">
        <ele>21</ele>
        <time>2020-07-22T17:37:09Z</time>
      </trkpt>
      <trkpt lat="48.81727" lon="2.42029">
        <ele>21</ele>
        <time>2020-07-22T17:37:10Z</time>
      </trkpt>
      <trkpt lat="48.81727" lon="2.42031">
        <ele>21</ele>
        <time>2020-07-22T17:37:11Z</time>
      </trkpt>
      <trkpt lat="48.81727" lon="2.42033">
        <ele>21</ele>
        <time>2020-07-22T17:37:12Z</time>
      </trkpt>
      <trkpt lat="48.81727" lon="2.42035">
        <ele>21</ele>
        <time>2020-07-22T17:37:13Z</time>
      </trkpt>
      <trkpt lat="48.81726" lon="2.42037">
        <ele>21</ele>
        <time>2020-07-22T17:37:14Z</time>
      </trkpt>
      <trkpt lat="48.81725" lon="2.42038">
        <ele>21</ele>
        <time>2020-07-22T17:37:15Z</time>
      </trkpt>
      <trkpt lat="48.81725" lon="2.42039">
        <ele>21</ele>
        <time>2020-07-22T17:37:16Z</time>
      </trkpt>
      <trkpt lat="48.81725" lon="2.42041">
        <ele>21</ele>
        <time>2020-07-22T17:37:17Z</time>
      </trkpt>
      <trkpt lat="48.81725" lon="2.42043">
        <ele>21</ele>
        <time>2020-07-22T17:37:18Z</time>
      </trkpt>
      <trkpt lat="48.81725" lon="2.42045">
        <ele>21</ele>
        <time>2020-07-22T17:37:19Z</time>
      </trkpt>
      <trkpt lat="48.81725" lon="2.42046">
        <ele>21</ele>
        <time>2020-07-22T17:37:20Z</time>
      </trkpt>
      <trkpt lat="48.81725" lon="2.42048">
        <ele>21</ele>
        <time>2020-07-22T17:37:21Z</time>
      </trkpt>
      <trkpt lat="48.81725" lon="2.4205">
        <ele>21</ele>
        <time>2020-07-22T17:37:22Z</time>
      </trkpt>
      <trkpt lat="48.81725" lon="2.42051">
        <ele>21</ele>
        <time>2020-07-22T17:37:23Z</time>
      </trkpt>
      <trkpt lat="48.81725" lon="2.42053">
        <ele>21</ele>
        <time>2020-07-22T17:37:24Z</time>
      </trkpt>
      <trkpt lat="48.81725" lon="2.42055">
        <ele>21</ele>
        <time>2020-07-22T17:37:25Z</time>
      </trkpt>
      <trkpt lat="48.81725" lon="2.42057">
        <ele>21</ele>
        <time>2020-07-22T17:37:26Z</time>
      </trkpt>
      <trkpt lat="48.81725" lon="2.42059">
        <ele>21</ele>
        <time>2020-07-22T17:37:27Z</time>
      </trkpt>
      <trkpt lat="48.81725" lon="2.42061">
        <ele>21</ele>
        <time>2020-07-22T17:37:28Z</time>
      </trkpt>
      <trkpt lat="48.81725" lon="2.42063">
        <ele>20</ele>
        <time>2020-07-22T17:37:29Z</time>
      </trkpt>
      <trkpt lat="48.81725" lon="2.42066">
        <ele>20</ele>
        <time>2020-07-22T17:37:30Z</time>
      </trkpt>
      <trkpt lat="48.81725" lon="2.42068">
        <ele>20</ele>
        <time>2020-07-22T17:37:31Z</time>
      </trkpt>
      <trkpt lat="48.81725" lon="2.4207">
        <ele>20</ele>
        <time>2020-07-22T17:37:32Z</time>
      </trkpt>
      <trkpt lat="48.81726" lon="2.42072">
        <ele>20</ele>
        <time>2020-07-22T17:37:33Z</time>
      </trkpt>
      <trkpt lat="48.81726" lon="2.42074">
        <ele>19</ele>
        <time>2020-07-22T17:37:34Z</time>
      </trkpt>
      <trkpt lat="48.81726" lon="2.42076">
        <ele>19</ele>
        <time>2020-07-22T17:37:35Z</time>
      </trkpt>
      <trkpt lat="48.81726" lon="2.42077">
        <ele>19</ele>
        <time>2020-07-22T17:37:36Z</time>
      </trkpt>
      <trkpt lat="48.81725" lon="2.42079">
        <ele>19</ele>
        <time>2020-07-22T17:37:37Z</time>
      </trkpt>
      <trkpt lat="48.81725" lon="2.4208">
        <ele>19</ele>
        <time>2020-07-22T17:37:38Z</time>
      </trkpt>
      <trkpt lat="48.81725" lon="2.42082">
        <ele>19</ele>
        <time>2020-07-22T17:37:39Z</time>
      </trkpt>
      <trkpt lat="48.81725" lon="2.42083">
        <ele>19</ele>
        <time>2020-07-22T17:37:40Z</time>
      </trkpt>
      <trkpt lat="48.81725" lon="2.42085">
        <ele>19</ele>
        <time>2020-07-22T17:37:41Z</time>
      </trkpt>
      <trkpt lat="48.81725" lon="2.42086">
        <ele>19</ele>
        <time>2020-07-22T17:37:42Z</time>
      </trkpt>
      <trkpt lat="48.81725" lon="2.42088">
        <ele>19</ele>
        <time>2020-07-22T17:37:43Z</time>
      </trkpt>
      <trkpt lat="48.81725" lon="2.42089">
        <ele>19</ele>
        <time>2020-07-22T17:37:44Z</time>
      </trkpt>
      <trkpt lat="48.81725" lon="2.4209">
        <ele>19</ele>
        <time>2020-07-22T17:37:45Z</time>
      </trkpt>
      <trkpt lat="48.81725" lon="2.42091">
        <ele>19</ele>
        <time>2020-07-22T17:37:46Z</time>
      </trkpt>
      <trkpt lat="48.81725" lon="2.42093">
        <ele>19</ele>
        <time>2020-07-22T17:37:47Z</time>
      </trkpt>
      <trkpt lat="48.81724" lon="2.42094">
        <ele>19</ele>
        <time>2020-07-22T17:37:48Z</time>
      </trkpt>
      <trkpt lat="48.81724" lon="2.42096">
        <ele>18</ele>
        <time>2020-07-22T17:37:49Z</time>
      </trkpt>
      <trkpt lat="48.81723" lon="2.42097">
        <ele>18</ele>
        <time>2020-07-22T17:37:50Z</time>
      </trkpt>
      <trkpt lat="48.81723" lon="2.42098">
        <ele>18</ele>
        <time>2020-07-22T17:37:51Z</time>
      </trkpt>
      <trkpt lat="48.81722" lon="2.42099">
        <ele>18</ele>
        <time>2020-07-22T17:37:52Z</time>
      </trkpt>
      <trkpt lat="48.81721" lon="2.421">
        <ele>18</ele>
        <time>2020-07-22T17:37:53Z</time>
      </trkpt>
      <trkpt lat="48.8172" lon="2.42101">
        <ele>17</ele>
        <time>2020-07-22T17:37:54Z</time>
      </trkpt>
      <trkpt lat="48.81718" lon="2.42102">
        <ele>17</ele>
        <time>2020-07-22T17:37:55Z</time>
      </trkpt>
      <trkpt lat="48.81717" lon="2.42104">
        <ele>16</ele>
        <time>2020-07-22T17:37:56Z</time>
      </trkpt>
      <trkpt lat="48.81715" lon="2.42105">
        <ele>16</ele>
        <time>2020-07-22T17:37:57Z</time>
      </trkpt>
      <trkpt lat="48.81715" lon="2.42106">
        <ele>16</ele>
        <time>2020-07-22T17:37:58Z</time>
      </trkpt>
      <trkpt lat="48.81715" lon="2.42107">
        <ele>16</ele>
        <time>2020-07-22T17:37:59Z</time>
      </trkpt>
      <trkpt lat="48.81714" lon="2.42108">
        <ele>16</ele>
        <time>2020-07-22T17:38:00Z</time>
      </trkpt>
      <trkpt lat="48.81714" lon="2.42109">
        <ele>16</ele>
        <time>2020-07-22T17:38:01Z</time>
      </trkpt>
      <trkpt lat="48.81714" lon="2.42111">
        <ele>16</ele>
        <time>2020-07-22T17:38:02Z</time>
      </trkpt>
      <trkpt lat="48.81714" lon="2.42112">
        <ele>16</ele>
        <time>2020-07-22T17:38:03Z</time>
      </trkpt>
      <trkpt lat="48.81715" lon="2.42114">
        <ele>16</ele>
        <time>2020-07-22T17:38:04Z</time>
      </trkpt>
      <trkpt lat="48.81715" lon="2.42115">
        <ele>16</ele>
        <time>2020-07-22T17:38:05Z</time>
      </trkpt>
      <trkpt lat="48.81715" lon="2.42117">
        <ele>16</ele>
        <time>2020-07-22T17:38:06Z</time>
      </trkpt>
      <trkpt lat="48.81716" lon="2.42118">
        <ele>16</ele>
        <time>2020-07-22T17:38:07Z</time>
      </trkpt>
      <trkpt lat="48.81717" lon="2.42119">
        <ele>16</ele>
        <time>2020-07-22T17:38:08Z</time>
      </trkpt>
      <trkpt lat="48.81717" lon="2.42121">
        <ele>15</ele>
        <time>2020-07-22T17:38:09Z</time>
      </trkpt>
      <trkpt lat="48.81717" lon="2.42122">
        <ele>15</ele>
        <time>2020-07-22T17:38:10Z</time>
      </trkpt>
      <trkpt lat="48.81717" lon="2.42124">
        <ele>15</ele>
        <time>2020-07-22T17:38:11Z</time>
      </trkpt>
      <trkpt lat="48.81717" lon="2.42125">
        <ele>15</ele>
        <time>2020-07-22T17:38:12Z</time>
      </trkpt>
      <trkpt lat="48.81717" lon="2.42127">
        <ele>15</ele>
        <time>2020-07-22T17:38:13Z</time>
      </trkpt>
      <trkpt lat="48.81717" lon="2.42128">
        <ele>15</ele>
        <time>2020-07-22T17:38:14Z</time>
      </trkpt>
      <trkpt lat="48.81717" lon="2.4213">
        <ele>15</ele>
        <time>2020-07-22T17:38:15Z</time>
      </trkpt>
      <trkpt lat="48.81717" lon="2.42132">
        <ele>15</ele>
        <time>2020-07-22T17:38:16Z</time>
      </trkpt>
      <trkpt lat="48.81717" lon="2.42133">
        <ele>15</ele>
        <time>2020-07-22T17:38:17Z</time>
      </trkpt>
      <trkpt lat="48.81718" lon="2.42135">
        <ele>16</ele>
        <time>2020-07-22T17:38:18Z</time>
      </trkpt>
      <trkpt lat="48.81718" lon="2.42136">
        <ele>16</ele>
        <time>2020-07-22T17:38:19Z</time>
      </trkpt>
      <trkpt lat="48.81718" lon="2.42138">
        <ele>16</ele>
        <time>2020-07-22T17:38:20Z</time>
      </trkpt>
      <trkpt lat="48.81718" lon="2.42139">
        <ele>16</ele>
        <time>2020-07-22T17:38:21Z</time>
      </trkpt>
      <trkpt lat="48.81717" lon="2.42141">
        <ele>16</ele>
        <time>2020-07-22T17:38:22Z</time>
      </trkpt>
      <trkpt lat="48.81717" lon="2.42143">
        <ele>16</ele>
        <time>2020-07-22T17:38:23Z</time>
      </trkpt>
      <trkpt lat="48.81717" lon="2.42146">
        <ele>16</ele>
        <time>2020-07-22T17:38:24Z</time>
      </trkpt>
      <trkpt lat="48.81716" lon="2.42149">
        <ele>16</ele>
        <time>2020-07-22T17:38:25Z</time>
      </trkpt>
      <trkpt lat="48.81716" lon="2.42152">
        <ele>16</ele>
        <time>2020-07-22T17:38:26Z</time>
      </trkpt>
      <trkpt lat="48.81716" lon="2.42155">
        <ele>16</ele>
        <time>2020-07-22T17:38:27Z</time>
      </trkpt>
      <trkpt lat="48.81716" lon="2.42157">
        <ele>16</ele>
        <time>2020-07-22T17:38:28Z</time>
      </trkpt>
      <trkpt lat="48.81717" lon="2.42159">
        <ele>16</ele>
        <time>2020-07-22T17:38:29Z</time>
      </trkpt>
      <trkpt lat="48.81717" lon="2.42161">
        <ele>16</ele>
        <time>2020-07-22T17:38:30Z</time>
      </trkpt>
      <trkpt lat="48.81717" lon="2.42162">
        <ele>16</ele>
        <time>2020-07-22T17:38:31Z</time>
      </trkpt>
      <trkpt lat="48.81716" lon="2.42165">
        <ele>16</ele>
        <time>2020-07-22T17:38:32Z</time>
      </trkpt>
      <trkpt lat="48.81715" lon="2.42168">
        <ele>16</ele>
        <time>2020-07-22T17:38:33Z</time>
      </trkpt>
      <trkpt lat="48.81715" lon="2.42172">
        <ele>16</ele>
        <time>2020-07-22T17:38:34Z</time>
      </trkpt>
      <trkpt lat="48.81714" lon="2.42175">
        <ele>16</ele>
        <time>2020-07-22T17:38:35Z</time>
      </trkpt>
      <trkpt lat="48.81713" lon="2.42178">
        <ele>16</ele>
        <time>2020-07-22T17:38:36Z</time>
      </trkpt>
      <trkpt lat="48.81712" lon="2.42181">
        <ele>16</ele>
        <time>2020-07-22T17:38:37Z</time>
      </trkpt>
      <trkpt lat="48.81712" lon="2.42184">
        <ele>16</ele>
        <time>2020-07-22T17:38:38Z</time>
      </trkpt>
      <trkpt lat="48.81712" lon="2.42186">
        <ele>16</ele>
        <time>2020-07-22T17:38:39Z</time>
      </trkpt>
      <trkpt lat="48.81712" lon="2.42188">
        <ele>16</ele>
        <time>2020-07-22T17:38:40Z</time>
      </trkpt>
      <trkpt lat="48.81712" lon="2.4219">
        <ele>16</ele>
        <time>2020-07-22T17:38:41Z</time>
      </trkpt>
      <trkpt lat="48.81712" lon="2.42192">
        <ele>16</ele>
        <time>2020-07-22T17:38:42Z</time>
      </trkpt>
      <trkpt lat="48.81712" lon="2.42193">
        <ele>16</ele>
        <time>2020-07-22T17:38:43Z</time>
      </trkpt>
      <trkpt lat="48.81712" lon="2.42195">
        <ele>16</ele>
        <time>2020-07-22T17:38:44Z</time>
      </trkpt>
      <trkpt lat="48.81712" lon="2.42197">
        <ele>16</ele>
        <time>2020-07-22T17:38:45Z</time>
      </trkpt>
      <trkpt lat="48.81711" lon="2.42198">
        <ele>16</ele>
        <time>2020-07-22T17:38:46Z</time>
      </trkpt>
      <trkpt lat="48.81711" lon="2.42199">
        <ele>16</ele>
        <time>2020-07-22T17:38:47Z</time>
      </trkpt>
      <trkpt lat="48.8171" lon="2.42201">
        <ele>16</ele>
        <time>2020-07-22T17:38:48Z</time>
      </trkpt>
      <trkpt lat="48.8171" lon="2.42202">
        <ele>16</ele>
        <time>2020-07-22T17:38:49Z</time>
      </trkpt>
      <trkpt lat="48.81709" lon="2.42205">
        <ele>16</ele>
        <time>2020-07-22T17:38:50Z</time>
      </trkpt>
      <trkpt lat="48.81707" lon="2.42208">
        <ele>16</ele>
        <time>2020-07-22T17:38:51Z</time>
      </trkpt>
      <trkpt lat="48.81707" lon="2.4221">
        <ele>16</ele>
        <time>2020-07-22T17:38:52Z</time>
      </trkpt>
      <trkpt lat="48.81706" lon="2.42213">
        <ele>16</ele>
        <time>2020-07-22T17:38:53Z</time>
      </trkpt>
      <trkpt lat="48.81706" lon="2.42215">
        <ele>16</ele>
        <time>2020-07-22T17:38:54Z</time>
      </trkpt>
      <trkpt lat="48.81706" lon="2.42217">
        <ele>16</ele>
        <time>2020-07-22T17:38:55Z</time>
      </trkpt>
      <trkpt lat="48.81707" lon="2.42219">
        <ele>16</ele>
        <time>2020-07-22T17:38:56Z</time>
      </trkpt>
      <trkpt lat="48.81707" lon="2.42221">
        <ele>16</ele>
        <time>2020-07-22T17:38:57Z</time>
      </trkpt>
      <trkpt lat="48.81708" lon="2.42223">
        <ele>16</ele>
        <time>2020-07-22T17:38:58Z</time>
      </trkpt>
      <trkpt lat="48.81709" lon="2.42224">
        <ele>16</ele>
        <time>2020-07-22T17:38:59Z</time>
      </trkpt>
      <trkpt lat="48.8171" lon="2.42226">
        <ele>16</ele>
        <time>2020-07-22T17:39:00Z</time>
      </trkpt>
      <trkpt lat="48.81711" lon="2.42227">
        <ele>16</ele>
        <time>2020-07-22T17:39:01Z</time>
      </trkpt>
      <trkpt lat="48.81712" lon="2.42229">
        <ele>16</ele>
        <time>2020-07-22T17:39:02Z</time>
      </trkpt>
      <trkpt lat="48.81712" lon="2.4223">
        <ele>16</ele>
        <time>2020-07-22T17:39:03Z</time>
      </trkpt>
      <trkpt lat="48.81714" lon="2.42231">
        <ele>16</ele>
        <time>2020-07-22T17:39:04Z</time>
      </trkpt>
      <trkpt lat="48.81715" lon="2.42233">
        <ele>16</ele>
        <time>2020-07-22T17:39:05Z</time>
      </trkpt>
      <trkpt lat="48.81716" lon="2.42234">
        <ele>16</ele>
        <time>2020-07-22T17:39:06Z</time>
      </trkpt>
      <trkpt lat="48.81717" lon="2.42235">
        <ele>16</ele>
        <time>2020-07-22T17:39:07Z</time>
      </trkpt>
      <trkpt lat="48.81718" lon="2.42236">
        <ele>16</ele>
        <time>2020-07-22T17:39:08Z</time>
      </trkpt>
      <trkpt lat="48.8172" lon="2.42237">
        <ele>16</ele>
        <time>2020-07-22T17:39:09Z</time>
      </trkpt>
      <trkpt lat="48.81721" lon="2.42238">
        <ele>16</ele>
        <time>2020-07-22T17:39:10Z</time>
      </trkpt>
      <trkpt lat="48.81722" lon="2.42239">
        <ele>16</ele>
        <time>2020-07-22T17:39:11Z</time>
      </trkpt>
      <trkpt lat="48.81723" lon="2.42241">
        <ele>16</ele>
        <time>2020-07-22T17:39:12Z</time>
      </trkpt>
      <trkpt lat="48.81725" lon="2.42242">
        <ele>16</ele>
        <time>2020-07-22T17:39:13Z</time>
      </trkpt>
      <trkpt lat="48.81726" lon="2.42244">
        <ele>16</ele>
        <time>2020-07-22T17:39:14Z</time>
      </trkpt>
      <trkpt lat="48.81727" lon="2.42246">
        <ele>16</ele>
        <time>2020-07-22T17:39:15Z</time>
      </trkpt>
      <trkpt lat="48.81728" lon="2.42249">
        <ele>16</ele>
        <time>2020-07-22T17:39:16Z</time>
      </trkpt>
      <trkpt lat="48.81729" lon="2.42251">
        <ele>16</ele>
        <time>2020-07-22T17:39:17Z</time>
      </trkpt>
      <trkpt lat="48.81729" lon="2.42254">
        <ele>17</ele>
        <time>2020-07-22T17:39:18Z</time>
      </trkpt>
      <trkpt lat="48.81729" lon="2.42256">
        <ele>17</ele>
        <time>2020-07-22T17:39:19Z</time>
      </trkpt>
      <trkpt lat="48.81729" lon="2.42259">
        <ele>17</ele>
        <time>2020-07-22T17:39:20Z</time>
      </trkpt>
      <trkpt lat="48.81729" lon="2.42262">
        <ele>17</ele>
        <time>2020-07-22T17:39:21Z</time>
      </trkpt>
      <trkpt lat="48.81729" lon="2.42264">
        <ele>17</ele>
        <time>2020-07-22T17:39:22Z</time>
      </trkpt>
      <trkpt lat="48.81729" lon="2.42266">
        <ele>17</ele>
        <time>2020-07-22T17:39:23Z</time>
      </trkpt>
      <trkpt lat="48.81729" lon="2.42268">
        <ele>17</ele>
        <time>2020-07-22T17:39:24Z</time>
      </trkpt>
      <trkpt lat="48.81728" lon="2.4227">
        <ele>17</ele>
        <time>2020-07-22T17:39:25Z</time>
      </trkpt>
      <trkpt lat="48.81728" lon="2.42272">
        <ele>17</ele>
        <time>2020-07-22T17:39:26Z</time>
      </trkpt>
      <trkpt lat="48.81728" lon="2.42274">
        <ele>17</ele>
        <time>2020-07-22T17:39:27Z</time>
      </trkpt>
      <trkpt lat="48.81728" lon="2.42275">
        <ele>18</ele>
        <time>2020-07-22T17:39:28Z</time>
      </trkpt>
      <trkpt lat="48.81728" lon="2.42277">
        <ele>18</ele>
        <time>2020-07-22T17:39:29Z</time>
      </trkpt>
      <trkpt lat="48.81727" lon="2.42279">
        <ele>18</ele>
        <time>2020-07-22T17:39:30Z</time>
      </trkpt>
      <trkpt lat="48.81727" lon="2.4228">
        <ele>18</ele>
        <time>2020-07-22T17:39:31Z</time>
      </trkpt>
      <trkpt lat="48.81726" lon="2.42282">
        <ele>18</ele>
        <time>2020-07-22T17:39:32Z</time>
      </trkpt>
      <trkpt lat="48.81725" lon="2.42284">
        <ele>18</ele>
        <time>2020-07-22T17:39:33Z</time>
      </trkpt>
      <trkpt lat="48.81725" lon="2.42286">
        <ele>18</ele>
        <time>2020-07-22T17:39:34Z</time>
      </trkpt>
      <trkpt lat="48.81724" lon="2.42288">
        <ele>18</ele>
        <time>2020-07-22T17:39:35Z</time>
      </trkpt>
      <trkpt lat="48.81724" lon="2.42289">
        <ele>18</ele>
        <time>2020-07-22T17:39:36Z</time>
      </trkpt>
      <trkpt lat="48.81723" lon="2.42291">
        <ele>18</ele>
        <time>2020-07-22T17:39:37Z</time>
      </trkpt>
      <trkpt lat="48.81723" lon="2.42293">
        <ele>18</ele>
        <time>2020-07-22T17:39:38Z</time>
      </trkpt>
      <trkpt lat="48.81722" lon="2.42295">
        <ele>18</ele>
        <time>2020-07-22T17:39:39Z</time>
      </trkpt>
      <trkpt lat="48.81722" lon="2.42296">
        <ele>18</ele>
        <time>2020-07-22T17:39:40Z</time>
      </trkpt>
      <trkpt lat="48.81722" lon="2.42298">
        <ele>18</ele>
        <time>2020-07-22T17:39:41Z</time>
      </trkpt>
      <trkpt lat="48.81721" lon="2.42299">
        <ele>18</ele>
        <time>2020-07-22T17:39:42Z</time>
      </trkpt>
      <trkpt lat="48.81721" lon="2.42301">
        <ele>18</ele>
        <time>2020-07-22T17:39:43Z</time>
      </trkpt>
      <trkpt lat="48.8172" lon="2.42302">
        <ele>18</ele>
        <time>2020-07-22T17:39:44Z</time>
      </trkpt>
      <trkpt lat="48.81719" lon="2.42304">
        <ele>18</ele>
        <time>2020-07-22T17:39:45Z</time>
      </trkpt>
      <trkpt lat="48.81719" lon="2.42306">
        <ele>18</ele>
        <time>2020-07-22T17:39:46Z</time>
      </trkpt>
      <trkpt lat="48.81719" lon="2.42307">
        <ele>18</ele>
        <time>2020-07-22T17:39:47Z</time>
      </trkpt>
      <trkpt lat="48.81718" lon="2.42309">
        <ele>18</ele>
        <time>2020-07-22T17:39:48Z</time>
      </trkpt>
      <trkpt lat="48.81718" lon="2.42311">
        <ele>18</ele>
        <time>2020-07-22T17:39:49Z</time>
      </trkpt>
      <trkpt lat="48.81717" lon="2.42312">
        <ele>18</ele>
        <time>2020-07-22T17:39:50Z</time>
      </trkpt>
      <trkpt lat="48.81717" lon="2.42314">
        <ele>18</ele>
        <time>2020-07-22T17:39:51Z</time>
      </trkpt>
      <trkpt lat="48.81716" lon="2.42316">
        <ele>18</ele>
        <time>2020-07-22T17:39:52Z</time>
      </trkpt>
      <trkpt lat="48.81715" lon="2.42317">
        <ele>18</ele>
        <time>2020-07-22T17:39:53Z</time>
      </trkpt>
      <trkpt lat="48.81715" lon="2.42319">
        <ele>18</ele>
        <time>2020-07-22T17:39:54Z</time>
      </trkpt>
      <trkpt lat="48.81715" lon="2.42321">
        <ele>18</ele>
        <time>2020-07-22T17:39:55Z</time>
      </trkpt>
      <trkpt lat="48.81715" lon="2.42323">
        <ele>18</ele>
        <time>2020-07-22T17:39:56Z</time>
      </trkpt>
      <trkpt lat="48.81714" lon="2.42325">
        <ele>18</ele>
        <time>2020-07-22T17:39:57Z</time>
      </trkpt>
      <trkpt lat="48.81714" lon="2.42327">
        <ele>18</ele>
        <time>2020-07-22T17:39:58Z</time>
      </trkpt>
      <trkpt lat="48.81714" lon="2.42329">
        <ele>18</ele>
        <time>2020-07-22T17:39:59Z</time>
      </trkpt>
      <trkpt lat="48.81714" lon="2.42332">
        <ele>18</ele>
        <time>2020-07-22T17:40:00Z</time>
      </trkpt>
      <trkpt lat="48.81714" lon="2.42334">
        <ele>18</ele>
        <time>2020-07-22T17:40:01Z</time>
      </trkpt>
      <trkpt lat="48.81714" lon="2.42336">
        <ele>18</ele>
        <time>2020-07-22T17:40:02Z</time>
      </trkpt>
      <trkpt lat="48.81713" lon="2.42339">
        <ele>18</ele>
        <time>2020-07-22T17:40:03Z</time>
      </trkpt>
      <trkpt lat="48.81713" lon="2.4234">
        <ele>18</ele>
        <time>2020-07-22T17:40:04Z</time>
      </trkpt>
      <trkpt lat="48.81713" lon="2.42342">
        <ele>18</ele>
        <time>2020-07-22T17:40:05Z</time>
      </trkpt>
      <trkpt lat="48.81712" lon="2.42344">
        <ele>18</ele>
        <time>2020-07-22T17:40:06Z</time>
      </trkpt>
      <trkpt lat="48.81712" lon="2.42346">
        <ele>18</ele>
        <time>2020-07-22T17:40:07Z</time>
      </trkpt>
      <trkpt lat="48.81712" lon="2.42348">
        <ele>18</ele>
        <time>2020-07-22T17:40:08Z</time>
      </trkpt>
      <trkpt lat="48.81711" lon="2.4235">
        <ele>18</ele>
        <time>2020-07-22T17:40:09Z</time>
      </trkpt>
      <trkpt lat="48.81711" lon="2.42352">
        <ele>18</ele>
        <time>2020-07-22T17:40:10Z</time>
      </trkpt>
      <trkpt lat="48.8171" lon="2.42354">
        <ele>18</ele>
        <time>2020-07-22T17:40:11Z</time>
      </trkpt>
      <trkpt lat="48.8171" lon="2.42356">
        <ele>18</ele>
        <time>2020-07-22T17:40:12Z</time>
      </trkpt>
      <trkpt lat="48.81709" lon="2.42358">
        <ele>18</ele>
        <time>2020-07-22T17:40:13Z</time>
      </trkpt>
      <trkpt lat="48.81709" lon="2.4236">
        <ele>18</ele>
        <time>2020-07-22T17:40:14Z</time>
      </trkpt>
      <trkpt lat="48.81709" lon="2.42362">
        <ele>18</ele>
        <time>2020-07-22T17:40:15Z</time>
      </trkpt>
      <trkpt lat="48.81709" lon="2.42364">
        <ele>18</ele>
        <time>2020-07-22T17:40:16Z</time>
      </trkpt>
      <trkpt lat="48.81708" lon="2.42366">
        <ele>18</ele>
        <time>2020-07-22T17:40:17Z</time>
      </trkpt>
      <trkpt lat="48.81708" lon="2.42367">
        <ele>18</ele>
        <time>2020-07-22T17:40:18Z</time>
      </trkpt>
      <trkpt lat="48.81707" lon="2.42369">
        <ele>18</ele>
        <time>2020-07-22T17:40:19Z</time>
      </trkpt>
      <trkpt lat="48.81707" lon="2.42371">
        <ele>18</ele>
        <time>2020-07-22T17:40:20Z</time>
      </trkpt>
      <trkpt lat="48.81707" lon="2.42372">
        <ele>18</ele>
        <time>2020-07-22T17:40:21Z</time>
      </trkpt>
      <trkpt lat="48.81707" lon="2.42374">
        <ele>18</ele>
        <time>2020-07-22T17:40:22Z</time>
      </trkpt>
      <trkpt lat="48.81707" lon="2.42376">
        <ele>18</ele>
        <time>2020-07-22T17:40:23Z</time>
      </trkpt>
      <trkpt lat="48.81707" lon="2.42377">
        <ele>18</ele>
        <time>2020-07-22T17:40:24Z</time>
      </trkpt>
      <trkpt lat="48.81707" lon="2.42379">
        <ele>18</ele>
        <time>2020-07-22T17:40:25Z</time>
      </trkpt>
      <trkpt lat="48.81707" lon="2.42381">
        <ele>18</ele>
        <time>2020-07-22T17:40:26Z</time>
      </trkpt>
      <trkpt lat="48.81707" lon="2.42383">
        <ele>18</ele>
        <time>2020-07-22T17:40:27Z</time>
      </trkpt>
      <trkpt lat="48.81707" lon="2.42385">
        <ele>18</ele>
        <time>2020-07-22T17:40:28Z</time>
      </trkpt>
      <trkpt lat="48.81706" lon="2.42387">
        <ele>18</ele>
        <time>2020-07-22T17:40:29Z</time>
      </trkpt>
      <trkpt lat="48.81706" lon="2.4239">
        <ele>18</ele>
        <time>2020-07-22T17:40:30Z</time>
      </trkpt>
      <trkpt lat="48.81706" lon="2.42392">
        <ele>18</ele>
        <time>2020-07-22T17:40:31Z</time>
      </trkpt>
      <trkpt lat="48.81706" lon="2.42395">
        <ele>18</ele>
        <time>2020-07-22T17:40:32Z</time>
      </trkpt>
      <trkpt lat="48.81706" lon="2.42398">
        <ele>18</ele>
        <time>2020-07-22T17:40:33Z</time>
      </trkpt>
      <trkpt lat="48.81706" lon="2.42401">
        <ele>18</ele>
        <time>2020-07-22T17:40:34Z</time>
      </trkpt>
      <trkpt lat="48.81706" lon="2.42404">
        <ele>18</ele>
        <time>2020-07-22T17:40:35Z</time>
      </trkpt>
      <trkpt lat="48.81706" lon="2.42406">
        <ele>18</ele>
        <time>2020-07-22T17:40:36Z</time>
      </trkpt>
      <trkpt lat="48.81706" lon="2.42409">
        <ele>18</ele>
        <time>2020-07-22T17:40:37Z</time>
      </trkpt>
      <trkpt lat="48.81706" lon="2.42411">
        <ele>18</ele>
        <time>2020-07-22T17:40:38Z</time>
      </trkpt>
      <trkpt lat="48.81706" lon="2.42414">
        <ele>18</ele>
        <time>2020-07-22T17:40:39Z</time>
      </trkpt>
      <trkpt lat="48.81706" lon="2.42415">
        <ele>18</ele>
        <time>2020-07-22T17:40:40Z</time>
      </trkpt>
      <trkpt lat="48.81706" lon="2.42417">
        <ele>18</ele>
        <time>2020-07-22T17:40:41Z</time>
      </trkpt>
      <trkpt lat="48.81706" lon="2.42418">
        <ele>18</ele>
        <time>2020-07-22T17:40:42Z</time>
      </trkpt>
      <trkpt lat="48.81706" lon="2.4242">
        <ele>18</ele>
        <time>2020-07-22T17:40:43Z</time>
      </trkpt>
      <trkpt lat="48.81706" lon="2.42421">
        <ele>18</ele>
        <time>2020-07-22T17:40:44Z</time>
      </trkpt>
      <trkpt lat="48.81705" lon="2.42423">
        <ele>18</ele>
        <time>2020-07-22T17:40:45Z</time>
      </trkpt>
      <trkpt lat="48.81706" lon="2.42425">
        <ele>18</ele>
        <time>2020-07-22T17:40:46Z</time>
      </trkpt>
      <trkpt lat="48.81706" lon="2.42427">
        <ele>18</ele>
        <time>2020-07-22T17:40:47Z</time>
      </trkpt>
      <trkpt lat="48.81706" lon="2.42429">
        <ele>18</ele>
        <time>2020-07-22T17:40:48Z</time>
      </trkpt>
      <trkpt lat="48.81706" lon="2.42431">
        <ele>18</ele>
        <time>2020-07-22T17:40:49Z</time>
      </trkpt>
      <trkpt lat="48.81707" lon="2.42432">
        <ele>18</ele>
        <time>2020-07-22T17:40:50Z</time>
      </trkpt>
      <trkpt lat="48.81707" lon="2.42434">
        <ele>18</ele>
        <time>2020-07-22T17:40:51Z</time>
      </trkpt>
      <trkpt lat="48.81707" lon="2.42436">
        <ele>18</ele>
        <time>2020-07-22T17:40:52Z</time>
      </trkpt>
      <trkpt lat="48.81707" lon="2.42438">
        <ele>18</ele>
        <time>2020-07-22T17:40:53Z</time>
      </trkpt>
      <trkpt lat="48.81707" lon="2.4244">
        <ele>18</ele>
        <time>2020-07-22T17:40:54Z</time>
      </trkpt>
      <trkpt lat="48.81707" lon="2.42442">
        <ele>18</ele>
        <time>2020-07-22T17:40:55Z</time>
      </trkpt>
      <trkpt lat="48.81707" lon="2.42443">
        <ele>18</ele>
        <time>2020-07-22T17:40:56Z</time>
      </trkpt>
      <trkpt lat="48.81707" lon="2.42445">
        <ele>18</ele>
        <time>2020-07-22T17:40:57Z</time>
      </trkpt>
      <trkpt lat="48.81708" lon="2.42447">
        <ele>18</ele>
        <time>2020-07-22T17:40:58Z</time>
      </trkpt>
      <trkpt lat="48.81708" lon="2.42449">
        <ele>18</ele>
        <time>2020-07-22T17:40:59Z</time>
      </trkpt>
      <trkpt lat="48.81709" lon="2.42451">
        <ele>18</ele>
        <time>2020-07-22T17:41:00Z</time>
      </trkpt>
      <trkpt lat="48.81709" lon="2.42452">
        <ele>18</ele>
        <time>2020-07-22T17:41:01Z</time>
      </trkpt>
      <trkpt lat="48.8171" lon="2.42454">
        <ele>18</ele>
        <time>2020-07-22T17:41:02Z</time>
      </trkpt>
      <trkpt lat="48.8171" lon="2.42457">
        <ele>18</ele>
        <time>2020-07-22T17:41:03Z</time>
      </trkpt>
      <trkpt lat="48.81711" lon="2.42459">
        <ele>18</ele>
        <time>2020-07-22T17:41:04Z</time>
      </trkpt>
      <trkpt lat="48.81711" lon="2.42462">
        <ele>18</ele>
        <time>2020-07-22T17:41:05Z</time>
      </trkpt>
      <trkpt lat="48.81711" lon="2.42464">
        <ele>18</ele>
        <time>2020-07-22T17:41:06Z</time>
      </trkpt>
      <trkpt lat="48.8171" lon="2.42466">
        <ele>18</ele>
        <time>2020-07-22T17:41:07Z</time>
      </trkpt>
      <trkpt lat="48.8171" lon="2.42468">
        <ele>18</ele>
        <time>2020-07-22T17:41:08Z</time>
      </trkpt>
      <trkpt lat="48.81709" lon="2.4247">
        <ele>18</ele>
        <time>2020-07-22T17:41:09Z</time>
      </trkpt>
      <trkpt lat="48.81709" lon="2.42471">
        <ele>18</ele>
        <time>2020-07-22T17:41:10Z</time>
      </trkpt>
      <trkpt lat="48.81708" lon="2.42473">
        <ele>18</ele>
        <time>2020-07-22T17:41:11Z</time>
      </trkpt>
      <trkpt lat="48.81708" lon="2.42474">
        <ele>18</ele>
        <time>2020-07-22T17:41:12Z</time>
      </trkpt>
      <trkpt lat="48.81707" lon="2.42475">
        <ele>18</ele>
        <time>2020-07-22T17:41:13Z</time>
      </trkpt>
      <trkpt lat="48.81707" lon="2.42476">
        <ele>18</ele>
        <time>2020-07-22T17:41:14Z</time>
      </trkpt>
      <trkpt lat="48.81707" lon="2.42477">
        <ele>18</ele>
        <time>2020-07-22T17:41:15Z</time>
      </trkpt>
      <trkpt lat="48.81707" lon="2.42478">
        <ele>18</ele>
        <time>2020-07-22T17:41:16Z</time>
      </trkpt>
      <trkpt lat="48.81706" lon="2.42479">
        <ele>18</ele>
        <time>2020-07-22T17:41:17Z</time>
      </trkpt>
      <trkpt lat="48.81706" lon="2.4248">
        <ele>18</ele>
        <time>2020-07-22T17:41:18Z</time>
      </trkpt>
      <trkpt lat="48.81706" lon="2.42481">
        <ele>18</ele>
        <time>2020-07-22T17:41:19Z</time>
      </trkpt>
      <trkpt lat="48.81706" lon="2.42483">
        <ele>18</ele>
        <time>2020-07-22T17:41:20Z</time>
      </trkpt>
      <trkpt lat="48.81706" lon="2.42484">
        <ele>18</ele>
        <time>2020-07-22T17:41:21Z</time>
      </trkpt>
      <trkpt lat="48.81706" lon="2.42487">
        <ele>18</ele>
        <time>2020-07-22T17:41:22Z</time>
      </trkpt>
      <trkpt lat="48.81705" lon="2.42489">
        <ele>18</ele>
        <time>2020-07-22T17:41:23Z</time>
      </trkpt>
      <trkpt lat="48.81705" lon="2.42491">
        <ele>18</ele>
        <time>2020-07-22T17:41:24Z</time>
      </trkpt>
      <trkpt lat="48.81704" lon="2.42494">
        <ele>18</ele>
        <time>2020-07-22T17:41:25Z</time>
      </trkpt>
      <trkpt lat="48.81703" lon="2.42496">
        <ele>18</ele>
        <time>2020-07-22T17:41:26Z</time>
      </trkpt>
      <trkpt lat="48.81702" lon="2.42498">
        <ele>18</ele>
        <time>2020-07-22T17:41:27Z</time>
      </trkpt>
      <trkpt lat="48.81702" lon="2.42501">
        <ele>18</ele>
        <time>2020-07-22T17:41:28Z</time>
      </trkpt>
      <trkpt lat="48.81701" lon="2.42503">
        <ele>18</ele>
        <time>2020-07-22T17:41:29Z</time>
      </trkpt>
      <trkpt lat="48.81701" lon="2.42505">
        <ele>18</ele>
        <time>2020-07-22T17:41:30Z</time>
      </trkpt>
      <trkpt lat="48.81701" lon="2.42508">
        <ele>18</ele>
        <time>2020-07-22T17:41:31Z</time>
      </trkpt>
      <trkpt lat="48.81702" lon="2.4251">
        <ele>18</ele>
        <time>2020-07-22T17:41:32Z</time>
      </trkpt>
      <trkpt lat="48.81703" lon="2.42512">
        <ele>18</ele>
        <time>2020-07-22T17:41:33Z</time>
      </trkpt>
      <trkpt lat="48.81703" lon="2.42513">
        <ele>18</ele>
        <time>2020-07-22T17:41:34Z</time>
      </trkpt>
      <trkpt lat="48.81703" lon="2.42515">
        <ele>18</ele>
        <time>2020-07-22T17:41:35Z</time>
      </trkpt>
      <trkpt lat="48.81703" lon="2.42517">
        <ele>18</ele>
        <time>2020-07-22T17:41:36Z</time>
      </trkpt>
      <trkpt lat="48.81703" lon="2.42518">
        <ele>18</ele>
        <time>2020-07-22T17:41:37Z</time>
      </trkpt>
      <trkpt lat="48.81703" lon="2.4252">
        <ele>18</ele>
        <time>2020-07-22T17:41:38Z</time>
      </trkpt>
      <trkpt lat="48.81702" lon="2.42522">
        <ele>18</ele>
        <time>2020-07-22T17:41:39Z</time>
      </trkpt>
      <trkpt lat="48.81702" lon="2.42524">
        <ele>18</ele>
        <time>2020-07-22T17:41:40Z</time>
      </trkpt>
      <trkpt lat="48.81701" lon="2.42526">
        <ele>18</ele>
        <time>2020-07-22T17:41:41Z</time>
      </trkpt>
      <trkpt lat="48.81701" lon="2.42528">
        <ele>18</ele>
        <time>2020-07-22T17:41:42Z</time>
      </trkpt>
      <trkpt lat="48.817" lon="2.4253">
        <ele>18</ele>
        <time>2020-07-22T17:41:43Z</time>
      </trkpt>
      <trkpt lat="48.81699" lon="2.42533">
        <ele>18</ele>
        <time>2020-07-22T17:41:44Z</time>
      </trkpt>
      <trkpt lat="48.81698" lon="2.42536">
        <ele>18</ele>
        <time>2020-07-22T17:41:45Z</time>
      </trkpt>
      <trkpt lat="48.81696" lon="2.42538">
        <ele>18</ele>
        <time>2020-07-22T17:41:46Z</time>
      </trkpt>
      <trkpt lat="48.81695" lon="2.42541">
        <ele>18</ele>
        <time>2020-07-22T17:41:47Z</time>
      </trkpt>
      <trkpt lat="48.81694" lon="2.42544">
        <ele>18</ele>
        <time>2020-07-22T17:41:48Z</time>
      </trkpt>
      <trkpt lat="48.81693" lon="2.42546">
        <ele>17</ele>
        <time>2020-07-22T17:41:49Z</time>
      </trkpt>
      <trkpt lat="48.81692" lon="2.42549">
        <ele>17</ele>
        <time>2020-07-22T17:41:50Z</time>
      </trkpt>
      <trkpt lat="48.81691" lon="2.42551">
        <ele>17</ele>
        <time>2020-07-22T17:41:51Z</time>
      </trkpt>
      <trkpt lat="48.8169" lon="2.42553">
        <ele>17</ele>
        <time>2020-07-22T17:41:52Z</time>
      </trkpt>
      <trkpt lat="48.8169" lon="2.42556">
        <ele>17</ele>
        <time>2020-07-22T17:41:53Z</time>
      </trkpt>
      <trkpt lat="48.81689" lon="2.42557">
        <ele>17</ele>
        <time>2020-07-22T17:41:54Z</time>
      </trkpt>
      <trkpt lat="48.81688" lon="2.42559">
        <ele>17</ele>
        <time>2020-07-22T17:41:55Z</time>
      </trkpt>
      <trkpt lat="48.81688" lon="2.42561">
        <ele>17</ele>
        <time>2020-07-22T17:41:56Z</time>
      </trkpt>
      <trkpt lat="48.81688" lon="2.42563">
        <ele>17</ele>
        <time>2020-07-22T17:41:57Z</time>
      </trkpt>
      <trkpt lat="48.81687" lon="2.42565">
        <ele>17</ele>
        <time>2020-07-22T17:41:58Z</time>
      </trkpt>
      <trkpt lat="48.81687" lon="2.42567">
        <ele>17</ele>
        <time>2020-07-22T17:41:59Z</time>
      </trkpt>
      <trkpt lat="48.81686" lon="2.42569">
        <ele>17</ele>
        <time>2020-07-22T17:42:00Z</time>
      </trkpt>
      <trkpt lat="48.81686" lon="2.42572">
        <ele>17</ele>
        <time>2020-07-22T17:42:01Z</time>
      </trkpt>
      <trkpt lat="48.81686" lon="2.42574">
        <ele>17</ele>
        <time>2020-07-22T17:42:02Z</time>
      </trkpt>
      <trkpt lat="48.81686" lon="2.42577">
        <ele>17</ele>
        <time>2020-07-22T17:42:03Z</time>
      </trkpt>
      <trkpt lat="48.81686" lon="2.42579">
        <ele>17</ele>
        <time>2020-07-22T17:42:04Z</time>
      </trkpt>
      <trkpt lat="48.81686" lon="2.42582">
        <ele>17</ele>
        <time>2020-07-22T17:42:05Z</time>
      </trkpt>
      <trkpt lat="48.81687" lon="2.42584">
        <ele>17</ele>
        <time>2020-07-22T17:42:06Z</time>
      </trkpt>
      <trkpt lat="48.81688" lon="2.42586">
        <ele>17</ele>
        <time>2020-07-22T17:42:07Z</time>
      </trkpt>
      <trkpt lat="48.81688" lon="2.42588">
        <ele>17</ele>
        <time>2020-07-22T17:42:08Z</time>
      </trkpt>
      <trkpt lat="48.81689" lon="2.4259">
        <ele>17</ele>
        <time>2020-07-22T17:42:09Z</time>
      </trkpt>
      <trkpt lat="48.8169" lon="2.42592">
        <ele>17</ele>
        <time>2020-07-22T17:42:10Z</time>
      </trkpt>
      <trkpt lat="48.81691" lon="2.42594">
        <ele>17</ele>
        <time>2020-07-22T17:42:11Z</time>
      </trkpt>
      <trkpt lat="48.81691" lon="2.42595">
        <ele>17</ele>
        <time>2020-07-22T17:42:12Z</time>
      </trkpt>
      <trkpt lat="48.81692" lon="2.42597">
        <ele>17</ele>
        <time>2020-07-22T17:42:13Z</time>
      </trkpt>
      <trkpt lat="48.81693" lon="2.42599">
        <ele>17</ele>
        <time>2020-07-22T17:42:14Z</time>
      </trkpt>
      <trkpt lat="48.81693" lon="2.42601">
        <ele>17</ele>
        <time>2020-07-22T17:42:15Z</time>
      </trkpt>
      <trkpt lat="48.81693" lon="2.42603">
        <ele>17</ele>
        <time>2020-07-22T17:42:16Z</time>
      </trkpt>
      <trkpt lat="48.81693" lon="2.42604">
        <ele>17</ele>
        <time>2020-07-22T17:42:17Z</time>
      </trkpt>
      <trkpt lat="48.81694" lon="2.42606">
        <ele>17</ele>
        <time>2020-07-22T17:42:18Z</time>
      </trkpt>
      <trkpt lat="48.81694" lon="2.42608">
        <ele>17</ele>
        <time>2020-07-22T17:42:19Z</time>
      </trkpt>
      <trkpt lat="48.81694" lon="2.4261">
        <ele>17</ele>
        <time>2020-07-22T17:42:20Z</time>
      </trkpt>
      <trkpt lat="48.81694" lon="2.42612">
        <ele>17</ele>
        <time>2020-07-22T17:42:21Z</time>
      </trkpt>
      <trkpt lat="48.81694" lon="2.42614">
        <ele>17</ele>
        <time>2020-07-22T17:42:22Z</time>
      </trkpt>
      <trkpt lat="48.81695" lon="2.42616">
        <ele>17</ele>
        <time>2020-07-22T17:42:23Z</time>
      </trkpt>
      <trkpt lat="48.81695" lon="2.42619">
        <ele>17</ele>
        <time>2020-07-22T17:42:24Z</time>
      </trkpt>
      <trkpt lat="48.81695" lon="2.42621">
        <ele>17</ele>
        <time>2020-07-22T17:42:25Z</time>
      </trkpt>
      <trkpt lat="48.81695" lon="2.42623">
        <ele>17</ele>
        <time>2020-07-22T17:42:26Z</time>
      </trkpt>
      <trkpt lat="48.81695" lon="2.42625">
        <ele>17</ele>
        <time>2020-07-22T17:42:27Z</time>
      </trkpt>
      <trkpt lat="48.81695" lon="2.42627">
        <ele>17</ele>
        <time>2020-07-22T17:42:28Z</time>
      </trkpt>
      <trkpt lat="48.81695" lon="2.4263">
        <ele>17</ele>
        <time>2020-07-22T17:42:29Z</time>
      </trkpt>
      <trkpt lat="48.81695" lon="2.42632">
        <ele>17</ele>
        <time>2020-07-22T17:42:30Z</time>
      </trkpt>
      <trkpt lat="48.81695" lon="2.42634">
        <ele>17</ele>
        <time>2020-07-22T17:42:31Z</time>
      </trkpt>
      <trkpt lat="48.81695" lon="2.42636">
        <ele>17</ele>
        <time>2020-07-22T17:42:32Z</time>
      </trkpt>
      <trkpt lat="48.81695" lon="2.42639">
        <ele>17</ele>
        <time>2020-07-22T17:42:33Z</time>
      </trkpt>
      <trkpt lat="48.81695" lon="2.4264">
        <ele>17</ele>
        <time>2020-07-22T17:42:34Z</time>
      </trkpt>
      <trkpt lat="48.81696" lon="2.42642">
        <ele>17</ele>
        <time>2020-07-22T17:42:35Z</time>
      </trkpt>
      <trkpt lat="48.81696" lon="2.42644">
        <ele>17</ele>
        <time>2020-07-22T17:42:36Z</time>
      </trkpt>
      <trkpt lat="48.81696" lon="2.42646">
        <ele>17</ele>
        <time>2020-07-22T17:42:37Z</time>
      </trkpt>
      <trkpt lat="48.81696" lon="2.42648">
        <ele>17</ele>
        <time>2020-07-22T17:42:38Z</time>
      </trkpt>
      <trkpt lat="48.81697" lon="2.4265">
        <ele>17</ele>
        <time>2020-07-22T17:42:39Z</time>
      </trkpt>
      <trkpt lat="48.81697" lon="2.42652">
        <ele>17</ele>
        <time>2020-07-22T17:42:40Z</time>
      </trkpt>
      <trkpt lat="48.81697" lon="2.42654">
        <ele>17</ele>
        <time>2020-07-22T17:42:41Z</time>
      </trkpt>
      <trkpt lat="48.81697" lon="2.42656">
        <ele>17</ele>
        <time>2020-07-22T17:42:42Z</time>
      </trkpt>
      <trkpt lat="48.81698" lon="2.42658">
        <ele>17</ele>
        <time>2020-07-22T17:42:43Z</time>
      </trkpt>
      <trkpt lat="48.81698" lon="2.42659">
        <ele>17</ele>
        <time>2020-07-22T17:42:44Z</time>
      </trkpt>
      <trkpt lat="48.81698" lon="2.42661">
        <ele>17</ele>
        <time>2020-07-22T17:42:45Z</time>
      </trkpt>
      <trkpt lat="48.81698" lon="2.42663">
        <ele>17</ele>
        <time>2020-07-22T17:42:46Z</time>
      </trkpt>
      <trkpt lat="48.81698" lon="2.42665">
        <ele>17</ele>
        <time>2020-07-22T17:42:47Z</time>
      </trkpt>
      <trkpt lat="48.81698" lon="2.42667">
        <ele>17</ele>
        <time>2020-07-22T17:42:48Z</time>
      </trkpt>
      <trkpt lat="48.81698" lon="2.42669">
        <ele>17</ele>
        <time>2020-07-22T17:42:49Z</time>
      </trkpt>
      <trkpt lat="48.81698" lon="2.42671">
        <ele>17</ele>
        <time>2020-07-22T17:42:50Z</time>
      </trkpt>
      <trkpt lat="48.81698" lon="2.42673">
        <ele>17</ele>
        <time>2020-07-22T17:42:51Z</time>
      </trkpt>
      <trkpt lat="48.81698" lon="2.42675">
        <ele>17</ele>
        <time>2020-07-22T17:42:52Z</time>
      </trkpt>
      <trkpt lat="48.81698" lon="2.42678">
        <ele>17</ele>
        <time>2020-07-22T17:42:53Z</time>
      </trkpt>
      <trkpt lat="48.81698" lon="2.4268">
        <ele>17</ele>
        <time>2020-07-22T17:42:54Z</time>
      </trkpt>
      <trkpt lat="48.81698" lon="2.42682">
        <ele>17</ele>
        <time>2020-07-22T17:42:55Z</time>
      </trkpt>
      <trkpt lat="48.81699" lon="2.42684">
        <ele>17</ele>
        <time>2020-07-22T17:42:56Z</time>
      </trkpt>
      <trkpt lat="48.81699" lon="2.42686">
        <ele>17</ele>
        <time>2020-07-22T17:42:57Z</time>
      </trkpt>
      <trkpt lat="48.81699" lon="2.42688">
        <ele>17</ele>
        <time>2020-07-22T17:42:58Z</time>
      </trkpt>
      <trkpt lat="48.81699" lon="2.42689">
        <ele>17</ele>
        <time>2020-07-22T17:42:59Z</time>
      </trkpt>
      <trkpt lat="48.817" lon="2.42691">
        <ele>17</ele>
        <time>2020-07-22T17:43:00Z</time>
      </trkpt>
      <trkpt lat="48.817" lon="2.42693">
        <ele>17</ele>
        <time>2020-07-22T17:43:01Z</time>
      </trkpt>
      <trkpt lat="48.817" lon="2.42695">
        <ele>17</ele>
        <time>2020-07-22T17:43:02Z</time>
      </trkpt>
      <trkpt lat="48.817" lon="2.42698">
        <ele>17</ele>
        <time>2020-07-22T17:43:03Z</time>
      </trkpt>
      <trkpt lat="48.817" lon="2.427">
        <ele>17</ele>
        <time>2020-07-22T17:43:04Z</time>
      </trkpt>
      <trkpt lat="48.817" lon="2.42702">
        <ele>17</ele>
        <time>2020-07-22T17:43:05Z</time>
      </trkpt>
      <trkpt lat="48.817" lon="2.42704">
        <ele>17</ele>
        <time>2020-07-22T17:43:06Z</time>
      </trkpt>
      <trkpt lat="48.81701" lon="2.42706">
        <ele>17</ele>
        <time>2020-07-22T17:43:07Z</time>
      </trkpt>
      <trkpt lat="48.81701" lon="2.42709">
        <ele>17</ele>
        <time>2020-07-22T17:43:08Z</time>
      </trkpt>
      <trkpt lat="48.81701" lon="2.42711">
        <ele>17</ele>
        <time>2020-07-22T17:43:09Z</time>
      </trkpt>
      <trkpt lat="48.817" lon="2.42713">
        <ele>17</ele>
        <time>2020-07-22T17:43:10Z</time>
      </trkpt>
      <trkpt lat="48.817" lon="2.42715">
        <ele>17</ele>
        <time>2020-07-22T17:43:11Z</time>
      </trkpt>
      <trkpt lat="48.81699" lon="2.42716">
        <ele>17</ele>
        <time>2020-07-22T17:43:12Z</time>
      </trkpt>
      <trkpt lat="48.81699" lon="2.42718">
        <ele>17</ele>
        <time>2020-07-22T17:43:13Z</time>
      </trkpt>
      <trkpt lat="48.81699" lon="2.42719">
        <ele>17</ele>
        <time>2020-07-22T17:43:14Z</time>
      </trkpt>
      <trkpt lat="48.81699" lon="2.42721">
        <ele>17</ele>
        <time>2020-07-22T17:43:15Z</time>
      </trkpt>
      <trkpt lat="48.81699" lon="2.42722">
        <ele>17</ele>
        <time>2020-07-22T17:43:16Z</time>
      </trkpt>
      <trkpt lat="48.81699" lon="2.42724">
        <ele>17</ele>
        <time>2020-07-22T17:43:17Z</time>
      </trkpt>
      <trkpt lat="48.81699" lon="2.42726">
        <ele>17</ele>
        <time>2020-07-22T17:43:18Z</time>
      </trkpt>
      <trkpt lat="48.81699" lon="2.42727">
        <ele>17</ele>
        <time>2020-07-22T17:43:19Z</time>
      </trkpt>
      <trkpt lat="48.81699" lon="2.42729">
        <ele>17</ele>
        <time>2020-07-22T17:43:20Z</time>
      </trkpt>
      <trkpt lat="48.81699" lon="2.42731">
        <ele>17</ele>
        <time>2020-07-22T17:43:21Z</time>
      </trkpt>
      <trkpt lat="48.81699" lon="2.42732">
        <ele>17</ele>
        <time>2020-07-22T17:43:22Z</time>
      </trkpt>
      <trkpt lat="48.81699" lon="2.42734">
        <ele>17</ele>
        <time>2020-07-22T17:43:23Z</time>
      </trkpt>
      <trkpt lat="48.81699" lon="2.42736">
        <ele>17</ele>
        <time>2020-07-22T17:43:24Z</time>
      </trkpt>
      <trkpt lat="48.81699" lon="2.42738">
        <ele>17</ele>
        <time>2020-07-22T17:43:25Z</time>
      </trkpt>
      <trkpt lat="48.81699" lon="2.4274">
        <ele>17</ele>
        <time>2020-07-22T17:43:26Z</time>
      </trkpt>
      <trkpt lat="48.81699" lon="2.42742">
        <ele>17</ele>
        <time>2020-07-22T17:43:27Z</time>
      </trkpt>
      <trkpt lat="48.81699" lon="2.42745">
        <ele>17</ele>
        <time>2020-07-22T17:43:28Z</time>
      </trkpt>
      <trkpt lat="48.81699" lon="2.42748">
        <ele>17</ele>
        <time>2020-07-22T17:43:29Z</time>
      </trkpt>
      <trkpt lat="48.81699" lon="2.4275">
        <ele>17</ele>
        <time>2020-07-22T17:43:30Z</time>
      </trkpt>
      <trkpt lat="48.81699" lon="2.42752">
        <ele>17</ele>
        <time>2020-07-22T17:43:31Z</time>
      </trkpt>
      <trkpt lat="48.81699" lon="2.42754">
        <ele>17</ele>
        <time>2020-07-22T17:43:32Z</time>
      </trkpt>
      <trkpt lat="48.81699" lon="2.42756">
        <ele>18</ele>
        <time>2020-07-22T17:43:33Z</time>
      </trkpt>
      <trkpt lat="48.81699" lon="2.42758">
        <ele>18</ele>
        <time>2020-07-22T17:43:34Z</time>
      </trkpt>
      <trkpt lat="48.81699" lon="2.4276">
        <ele>18</ele>
        <time>2020-07-22T17:43:35Z</time>
      </trkpt>
      <trkpt lat="48.81699" lon="2.42762">
        <ele>18</ele>
        <time>2020-07-22T17:43:36Z</time>
      </trkpt>
      <trkpt lat="48.81699" lon="2.42764">
        <ele>18</ele>
        <time>2020-07-22T17:43:37Z</time>
      </trkpt>
      <trkpt lat="48.81699" lon="2.42766">
        <ele>18</ele>
        <time>2020-07-22T17:43:38Z</time>
      </trkpt>
      <trkpt lat="48.81699" lon="2.42768">
        <ele>18</ele>
        <time>2020-07-22T17:43:39Z</time>
      </trkpt>
      <trkpt lat="48.81699" lon="2.4277">
        <ele>18</ele>
        <time>2020-07-22T17:43:40Z</time>
      </trkpt>
      <trkpt lat="48.81699" lon="2.42772">
        <ele>18</ele>
        <time>2020-07-22T17:43:41Z</time>
      </trkpt>
      <trkpt lat="48.817" lon="2.42773">
        <ele>18</ele>
        <time>2020-07-22T17:43:42Z</time>
      </trkpt>
      <trkpt lat="48.817" lon="2.42775">
        <ele>18</ele>
        <time>2020-07-22T17:43:43Z</time>
      </trkpt>
      <trkpt lat="48.81699" lon="2.42777">
        <ele>18</ele>
        <time>2020-07-22T17:43:44Z</time>
      </trkpt>
      <trkpt lat="48.81699" lon="2.42779">
        <ele>18</ele>
        <time>2020-07-22T17:43:45Z</time>
      </trkpt>
      <trkpt lat="48.81699" lon="2.4278">
        <ele>18</ele>
        <time>2020-07-22T17:43:46Z</time>
      </trkpt>
      <trkpt lat="48.81699" lon="2.42782">
        <ele>18</ele>
        <time>2020-07-22T17:43:47Z</time>
      </trkpt>
      <trkpt lat="48.81699" lon="2.42784">
        <ele>18</ele>
        <time>2020-07-22T17:43:48Z</time>
      </trkpt>
      <trkpt lat="48.81699" lon="2.42785">
        <ele>18</ele>
        <time>2020-07-22T17:43:49Z</time>
      </trkpt>
      <trkpt lat="48.817" lon="2.42786">
        <ele>18</ele>
        <time>2020-07-22T17:43:50Z</time>
      </trkpt>
      <trkpt lat="48.817" lon="2.42787">
        <ele>18</ele>
        <time>2020-07-22T17:43:51Z</time>
      </trkpt>
      <trkpt lat="48.81701" lon="2.42788">
        <ele>18</ele>
        <time>2020-07-22T17:43:52Z</time>
      </trkpt>
      <trkpt lat="48.81701" lon="2.42789">
        <ele>18</ele>
        <time>2020-07-22T17:43:53Z</time>
      </trkpt>
      <trkpt lat="48.81701" lon="2.4279">
        <ele>18</ele>
        <time>2020-07-22T17:43:54Z</time>
      </trkpt>
      <trkpt lat="48.81702" lon="2.42791">
        <ele>18</ele>
        <time>2020-07-22T17:43:55Z</time>
      </trkpt>
      <trkpt lat="48.81702" lon="2.42792">
        <ele>18</ele>
        <time>2020-07-22T17:43:56Z</time>
      </trkpt>
      <trkpt lat="48.81702" lon="2.42793">
        <ele>18</ele>
        <time>2020-07-22T17:43:57Z</time>
      </trkpt>
      <trkpt lat="48.81703" lon="2.42795">
        <ele>18</ele>
        <time>2020-07-22T17:43:58Z</time>
      </trkpt>
      <trkpt lat="48.81703" lon="2.42797">
        <ele>18</ele>
        <time>2020-07-22T17:43:59Z</time>
      </trkpt>
      <trkpt lat="48.81703" lon="2.42799">
        <ele>18</ele>
        <time>2020-07-22T17:44:00Z</time>
      </trkpt>
      <trkpt lat="48.81703" lon="2.42801">
        <ele>18</ele>
        <time>2020-07-22T17:44:01Z</time>
      </trkpt>
      <trkpt lat="48.81703" lon="2.42803">
        <ele>18</ele>
        <time>2020-07-22T17:44:02Z</time>
      </trkpt>
      <trkpt lat="48.81702" lon="2.42806">
        <ele>18</ele>
        <time>2020-07-22T17:44:03Z</time>
      </trkpt>
      <trkpt lat="48.81702" lon="2.42808">
        <ele>18</ele>
        <time>2020-07-22T17:44:04Z</time>
      </trkpt>
      <trkpt lat="48.81702" lon="2.4281">
        <ele>18</ele>
        <time>2020-07-22T17:44:05Z</time>
      </trkpt>
      <trkpt lat="48.81701" lon="2.42812">
        <ele>18</ele>
        <time>2020-07-22T17:44:06Z</time>
      </trkpt>
      <trkpt lat="48.81701" lon="2.42814">
        <ele>18</ele>
        <time>2020-07-22T17:44:07Z</time>
      </trkpt>
      <trkpt lat="48.81701" lon="2.42816">
        <ele>18</ele>
        <time>2020-07-22T17:44:08Z</time>
      </trkpt>
      <trkpt lat="48.81701" lon="2.42818">
        <ele>18</ele>
        <time>2020-07-22T17:44:09Z</time>
      </trkpt>
      <trkpt lat="48.81701" lon="2.4282">
        <ele>18</ele>
        <time>2020-07-22T17:44:10Z</time>
      </trkpt>
      <trkpt lat="48.81701" lon="2.42821">
        <ele>18</ele>
        <time>2020-07-22T17:44:11Z</time>
      </trkpt>
      <trkpt lat="48.81701" lon="2.42823">
        <ele>18</ele>
        <time>2020-07-22T17:44:12Z</time>
      </trkpt>
      <trkpt lat="48.81701" lon="2.42825">
        <ele>19</ele>
        <time>2020-07-22T17:44:13Z</time>
      </trkpt>
      <trkpt lat="48.81702" lon="2.42827">
        <ele>18</ele>
        <time>2020-07-22T17:44:14Z</time>
      </trkpt>
      <trkpt lat="48.81702" lon="2.42829">
        <ele>18</ele>
        <time>2020-07-22T17:44:15Z</time>
      </trkpt>
      <trkpt lat="48.81702" lon="2.42831">
        <ele>18</ele>
        <time>2020-07-22T17:44:16Z</time>
      </trkpt>
      <trkpt lat="48.81702" lon="2.42833">
        <ele>18</ele>
        <time>2020-07-22T17:44:17Z</time>
      </trkpt>
      <trkpt lat="48.81702" lon="2.42835">
        <ele>18</ele>
        <time>2020-07-22T17:44:18Z</time>
      </trkpt>
      <trkpt lat="48.81703" lon="2.42837">
        <ele>18</ele>
        <time>2020-07-22T17:44:19Z</time>
      </trkpt>
      <trkpt lat="48.81703" lon="2.4284">
        <ele>18</ele>
        <time>2020-07-22T17:44:20Z</time>
      </trkpt>
      <trkpt lat="48.81704" lon="2.42843">
        <ele>18</ele>
        <time>2020-07-22T17:44:21Z</time>
      </trkpt>
      <trkpt lat="48.81704" lon="2.42846">
        <ele>18</ele>
        <time>2020-07-22T17:44:22Z</time>
      </trkpt>
      <trkpt lat="48.81705" lon="2.42849">
        <ele>19</ele>
        <time>2020-07-22T17:44:23Z</time>
      </trkpt>
      <trkpt lat="48.81706" lon="2.42852">
        <ele>19</ele>
        <time>2020-07-22T17:44:24Z</time>
      </trkpt>
      <trkpt lat="48.81706" lon="2.42855">
        <ele>19</ele>
        <time>2020-07-22T17:44:25Z</time>
      </trkpt>
      <trkpt lat="48.81706" lon="2.42857">
        <ele>19</ele>
        <time>2020-07-22T17:44:26Z</time>
      </trkpt>
      <trkpt lat="48.81706" lon="2.42859">
        <ele>19</ele>
        <time>2020-07-22T17:44:27Z</time>
      </trkpt>
      <trkpt lat="48.81706" lon="2.42861">
        <ele>19</ele>
        <time>2020-07-22T17:44:28Z</time>
      </trkpt>
      <trkpt lat="48.81706" lon="2.42864">
        <ele>19</ele>
        <time>2020-07-22T17:44:29Z</time>
      </trkpt>
      <trkpt lat="48.81705" lon="2.42866">
        <ele>19</ele>
        <time>2020-07-22T17:44:30Z</time>
      </trkpt>
      <trkpt lat="48.81705" lon="2.42868">
        <ele>19</ele>
        <time>2020-07-22T17:44:31Z</time>
      </trkpt>
      <trkpt lat="48.81705" lon="2.4287">
        <ele>19</ele>
        <time>2020-07-22T17:44:32Z</time>
      </trkpt>
      <trkpt lat="48.81705" lon="2.42872">
        <ele>19</ele>
        <time>2020-07-22T17:44:33Z</time>
      </trkpt>
      <trkpt lat="48.81704" lon="2.42874">
        <ele>19</ele>
        <time>2020-07-22T17:44:34Z</time>
      </trkpt>
      <trkpt lat="48.81704" lon="2.42876">
        <ele>19</ele>
        <time>2020-07-22T17:44:35Z</time>
      </trkpt>
      <trkpt lat="48.81704" lon="2.42878">
        <ele>19</ele>
        <time>2020-07-22T17:44:36Z</time>
      </trkpt>
      <trkpt lat="48.81703" lon="2.42881">
        <ele>19</ele>
        <time>2020-07-22T17:44:37Z</time>
      </trkpt>
      <trkpt lat="48.81703" lon="2.42883">
        <ele>19</ele>
        <time>2020-07-22T17:44:38Z</time>
      </trkpt>
      <trkpt lat="48.81703" lon="2.42885">
        <ele>19</ele>
        <time>2020-07-22T17:44:39Z</time>
      </trkpt>
      <trkpt lat="48.81703" lon="2.42886">
        <ele>19</ele>
        <time>2020-07-22T17:44:40Z</time>
      </trkpt>
      <trkpt lat="48.81703" lon="2.42888">
        <ele>19</ele>
        <time>2020-07-22T17:44:41Z</time>
      </trkpt>
      <trkpt lat="48.81703" lon="2.42891">
        <ele>19</ele>
        <time>2020-07-22T17:44:42Z</time>
      </trkpt>
      <trkpt lat="48.81702" lon="2.42893">
        <ele>19</ele>
        <time>2020-07-22T17:44:43Z</time>
      </trkpt>
      <trkpt lat="48.81702" lon="2.42895">
        <ele>19</ele>
        <time>2020-07-22T17:44:44Z</time>
      </trkpt>
      <trkpt lat="48.81702" lon="2.42898">
        <ele>19</ele>
        <time>2020-07-22T17:44:45Z</time>
      </trkpt>
      <trkpt lat="48.81702" lon="2.429">
        <ele>19</ele>
        <time>2020-07-22T17:44:46Z</time>
      </trkpt>
      <trkpt lat="48.81702" lon="2.42903">
        <ele>19</ele>
        <time>2020-07-22T17:44:47Z</time>
      </trkpt>
      <trkpt lat="48.81702" lon="2.42906">
        <ele>19</ele>
        <time>2020-07-22T17:44:48Z</time>
      </trkpt>
      <trkpt lat="48.81701" lon="2.42908">
        <ele>19</ele>
        <time>2020-07-22T17:44:49Z</time>
      </trkpt>
      <trkpt lat="48.81701" lon="2.4291">
        <ele>19</ele>
        <time>2020-07-22T17:44:50Z</time>
      </trkpt>
      <trkpt lat="48.81701" lon="2.42913">
        <ele>19</ele>
        <time>2020-07-22T17:44:51Z</time>
      </trkpt>
      <trkpt lat="48.81701" lon="2.42915">
        <ele>19</ele>
        <time>2020-07-22T17:44:52Z</time>
      </trkpt>
      <trkpt lat="48.81701" lon="2.42917">
        <ele>19</ele>
        <time>2020-07-22T17:44:53Z</time>
      </trkpt>
      <trkpt lat="48.81701" lon="2.42919">
        <ele>19</ele>
        <time>2020-07-22T17:44:54Z</time>
      </trkpt>
      <trkpt lat="48.81701" lon="2.42921">
        <ele>19</ele>
        <time>2020-07-22T17:44:55Z</time>
      </trkpt>
      <trkpt lat="48.81701" lon="2.42923">
        <ele>19</ele>
        <time>2020-07-22T17:44:56Z</time>
      </trkpt>
      <trkpt lat="48.81701" lon="2.42925">
        <ele>19</ele>
        <time>2020-07-22T17:44:57Z</time>
      </trkpt>
      <trkpt lat="48.81701" lon="2.42927">
        <ele>19</ele>
        <time>2020-07-22T17:44:58Z</time>
      </trkpt>
      <trkpt lat="48.817" lon="2.42929">
        <ele>19</ele>
        <time>2020-07-22T17:44:59Z</time>
      </trkpt>
      <trkpt lat="48.817" lon="2.42932">
        <ele>19</ele>
        <time>2020-07-22T17:45:00Z</time>
      </trkpt>
      <trkpt lat="48.817" lon="2.42934">
        <ele>19</ele>
        <time>2020-07-22T17:45:01Z</time>
      </trkpt>
      <trkpt lat="48.817" lon="2.42936">
        <ele>19</ele>
        <time>2020-07-22T17:45:02Z</time>
      </trkpt>
      <trkpt lat="48.817" lon="2.42938">
        <ele>19</ele>
        <time>2020-07-22T17:45:03Z</time>
      </trkpt>
      <trkpt lat="48.817" lon="2.4294">
        <ele>19</ele>
        <time>2020-07-22T17:45:04Z</time>
      </trkpt>
      <trkpt lat="48.817" lon="2.42943">
        <ele>19</ele>
        <time>2020-07-22T17:45:05Z</time>
      </trkpt>
      <trkpt lat="48.817" lon="2.42945">
        <ele>19</ele>
        <time>2020-07-22T17:45:06Z</time>
      </trkpt>
      <trkpt lat="48.817" lon="2.42947">
        <ele>19</ele>
        <time>2020-07-22T17:45:07Z</time>
      </trkpt>
      <trkpt lat="48.817" lon="2.42949">
        <ele>19</ele>
        <time>2020-07-22T17:45:08Z</time>
      </trkpt>
      <trkpt lat="48.81699" lon="2.42951">
        <ele>19</ele>
        <time>2020-07-22T17:45:09Z</time>
      </trkpt>
      <trkpt lat="48.81699" lon="2.42953">
        <ele>19</ele>
        <time>2020-07-22T17:45:10Z</time>
      </trkpt>
      <trkpt lat="48.81698" lon="2.42955">
        <ele>19</ele>
        <time>2020-07-22T17:45:11Z</time>
      </trkpt>
      <trkpt lat="48.81697" lon="2.42957">
        <ele>19</ele>
        <time>2020-07-22T17:45:12Z</time>
      </trkpt>
      <trkpt lat="48.81696" lon="2.42959">
        <ele>19</ele>
        <time>2020-07-22T17:45:13Z</time>
      </trkpt>
      <trkpt lat="48.81695" lon="2.42961">
        <ele>19</ele>
        <time>2020-07-22T17:45:14Z</time>
      </trkpt>
      <trkpt lat="48.81694" lon="2.42963">
        <ele>19</ele>
        <time>2020-07-22T17:45:15Z</time>
      </trkpt>
      <trkpt lat="48.81693" lon="2.42965">
        <ele>19</ele>
        <time>2020-07-22T17:45:16Z</time>
      </trkpt>
      <trkpt lat="48.81693" lon="2.42967">
        <ele>19</ele>
        <time>2020-07-22T17:45:17Z</time>
      </trkpt>
      <trkpt lat="48.81691" lon="2.42968">
        <ele>19</ele>
        <time>2020-07-22T17:45:18Z</time>
      </trkpt>
      <trkpt lat="48.81691" lon="2.42969">
        <ele>19</ele>
        <time>2020-07-22T17:45:19Z</time>
      </trkpt>
      <trkpt lat="48.8169" lon="2.42971">
        <ele>19</ele>
        <time>2020-07-22T17:45:20Z</time>
      </trkpt>
      <trkpt lat="48.81689" lon="2.42972">
        <ele>19</ele>
        <time>2020-07-22T17:45:21Z</time>
      </trkpt>
      <trkpt lat="48.81688" lon="2.42974">
        <ele>19</ele>
        <time>2020-07-22T17:45:22Z</time>
      </trkpt>
      <trkpt lat="48.81687" lon="2.42975">
        <ele>19</ele>
        <time>2020-07-22T17:45:23Z</time>
      </trkpt>
      <trkpt lat="48.81686" lon="2.42977">
        <ele>18</ele>
        <time>2020-07-22T17:45:24Z</time>
      </trkpt>
      <trkpt lat="48.81686" lon="2.42978">
        <ele>18</ele>
        <time>2020-07-22T17:45:25Z</time>
      </trkpt>
      <trkpt lat="48.81685" lon="2.4298">
        <ele>18</ele>
        <time>2020-07-22T17:45:26Z</time>
      </trkpt>
      <trkpt lat="48.81685" lon="2.42982">
        <ele>18</ele>
        <time>2020-07-22T17:45:27Z</time>
      </trkpt>
      <trkpt lat="48.81685" lon="2.42984">
        <ele>18</ele>
        <time>2020-07-22T17:45:28Z</time>
      </trkpt>
      <trkpt lat="48.81685" lon="2.42986">
        <ele>17</ele>
        <time>2020-07-22T17:45:29Z</time>
      </trkpt>
      <trkpt lat="48.81685" lon="2.42987">
        <ele>17</ele>
        <time>2020-07-22T17:45:30Z</time>
      </trkpt>
      <trkpt lat="48.81685" lon="2.42989">
        <ele>17</ele>
        <time>2020-07-22T17:45:31Z</time>
      </trkpt>
      <trkpt lat="48.81684" lon="2.42991">
        <ele>17</ele>
        <time>2020-07-22T17:45:32Z</time>
      </trkpt>
      <trkpt lat="48.81683" lon="2.42993">
        <ele>17</ele>
        <time>2020-07-22T17:45:33Z</time>
      </trkpt>
      <trkpt lat="48.81683" lon="2.42994">
        <ele>17</ele>
        <time>2020-07-22T17:45:34Z</time>
      </trkpt>
      <trkpt lat="48.81683" lon="2.42996">
        <ele>17</ele>
        <time>2020-07-22T17:45:35Z</time>
      </trkpt>
      <trkpt lat="48.81682" lon="2.42998">
        <ele>17</ele>
        <time>2020-07-22T17:45:36Z</time>
      </trkpt>
      <trkpt lat="48.81682" lon="2.43">
        <ele>17</ele>
        <time>2020-07-22T17:45:37Z</time>
      </trkpt>
      <trkpt lat="48.81681" lon="2.43002">
        <ele>17</ele>
        <time>2020-07-22T17:45:38Z</time>
      </trkpt>
      <trkpt lat="48.81681" lon="2.43004">
        <ele>16</ele>
        <time>2020-07-22T17:45:39Z</time>
      </trkpt>
      <trkpt lat="48.81681" lon="2.43006">
        <ele>16</ele>
        <time>2020-07-22T17:45:40Z</time>
      </trkpt>
      <trkpt lat="48.81681" lon="2.43007">
        <ele>16</ele>
        <time>2020-07-22T17:45:41Z</time>
      </trkpt>
      <trkpt lat="48.8168" lon="2.43009">
        <ele>16</ele>
        <time>2020-07-22T17:45:42Z</time>
      </trkpt>
      <trkpt lat="48.8168" lon="2.43011">
        <ele>16</ele>
        <time>2020-07-22T17:45:43Z</time>
      </trkpt>
      <trkpt lat="48.8168" lon="2.43013">
        <ele>16</ele>
        <time>2020-07-22T17:45:44Z</time>
      </trkpt>
      <trkpt lat="48.8168" lon="2.43015">
        <ele>16</ele>
        <time>2020-07-22T17:45:45Z</time>
      </trkpt>
      <trkpt lat="48.8168" lon="2.43017">
        <ele>16</ele>
        <time>2020-07-22T17:45:46Z</time>
      </trkpt>
      <trkpt lat="48.8168" lon="2.43019">
        <ele>16</ele>
        <time>2020-07-22T17:45:47Z</time>
      </trkpt>
      <trkpt lat="48.81679" lon="2.43021">
        <ele>16</ele>
        <time>2020-07-22T17:45:48Z</time>
      </trkpt>
      <trkpt lat="48.81679" lon="2.43023">
        <ele>16</ele>
        <time>2020-07-22T17:45:49Z</time>
      </trkpt>
      <trkpt lat="48.81678" lon="2.43025">
        <ele>16</ele>
        <time>2020-07-22T17:45:50Z</time>
      </trkpt>
      <trkpt lat="48.81678" lon="2.43026">
        <ele>16</ele>
        <time>2020-07-22T17:45:51Z</time>
      </trkpt>
      <trkpt lat="48.81677" lon="2.43028">
        <ele>16</ele>
        <time>2020-07-22T17:45:52Z</time>
      </trkpt>
      <trkpt lat="48.81676" lon="2.4303">
        <ele>16</ele>
        <time>2020-07-22T17:45:53Z</time>
      </trkpt>
      <trkpt lat="48.81675" lon="2.43032">
        <ele>16</ele>
        <time>2020-07-22T17:45:54Z</time>
      </trkpt>
      <trkpt lat="48.81675" lon="2.43034">
        <ele>16</ele>
        <time>2020-07-22T17:45:55Z</time>
      </trkpt>
      <trkpt lat="48.81675" lon="2.43036">
        <ele>16</ele>
        <time>2020-07-22T17:45:56Z</time>
      </trkpt>
      <trkpt lat="48.81674" lon="2.43038">
        <ele>16</ele>
        <time>2020-07-22T17:45:57Z</time>
      </trkpt>
      <trkpt lat="48.81673" lon="2.43039">
        <ele>16</ele>
        <time>2020-07-22T17:45:58Z</time>
      </trkpt>
      <trkpt lat="48.81673" lon="2.43041">
        <ele>16</ele>
        <time>2020-07-22T17:45:59Z</time>
      </trkpt>
      <trkpt lat="48.81673" lon="2.43043">
        <ele>16</ele>
        <time>2020-07-22T17:46:00Z</time>
      </trkpt>
      <trkpt lat="48.81672" lon="2.43045">
        <ele>16</ele>
        <time>2020-07-22T17:46:01Z</time>
      </trkpt>
      <trkpt lat="48.81672" lon="2.43047">
        <ele>16</ele>
        <time>2020-07-22T17:46:02Z</time>
      </trkpt>
      <trkpt lat="48.81672" lon="2.43048">
        <ele>16</ele>
        <time>2020-07-22T17:46:03Z</time>
      </trkpt>
      <trkpt lat="48.81671" lon="2.4305">
        <ele>16</ele>
        <time>2020-07-22T17:46:04Z</time>
      </trkpt>
      <trkpt lat="48.81671" lon="2.43052">
        <ele>16</ele>
        <time>2020-07-22T17:46:05Z</time>
      </trkpt>
      <trkpt lat="48.8167" lon="2.43054">
        <ele>16</ele>
        <time>2020-07-22T17:46:06Z</time>
      </trkpt>
      <trkpt lat="48.8167" lon="2.43055">
        <ele>16</ele>
        <time>2020-07-22T17:46:07Z</time>
      </trkpt>
      <trkpt lat="48.8167" lon="2.43057">
        <ele>16</ele>
        <time>2020-07-22T17:46:08Z</time>
      </trkpt>
      <trkpt lat="48.8167" lon="2.43059">
        <ele>16</ele>
        <time>2020-07-22T17:46:09Z</time>
      </trkpt>
      <trkpt lat="48.81669" lon="2.43061">
        <ele>16</ele>
        <time>2020-07-22T17:46:10Z</time>
      </trkpt>
      <trkpt lat="48.81668" lon="2.43063">
        <ele>16</ele>
        <time>2020-07-22T17:46:11Z</time>
      </trkpt>
      <trkpt lat="48.81668" lon="2.43064">
        <ele>16</ele>
        <time>2020-07-22T17:46:12Z</time>
      </trkpt>
      <trkpt lat="48.81667" lon="2.43066">
        <ele>16</ele>
        <time>2020-07-22T17:46:13Z</time>
      </trkpt>
      <trkpt lat="48.81667" lon="2.43068">
        <ele>16</ele>
        <time>2020-07-22T17:46:14Z</time>
      </trkpt>
      <trkpt lat="48.81666" lon="2.4307">
        <ele>16</ele>
        <time>2020-07-22T17:46:15Z</time>
      </trkpt>
      <trkpt lat="48.81666" lon="2.43072">
        <ele>16</ele>
        <time>2020-07-22T17:46:16Z</time>
      </trkpt>
      <trkpt lat="48.81666" lon="2.43075">
        <ele>16</ele>
        <time>2020-07-22T17:46:17Z</time>
      </trkpt>
      <trkpt lat="48.81665" lon="2.43077">
        <ele>16</ele>
        <time>2020-07-22T17:46:18Z</time>
      </trkpt>
      <trkpt lat="48.81665" lon="2.4308">
        <ele>16</ele>
        <time>2020-07-22T17:46:19Z</time>
      </trkpt>
      <trkpt lat="48.81665" lon="2.43082">
        <ele>16</ele>
        <time>2020-07-22T17:46:20Z</time>
      </trkpt>
      <trkpt lat="48.81665" lon="2.43084">
        <ele>16</ele>
        <time>2020-07-22T17:46:21Z</time>
      </trkpt>
      <trkpt lat="48.81664" lon="2.43086">
        <ele>16</ele>
        <time>2020-07-22T17:46:22Z</time>
      </trkpt>
      <trkpt lat="48.81664" lon="2.43088">
        <ele>16</ele>
        <time>2020-07-22T17:46:23Z</time>
      </trkpt>
      <trkpt lat="48.81664" lon="2.4309">
        <ele>16</ele>
        <time>2020-07-22T17:46:24Z</time>
      </trkpt>
      <trkpt lat="48.81664" lon="2.43091">
        <ele>16</ele>
        <time>2020-07-22T17:46:25Z</time>
      </trkpt>
      <trkpt lat="48.81664" lon="2.43093">
        <ele>16</ele>
        <time>2020-07-22T17:46:26Z</time>
      </trkpt>
      <trkpt lat="48.81664" lon="2.43094">
        <ele>16</ele>
        <time>2020-07-22T17:46:27Z</time>
      </trkpt>
      <trkpt lat="48.81664" lon="2.43096">
        <ele>16</ele>
        <time>2020-07-22T17:46:28Z</time>
      </trkpt>
      <trkpt lat="48.81664" lon="2.43097">
        <ele>16</ele>
        <time>2020-07-22T17:46:29Z</time>
      </trkpt>
      <trkpt lat="48.81664" lon="2.43099">
        <ele>16</ele>
        <time>2020-07-22T17:46:30Z</time>
      </trkpt>
      <trkpt lat="48.81665" lon="2.43101">
        <ele>16</ele>
        <time>2020-07-22T17:46:31Z</time>
      </trkpt>
      <trkpt lat="48.81665" lon="2.43102">
        <ele>16</ele>
        <time>2020-07-22T17:46:32Z</time>
      </trkpt>
      <trkpt lat="48.81665" lon="2.43104">
        <ele>16</ele>
        <time>2020-07-22T17:46:33Z</time>
      </trkpt>
      <trkpt lat="48.81664" lon="2.43106">
        <ele>16</ele>
        <time>2020-07-22T17:46:34Z</time>
      </trkpt>
      <trkpt lat="48.81664" lon="2.43108">
        <ele>16</ele>
        <time>2020-07-22T17:46:35Z</time>
      </trkpt>
      <trkpt lat="48.81664" lon="2.4311">
        <ele>16</ele>
        <time>2020-07-22T17:46:36Z</time>
      </trkpt>
      <trkpt lat="48.81664" lon="2.43112">
        <ele>16</ele>
        <time>2020-07-22T17:46:37Z</time>
      </trkpt>
      <trkpt lat="48.81664" lon="2.43114">
        <ele>16</ele>
        <time>2020-07-22T17:46:38Z</time>
      </trkpt>
      <trkpt lat="48.81664" lon="2.43116">
        <ele>16</ele>
        <time>2020-07-22T17:46:39Z</time>
      </trkpt>
      <trkpt lat="48.81664" lon="2.43118">
        <ele>16</ele>
        <time>2020-07-22T17:46:40Z</time>
      </trkpt>
      <trkpt lat="48.81664" lon="2.4312">
        <ele>16</ele>
        <time>2020-07-22T17:46:41Z</time>
      </trkpt>
      <trkpt lat="48.81664" lon="2.43122">
        <ele>16</ele>
        <time>2020-07-22T17:46:42Z</time>
      </trkpt>
      <trkpt lat="48.81664" lon="2.43125">
        <ele>16</ele>
        <time>2020-07-22T17:46:43Z</time>
      </trkpt>
      <trkpt lat="48.81663" lon="2.43127">
        <ele>16</ele>
        <time>2020-07-22T17:46:44Z</time>
      </trkpt>
      <trkpt lat="48.81662" lon="2.43129">
        <ele>16</ele>
        <time>2020-07-22T17:46:45Z</time>
      </trkpt>
      <trkpt lat="48.81662" lon="2.43131">
        <ele>16</ele>
        <time>2020-07-22T17:46:46Z</time>
      </trkpt>
      <trkpt lat="48.81662" lon="2.43133">
        <ele>16</ele>
        <time>2020-07-22T17:46:47Z</time>
      </trkpt>
      <trkpt lat="48.81661" lon="2.43136">
        <ele>16</ele>
        <time>2020-07-22T17:46:48Z</time>
      </trkpt>
      <trkpt lat="48.81661" lon="2.43138">
        <ele>16</ele>
        <time>2020-07-22T17:46:49Z</time>
      </trkpt>
      <trkpt lat="48.81661" lon="2.4314">
        <ele>16</ele>
        <time>2020-07-22T17:46:50Z</time>
      </trkpt>
      <trkpt lat="48.81661" lon="2.43141">
        <ele>16</ele>
        <time>2020-07-22T17:46:51Z</time>
      </trkpt>
      <trkpt lat="48.81661" lon="2.43143">
        <ele>16</ele>
        <time>2020-07-22T17:46:52Z</time>
      </trkpt>
      <trkpt lat="48.81661" lon="2.43144">
        <ele>16</ele>
        <time>2020-07-22T17:46:53Z</time>
      </trkpt>
      <trkpt lat="48.81661" lon="2.43146">
        <ele>16</ele>
        <time>2020-07-22T17:46:54Z</time>
      </trkpt>
      <trkpt lat="48.81661" lon="2.43147">
        <ele>16</ele>
        <time>2020-07-22T17:46:55Z</time>
      </trkpt>
      <trkpt lat="48.81661" lon="2.43149">
        <ele>16</ele>
        <time>2020-07-22T17:46:56Z</time>
      </trkpt>
      <trkpt lat="48.8166" lon="2.4315">
        <ele>16</ele>
        <time>2020-07-22T17:46:57Z</time>
      </trkpt>
      <trkpt lat="48.8166" lon="2.43152">
        <ele>16</ele>
        <time>2020-07-22T17:46:58Z</time>
      </trkpt>
      <trkpt lat="48.8166" lon="2.43154">
        <ele>16</ele>
        <time>2020-07-22T17:46:59Z</time>
      </trkpt>
      <trkpt lat="48.8166" lon="2.43156">
        <ele>16</ele>
        <time>2020-07-22T17:47:00Z</time>
      </trkpt>
      <trkpt lat="48.8166" lon="2.43158">
        <ele>16</ele>
        <time>2020-07-22T17:47:01Z</time>
      </trkpt>
      <trkpt lat="48.8166" lon="2.4316">
        <ele>16</ele>
        <time>2020-07-22T17:47:02Z</time>
      </trkpt>
      <trkpt lat="48.8166" lon="2.43162">
        <ele>16</ele>
        <time>2020-07-22T17:47:03Z</time>
      </trkpt>
      <trkpt lat="48.8166" lon="2.43163">
        <ele>16</ele>
        <time>2020-07-22T17:47:04Z</time>
      </trkpt>
      <trkpt lat="48.8166" lon="2.43165">
        <ele>16</ele>
        <time>2020-07-22T17:47:05Z</time>
      </trkpt>
      <trkpt lat="48.8166" lon="2.43167">
        <ele>16</ele>
        <time>2020-07-22T17:47:06Z</time>
      </trkpt>
      <trkpt lat="48.8166" lon="2.43169">
        <ele>16</ele>
        <time>2020-07-22T17:47:07Z</time>
      </trkpt>
      <trkpt lat="48.8166" lon="2.43171">
        <ele>17</ele>
        <time>2020-07-22T17:47:08Z</time>
      </trkpt>
      <trkpt lat="48.8166" lon="2.43173">
        <ele>17</ele>
        <time>2020-07-22T17:47:09Z</time>
      </trkpt>
      <trkpt lat="48.8166" lon="2.43175">
        <ele>17</ele>
        <time>2020-07-22T17:47:10Z</time>
      </trkpt>
      <trkpt lat="48.8166" lon="2.43177">
        <ele>17</ele>
        <time>2020-07-22T17:47:11Z</time>
      </trkpt>
      <trkpt lat="48.8166" lon="2.43179">
        <ele>17</ele>
        <time>2020-07-22T17:47:12Z</time>
      </trkpt>
      <trkpt lat="48.8166" lon="2.43181">
        <ele>18</ele>
        <time>2020-07-22T17:47:13Z</time>
      </trkpt>
      <trkpt lat="48.8166" lon="2.43183">
        <ele>18</ele>
        <time>2020-07-22T17:47:14Z</time>
      </trkpt>
      <trkpt lat="48.8166" lon="2.43185">
        <ele>18</ele>
        <time>2020-07-22T17:47:15Z</time>
      </trkpt>
      <trkpt lat="48.8166" lon="2.43187">
        <ele>18</ele>
        <time>2020-07-22T17:47:16Z</time>
      </trkpt>
      <trkpt lat="48.8166" lon="2.43189">
        <ele>18</ele>
        <time>2020-07-22T17:47:17Z</time>
      </trkpt>
      <trkpt lat="48.8166" lon="2.43191">
        <ele>18</ele>
        <time>2020-07-22T17:47:18Z</time>
      </trkpt>
      <trkpt lat="48.8166" lon="2.43192">
        <ele>18</ele>
        <time>2020-07-22T17:47:19Z</time>
      </trkpt>
      <trkpt lat="48.81659" lon="2.43194">
        <ele>18</ele>
        <time>2020-07-22T17:47:20Z</time>
      </trkpt>
      <trkpt lat="48.81659" lon="2.43196">
        <ele>18</ele>
        <time>2020-07-22T17:47:21Z</time>
      </trkpt>
      <trkpt lat="48.81659" lon="2.43198">
        <ele>18</ele>
        <time>2020-07-22T17:47:22Z</time>
      </trkpt>
      <trkpt lat="48.81659" lon="2.432">
        <ele>18</ele>
        <time>2020-07-22T17:47:23Z</time>
      </trkpt>
      <trkpt lat="48.81659" lon="2.43202">
        <ele>18</ele>
        <time>2020-07-22T17:47:24Z</time>
      </trkpt>
      <trkpt lat="48.81659" lon="2.43204">
        <ele>18</ele>
        <time>2020-07-22T17:47:25Z</time>
      </trkpt>
      <trkpt lat="48.81659" lon="2.43206">
        <ele>18</ele>
        <time>2020-07-22T17:47:26Z</time>
      </trkpt>
      <trkpt lat="48.81658" lon="2.43208">
        <ele>18</ele>
        <time>2020-07-22T17:47:27Z</time>
      </trkpt>
      <trkpt lat="48.81658" lon="2.4321">
        <ele>18</ele>
        <time>2020-07-22T17:47:28Z</time>
      </trkpt>
      <trkpt lat="48.81658" lon="2.43212">
        <ele>18</ele>
        <time>2020-07-22T17:47:29Z</time>
      </trkpt>
      <trkpt lat="48.81658" lon="2.43214">
        <ele>18</ele>
        <time>2020-07-22T17:47:30Z</time>
      </trkpt>
      <trkpt lat="48.81658" lon="2.43216">
        <ele>18</ele>
        <time>2020-07-22T17:47:31Z</time>
      </trkpt>
      <trkpt lat="48.81658" lon="2.43218">
        <ele>18</ele>
        <time>2020-07-22T17:47:32Z</time>
      </trkpt>
      <trkpt lat="48.81658" lon="2.4322">
        <ele>18</ele>
        <time>2020-07-22T17:47:33Z</time>
      </trkpt>
      <trkpt lat="48.81658" lon="2.43221">
        <ele>18</ele>
        <time>2020-07-22T17:47:34Z</time>
      </trkpt>
      <trkpt lat="48.81658" lon="2.43223">
        <ele>18</ele>
        <time>2020-07-22T17:47:35Z</time>
      </trkpt>
      <trkpt lat="48.81658" lon="2.43225">
        <ele>18</ele>
        <time>2020-07-22T17:47:36Z</time>
      </trkpt>
      <trkpt lat="48.81658" lon="2.43227">
        <ele>18</ele>
        <time>2020-07-22T17:47:37Z</time>
      </trkpt>
      <trkpt lat="48.81658" lon="2.43229">
        <ele>18</ele>
        <time>2020-07-22T17:47:38Z</time>
      </trkpt>
      <trkpt lat="48.81658" lon="2.43231">
        <ele>18</ele>
        <time>2020-07-22T17:47:39Z</time>
      </trkpt>
      <trkpt lat="48.81659" lon="2.43233">
        <ele>18</ele>
        <time>2020-07-22T17:47:40Z</time>
      </trkpt>
      <trkpt lat="48.81659" lon="2.43236">
        <ele>18</ele>
        <time>2020-07-22T17:47:41Z</time>
      </trkpt>
      <trkpt lat="48.8166" lon="2.43238">
        <ele>18</ele>
        <time>2020-07-22T17:47:42Z</time>
      </trkpt>
      <trkpt lat="48.81661" lon="2.43241">
        <ele>18</ele>
        <time>2020-07-22T17:47:43Z</time>
      </trkpt>
      <trkpt lat="48.81661" lon="2.43244">
        <ele>18</ele>
        <time>2020-07-22T17:47:44Z</time>
      </trkpt>
      <trkpt lat="48.81661" lon="2.43246">
        <ele>18</ele>
        <time>2020-07-22T17:47:45Z</time>
      </trkpt>
      <trkpt lat="48.81661" lon="2.43249">
        <ele>18</ele>
        <time>2020-07-22T17:47:46Z</time>
      </trkpt>
      <trkpt lat="48.8166" lon="2.43251">
        <ele>18</ele>
        <time>2020-07-22T17:47:47Z</time>
      </trkpt>
      <trkpt lat="48.8166" lon="2.43253">
        <ele>18</ele>
        <time>2020-07-22T17:47:48Z</time>
      </trkpt>
      <trkpt lat="48.8166" lon="2.43255">
        <ele>18</ele>
        <time>2020-07-22T17:47:49Z</time>
      </trkpt>
      <trkpt lat="48.8166" lon="2.43257">
        <ele>18</ele>
        <time>2020-07-22T17:47:50Z</time>
      </trkpt>
      <trkpt lat="48.8166" lon="2.43258">
        <ele>18</ele>
        <time>2020-07-22T17:47:51Z</time>
      </trkpt>
      <trkpt lat="48.8166" lon="2.4326">
        <ele>18</ele>
        <time>2020-07-22T17:47:52Z</time>
      </trkpt>
      <trkpt lat="48.8166" lon="2.43262">
        <ele>18</ele>
        <time>2020-07-22T17:47:53Z</time>
      </trkpt>
      <trkpt lat="48.81661" lon="2.43264">
        <ele>18</ele>
        <time>2020-07-22T17:47:54Z</time>
      </trkpt>
      <trkpt lat="48.81661" lon="2.43266">
        <ele>18</ele>
        <time>2020-07-22T17:47:55Z</time>
      </trkpt>
      <trkpt lat="48.81661" lon="2.43268">
        <ele>18</ele>
        <time>2020-07-22T17:47:56Z</time>
      </trkpt>
      <trkpt lat="48.81661" lon="2.43271">
        <ele>18</ele>
        <time>2020-07-22T17:47:57Z</time>
      </trkpt>
      <trkpt lat="48.81661" lon="2.43273">
        <ele>18</ele>
        <time>2020-07-22T17:47:58Z</time>
      </trkpt>
      <trkpt lat="48.81661" lon="2.43275">
        <ele>18</ele>
        <time>2020-07-22T17:47:59Z</time>
      </trkpt>
      <trkpt lat="48.81661" lon="2.43277">
        <ele>18</ele>
        <time>2020-07-22T17:48:00Z</time>
      </trkpt>
      <trkpt lat="48.8166" lon="2.43278">
        <ele>18</ele>
        <time>2020-07-22T17:48:01Z</time>
      </trkpt>
      <trkpt lat="48.8166" lon="2.4328">
        <ele>18</ele>
        <time>2020-07-22T17:48:02Z</time>
      </trkpt>
      <trkpt lat="48.8166" lon="2.43282">
        <ele>18</ele>
        <time>2020-07-22T17:48:03Z</time>
      </trkpt>
      <trkpt lat="48.8166" lon="2.43284">
        <ele>18</ele>
        <time>2020-07-22T17:48:04Z</time>
      </trkpt>
      <trkpt lat="48.8166" lon="2.43285">
        <ele>18</ele>
        <time>2020-07-22T17:48:05Z</time>
      </trkpt>
      <trkpt lat="48.8166" lon="2.43287">
        <ele>18</ele>
        <time>2020-07-22T17:48:06Z</time>
      </trkpt>
      <trkpt lat="48.8166" lon="2.43289">
        <ele>18</ele>
        <time>2020-07-22T17:48:07Z</time>
      </trkpt>
      <trkpt lat="48.8166" lon="2.43291">
        <ele>18</ele>
        <time>2020-07-22T17:48:08Z</time>
      </trkpt>
      <trkpt lat="48.8166" lon="2.43293">
        <ele>18</ele>
        <time>2020-07-22T17:48:09Z</time>
      </trkpt>
      <trkpt lat="48.8166" lon="2.43295">
        <ele>18</ele>
        <time>2020-07-22T17:48:10Z</time>
      </trkpt>
      <trkpt lat="48.81659" lon="2.43297">
        <ele>18</ele>
        <time>2020-07-22T17:48:11Z</time>
      </trkpt>
      <trkpt lat="48.81659" lon="2.43299">
        <ele>18</ele>
        <time>2020-07-22T17:48:12Z</time>
      </trkpt>
      <trkpt lat="48.81659" lon="2.43301">
        <ele>18</ele>
        <time>2020-07-22T17:48:13Z</time>
      </trkpt>
      <trkpt lat="48.81659" lon="2.43303">
        <ele>18</ele>
        <time>2020-07-22T17:48:14Z</time>
      </trkpt>
      <trkpt lat="48.81659" lon="2.43304">
        <ele>18</ele>
        <time>2020-07-22T17:48:15Z</time>
      </trkpt>
      <trkpt lat="48.81658" lon="2.43306">
        <ele>18</ele>
        <time>2020-07-22T17:48:16Z</time>
      </trkpt>
      <trkpt lat="48.81658" lon="2.43308">
        <ele>18</ele>
        <time>2020-07-22T17:48:17Z</time>
      </trkpt>
      <trkpt lat="48.81658" lon="2.43309">
        <ele>18</ele>
        <time>2020-07-22T17:48:18Z</time>
      </trkpt>
      <trkpt lat="48.81658" lon="2.43311">
        <ele>18</ele>
        <time>2020-07-22T17:48:19Z</time>
      </trkpt>
      <trkpt lat="48.81658" lon="2.43313">
        <ele>18</ele>
        <time>2020-07-22T17:48:20Z</time>
      </trkpt>
      <trkpt lat="48.81658" lon="2.43315">
        <ele>18</ele>
        <time>2020-07-22T17:48:21Z</time>
      </trkpt>
      <trkpt lat="48.81658" lon="2.43317">
        <ele>18</ele>
        <time>2020-07-22T17:48:22Z</time>
      </trkpt>
      <trkpt lat="48.81658" lon="2.43318">
        <ele>18</ele>
        <time>2020-07-22T17:48:23Z</time>
      </trkpt>
      <trkpt lat="48.81658" lon="2.4332">
        <ele>18</ele>
        <time>2020-07-22T17:48:24Z</time>
      </trkpt>
      <trkpt lat="48.81657" lon="2.43322">
        <ele>18</ele>
        <time>2020-07-22T17:48:25Z</time>
      </trkpt>
      <trkpt lat="48.81657" lon="2.43324">
        <ele>18</ele>
        <time>2020-07-22T17:48:26Z</time>
      </trkpt>
      <trkpt lat="48.81657" lon="2.43326">
        <ele>18</ele>
        <time>2020-07-22T17:48:27Z</time>
      </trkpt>
      <trkpt lat="48.81657" lon="2.43328">
        <ele>18</ele>
        <time>2020-07-22T17:48:28Z</time>
      </trkpt>
      <trkpt lat="48.81657" lon="2.4333">
        <ele>18</ele>
        <time>2020-07-22T17:48:29Z</time>
      </trkpt>
      <trkpt lat="48.81657" lon="2.43332">
        <ele>18</ele>
        <time>2020-07-22T17:48:30Z</time>
      </trkpt>
      <trkpt lat="48.81657" lon="2.43334">
        <ele>18</ele>
        <time>2020-07-22T17:48:31Z</time>
      </trkpt>
      <trkpt lat="48.81657" lon="2.43336">
        <ele>18</ele>
        <time>2020-07-22T17:48:32Z</time>
      </trkpt>
      <trkpt lat="48.81657" lon="2.43338">
        <ele>18</ele>
        <time>2020-07-22T17:48:33Z</time>
      </trkpt>
      <trkpt lat="48.81657" lon="2.4334">
        <ele>18</ele>
        <time>2020-07-22T17:48:34Z</time>
      </trkpt>
      <trkpt lat="48.81657" lon="2.43341">
        <ele>18</ele>
        <time>2020-07-22T17:48:35Z</time>
      </trkpt>
      <trkpt lat="48.81657" lon="2.43343">
        <ele>18</ele>
        <time>2020-07-22T17:48:36Z</time>
      </trkpt>
      <trkpt lat="48.81657" lon="2.43344">
        <ele>18</ele>
        <time>2020-07-22T17:48:37Z</time>
      </trkpt>
      <trkpt lat="48.81658" lon="2.43346">
        <ele>18</ele>
        <time>2020-07-22T17:48:38Z</time>
      </trkpt>
      <trkpt lat="48.81658" lon="2.43347">
        <ele>18</ele>
        <time>2020-07-22T17:48:39Z</time>
      </trkpt>
      <trkpt lat="48.81659" lon="2.43349">
        <ele>18</ele>
        <time>2020-07-22T17:48:40Z</time>
      </trkpt>
      <trkpt lat="48.8166" lon="2.43351">
        <ele>18</ele>
        <time>2020-07-22T17:48:41Z</time>
      </trkpt>
      <trkpt lat="48.81661" lon="2.43353">
        <ele>18</ele>
        <time>2020-07-22T17:48:42Z</time>
      </trkpt>
      <trkpt lat="48.81662" lon="2.43354">
        <ele>18</ele>
        <time>2020-07-22T17:48:43Z</time>
      </trkpt>
      <trkpt lat="48.81662" lon="2.43356">
        <ele>18</ele>
        <time>2020-07-22T17:48:44Z</time>
      </trkpt>
      <trkpt lat="48.81663" lon="2.43358">
        <ele>18</ele>
        <time>2020-07-22T17:48:45Z</time>
      </trkpt>
      <trkpt lat="48.81664" lon="2.43359">
        <ele>18</ele>
        <time>2020-07-22T17:48:46Z</time>
      </trkpt>
      <trkpt lat="48.81664" lon="2.43361">
        <ele>18</ele>
        <time>2020-07-22T17:48:47Z</time>
      </trkpt>
      <trkpt lat="48.81665" lon="2.43362">
        <ele>18</ele>
        <time>2020-07-22T17:48:48Z</time>
      </trkpt>
      <trkpt lat="48.81666" lon="2.43364">
        <ele>18</ele>
        <time>2020-07-22T17:48:49Z</time>
      </trkpt>
      <trkpt lat="48.81667" lon="2.43365">
        <ele>18</ele>
        <time>2020-07-22T17:48:50Z</time>
      </trkpt>
      <trkpt lat="48.81668" lon="2.43366">
        <ele>18</ele>
        <time>2020-07-22T17:48:51Z</time>
      </trkpt>
      <trkpt lat="48.81669" lon="2.43368">
        <ele>18</ele>
        <time>2020-07-22T17:48:52Z</time>
      </trkpt>
      <trkpt lat="48.8167" lon="2.43369">
        <ele>18</ele>
        <time>2020-07-22T17:48:53Z</time>
      </trkpt>
      <trkpt lat="48.8167" lon="2.43371">
        <ele>18</ele>
        <time>2020-07-22T17:48:54Z</time>
      </trkpt>
      <trkpt lat="48.81671" lon="2.43372">
        <ele>18</ele>
        <time>2020-07-22T17:48:55Z</time>
      </trkpt>
      <trkpt lat="48.81672" lon="2.43374">
        <ele>18</ele>
        <time>2020-07-22T17:48:56Z</time>
      </trkpt>
      <trkpt lat="48.81672" lon="2.43375">
        <ele>18</ele>
        <time>2020-07-22T17:48:57Z</time>
      </trkpt>
      <trkpt lat="48.81673" lon="2.43376">
        <ele>18</ele>
        <time>2020-07-22T17:48:58Z</time>
      </trkpt>
      <trkpt lat="48.81674" lon="2.43377">
        <ele>18</ele>
        <time>2020-07-22T17:48:59Z</time>
      </trkpt>
      <trkpt lat="48.81675" lon="2.43378">
        <ele>18</ele>
        <time>2020-07-22T17:49:00Z</time>
      </trkpt>
      <trkpt lat="48.81676" lon="2.4338">
        <ele>18</ele>
        <time>2020-07-22T17:49:01Z</time>
      </trkpt>
      <trkpt lat="48.81677" lon="2.4338">
        <ele>18</ele>
        <time>2020-07-22T17:49:02Z</time>
      </trkpt>
      <trkpt lat="48.81678" lon="2.43381">
        <ele>18</ele>
        <time>2020-07-22T17:49:03Z</time>
      </trkpt>
      <trkpt lat="48.81679" lon="2.43382">
        <ele>18</ele>
        <time>2020-07-22T17:49:04Z</time>
      </trkpt>
      <trkpt lat="48.8168" lon="2.43383">
        <ele>18</ele>
        <time>2020-07-22T17:49:05Z</time>
      </trkpt>
      <trkpt lat="48.8168" lon="2.43385">
        <ele>18</ele>
        <time>2020-07-22T17:49:06Z</time>
      </trkpt>
      <trkpt lat="48.8168" lon="2.43386">
        <ele>18</ele>
        <time>2020-07-22T17:49:07Z</time>
      </trkpt>
      <trkpt lat="48.81681" lon="2.43388">
        <ele>18</ele>
        <time>2020-07-22T17:49:08Z</time>
      </trkpt>
      <trkpt lat="48.81681" lon="2.4339">
        <ele>18</ele>
        <time>2020-07-22T17:49:09Z</time>
      </trkpt>
      <trkpt lat="48.81682" lon="2.43392">
        <ele>18</ele>
        <time>2020-07-22T17:49:10Z</time>
      </trkpt>
      <trkpt lat="48.81683" lon="2.43395">
        <ele>18</ele>
        <time>2020-07-22T17:49:11Z</time>
      </trkpt>
      <trkpt lat="48.81683" lon="2.43397">
        <ele>18</ele>
        <time>2020-07-22T17:49:12Z</time>
      </trkpt>
      <trkpt lat="48.81684" lon="2.43399">
        <ele>18</ele>
        <time>2020-07-22T17:49:13Z</time>
      </trkpt>
      <trkpt lat="48.81685" lon="2.43401">
        <ele>18</ele>
        <time>2020-07-22T17:49:14Z</time>
      </trkpt>
      <trkpt lat="48.81685" lon="2.43403">
        <ele>18</ele>
        <time>2020-07-22T17:49:15Z</time>
      </trkpt>
      <trkpt lat="48.81686" lon="2.43405">
        <ele>18</ele>
        <time>2020-07-22T17:49:16Z</time>
      </trkpt>
      <trkpt lat="48.81687" lon="2.43407">
        <ele>18</ele>
        <time>2020-07-22T17:49:17Z</time>
      </trkpt>
      <trkpt lat="48.81687" lon="2.43409">
        <ele>18</ele>
        <time>2020-07-22T17:49:18Z</time>
      </trkpt>
      <trkpt lat="48.81687" lon="2.43411">
        <ele>18</ele>
        <time>2020-07-22T17:49:19Z</time>
      </trkpt>
      <trkpt lat="48.81687" lon="2.43413">
        <ele>18</ele>
        <time>2020-07-22T17:49:20Z</time>
      </trkpt>
      <trkpt lat="48.81687" lon="2.43415">
        <ele>18</ele>
        <time>2020-07-22T17:49:21Z</time>
      </trkpt>
      <trkpt lat="48.81686" lon="2.43417">
        <ele>18</ele>
        <time>2020-07-22T17:49:22Z</time>
      </trkpt>
      <trkpt lat="48.81686" lon="2.43418">
        <ele>18</ele>
        <time>2020-07-22T17:49:23Z</time>
      </trkpt>
      <trkpt lat="48.81685" lon="2.4342">
        <ele>18</ele>
        <time>2020-07-22T17:49:24Z</time>
      </trkpt>
      <trkpt lat="48.81685" lon="2.43422">
        <ele>18</ele>
        <time>2020-07-22T17:49:25Z</time>
      </trkpt>
      <trkpt lat="48.81685" lon="2.43424">
        <ele>18</ele>
        <time>2020-07-22T17:49:26Z</time>
      </trkpt>
      <trkpt lat="48.81684" lon="2.43426">
        <ele>18</ele>
        <time>2020-07-22T17:49:27Z</time>
      </trkpt>
      <trkpt lat="48.81684" lon="2.43428">
        <ele>18</ele>
        <time>2020-07-22T17:49:28Z</time>
      </trkpt>
      <trkpt lat="48.81684" lon="2.4343">
        <ele>18</ele>
        <time>2020-07-22T17:49:29Z</time>
      </trkpt>
      <trkpt lat="48.81683" lon="2.43432">
        <ele>18</ele>
        <time>2020-07-22T17:49:30Z</time>
      </trkpt>
      <trkpt lat="48.81683" lon="2.43434">
        <ele>18</ele>
        <time>2020-07-22T17:49:31Z</time>
      </trkpt>
      <trkpt lat="48.81683" lon="2.43436">
        <ele>18</ele>
        <time>2020-07-22T17:49:32Z</time>
      </trkpt>
      <trkpt lat="48.81683" lon="2.43438">
        <ele>18</ele>
        <time>2020-07-22T17:49:33Z</time>
      </trkpt>
      <trkpt lat="48.81683" lon="2.4344">
        <ele>18</ele>
        <time>2020-07-22T17:49:34Z</time>
      </trkpt>
      <trkpt lat="48.81683" lon="2.43442">
        <ele>18</ele>
        <time>2020-07-22T17:49:35Z</time>
      </trkpt>
      <trkpt lat="48.81683" lon="2.43444">
        <ele>18</ele>
        <time>2020-07-22T17:49:36Z</time>
      </trkpt>
      <trkpt lat="48.81683" lon="2.43446">
        <ele>18</ele>
        <time>2020-07-22T17:49:37Z</time>
      </trkpt>
      <trkpt lat="48.81683" lon="2.43447">
        <ele>18</ele>
        <time>2020-07-22T17:49:38Z</time>
      </trkpt>
      <trkpt lat="48.81683" lon="2.43448">
        <ele>18</ele>
        <time>2020-07-22T17:49:39Z</time>
      </trkpt>
      <trkpt lat="48.81683" lon="2.4345">
        <ele>18</ele>
        <time>2020-07-22T17:49:40Z</time>
      </trkpt>
      <trkpt lat="48.81683" lon="2.43451">
        <ele>18</ele>
        <time>2020-07-22T17:49:41Z</time>
      </trkpt>
      <trkpt lat="48.81683" lon="2.43453">
        <ele>18</ele>
        <time>2020-07-22T17:49:42Z</time>
      </trkpt>
      <trkpt lat="48.81683" lon="2.43455">
        <ele>18</ele>
        <time>2020-07-22T17:49:43Z</time>
      </trkpt>
      <trkpt lat="48.81683" lon="2.43456">
        <ele>18</ele>
        <time>2020-07-22T17:49:44Z</time>
      </trkpt>
      <trkpt lat="48.81683" lon="2.43458">
        <ele>18</ele>
        <time>2020-07-22T17:49:45Z</time>
      </trkpt>
      <trkpt lat="48.81683" lon="2.4346">
        <ele>18</ele>
        <time>2020-07-22T17:49:46Z</time>
      </trkpt>
      <trkpt lat="48.81683" lon="2.43462">
        <ele>18</ele>
        <time>2020-07-22T17:49:47Z</time>
      </trkpt>
      <trkpt lat="48.81683" lon="2.43464">
        <ele>18</ele>
        <time>2020-07-22T17:49:48Z</time>
      </trkpt>
      <trkpt lat="48.81683" lon="2.43466">
        <ele>18</ele>
        <time>2020-07-22T17:49:49Z</time>
      </trkpt>
      <trkpt lat="48.81684" lon="2.43468">
        <ele>18</ele>
        <time>2020-07-22T17:49:50Z</time>
      </trkpt>
      <trkpt lat="48.81684" lon="2.4347">
        <ele>18</ele>
        <time>2020-07-22T17:49:51Z</time>
      </trkpt>
      <trkpt lat="48.81684" lon="2.43472">
        <ele>18</ele>
        <time>2020-07-22T17:49:52Z</time>
      </trkpt>
      <trkpt lat="48.81685" lon="2.43474">
        <ele>18</ele>
        <time>2020-07-22T17:49:53Z</time>
      </trkpt>
      <trkpt lat="48.81685" lon="2.43476">
        <ele>18</ele>
        <time>2020-07-22T17:49:54Z</time>
      </trkpt>
      <trkpt lat="48.81685" lon="2.43478">
        <ele>18</ele>
        <time>2020-07-22T17:49:55Z</time>
      </trkpt>
      <trkpt lat="48.81685" lon="2.4348">
        <ele>18</ele>
        <time>2020-07-22T17:49:56Z</time>
      </trkpt>
      <trkpt lat="48.81685" lon="2.43482">
        <ele>18</ele>
        <time>2020-07-22T17:49:57Z</time>
      </trkpt>
      <trkpt lat="48.81685" lon="2.43484">
        <ele>18</ele>
        <time>2020-07-22T17:49:58Z</time>
      </trkpt>
      <trkpt lat="48.81685" lon="2.43486">
        <ele>18</ele>
        <time>2020-07-22T17:49:59Z</time>
      </trkpt>
      <trkpt lat="48.81685" lon="2.43488">
        <ele>18</ele>
        <time>2020-07-22T17:50:00Z</time>
      </trkpt>
      <trkpt lat="48.81685" lon="2.43489">
        <ele>18</ele>
        <time>2020-07-22T17:50:01Z</time>
      </trkpt>
      <trkpt lat="48.81685" lon="2.43491">
        <ele>18</ele>
        <time>2020-07-22T17:50:02Z</time>
      </trkpt>
      <trkpt lat="48.81686" lon="2.43493">
        <ele>18</ele>
        <time>2020-07-22T17:50:03Z</time>
      </trkpt>
      <trkpt lat="48.81686" lon="2.43495">
        <ele>18</ele>
        <time>2020-07-22T17:50:04Z</time>
      </trkpt>
      <trkpt lat="48.81686" lon="2.43497">
        <ele>18</ele>
        <time>2020-07-22T17:50:05Z</time>
      </trkpt>
      <trkpt lat="48.81687" lon="2.43498">
        <ele>18</ele>
        <time>2020-07-22T17:50:06Z</time>
      </trkpt>
      <trkpt lat="48.81688" lon="2.435">
        <ele>18</ele>
        <time>2020-07-22T17:50:07Z</time>
      </trkpt>
      <trkpt lat="48.81688" lon="2.43501">
        <ele>18</ele>
        <time>2020-07-22T17:50:08Z</time>
      </trkpt>
      <trkpt lat="48.81689" lon="2.43502">
        <ele>18</ele>
        <time>2020-07-22T17:50:09Z</time>
      </trkpt>
      <trkpt lat="48.8169" lon="2.43504">
        <ele>18</ele>
        <time>2020-07-22T17:50:10Z</time>
      </trkpt>
      <trkpt lat="48.8169" lon="2.43505">
        <ele>18</ele>
        <time>2020-07-22T17:50:11Z</time>
      </trkpt>
      <trkpt lat="48.8169" lon="2.43507">
        <ele>18</ele>
        <time>2020-07-22T17:50:12Z</time>
      </trkpt>
      <trkpt lat="48.81691" lon="2.43509">
        <ele>18</ele>
        <time>2020-07-22T17:50:13Z</time>
      </trkpt>
      <trkpt lat="48.81691" lon="2.4351">
        <ele>18</ele>
        <time>2020-07-22T17:50:14Z</time>
      </trkpt>
      <trkpt lat="48.81692" lon="2.43512">
        <ele>18</ele>
        <time>2020-07-22T17:50:15Z</time>
      </trkpt>
      <trkpt lat="48.81693" lon="2.43514">
        <ele>18</ele>
        <time>2020-07-22T17:50:16Z</time>
      </trkpt>
      <trkpt lat="48.81693" lon="2.43516">
        <ele>18</ele>
        <time>2020-07-22T17:50:17Z</time>
      </trkpt>
      <trkpt lat="48.81694" lon="2.43517">
        <ele>18</ele>
        <time>2020-07-22T17:50:18Z</time>
      </trkpt>
      <trkpt lat="48.81695" lon="2.43519">
        <ele>18</ele>
        <time>2020-07-22T17:50:19Z</time>
      </trkpt>
      <trkpt lat="48.81695" lon="2.43521">
        <ele>18</ele>
        <time>2020-07-22T17:50:20Z</time>
      </trkpt>
      <trkpt lat="48.81696" lon="2.43523">
        <ele>18</ele>
        <time>2020-07-22T17:50:21Z</time>
      </trkpt>
      <trkpt lat="48.81696" lon="2.43525">
        <ele>18</ele>
        <time>2020-07-22T17:50:22Z</time>
      </trkpt>
      <trkpt lat="48.81697" lon="2.43527">
        <ele>18</ele>
        <time>2020-07-22T17:50:23Z</time>
      </trkpt>
      <trkpt lat="48.81698" lon="2.43529">
        <ele>18</ele>
        <time>2020-07-22T17:50:24Z</time>
      </trkpt>
      <trkpt lat="48.81698" lon="2.43531">
        <ele>18</ele>
        <time>2020-07-22T17:50:25Z</time>
      </trkpt>
      <trkpt lat="48.81699" lon="2.43532">
        <ele>18</ele>
        <time>2020-07-22T17:50:26Z</time>
      </trkpt>
      <trkpt lat="48.81699" lon="2.43534">
        <ele>18</ele>
        <time>2020-07-22T17:50:27Z</time>
      </trkpt>
      <trkpt lat="48.81699" lon="2.43536">
        <ele>18</ele>
        <time>2020-07-22T17:50:28Z</time>
      </trkpt>
      <trkpt lat="48.817" lon="2.43537">
        <ele>18</ele>
        <time>2020-07-22T17:50:29Z</time>
      </trkpt>
      <trkpt lat="48.81701" lon="2.43539">
        <ele>18</ele>
        <time>2020-07-22T17:50:30Z</time>
      </trkpt>
      <trkpt lat="48.81701" lon="2.4354">
        <ele>18</ele>
        <time>2020-07-22T17:50:31Z</time>
      </trkpt>
      <trkpt lat="48.81702" lon="2.43542">
        <ele>18</ele>
        <time>2020-07-22T17:50:32Z</time>
      </trkpt>
      <trkpt lat="48.81702" lon="2.43544">
        <ele>18</ele>
        <time>2020-07-22T17:50:33Z</time>
      </trkpt>
      <trkpt lat="48.81703" lon="2.43546">
        <ele>18</ele>
        <time>2020-07-22T17:50:34Z</time>
      </trkpt>
      <trkpt lat="48.81703" lon="2.43548">
        <ele>18</ele>
        <time>2020-07-22T17:50:35Z</time>
      </trkpt>
      <trkpt lat="48.81704" lon="2.4355">
        <ele>18</ele>
        <time>2020-07-22T17:50:36Z</time>
      </trkpt>
      <trkpt lat="48.81705" lon="2.43552">
        <ele>18</ele>
        <time>2020-07-22T17:50:37Z</time>
      </trkpt>
      <trkpt lat="48.81705" lon="2.43554">
        <ele>18</ele>
        <time>2020-07-22T17:50:38Z</time>
      </trkpt>
      <trkpt lat="48.81705" lon="2.43555">
        <ele>18</ele>
        <time>2020-07-22T17:50:39Z</time>
      </trkpt>
      <trkpt lat="48.81706" lon="2.43557">
        <ele>18</ele>
        <time>2020-07-22T17:50:40Z</time>
      </trkpt>
      <trkpt lat="48.81706" lon="2.4356">
        <ele>18</ele>
        <time>2020-07-22T17:50:41Z</time>
      </trkpt>
      <trkpt lat="48.81707" lon="2.43562">
        <ele>18</ele>
        <time>2020-07-22T17:50:42Z</time>
      </trkpt>
      <trkpt lat="48.81707" lon="2.43564">
        <ele>18</ele>
        <time>2020-07-22T17:50:43Z</time>
      </trkpt>
      <trkpt lat="48.81708" lon="2.43566">
        <ele>18</ele>
        <time>2020-07-22T17:50:44Z</time>
      </trkpt>
      <trkpt lat="48.81709" lon="2.43568">
        <ele>18</ele>
        <time>2020-07-22T17:50:45Z</time>
      </trkpt>
      <trkpt lat="48.8171" lon="2.4357">
        <ele>18</ele>
        <time>2020-07-22T17:50:46Z</time>
      </trkpt>
      <trkpt lat="48.81711" lon="2.43572">
        <ele>18</ele>
        <time>2020-07-22T17:50:47Z</time>
      </trkpt>
      <trkpt lat="48.81712" lon="2.43574">
        <ele>18</ele>
        <time>2020-07-22T17:50:48Z</time>
      </trkpt>
      <trkpt lat="48.81713" lon="2.43576">
        <ele>18</ele>
        <time>2020-07-22T17:50:49Z</time>
      </trkpt>
      <trkpt lat="48.81714" lon="2.43578">
        <ele>18</ele>
        <time>2020-07-22T17:50:50Z</time>
      </trkpt>
      <trkpt lat="48.81715" lon="2.4358">
        <ele>18</ele>
        <time>2020-07-22T17:50:51Z</time>
      </trkpt>
      <trkpt lat="48.81716" lon="2.43582">
        <ele>18</ele>
        <time>2020-07-22T17:50:52Z</time>
      </trkpt>
      <trkpt lat="48.81717" lon="2.43585">
        <ele>18</ele>
        <time>2020-07-22T17:50:53Z</time>
      </trkpt>
      <trkpt lat="48.81719" lon="2.43587">
        <ele>18</ele>
        <time>2020-07-22T17:50:54Z</time>
      </trkpt>
      <trkpt lat="48.8172" lon="2.43589">
        <ele>18</ele>
        <time>2020-07-22T17:50:55Z</time>
      </trkpt>
      <trkpt lat="48.81721" lon="2.43591">
        <ele>18</ele>
        <time>2020-07-22T17:50:56Z</time>
      </trkpt>
      <trkpt lat="48.81722" lon="2.43593">
        <ele>18</ele>
        <time>2020-07-22T17:50:57Z</time>
      </trkpt>
      <trkpt lat="48.81723" lon="2.43595">
        <ele>18</ele>
        <time>2020-07-22T17:50:58Z</time>
      </trkpt>
      <trkpt lat="48.81723" lon="2.43597">
        <ele>18</ele>
        <time>2020-07-22T17:50:59Z</time>
      </trkpt>
      <trkpt lat="48.81723" lon="2.43599">
        <ele>18</ele>
        <time>2020-07-22T17:51:00Z</time>
      </trkpt>
      <trkpt lat="48.81724" lon="2.43601">
        <ele>18</ele>
        <time>2020-07-22T17:51:01Z</time>
      </trkpt>
      <trkpt lat="48.81724" lon="2.43603">
        <ele>18</ele>
        <time>2020-07-22T17:51:02Z</time>
      </trkpt>
      <trkpt lat="48.81725" lon="2.43605">
        <ele>18</ele>
        <time>2020-07-22T17:51:03Z</time>
      </trkpt>
      <trkpt lat="48.81725" lon="2.43607">
        <ele>18</ele>
        <time>2020-07-22T17:51:04Z</time>
      </trkpt>
      <trkpt lat="48.81725" lon="2.43608">
        <ele>18</ele>
        <time>2020-07-22T17:51:05Z</time>
      </trkpt>
      <trkpt lat="48.81726" lon="2.4361">
        <ele>18</ele>
        <time>2020-07-22T17:51:06Z</time>
      </trkpt>
      <trkpt lat="48.81727" lon="2.43612">
        <ele>18</ele>
        <time>2020-07-22T17:51:07Z</time>
      </trkpt>
      <trkpt lat="48.81727" lon="2.43614">
        <ele>18</ele>
        <time>2020-07-22T17:51:08Z</time>
      </trkpt>
      <trkpt lat="48.81727" lon="2.43615">
        <ele>18</ele>
        <time>2020-07-22T17:51:09Z</time>
      </trkpt>
      <trkpt lat="48.81727" lon="2.43617">
        <ele>18</ele>
        <time>2020-07-22T17:51:10Z</time>
      </trkpt>
      <trkpt lat="48.81727" lon="2.43619">
        <ele>18</ele>
        <time>2020-07-22T17:51:11Z</time>
      </trkpt>
      <trkpt lat="48.81727" lon="2.43622">
        <ele>18</ele>
        <time>2020-07-22T17:51:12Z</time>
      </trkpt>
      <trkpt lat="48.81727" lon="2.43625">
        <ele>18</ele>
        <time>2020-07-22T17:51:13Z</time>
      </trkpt>
      <trkpt lat="48.81727" lon="2.43627">
        <ele>18</ele>
        <time>2020-07-22T17:51:14Z</time>
      </trkpt>
      <trkpt lat="48.81727" lon="2.4363">
        <ele>18</ele>
        <time>2020-07-22T17:51:15Z</time>
      </trkpt>
      <trkpt lat="48.81727" lon="2.43633">
        <ele>18</ele>
        <time>2020-07-22T17:51:16Z</time>
      </trkpt>
      <trkpt lat="48.81727" lon="2.43637">
        <ele>18</ele>
        <time>2020-07-22T17:51:17Z</time>
      </trkpt>
      <trkpt lat="48.81727" lon="2.43639">
        <ele>18</ele>
        <time>2020-07-22T17:51:18Z</time>
      </trkpt>
      <trkpt lat="48.81727" lon="2.43642">
        <ele>18</ele>
        <time>2020-07-22T17:51:19Z</time>
      </trkpt>
      <trkpt lat="48.81727" lon="2.43645">
        <ele>18</ele>
        <time>2020-07-22T17:51:20Z</time>
      </trkpt>
      <trkpt lat="48.81727" lon="2.43647">
        <ele>18</ele>
        <time>2020-07-22T17:51:21Z</time>
      </trkpt>
      <trkpt lat="48.81727" lon="2.43649">
        <ele>18</ele>
        <time>2020-07-22T17:51:22Z</time>
      </trkpt>
      <trkpt lat="48.81727" lon="2.43652">
        <ele>18</ele>
        <time>2020-07-22T17:51:23Z</time>
      </trkpt>
      <trkpt lat="48.81727" lon="2.43654">
        <ele>18</ele>
        <time>2020-07-22T17:51:24Z</time>
      </trkpt>
      <trkpt lat="48.81727" lon="2.43657">
        <ele>18</ele>
        <time>2020-07-22T17:51:25Z</time>
      </trkpt>
      <trkpt lat="48.81727" lon="2.43659">
        <ele>18</ele>
        <time>2020-07-22T17:51:26Z</time>
      </trkpt>
      <trkpt lat="48.81727" lon="2.43661">
        <ele>18</ele>
        <time>2020-07-22T17:51:27Z</time>
      </trkpt>
      <trkpt lat="48.81727" lon="2.43664">
        <ele>18</ele>
        <time>2020-07-22T17:51:28Z</time>
      </trkpt>
      <trkpt lat="48.81726" lon="2.43666">
        <ele>18</ele>
        <time>2020-07-22T17:51:29Z</time>
      </trkpt>
      <trkpt lat="48.81726" lon="2.43668">
        <ele>18</ele>
        <time>2020-07-22T17:51:30Z</time>
      </trkpt>
      <trkpt lat="48.81726" lon="2.43671">
        <ele>18</ele>
        <time>2020-07-22T17:51:31Z</time>
      </trkpt>
      <trkpt lat="48.81727" lon="2.43673">
        <ele>18</ele>
        <time>2020-07-22T17:51:32Z</time>
      </trkpt>
      <trkpt lat="48.81727" lon="2.43675">
        <ele>18</ele>
        <time>2020-07-22T17:51:33Z</time>
      </trkpt>
      <trkpt lat="48.81727" lon="2.43677">
        <ele>18</ele>
        <time>2020-07-22T17:51:34Z</time>
      </trkpt>
      <trkpt lat="48.81727" lon="2.43679">
        <ele>18</ele>
        <time>2020-07-22T17:51:35Z</time>
      </trkpt>
      <trkpt lat="48.81728" lon="2.43681">
        <ele>18</ele>
        <time>2020-07-22T17:51:36Z</time>
      </trkpt>
      <trkpt lat="48.81728" lon="2.43683">
        <ele>18</ele>
        <time>2020-07-22T17:51:37Z</time>
      </trkpt>
      <trkpt lat="48.81728" lon="2.43685">
        <ele>18</ele>
        <time>2020-07-22T17:51:38Z</time>
      </trkpt>
      <trkpt lat="48.81729" lon="2.43687">
        <ele>18</ele>
        <time>2020-07-22T17:51:39Z</time>
      </trkpt>
      <trkpt lat="48.81729" lon="2.43689">
        <ele>18</ele>
        <time>2020-07-22T17:51:40Z</time>
      </trkpt>
      <trkpt lat="48.81729" lon="2.43691">
        <ele>18</ele>
        <time>2020-07-22T17:51:41Z</time>
      </trkpt>
      <trkpt lat="48.81729" lon="2.43693">
        <ele>18</ele>
        <time>2020-07-22T17:51:42Z</time>
      </trkpt>
      <trkpt lat="48.81728" lon="2.43696">
        <ele>18</ele>
        <time>2020-07-22T17:51:43Z</time>
      </trkpt>
      <trkpt lat="48.81728" lon="2.43698">
        <ele>18</ele>
        <time>2020-07-22T17:51:44Z</time>
      </trkpt>
      <trkpt lat="48.81728" lon="2.437">
        <ele>18</ele>
        <time>2020-07-22T17:51:45Z</time>
      </trkpt>
      <trkpt lat="48.81728" lon="2.43702">
        <ele>18</ele>
        <time>2020-07-22T17:51:46Z</time>
      </trkpt>
      <trkpt lat="48.81727" lon="2.43704">
        <ele>18</ele>
        <time>2020-07-22T17:51:47Z</time>
      </trkpt>
      <trkpt lat="48.81727" lon="2.43706">
        <ele>18</ele>
        <time>2020-07-22T17:51:48Z</time>
      </trkpt>
      <trkpt lat="48.81727" lon="2.43708">
        <ele>18</ele>
        <time>2020-07-22T17:51:49Z</time>
      </trkpt>
      <trkpt lat="48.81727" lon="2.4371">
        <ele>18</ele>
        <time>2020-07-22T17:51:50Z</time>
      </trkpt>
      <trkpt lat="48.81726" lon="2.43713">
        <ele>18</ele>
        <time>2020-07-22T17:51:51Z</time>
      </trkpt>
      <trkpt lat="48.81726" lon="2.43715">
        <ele>18</ele>
        <time>2020-07-22T17:51:52Z</time>
      </trkpt>
      <trkpt lat="48.81725" lon="2.43717">
        <ele>18</ele>
        <time>2020-07-22T17:51:53Z</time>
      </trkpt>
      <trkpt lat="48.81725" lon="2.43719">
        <ele>18</ele>
        <time>2020-07-22T17:51:54Z</time>
      </trkpt>
      <trkpt lat="48.81725" lon="2.43722">
        <ele>18</ele>
        <time>2020-07-22T17:51:55Z</time>
      </trkpt>
      <trkpt lat="48.81725" lon="2.43724">
        <ele>18</ele>
        <time>2020-07-22T17:51:56Z</time>
      </trkpt>
      <trkpt lat="48.81725" lon="2.43726">
        <ele>18</ele>
        <time>2020-07-22T17:51:57Z</time>
      </trkpt>
      <trkpt lat="48.81724" lon="2.43728">
        <ele>18</ele>
        <time>2020-07-22T17:51:58Z</time>
      </trkpt>
      <trkpt lat="48.81724" lon="2.4373">
        <ele>18</ele>
        <time>2020-07-22T17:51:59Z</time>
      </trkpt>
      <trkpt lat="48.81724" lon="2.43732">
        <ele>18</ele>
        <time>2020-07-22T17:52:00Z</time>
      </trkpt>
      <trkpt lat="48.81723" lon="2.43734">
        <ele>18</ele>
        <time>2020-07-22T17:52:01Z</time>
      </trkpt>
      <trkpt lat="48.81723" lon="2.43736">
        <ele>18</ele>
        <time>2020-07-22T17:52:02Z</time>
      </trkpt>
      <trkpt lat="48.81722" lon="2.43738">
        <ele>18</ele>
        <time>2020-07-22T17:52:03Z</time>
      </trkpt>
      <trkpt lat="48.81722" lon="2.4374">
        <ele>18</ele>
        <time>2020-07-22T17:52:04Z</time>
      </trkpt>
      <trkpt lat="48.81722" lon="2.43742">
        <ele>18</ele>
        <time>2020-07-22T17:52:05Z</time>
      </trkpt>
      <trkpt lat="48.81722" lon="2.43744">
        <ele>18</ele>
        <time>2020-07-22T17:52:06Z</time>
      </trkpt>
      <trkpt lat="48.81721" lon="2.43746">
        <ele>18</ele>
        <time>2020-07-22T17:52:07Z</time>
      </trkpt>
      <trkpt lat="48.81721" lon="2.43748">
        <ele>18</ele>
        <time>2020-07-22T17:52:08Z</time>
      </trkpt>
      <trkpt lat="48.81722" lon="2.4375">
        <ele>18</ele>
        <time>2020-07-22T17:52:09Z</time>
      </trkpt>
      <trkpt lat="48.81722" lon="2.43752">
        <ele>18</ele>
        <time>2020-07-22T17:52:10Z</time>
      </trkpt>
      <trkpt lat="48.81722" lon="2.43753">
        <ele>18</ele>
        <time>2020-07-22T17:52:11Z</time>
      </trkpt>
      <trkpt lat="48.81722" lon="2.43755">
        <ele>18</ele>
        <time>2020-07-22T17:52:12Z</time>
      </trkpt>
      <trkpt lat="48.81722" lon="2.43757">
        <ele>18</ele>
        <time>2020-07-22T17:52:13Z</time>
      </trkpt>
      <trkpt lat="48.81722" lon="2.43759">
        <ele>18</ele>
        <time>2020-07-22T17:52:14Z</time>
      </trkpt>
      <trkpt lat="48.81722" lon="2.43761">
        <ele>18</ele>
        <time>2020-07-22T17:52:15Z</time>
      </trkpt>
      <trkpt lat="48.81722" lon="2.43763">
        <ele>18</ele>
        <time>2020-07-22T17:52:16Z</time>
      </trkpt>
      <trkpt lat="48.81722" lon="2.43765">
        <ele>18</ele>
        <time>2020-07-22T17:52:17Z</time>
      </trkpt>
      <trkpt lat="48.81722" lon="2.43767">
        <ele>18</ele>
        <time>2020-07-22T17:52:18Z</time>
      </trkpt>
      <trkpt lat="48.81722" lon="2.43769">
        <ele>18</ele>
        <time>2020-07-22T17:52:19Z</time>
      </trkpt>
      <trkpt lat="48.81722" lon="2.43772">
        <ele>18</ele>
        <time>2020-07-22T17:52:20Z</time>
      </trkpt>
      <trkpt lat="48.81722" lon="2.43774">
        <ele>18</ele>
        <time>2020-07-22T17:52:21Z</time>
      </trkpt>
      <trkpt lat="48.81722" lon="2.43776">
        <ele>18</ele>
        <time>2020-07-22T17:52:22Z</time>
      </trkpt>
      <trkpt lat="48.81722" lon="2.43778">
        <ele>18</ele>
        <time>2020-07-22T17:52:23Z</time>
      </trkpt>
      <trkpt lat="48.81722" lon="2.4378">
        <ele>18</ele>
        <time>2020-07-22T17:52:24Z</time>
      </trkpt>
      <trkpt lat="48.81722" lon="2.43782">
        <ele>18</ele>
        <time>2020-07-22T17:52:25Z</time>
      </trkpt>
      <trkpt lat="48.81721" lon="2.43784">
        <ele>18</ele>
        <time>2020-07-22T17:52:26Z</time>
      </trkpt>
      <trkpt lat="48.81721" lon="2.43786">
        <ele>18</ele>
        <time>2020-07-22T17:52:27Z</time>
      </trkpt>
      <trkpt lat="48.81721" lon="2.43788">
        <ele>18</ele>
        <time>2020-07-22T17:52:28Z</time>
      </trkpt>
      <trkpt lat="48.81721" lon="2.43791">
        <ele>18</ele>
        <time>2020-07-22T17:52:29Z</time>
      </trkpt>
      <trkpt lat="48.81721" lon="2.43793">
        <ele>18</ele>
        <time>2020-07-22T17:52:30Z</time>
      </trkpt>
      <trkpt lat="48.81721" lon="2.43795">
        <ele>18</ele>
        <time>2020-07-22T17:52:31Z</time>
      </trkpt>
      <trkpt lat="48.81721" lon="2.43797">
        <ele>18</ele>
        <time>2020-07-22T17:52:32Z</time>
      </trkpt>
      <trkpt lat="48.81721" lon="2.43799">
        <ele>18</ele>
        <time>2020-07-22T17:52:33Z</time>
      </trkpt>
      <trkpt lat="48.8172" lon="2.43801">
        <ele>18</ele>
        <time>2020-07-22T17:52:34Z</time>
      </trkpt>
      <trkpt lat="48.8172" lon="2.43803">
        <ele>18</ele>
        <time>2020-07-22T17:52:35Z</time>
      </trkpt>
      <trkpt lat="48.8172" lon="2.43805">
        <ele>18</ele>
        <time>2020-07-22T17:52:36Z</time>
      </trkpt>
      <trkpt lat="48.8172" lon="2.43807">
        <ele>18</ele>
        <time>2020-07-22T17:52:37Z</time>
      </trkpt>
      <trkpt lat="48.81719" lon="2.43809">
        <ele>18</ele>
        <time>2020-07-22T17:52:38Z</time>
      </trkpt>
      <trkpt lat="48.81719" lon="2.43812">
        <ele>18</ele>
        <time>2020-07-22T17:52:39Z</time>
      </trkpt>
      <trkpt lat="48.81719" lon="2.43814">
        <ele>18</ele>
        <time>2020-07-22T17:52:40Z</time>
      </trkpt>
      <trkpt lat="48.81719" lon="2.43817">
        <ele>18</ele>
        <time>2020-07-22T17:52:41Z</time>
      </trkpt>
      <trkpt lat="48.81718" lon="2.43819">
        <ele>18</ele>
        <time>2020-07-22T17:52:42Z</time>
      </trkpt>
      <trkpt lat="48.81718" lon="2.43822">
        <ele>18</ele>
        <time>2020-07-22T17:52:43Z</time>
      </trkpt>
      <trkpt lat="48.81718" lon="2.43824">
        <ele>18</ele>
        <time>2020-07-22T17:52:44Z</time>
      </trkpt>
      <trkpt lat="48.81718" lon="2.43827">
        <ele>18</ele>
        <time>2020-07-22T17:52:45Z</time>
      </trkpt>
      <trkpt lat="48.81718" lon="2.43829">
        <ele>18</ele>
        <time>2020-07-22T17:52:46Z</time>
      </trkpt>
      <trkpt lat="48.81717" lon="2.43831">
        <ele>18</ele>
        <time>2020-07-22T17:52:47Z</time>
      </trkpt>
      <trkpt lat="48.81717" lon="2.43834">
        <ele>18</ele>
        <time>2020-07-22T17:52:48Z</time>
      </trkpt>
      <trkpt lat="48.81717" lon="2.43836">
        <ele>18</ele>
        <time>2020-07-22T17:52:49Z</time>
      </trkpt>
      <trkpt lat="48.81717" lon="2.43839">
        <ele>18</ele>
        <time>2020-07-22T17:52:50Z</time>
      </trkpt>
      <trkpt lat="48.81717" lon="2.43842">
        <ele>18</ele>
        <time>2020-07-22T17:52:51Z</time>
      </trkpt>
      <trkpt lat="48.81717" lon="2.43844">
        <ele>18</ele>
        <time>2020-07-22T17:52:52Z</time>
      </trkpt>
      <trkpt lat="48.81717" lon="2.43847">
        <ele>18</ele>
        <time>2020-07-22T17:52:53Z</time>
      </trkpt>
      <trkpt lat="48.81717" lon="2.4385">
        <ele>18</ele>
        <time>2020-07-22T17:52:54Z</time>
      </trkpt>
      <trkpt lat="48.81717" lon="2.43853">
        <ele>18</ele>
        <time>2020-07-22T17:52:55Z</time>
      </trkpt>
      <trkpt lat="48.81717" lon="2.43855">
        <ele>18</ele>
        <time>2020-07-22T17:52:56Z</time>
      </trkpt>
      <trkpt lat="48.81717" lon="2.43858">
        <ele>18</ele>
        <time>2020-07-22T17:52:57Z</time>
      </trkpt>
      <trkpt lat="48.81717" lon="2.4386">
        <ele>18</ele>
        <time>2020-07-22T17:52:58Z</time>
      </trkpt>
      <trkpt lat="48.81717" lon="2.43862">
        <ele>18</ele>
        <time>2020-07-22T17:52:59Z</time>
      </trkpt>
      <trkpt lat="48.81716" lon="2.43864">
        <ele>18</ele>
        <time>2020-07-22T17:53:00Z</time>
      </trkpt>
      <trkpt lat="48.81716" lon="2.43867">
        <ele>18</ele>
        <time>2020-07-22T17:53:01Z</time>
      </trkpt>
      <trkpt lat="48.81715" lon="2.43868">
        <ele>18</ele>
        <time>2020-07-22T17:53:02Z</time>
      </trkpt>
      <trkpt lat="48.81715" lon="2.4387">
        <ele>18</ele>
        <time>2020-07-22T17:53:03Z</time>
      </trkpt>
      <trkpt lat="48.81715" lon="2.43872">
        <ele>18</ele>
        <time>2020-07-22T17:53:04Z</time>
      </trkpt>
      <trkpt lat="48.81715" lon="2.43874">
        <ele>18</ele>
        <time>2020-07-22T17:53:05Z</time>
      </trkpt>
      <trkpt lat="48.81715" lon="2.43876">
        <ele>18</ele>
        <time>2020-07-22T17:53:06Z</time>
      </trkpt>
      <trkpt lat="48.81714" lon="2.43878">
        <ele>18</ele>
        <time>2020-07-22T17:53:07Z</time>
      </trkpt>
      <trkpt lat="48.81714" lon="2.43881">
        <ele>18</ele>
        <time>2020-07-22T17:53:08Z</time>
      </trkpt>
      <trkpt lat="48.81714" lon="2.43883">
        <ele>18</ele>
        <time>2020-07-22T17:53:09Z</time>
      </trkpt>
      <trkpt lat="48.81714" lon="2.43886">
        <ele>18</ele>
        <time>2020-07-22T17:53:10Z</time>
      </trkpt>
      <trkpt lat="48.81714" lon="2.43889">
        <ele>18</ele>
        <time>2020-07-22T17:53:11Z</time>
      </trkpt>
      <trkpt lat="48.81714" lon="2.43891">
        <ele>18</ele>
        <time>2020-07-22T17:53:12Z</time>
      </trkpt>
      <trkpt lat="48.81714" lon="2.43893">
        <ele>18</ele>
        <time>2020-07-22T17:53:13Z</time>
      </trkpt>
      <trkpt lat="48.81714" lon="2.43895">
        <ele>18</ele>
        <time>2020-07-22T17:53:14Z</time>
      </trkpt>
      <trkpt lat="48.81714" lon="2.43897">
        <ele>18</ele>
        <time>2020-07-22T17:53:15Z</time>
      </trkpt>
      <trkpt lat="48.81714" lon="2.43899">
        <ele>18</ele>
        <time>2020-07-22T17:53:16Z</time>
      </trkpt>
      <trkpt lat="48.81713" lon="2.43901">
        <ele>18</ele>
        <time>2020-07-22T17:53:17Z</time>
      </trkpt>
      <trkpt lat="48.81713" lon="2.43903">
        <ele>18</ele>
        <time>2020-07-22T17:53:18Z</time>
      </trkpt>
      <trkpt lat="48.81713" lon="2.43905">
        <ele>18</ele>
        <time>2020-07-22T17:53:19Z</time>
      </trkpt>
      <trkpt lat="48.81712" lon="2.43907">
        <ele>18</ele>
        <time>2020-07-22T17:53:20Z</time>
      </trkpt>
      <trkpt lat="48.81712" lon="2.43909">
        <ele>18</ele>
        <time>2020-07-22T17:53:21Z</time>
      </trkpt>
      <trkpt lat="48.81712" lon="2.43911">
        <ele>18</ele>
        <time>2020-07-22T17:53:22Z</time>
      </trkpt>
      <trkpt lat="48.81712" lon="2.43913">
        <ele>18</ele>
        <time>2020-07-22T17:53:23Z</time>
      </trkpt>
      <trkpt lat="48.81712" lon="2.43915">
        <ele>18</ele>
        <time>2020-07-22T17:53:24Z</time>
      </trkpt>
      <trkpt lat="48.81711" lon="2.43916">
        <ele>18</ele>
        <time>2020-07-22T17:53:25Z</time>
      </trkpt>
      <trkpt lat="48.81711" lon="2.43918">
        <ele>18</ele>
        <time>2020-07-22T17:53:26Z</time>
      </trkpt>
      <trkpt lat="48.81711" lon="2.43919">
        <ele>18</ele>
        <time>2020-07-22T17:53:27Z</time>
      </trkpt>
      <trkpt lat="48.81711" lon="2.43921">
        <ele>18</ele>
        <time>2020-07-22T17:53:28Z</time>
      </trkpt>
      <trkpt lat="48.81712" lon="2.43922">
        <ele>18</ele>
        <time>2020-07-22T17:53:29Z</time>
      </trkpt>
      <trkpt lat="48.81712" lon="2.43924">
        <ele>18</ele>
        <time>2020-07-22T17:53:30Z</time>
      </trkpt>
      <trkpt lat="48.81712" lon="2.43925">
        <ele>18</ele>
        <time>2020-07-22T17:53:31Z</time>
      </trkpt>
      <trkpt lat="48.81712" lon="2.43927">
        <ele>18</ele>
        <time>2020-07-22T17:53:32Z</time>
      </trkpt>
      <trkpt lat="48.81711" lon="2.43928">
        <ele>18</ele>
        <time>2020-07-22T17:53:33Z</time>
      </trkpt>
      <trkpt lat="48.81711" lon="2.4393">
        <ele>18</ele>
        <time>2020-07-22T17:53:34Z</time>
      </trkpt>
      <trkpt lat="48.81711" lon="2.43933">
        <ele>18</ele>
        <time>2020-07-22T17:53:35Z</time>
      </trkpt>
      <trkpt lat="48.81711" lon="2.43935">
        <ele>18</ele>
        <time>2020-07-22T17:53:36Z</time>
      </trkpt>
      <trkpt lat="48.81711" lon="2.43938">
        <ele>18</ele>
        <time>2020-07-22T17:53:37Z</time>
      </trkpt>
      <trkpt lat="48.81711" lon="2.4394">
        <ele>18</ele>
        <time>2020-07-22T17:53:38Z</time>
      </trkpt>
      <trkpt lat="48.81712" lon="2.43943">
        <ele>18</ele>
        <time>2020-07-22T17:53:39Z</time>
      </trkpt>
      <trkpt lat="48.81712" lon="2.43946">
        <ele>18</ele>
        <time>2020-07-22T17:53:40Z</time>
      </trkpt>
      <trkpt lat="48.81712" lon="2.43948">
        <ele>18</ele>
        <time>2020-07-22T17:53:41Z</time>
      </trkpt>
      <trkpt lat="48.81711" lon="2.43951">
        <ele>18</ele>
        <time>2020-07-22T17:53:42Z</time>
      </trkpt>
      <trkpt lat="48.81711" lon="2.43953">
        <ele>18</ele>
        <time>2020-07-22T17:53:43Z</time>
      </trkpt>
      <trkpt lat="48.81711" lon="2.43955">
        <ele>18</ele>
        <time>2020-07-22T17:53:44Z</time>
      </trkpt>
      <trkpt lat="48.8171" lon="2.43957">
        <ele>18</ele>
        <time>2020-07-22T17:53:45Z</time>
      </trkpt>
      <trkpt lat="48.81709" lon="2.43959">
        <ele>18</ele>
        <time>2020-07-22T17:53:46Z</time>
      </trkpt>
      <trkpt lat="48.81709" lon="2.43961">
        <ele>18</ele>
        <time>2020-07-22T17:53:47Z</time>
      </trkpt>
      <trkpt lat="48.81708" lon="2.43963">
        <ele>18</ele>
        <time>2020-07-22T17:53:48Z</time>
      </trkpt>
      <trkpt lat="48.81708" lon="2.43965">
        <ele>18</ele>
        <time>2020-07-22T17:53:49Z</time>
      </trkpt>
      <trkpt lat="48.81707" lon="2.43967">
        <ele>18</ele>
        <time>2020-07-22T17:53:50Z</time>
      </trkpt>
      <trkpt lat="48.81707" lon="2.4397">
        <ele>18</ele>
        <time>2020-07-22T17:53:51Z</time>
      </trkpt>
      <trkpt lat="48.81706" lon="2.43972">
        <ele>18</ele>
        <time>2020-07-22T17:53:52Z</time>
      </trkpt>
      <trkpt lat="48.81706" lon="2.43974">
        <ele>18</ele>
        <time>2020-07-22T17:53:53Z</time>
      </trkpt>
      <trkpt lat="48.81706" lon="2.43976">
        <ele>18</ele>
        <time>2020-07-22T17:53:54Z</time>
      </trkpt>
      <trkpt lat="48.81705" lon="2.43979">
        <ele>18</ele>
        <time>2020-07-22T17:53:55Z</time>
      </trkpt>
      <trkpt lat="48.81705" lon="2.43981">
        <ele>18</ele>
        <time>2020-07-22T17:53:56Z</time>
      </trkpt>
      <trkpt lat="48.81705" lon="2.43983">
        <ele>18</ele>
        <time>2020-07-22T17:53:57Z</time>
      </trkpt>
      <trkpt lat="48.81704" lon="2.43985">
        <ele>19</ele>
        <time>2020-07-22T17:53:58Z</time>
      </trkpt>
      <trkpt lat="48.81704" lon="2.43988">
        <ele>19</ele>
        <time>2020-07-22T17:53:59Z</time>
      </trkpt>
      <trkpt lat="48.81704" lon="2.4399">
        <ele>19</ele>
        <time>2020-07-22T17:54:00Z</time>
      </trkpt>
      <trkpt lat="48.81703" lon="2.43992">
        <ele>19</ele>
        <time>2020-07-22T17:54:01Z</time>
      </trkpt>
      <trkpt lat="48.81703" lon="2.43994">
        <ele>19</ele>
        <time>2020-07-22T17:54:02Z</time>
      </trkpt>
      <trkpt lat="48.81702" lon="2.43996">
        <ele>19</ele>
        <time>2020-07-22T17:54:03Z</time>
      </trkpt>
      <trkpt lat="48.81702" lon="2.43998">
        <ele>19</ele>
        <time>2020-07-22T17:54:04Z</time>
      </trkpt>
      <trkpt lat="48.81702" lon="2.43999">
        <ele>19</ele>
        <time>2020-07-22T17:54:05Z</time>
      </trkpt>
      <trkpt lat="48.81702" lon="2.44001">
        <ele>19</ele>
        <time>2020-07-22T17:54:06Z</time>
      </trkpt>
      <trkpt lat="48.81702" lon="2.44003">
        <ele>19</ele>
        <time>2020-07-22T17:54:07Z</time>
      </trkpt>
      <trkpt lat="48.81702" lon="2.44005">
        <ele>20</ele>
        <time>2020-07-22T17:54:08Z</time>
      </trkpt>
      <trkpt lat="48.81702" lon="2.44007">
        <ele>20</ele>
        <time>2020-07-22T17:54:09Z</time>
      </trkpt>
      <trkpt lat="48.81702" lon="2.44008">
        <ele>20</ele>
        <time>2020-07-22T17:54:10Z</time>
      </trkpt>
      <trkpt lat="48.81702" lon="2.4401">
        <ele>20</ele>
        <time>2020-07-22T17:54:11Z</time>
      </trkpt>
      <trkpt lat="48.81702" lon="2.44012">
        <ele>20</ele>
        <time>2020-07-22T17:54:12Z</time>
      </trkpt>
      <trkpt lat="48.81702" lon="2.44013">
        <ele>20</ele>
        <time>2020-07-22T17:54:13Z</time>
      </trkpt>
      <trkpt lat="48.81701" lon="2.44015">
        <ele>20</ele>
        <time>2020-07-22T17:54:14Z</time>
      </trkpt>
      <trkpt lat="48.817" lon="2.44017">
        <ele>20</ele>
        <time>2020-07-22T17:54:15Z</time>
      </trkpt>
      <trkpt lat="48.81699" lon="2.44019">
        <ele>20</ele>
        <time>2020-07-22T17:54:16Z</time>
      </trkpt>
      <trkpt lat="48.81699" lon="2.44021">
        <ele>20</ele>
        <time>2020-07-22T17:54:17Z</time>
      </trkpt>
      <trkpt lat="48.81698" lon="2.44023">
        <ele>20</ele>
        <time>2020-07-22T17:54:18Z</time>
      </trkpt>
      <trkpt lat="48.81698" lon="2.44026">
        <ele>20</ele>
        <time>2020-07-22T17:54:19Z</time>
      </trkpt>
      <trkpt lat="48.81697" lon="2.44027">
        <ele>20</ele>
        <time>2020-07-22T17:54:20Z</time>
      </trkpt>
      <trkpt lat="48.81696" lon="2.44029">
        <ele>20</ele>
        <time>2020-07-22T17:54:21Z</time>
      </trkpt>
      <trkpt lat="48.81696" lon="2.44031">
        <ele>20</ele>
        <time>2020-07-22T17:54:22Z</time>
      </trkpt>
      <trkpt lat="48.81696" lon="2.44033">
        <ele>20</ele>
        <time>2020-07-22T17:54:23Z</time>
      </trkpt>
      <trkpt lat="48.81695" lon="2.44034">
        <ele>20</ele>
        <time>2020-07-22T17:54:24Z</time>
      </trkpt>
      <trkpt lat="48.81695" lon="2.44036">
        <ele>20</ele>
        <time>2020-07-22T17:54:25Z</time>
      </trkpt>
      <trkpt lat="48.81695" lon="2.44038">
        <ele>20</ele>
        <time>2020-07-22T17:54:26Z</time>
      </trkpt>
      <trkpt lat="48.81694" lon="2.4404">
        <ele>20</ele>
        <time>2020-07-22T17:54:27Z</time>
      </trkpt>
      <trkpt lat="48.81694" lon="2.44042">
        <ele>20</ele>
        <time>2020-07-22T17:54:28Z</time>
      </trkpt>
      <trkpt lat="48.81693" lon="2.44044">
        <ele>20</ele>
        <time>2020-07-22T17:54:29Z</time>
      </trkpt>
      <trkpt lat="48.81693" lon="2.44046">
        <ele>20</ele>
        <time>2020-07-22T17:54:30Z</time>
      </trkpt>
      <trkpt lat="48.81693" lon="2.44048">
        <ele>20</ele>
        <time>2020-07-22T17:54:31Z</time>
      </trkpt>
      <trkpt lat="48.81691" lon="2.4405">
        <ele>20</ele>
        <time>2020-07-22T17:54:32Z</time>
      </trkpt>
      <trkpt lat="48.8169" lon="2.44051">
        <ele>21</ele>
        <time>2020-07-22T17:54:33Z</time>
      </trkpt>
      <trkpt lat="48.8169" lon="2.44053">
        <ele>21</ele>
        <time>2020-07-22T17:54:34Z</time>
      </trkpt>
      <trkpt lat="48.81688" lon="2.44055">
        <ele>21</ele>
        <time>2020-07-22T17:54:35Z</time>
      </trkpt>
      <trkpt lat="48.81688" lon="2.44057">
        <ele>21</ele>
        <time>2020-07-22T17:54:36Z</time>
      </trkpt>
      <trkpt lat="48.81687" lon="2.44059">
        <ele>21</ele>
        <time>2020-07-22T17:54:37Z</time>
      </trkpt>
      <trkpt lat="48.81686" lon="2.44061">
        <ele>21</ele>
        <time>2020-07-22T17:54:38Z</time>
      </trkpt>
      <trkpt lat="48.81685" lon="2.44063">
        <ele>21</ele>
        <time>2020-07-22T17:54:39Z</time>
      </trkpt>
      <trkpt lat="48.81685" lon="2.44064">
        <ele>21</ele>
        <time>2020-07-22T17:54:40Z</time>
      </trkpt>
      <trkpt lat="48.81685" lon="2.44066">
        <ele>21</ele>
        <time>2020-07-22T17:54:41Z</time>
      </trkpt>
      <trkpt lat="48.81684" lon="2.44068">
        <ele>21</ele>
        <time>2020-07-22T17:54:42Z</time>
      </trkpt>
      <trkpt lat="48.81684" lon="2.4407">
        <ele>21</ele>
        <time>2020-07-22T17:54:43Z</time>
      </trkpt>
      <trkpt lat="48.81683" lon="2.44072">
        <ele>21</ele>
        <time>2020-07-22T17:54:44Z</time>
      </trkpt>
      <trkpt lat="48.81683" lon="2.44074">
        <ele>21</ele>
        <time>2020-07-22T17:54:45Z</time>
      </trkpt>
      <trkpt lat="48.81683" lon="2.44076">
        <ele>21</ele>
        <time>2020-07-22T17:54:46Z</time>
      </trkpt>
      <trkpt lat="48.81683" lon="2.44077">
        <ele>21</ele>
        <time>2020-07-22T17:54:47Z</time>
      </trkpt>
      <trkpt lat="48.81682" lon="2.44079">
        <ele>21</ele>
        <time>2020-07-22T17:54:48Z</time>
      </trkpt>
      <trkpt lat="48.81681" lon="2.44081">
        <ele>21</ele>
        <time>2020-07-22T17:54:49Z</time>
      </trkpt>
      <trkpt lat="48.81681" lon="2.44082">
        <ele>21</ele>
        <time>2020-07-22T17:54:50Z</time>
      </trkpt>
      <trkpt lat="48.81681" lon="2.44084">
        <ele>21</ele>
        <time>2020-07-22T17:54:51Z</time>
      </trkpt>
      <trkpt lat="48.81681" lon="2.44086">
        <ele>21</ele>
        <time>2020-07-22T17:54:52Z</time>
      </trkpt>
      <trkpt lat="48.81681" lon="2.44088">
        <ele>21</ele>
        <time>2020-07-22T17:54:53Z</time>
      </trkpt>
      <trkpt lat="48.81681" lon="2.4409">
        <ele>21</ele>
        <time>2020-07-22T17:54:54Z</time>
      </trkpt>
      <trkpt lat="48.81681" lon="2.44093">
        <ele>21</ele>
        <time>2020-07-22T17:54:55Z</time>
      </trkpt>
      <trkpt lat="48.81681" lon="2.44095">
        <ele>21</ele>
        <time>2020-07-22T17:54:56Z</time>
      </trkpt>
      <trkpt lat="48.8168" lon="2.44097">
        <ele>21</ele>
        <time>2020-07-22T17:54:57Z</time>
      </trkpt>
      <trkpt lat="48.8168" lon="2.44098">
        <ele>21</ele>
        <time>2020-07-22T17:54:58Z</time>
      </trkpt>
      <trkpt lat="48.8168" lon="2.441">
        <ele>21</ele>
        <time>2020-07-22T17:54:59Z</time>
      </trkpt>
      <trkpt lat="48.8168" lon="2.44102">
        <ele>21</ele>
        <time>2020-07-22T17:55:00Z</time>
      </trkpt>
      <trkpt lat="48.81679" lon="2.44104">
        <ele>21</ele>
        <time>2020-07-22T17:55:01Z</time>
      </trkpt>
      <trkpt lat="48.81679" lon="2.44106">
        <ele>21</ele>
        <time>2020-07-22T17:55:02Z</time>
      </trkpt>
      <trkpt lat="48.81678" lon="2.44108">
        <ele>21</ele>
        <time>2020-07-22T17:55:03Z</time>
      </trkpt>
      <trkpt lat="48.81678" lon="2.4411">
        <ele>21</ele>
        <time>2020-07-22T17:55:04Z</time>
      </trkpt>
      <trkpt lat="48.81678" lon="2.44112">
        <ele>21</ele>
        <time>2020-07-22T17:55:05Z</time>
      </trkpt>
      <trkpt lat="48.81678" lon="2.44114">
        <ele>21</ele>
        <time>2020-07-22T17:55:06Z</time>
      </trkpt>
      <trkpt lat="48.81678" lon="2.44116">
        <ele>21</ele>
        <time>2020-07-22T17:55:07Z</time>
      </trkpt>
      <trkpt lat="48.81678" lon="2.44118">
        <ele>21</ele>
        <time>2020-07-22T17:55:08Z</time>
      </trkpt>
      <trkpt lat="48.81677" lon="2.4412">
        <ele>21</ele>
        <time>2020-07-22T17:55:09Z</time>
      </trkpt>
      <trkpt lat="48.81677" lon="2.44121">
        <ele>21</ele>
        <time>2020-07-22T17:55:10Z</time>
      </trkpt>
      <trkpt lat="48.81676" lon="2.44123">
        <ele>21</ele>
        <time>2020-07-22T17:55:11Z</time>
      </trkpt>
      <trkpt lat="48.81676" lon="2.44125">
        <ele>21</ele>
        <time>2020-07-22T17:55:12Z</time>
      </trkpt>
      <trkpt lat="48.81675" lon="2.44127">
        <ele>21</ele>
        <time>2020-07-22T17:55:13Z</time>
      </trkpt>
      <trkpt lat="48.81675" lon="2.44129">
        <ele>21</ele>
        <time>2020-07-22T17:55:14Z</time>
      </trkpt>
      <trkpt lat="48.81675" lon="2.4413">
        <ele>21</ele>
        <time>2020-07-22T17:55:15Z</time>
      </trkpt>
      <trkpt lat="48.81675" lon="2.44132">
        <ele>21</ele>
        <time>2020-07-22T17:55:16Z</time>
      </trkpt>
      <trkpt lat="48.81675" lon="2.44133">
        <ele>21</ele>
        <time>2020-07-22T17:55:17Z</time>
      </trkpt>
      <trkpt lat="48.81674" lon="2.44135">
        <ele>21</ele>
        <time>2020-07-22T17:55:18Z</time>
      </trkpt>
      <trkpt lat="48.81674" lon="2.44136">
        <ele>21</ele>
        <time>2020-07-22T17:55:19Z</time>
      </trkpt>
      <trkpt lat="48.81673" lon="2.44138">
        <ele>21</ele>
        <time>2020-07-22T17:55:20Z</time>
      </trkpt>
      <trkpt lat="48.81673" lon="2.4414">
        <ele>21</ele>
        <time>2020-07-22T17:55:21Z</time>
      </trkpt>
      <trkpt lat="48.81673" lon="2.44142">
        <ele>21</ele>
        <time>2020-07-22T17:55:22Z</time>
      </trkpt>
      <trkpt lat="48.81672" lon="2.44144">
        <ele>21</ele>
        <time>2020-07-22T17:55:23Z</time>
      </trkpt>
      <trkpt lat="48.81672" lon="2.44146">
        <ele>21</ele>
        <time>2020-07-22T17:55:24Z</time>
      </trkpt>
      <trkpt lat="48.81672" lon="2.44148">
        <ele>21</ele>
        <time>2020-07-22T17:55:25Z</time>
      </trkpt>
      <trkpt lat="48.81671" lon="2.4415">
        <ele>21</ele>
        <time>2020-07-22T17:55:26Z</time>
      </trkpt>
      <trkpt lat="48.81671" lon="2.44152">
        <ele>21</ele>
        <time>2020-07-22T17:55:27Z</time>
      </trkpt>
      <trkpt lat="48.8167" lon="2.44154">
        <ele>21</ele>
        <time>2020-07-22T17:55:28Z</time>
      </trkpt>
      <trkpt lat="48.81669" lon="2.44156">
        <ele>21</ele>
        <time>2020-07-22T17:55:29Z</time>
      </trkpt>
      <trkpt lat="48.81669" lon="2.44159">
        <ele>21</ele>
        <time>2020-07-22T17:55:30Z</time>
      </trkpt>
      <trkpt lat="48.81668" lon="2.44161">
        <ele>21</ele>
        <time>2020-07-22T17:55:31Z</time>
      </trkpt>
      <trkpt lat="48.81668" lon="2.44164">
        <ele>21</ele>
        <time>2020-07-22T17:55:32Z</time>
      </trkpt>
      <trkpt lat="48.81667" lon="2.44166">
        <ele>21</ele>
        <time>2020-07-22T17:55:33Z</time>
      </trkpt>
      <trkpt lat="48.81668" lon="2.44169">
        <ele>21</ele>
        <time>2020-07-22T17:55:34Z</time>
      </trkpt>
      <trkpt lat="48.81668" lon="2.44171">
        <ele>21</ele>
        <time>2020-07-22T17:55:35Z</time>
      </trkpt>
      <trkpt lat="48.81668" lon="2.44173">
        <ele>21</ele>
        <time>2020-07-22T17:55:36Z</time>
      </trkpt>
      <trkpt lat="48.81668" lon="2.44175">
        <ele>21</ele>
        <time>2020-07-22T17:55:37Z</time>
      </trkpt>
      <trkpt lat="48.81668" lon="2.44177">
        <ele>21</ele>
        <time>2020-07-22T17:55:38Z</time>
      </trkpt>
      <trkpt lat="48.81669" lon="2.44179">
        <ele>21</ele>
        <time>2020-07-22T17:55:39Z</time>
      </trkpt>
      <trkpt lat="48.81669" lon="2.4418">
        <ele>21</ele>
        <time>2020-07-22T17:55:40Z</time>
      </trkpt>
      <trkpt lat="48.81669" lon="2.44182">
        <ele>21</ele>
        <time>2020-07-22T17:55:41Z</time>
      </trkpt>
      <trkpt lat="48.81669" lon="2.44184">
        <ele>21</ele>
        <time>2020-07-22T17:55:42Z</time>
      </trkpt>
      <trkpt lat="48.81669" lon="2.44186">
        <ele>21</ele>
        <time>2020-07-22T17:55:43Z</time>
      </trkpt>
      <trkpt lat="48.81669" lon="2.44188">
        <ele>21</ele>
        <time>2020-07-22T17:55:44Z</time>
      </trkpt>
      <trkpt lat="48.8167" lon="2.4419">
        <ele>21</ele>
        <time>2020-07-22T17:55:45Z</time>
      </trkpt>
      <trkpt lat="48.8167" lon="2.44192">
        <ele>21</ele>
        <time>2020-07-22T17:55:46Z</time>
      </trkpt>
      <trkpt lat="48.8167" lon="2.44194">
        <ele>21</ele>
        <time>2020-07-22T17:55:47Z</time>
      </trkpt>
      <trkpt lat="48.8167" lon="2.44196">
        <ele>21</ele>
        <time>2020-07-22T17:55:48Z</time>
      </trkpt>
      <trkpt lat="48.81669" lon="2.44198">
        <ele>21</ele>
        <time>2020-07-22T17:55:49Z</time>
      </trkpt>
      <trkpt lat="48.81669" lon="2.442">
        <ele>21</ele>
        <time>2020-07-22T17:55:50Z</time>
      </trkpt>
      <trkpt lat="48.81669" lon="2.44202">
        <ele>21</ele>
        <time>2020-07-22T17:55:51Z</time>
      </trkpt>
      <trkpt lat="48.81669" lon="2.44204">
        <ele>21</ele>
        <time>2020-07-22T17:55:52Z</time>
      </trkpt>
      <trkpt lat="48.81668" lon="2.44206">
        <ele>21</ele>
        <time>2020-07-22T17:55:53Z</time>
      </trkpt>
      <trkpt lat="48.81668" lon="2.44208">
        <ele>21</ele>
        <time>2020-07-22T17:55:54Z</time>
      </trkpt>
      <trkpt lat="48.81668" lon="2.4421">
        <ele>21</ele>
        <time>2020-07-22T17:55:55Z</time>
      </trkpt>
      <trkpt lat="48.81668" lon="2.44212">
        <ele>21</ele>
        <time>2020-07-22T17:55:56Z</time>
      </trkpt>
      <trkpt lat="48.81669" lon="2.44214">
        <ele>21</ele>
        <time>2020-07-22T17:55:57Z</time>
      </trkpt>
      <trkpt lat="48.81669" lon="2.44216">
        <ele>21</ele>
        <time>2020-07-22T17:55:58Z</time>
      </trkpt>
      <trkpt lat="48.8167" lon="2.44218">
        <ele>21</ele>
        <time>2020-07-22T17:55:59Z</time>
      </trkpt>
      <trkpt lat="48.81671" lon="2.44219">
        <ele>21</ele>
        <time>2020-07-22T17:56:00Z</time>
      </trkpt>
      <trkpt lat="48.81672" lon="2.44221">
        <ele>21</ele>
        <time>2020-07-22T17:56:01Z</time>
      </trkpt>
      <trkpt lat="48.81672" lon="2.44222">
        <ele>21</ele>
        <time>2020-07-22T17:56:02Z</time>
      </trkpt>
      <trkpt lat="48.81672" lon="2.44224">
        <ele>21</ele>
        <time>2020-07-22T17:56:03Z</time>
      </trkpt>
      <trkpt lat="48.81673" lon="2.44225">
        <ele>21</ele>
        <time>2020-07-22T17:56:04Z</time>
      </trkpt>
      <trkpt lat="48.81673" lon="2.44227">
        <ele>21</ele>
        <time>2020-07-22T17:56:05Z</time>
      </trkpt>
      <trkpt lat="48.81673" lon="2.44228">
        <ele>21</ele>
        <time>2020-07-22T17:56:06Z</time>
      </trkpt>
      <trkpt lat="48.81673" lon="2.44229">
        <ele>21</ele>
        <time>2020-07-22T17:56:07Z</time>
      </trkpt>
      <trkpt lat="48.81673" lon="2.44231">
        <ele>21</ele>
        <time>2020-07-22T17:56:08Z</time>
      </trkpt>
      <trkpt lat="48.81673" lon="2.44232">
        <ele>21</ele>
        <time>2020-07-22T17:56:09Z</time>
      </trkpt>
      <trkpt lat="48.81673" lon="2.44234">
        <ele>21</ele>
        <time>2020-07-22T17:56:10Z</time>
      </trkpt>
      <trkpt lat="48.81673" lon="2.44235">
        <ele>21</ele>
        <time>2020-07-22T17:56:11Z</time>
      </trkpt>
      <trkpt lat="48.81673" lon="2.44237">
        <ele>21</ele>
        <time>2020-07-22T17:56:12Z</time>
      </trkpt>
      <trkpt lat="48.81673" lon="2.44239">
        <ele>21</ele>
        <time>2020-07-22T17:56:13Z</time>
      </trkpt>
      <trkpt lat="48.81673" lon="2.44242">
        <ele>21</ele>
        <time>2020-07-22T17:56:14Z</time>
      </trkpt>
      <trkpt lat="48.81673" lon="2.44244">
        <ele>21</ele>
        <time>2020-07-22T17:56:15Z</time>
      </trkpt>
      <trkpt lat="48.81673" lon="2.44247">
        <ele>21</ele>
        <time>2020-07-22T17:56:16Z</time>
      </trkpt>
      <trkpt lat="48.81673" lon="2.44249">
        <ele>21</ele>
        <time>2020-07-22T17:56:17Z</time>
      </trkpt>
      <trkpt lat="48.81673" lon="2.44251">
        <ele>21</ele>
        <time>2020-07-22T17:56:18Z</time>
      </trkpt>
      <trkpt lat="48.81673" lon="2.44254">
        <ele>21</ele>
        <time>2020-07-22T17:56:19Z</time>
      </trkpt>
      <trkpt lat="48.81673" lon="2.44256">
        <ele>21</ele>
        <time>2020-07-22T17:56:20Z</time>
      </trkpt>
      <trkpt lat="48.81673" lon="2.44259">
        <ele>21</ele>
        <time>2020-07-22T17:56:21Z</time>
      </trkpt>
      <trkpt lat="48.81673" lon="2.44261">
        <ele>21</ele>
        <time>2020-07-22T17:56:22Z</time>
      </trkpt>
      <trkpt lat="48.81673" lon="2.44263">
        <ele>21</ele>
        <time>2020-07-22T17:56:23Z</time>
      </trkpt>
      <trkpt lat="48.81673" lon="2.44266">
        <ele>21</ele>
        <time>2020-07-22T17:56:24Z</time>
      </trkpt>
      <trkpt lat="48.81673" lon="2.44269">
        <ele>21</ele>
        <time>2020-07-22T17:56:25Z</time>
      </trkpt>
      <trkpt lat="48.81673" lon="2.44271">
        <ele>21</ele>
        <time>2020-07-22T17:56:26Z</time>
      </trkpt>
      <trkpt lat="48.81673" lon="2.44274">
        <ele>21</ele>
        <time>2020-07-22T17:56:27Z</time>
      </trkpt>
      <trkpt lat="48.81673" lon="2.44275">
        <ele>21</ele>
        <time>2020-07-22T17:56:28Z</time>
      </trkpt>
      <trkpt lat="48.81673" lon="2.44277">
        <ele>21</ele>
        <time>2020-07-22T17:56:29Z</time>
      </trkpt>
      <trkpt lat="48.81673" lon="2.44279">
        <ele>21</ele>
        <time>2020-07-22T17:56:30Z</time>
      </trkpt>
      <trkpt lat="48.81673" lon="2.44281">
        <ele>21</ele>
        <time>2020-07-22T17:56:31Z</time>
      </trkpt>
      <trkpt lat="48.81673" lon="2.44283">
        <ele>21</ele>
        <time>2020-07-22T17:56:32Z</time>
      </trkpt>
      <trkpt lat="48.81673" lon="2.44285">
        <ele>21</ele>
        <time>2020-07-22T17:56:33Z</time>
      </trkpt>
      <trkpt lat="48.81673" lon="2.44286">
        <ele>21</ele>
        <time>2020-07-22T17:56:34Z</time>
      </trkpt>
      <trkpt lat="48.81673" lon="2.44288">
        <ele>21</ele>
        <time>2020-07-22T17:56:35Z</time>
      </trkpt>
      <trkpt lat="48.81673" lon="2.4429">
        <ele>21</ele>
        <time>2020-07-22T17:56:36Z</time>
      </trkpt>
      <trkpt lat="48.81673" lon="2.44292">
        <ele>21</ele>
        <time>2020-07-22T17:56:37Z</time>
      </trkpt>
      <trkpt lat="48.81674" lon="2.44294">
        <ele>21</ele>
        <time>2020-07-22T17:56:38Z</time>
      </trkpt>
      <trkpt lat="48.81674" lon="2.44295">
        <ele>21</ele>
        <time>2020-07-22T17:56:39Z</time>
      </trkpt>
      <trkpt lat="48.81674" lon="2.44297">
        <ele>21</ele>
        <time>2020-07-22T17:56:40Z</time>
      </trkpt>
      <trkpt lat="48.81674" lon="2.443">
        <ele>21</ele>
        <time>2020-07-22T17:56:41Z</time>
      </trkpt>
      <trkpt lat="48.81673" lon="2.44302">
        <ele>21</ele>
        <time>2020-07-22T17:56:42Z</time>
      </trkpt>
      <trkpt lat="48.81673" lon="2.44305">
        <ele>21</ele>
        <time>2020-07-22T17:56:43Z</time>
      </trkpt>
      <trkpt lat="48.81672" lon="2.44308">
        <ele>21</ele>
        <time>2020-07-22T17:56:44Z</time>
      </trkpt>
      <trkpt lat="48.81672" lon="2.44311">
        <ele>21</ele>
        <time>2020-07-22T17:56:45Z</time>
      </trkpt>
      <trkpt lat="48.81672" lon="2.44313">
        <ele>21</ele>
        <time>2020-07-22T17:56:46Z</time>
      </trkpt>
      <trkpt lat="48.81672" lon="2.44316">
        <ele>21</ele>
        <time>2020-07-22T17:56:47Z</time>
      </trkpt>
      <trkpt lat="48.81672" lon="2.44318">
        <ele>21</ele>
        <time>2020-07-22T17:56:48Z</time>
      </trkpt>
      <trkpt lat="48.81672" lon="2.4432">
        <ele>21</ele>
        <time>2020-07-22T17:56:49Z</time>
      </trkpt>
      <trkpt lat="48.81672" lon="2.44322">
        <ele>21</ele>
        <time>2020-07-22T17:56:50Z</time>
      </trkpt>
      <trkpt lat="48.81672" lon="2.44324">
        <ele>21</ele>
        <time>2020-07-22T17:56:51Z</time>
      </trkpt>
      <trkpt lat="48.81673" lon="2.44327">
        <ele>21</ele>
        <time>2020-07-22T17:56:52Z</time>
      </trkpt>
      <trkpt lat="48.81673" lon="2.44329">
        <ele>21</ele>
        <time>2020-07-22T17:56:53Z</time>
      </trkpt>
      <trkpt lat="48.81673" lon="2.44331">
        <ele>21</ele>
        <time>2020-07-22T17:56:54Z</time>
      </trkpt>
      <trkpt lat="48.81674" lon="2.44334">
        <ele>21</ele>
        <time>2020-07-22T17:56:55Z</time>
      </trkpt>
      <trkpt lat="48.81675" lon="2.44336">
        <ele>21</ele>
        <time>2020-07-22T17:56:56Z</time>
      </trkpt>
      <trkpt lat="48.81675" lon="2.44338">
        <ele>21</ele>
        <time>2020-07-22T17:56:57Z</time>
      </trkpt>
      <trkpt lat="48.81676" lon="2.4434">
        <ele>21</ele>
        <time>2020-07-22T17:56:58Z</time>
      </trkpt>
      <trkpt lat="48.81677" lon="2.44342">
        <ele>21</ele>
        <time>2020-07-22T17:56:59Z</time>
      </trkpt>
      <trkpt lat="48.81677" lon="2.44344">
        <ele>21</ele>
        <time>2020-07-22T17:57:00Z</time>
      </trkpt>
      <trkpt lat="48.81677" lon="2.44347">
        <ele>21</ele>
        <time>2020-07-22T17:57:01Z</time>
      </trkpt>
      <trkpt lat="48.81677" lon="2.44349">
        <ele>21</ele>
        <time>2020-07-22T17:57:02Z</time>
      </trkpt>
      <trkpt lat="48.81677" lon="2.44351">
        <ele>21</ele>
        <time>2020-07-22T17:57:03Z</time>
      </trkpt>
      <trkpt lat="48.81677" lon="2.44353">
        <ele>21</ele>
        <time>2020-07-22T17:57:04Z</time>
      </trkpt>
      <trkpt lat="48.81676" lon="2.44355">
        <ele>21</ele>
        <time>2020-07-22T17:57:05Z</time>
      </trkpt>
      <trkpt lat="48.81676" lon="2.44356">
        <ele>21</ele>
        <time>2020-07-22T17:57:06Z</time>
      </trkpt>
      <trkpt lat="48.81676" lon="2.44358">
        <ele>21</ele>
        <time>2020-07-22T17:57:07Z</time>
      </trkpt>
      <trkpt lat="48.81676" lon="2.4436">
        <ele>21</ele>
        <time>2020-07-22T17:57:08Z</time>
      </trkpt>
      <trkpt lat="48.81676" lon="2.44362">
        <ele>21</ele>
        <time>2020-07-22T17:57:09Z</time>
      </trkpt>
      <trkpt lat="48.81676" lon="2.44364">
        <ele>21</ele>
        <time>2020-07-22T17:57:10Z</time>
      </trkpt>
      <trkpt lat="48.81676" lon="2.44366">
        <ele>21</ele>
        <time>2020-07-22T17:57:11Z</time>
      </trkpt>
      <trkpt lat="48.81676" lon="2.44368">
        <ele>21</ele>
        <time>2020-07-22T17:57:12Z</time>
      </trkpt>
      <trkpt lat="48.81675" lon="2.4437">
        <ele>21</ele>
        <time>2020-07-22T17:57:13Z</time>
      </trkpt>
      <trkpt lat="48.81675" lon="2.44372">
        <ele>21</ele>
        <time>2020-07-22T17:57:14Z</time>
      </trkpt>
      <trkpt lat="48.81675" lon="2.44374">
        <ele>21</ele>
        <time>2020-07-22T17:57:15Z</time>
      </trkpt>
      <trkpt lat="48.81675" lon="2.44375">
        <ele>21</ele>
        <time>2020-07-22T17:57:16Z</time>
      </trkpt>
      <trkpt lat="48.81675" lon="2.44375">
        <ele>21</ele>
        <time>2020-07-22T17:57:17Z</time>
      </trkpt>
      <trkpt lat="48.81675" lon="2.44376">
        <ele>21</ele>
        <time>2020-07-22T17:57:18Z</time>
      </trkpt>
      <trkpt lat="48.81676" lon="2.44377">
        <ele>21</ele>
        <time>2020-07-22T17:57:19Z</time>
      </trkpt>
      <trkpt lat="48.81676" lon="2.44378">
        <ele>21</ele>
        <time>2020-07-22T17:57:20Z</time>
      </trkpt>
      <trkpt lat="48.81677" lon="2.44379">
        <ele>21</ele>
        <time>2020-07-22T17:57:21Z</time>
      </trkpt>
      <trkpt lat="48.81678" lon="2.4438">
        <ele>21</ele>
        <time>2020-07-22T17:57:22Z</time>
      </trkpt>
      <trkpt lat="48.81678" lon="2.4438">
        <ele>21</ele>
        <time>2020-07-22T17:57:23Z</time>
      </trkpt>
      <trkpt lat="48.81679" lon="2.4438">
        <ele>21</ele>
        <time>2020-07-22T17:57:24Z</time>
      </trkpt>
      <trkpt lat="48.8168" lon="2.4438">
        <ele>21</ele>
        <time>2020-07-22T17:57:25Z</time>
      </trkpt>
      <trkpt lat="48.8168" lon="2.44379">
        <ele>21</ele>
        <time>2020-07-22T17:57:26Z</time>
      </trkpt>
      <trkpt lat="48.8168" lon="2.44378">
        <ele>21</ele>
        <time>2020-07-22T17:57:27Z</time>
      </trkpt>
      <trkpt lat="48.8168" lon="2.44377">
        <ele>21</ele>
        <time>2020-07-22T17:57:28Z</time>
      </trkpt>
      <trkpt lat="48.81679" lon="2.44376">
        <ele>21</ele>
        <time>2020-07-22T17:57:29Z</time>
      </trkpt>
      <trkpt lat="48.81679" lon="2.44375">
        <ele>21</ele>
        <time>2020-07-22T17:57:30Z</time>
      </trkpt>
      <trkpt lat="48.81678" lon="2.44374">
        <ele>21</ele>
        <time>2020-07-22T17:57:31Z</time>
      </trkpt>
      <trkpt lat="48.81678" lon="2.44373">
        <ele>21</ele>
        <time>2020-07-22T17:57:32Z</time>
      </trkpt>
      <trkpt lat="48.81677" lon="2.44371">
        <ele>21</ele>
        <time>2020-07-22T17:57:33Z</time>
      </trkpt>
      <trkpt lat="48.81676" lon="2.4437">
        <ele>21</ele>
        <time>2020-07-22T17:57:34Z</time>
      </trkpt>
      <trkpt lat="48.81675" lon="2.44368">
        <ele>21</ele>
        <time>2020-07-22T17:57:35Z</time>
      </trkpt>
      <trkpt lat="48.81675" lon="2.44367">
        <ele>21</ele>
        <time>2020-07-22T17:57:36Z</time>
      </trkpt>
      <trkpt lat="48.81675" lon="2.44365">
        <ele>21</ele>
        <time>2020-07-22T17:57:37Z</time>
      </trkpt>
      <trkpt lat="48.81675" lon="2.44363">
        <ele>21</ele>
        <time>2020-07-22T17:57:38Z</time>
      </trkpt>
      <trkpt lat="48.81675" lon="2.44361">
        <ele>21</ele>
        <time>2020-07-22T17:57:39Z</time>
      </trkpt>
      <trkpt lat="48.81675" lon="2.44359">
        <ele>21</ele>
        <time>2020-07-22T17:57:40Z</time>
      </trkpt>
      <trkpt lat="48.81675" lon="2.44357">
        <ele>21</ele>
        <time>2020-07-22T17:57:41Z</time>
      </trkpt>
      <trkpt lat="48.81675" lon="2.44355">
        <ele>21</ele>
        <time>2020-07-22T17:57:42Z</time>
      </trkpt>
      <trkpt lat="48.81675" lon="2.44353">
        <ele>22</ele>
        <time>2020-07-22T17:57:43Z</time>
      </trkpt>
      <trkpt lat="48.81675" lon="2.44351">
        <ele>22</ele>
        <time>2020-07-22T17:57:44Z</time>
      </trkpt>
      <trkpt lat="48.81675" lon="2.44349">
        <ele>22</ele>
        <time>2020-07-22T17:57:45Z</time>
      </trkpt>
      <trkpt lat="48.81676" lon="2.44347">
        <ele>22</ele>
        <time>2020-07-22T17:57:46Z</time>
      </trkpt>
      <trkpt lat="48.81676" lon="2.44345">
        <ele>22</ele>
        <time>2020-07-22T17:57:47Z</time>
      </trkpt>
      <trkpt lat="48.81675" lon="2.44343">
        <ele>23</ele>
        <time>2020-07-22T17:57:48Z</time>
      </trkpt>
      <trkpt lat="48.81675" lon="2.44341">
        <ele>23</ele>
        <time>2020-07-22T17:57:49Z</time>
      </trkpt>
      <trkpt lat="48.81675" lon="2.44339">
        <ele>23</ele>
        <time>2020-07-22T17:57:50Z</time>
      </trkpt>
      <trkpt lat="48.81675" lon="2.44337">
        <ele>23</ele>
        <time>2020-07-22T17:57:51Z</time>
      </trkpt>
      <trkpt lat="48.81675" lon="2.44335">
        <ele>23</ele>
        <time>2020-07-22T17:57:52Z</time>
      </trkpt>
      <trkpt lat="48.81676" lon="2.44333">
        <ele>23</ele>
        <time>2020-07-22T17:57:53Z</time>
      </trkpt>
      <trkpt lat="48.81676" lon="2.44332">
        <ele>23</ele>
        <time>2020-07-22T17:57:54Z</time>
      </trkpt>
      <trkpt lat="48.81677" lon="2.4433">
        <ele>23</ele>
        <time>2020-07-22T17:57:55Z</time>
      </trkpt>
      <trkpt lat="48.81677" lon="2.44329">
        <ele>23</ele>
        <time>2020-07-22T17:57:56Z</time>
      </trkpt>
      <trkpt lat="48.81678" lon="2.44327">
        <ele>23</ele>
        <time>2020-07-22T17:57:57Z</time>
      </trkpt>
      <trkpt lat="48.81678" lon="2.44326">
        <ele>24</ele>
        <time>2020-07-22T17:57:58Z</time>
      </trkpt>
      <trkpt lat="48.81678" lon="2.44324">
        <ele>24</ele>
        <time>2020-07-22T17:57:59Z</time>
      </trkpt>
      <trkpt lat="48.81678" lon="2.44322">
        <ele>24</ele>
        <time>2020-07-22T17:58:00Z</time>
      </trkpt>
      <trkpt lat="48.81678" lon="2.4432">
        <ele>24</ele>
        <time>2020-07-22T17:58:01Z</time>
      </trkpt>
      <trkpt lat="48.81678" lon="2.44319">
        <ele>24</ele>
        <time>2020-07-22T17:58:02Z</time>
      </trkpt>
      <trkpt lat="48.81678" lon="2.44317">
        <ele>25</ele>
        <time>2020-07-22T17:58:03Z</time>
      </trkpt>
      <trkpt lat="48.81678" lon="2.44315">
        <ele>25</ele>
        <time>2020-07-22T17:58:04Z</time>
      </trkpt>
      <trkpt lat="48.81679" lon="2.44314">
        <ele>25</ele>
        <time>2020-07-22T17:58:05Z</time>
      </trkpt>
      <trkpt lat="48.81679" lon="2.44312">
        <ele>25</ele>
        <time>2020-07-22T17:58:06Z</time>
      </trkpt>
      <trkpt lat="48.8168" lon="2.44311">
        <ele>25</ele>
        <time>2020-07-22T17:58:07Z</time>
      </trkpt>
      <trkpt lat="48.8168" lon="2.44309">
        <ele>26</ele>
        <time>2020-07-22T17:58:08Z</time>
      </trkpt>
      <trkpt lat="48.8168" lon="2.44308">
        <ele>26</ele>
        <time>2020-07-22T17:58:09Z</time>
      </trkpt>
      <trkpt lat="48.8168" lon="2.44306">
        <ele>26</ele>
        <time>2020-07-22T17:58:10Z</time>
      </trkpt>
      <trkpt lat="48.8168" lon="2.44304">
        <ele>26</ele>
        <time>2020-07-22T17:58:11Z</time>
      </trkpt>
      <trkpt lat="48.81681" lon="2.44302">
        <ele>26</ele>
        <time>2020-07-22T17:58:12Z</time>
      </trkpt>
      <trkpt lat="48.81681" lon="2.443">
        <ele>27</ele>
        <time>2020-07-22T17:58:13Z</time>
      </trkpt>
      <trkpt lat="48.81681" lon="2.44298">
        <ele>27</ele>
        <time>2020-07-22T17:58:14Z</time>
      </trkpt>
      <trkpt lat="48.81682" lon="2.44296">
        <ele>27</ele>
        <time>2020-07-22T17:58:15Z</time>
      </trkpt>
      <trkpt lat="48.81683" lon="2.44294">
        <ele>27</ele>
        <time>2020-07-22T17:58:16Z</time>
      </trkpt>
      <trkpt lat="48.81683" lon="2.44292">
        <ele>27</ele>
        <time>2020-07-22T17:58:17Z</time>
      </trkpt>
      <trkpt lat="48.81684" lon="2.4429">
        <ele>27</ele>
        <time>2020-07-22T17:58:18Z</time>
      </trkpt>
      <trkpt lat="48.81684" lon="2.44288">
        <ele>27</ele>
        <time>2020-07-22T17:58:19Z</time>
      </trkpt>
      <trkpt lat="48.81685" lon="2.44286">
        <ele>27</ele>
        <time>2020-07-22T17:58:20Z</time>
      </trkpt>
      <trkpt lat="48.81685" lon="2.44285">
        <ele>27</ele>
        <time>2020-07-22T17:58:21Z</time>
      </trkpt>
      <trkpt lat="48.81685" lon="2.44283">
        <ele>27</ele>
        <time>2020-07-22T17:58:22Z</time>
      </trkpt>
      <trkpt lat="48.81685" lon="2.44281">
        <ele>28</ele>
        <time>2020-07-22T17:58:23Z</time>
      </trkpt>
      <trkpt lat="48.81685" lon="2.4428">
        <ele>28</ele>
        <time>2020-07-22T17:58:24Z</time>
      </trkpt>
      <trkpt lat="48.81685" lon="2.44278">
        <ele>28</ele>
        <time>2020-07-22T17:58:25Z</time>
      </trkpt>
      <trkpt lat="48.81686" lon="2.44276">
        <ele>28</ele>
        <time>2020-07-22T17:58:26Z</time>
      </trkpt>
      <trkpt lat="48.81686" lon="2.44274">
        <ele>28</ele>
        <time>2020-07-22T17:58:27Z</time>
      </trkpt>
      <trkpt lat="48.81686" lon="2.44273">
        <ele>29</ele>
        <time>2020-07-22T17:58:28Z</time>
      </trkpt>
      <trkpt lat="48.81686" lon="2.44271">
        <ele>29</ele>
        <time>2020-07-22T17:58:29Z</time>
      </trkpt>
      <trkpt lat="48.81686" lon="2.44269">
        <ele>29</ele>
        <time>2020-07-22T17:58:30Z</time>
      </trkpt>
      <trkpt lat="48.81686" lon="2.44267">
        <ele>29</ele>
        <time>2020-07-22T17:58:31Z</time>
      </trkpt>
      <trkpt lat="48.81687" lon="2.44265">
        <ele>29</ele>
        <time>2020-07-22T17:58:32Z</time>
      </trkpt>
      <trkpt lat="48.81688" lon="2.44264">
        <ele>29</ele>
        <time>2020-07-22T17:58:33Z</time>
      </trkpt>
      <trkpt lat="48.81688" lon="2.44263">
        <ele>29</ele>
        <time>2020-07-22T17:58:34Z</time>
      </trkpt>
      <trkpt lat="48.81689" lon="2.44262">
        <ele>29</ele>
        <time>2020-07-22T17:58:35Z</time>
      </trkpt>
      <trkpt lat="48.8169" lon="2.44261">
        <ele>29</ele>
        <time>2020-07-22T17:58:36Z</time>
      </trkpt>
      <trkpt lat="48.81691" lon="2.44261">
        <ele>29</ele>
        <time>2020-07-22T17:58:37Z</time>
      </trkpt>
      <trkpt lat="48.81692" lon="2.44261">
        <ele>30</ele>
        <time>2020-07-22T17:58:38Z</time>
      </trkpt>
      <trkpt lat="48.81693" lon="2.44261">
        <ele>30</ele>
        <time>2020-07-22T17:58:39Z</time>
      </trkpt>
      <trkpt lat="48.81694" lon="2.44261">
        <ele>30</ele>
        <time>2020-07-22T17:58:40Z</time>
      </trkpt>
      <trkpt lat="48.81696" lon="2.44261">
        <ele>30</ele>
        <time>2020-07-22T17:58:41Z</time>
      </trkpt>
      <trkpt lat="48.81697" lon="2.44261">
        <ele>30</ele>
        <time>2020-07-22T17:58:42Z</time>
      </trkpt>
      <trkpt lat="48.81698" lon="2.44262">
        <ele>30</ele>
        <time>2020-07-22T17:58:43Z</time>
      </trkpt>
      <trkpt lat="48.81699" lon="2.44262">
        <ele>30</ele>
        <time>2020-07-22T17:58:44Z</time>
      </trkpt>
      <trkpt lat="48.81701" lon="2.44262">
        <ele>30</ele>
        <time>2020-07-22T17:58:45Z</time>
      </trkpt>
      <trkpt lat="48.81702" lon="2.44262">
        <ele>30</ele>
        <time>2020-07-22T17:58:46Z</time>
      </trkpt>
      <trkpt lat="48.81703" lon="2.44262">
        <ele>30</ele>
        <time>2020-07-22T17:58:47Z</time>
      </trkpt>
      <trkpt lat="48.81705" lon="2.44262">
        <ele>30</ele>
        <time>2020-07-22T17:58:48Z</time>
      </trkpt>
      <trkpt lat="48.81707" lon="2.44262">
        <ele>30</ele>
        <time>2020-07-22T17:58:49Z</time>
      </trkpt>
      <trkpt lat="48.81708" lon="2.44262">
        <ele>30</ele>
        <time>2020-07-22T17:58:50Z</time>
      </trkpt>
      <trkpt lat="48.8171" lon="2.44262">
        <ele>30</ele>
        <time>2020-07-22T17:58:51Z</time>
      </trkpt>
      <trkpt lat="48.81711" lon="2.44262">
        <ele>30</ele>
        <time>2020-07-22T17:58:52Z</time>
      </trkpt>
      <trkpt lat="48.81713" lon="2.44262">
        <ele>30</ele>
        <time>2020-07-22T17:58:53Z</time>
      </trkpt>
      <trkpt lat="48.81714" lon="2.44262">
        <ele>30</ele>
        <time>2020-07-22T17:58:54Z</time>
      </trkpt>
      <trkpt lat="48.81715" lon="2.44262">
        <ele>30</ele>
        <time>2020-07-22T17:58:55Z</time>
      </trkpt>
      <trkpt lat="48.81717" lon="2.44262">
        <ele>30</ele>
        <time>2020-07-22T17:58:56Z</time>
      </trkpt>
      <trkpt lat="48.81718" lon="2.44262">
        <ele>30</ele>
        <time>2020-07-22T17:58:57Z</time>
      </trkpt>
      <trkpt lat="48.81719" lon="2.44262">
        <ele>30</ele>
        <time>2020-07-22T17:58:58Z</time>
      </trkpt>
      <trkpt lat="48.8172" lon="2.44262">
        <ele>30</ele>
        <time>2020-07-22T17:58:59Z</time>
      </trkpt>
      <trkpt lat="48.81721" lon="2.44262">
        <ele>30</ele>
        <time>2020-07-22T17:59:00Z</time>
      </trkpt>
      <trkpt lat="48.81722" lon="2.44263">
        <ele>30</ele>
        <time>2020-07-22T17:59:01Z</time>
      </trkpt>
      <trkpt lat="48.81723" lon="2.44263">
        <ele>30</ele>
        <time>2020-07-22T17:59:02Z</time>
      </trkpt>
      <trkpt lat="48.81725" lon="2.44263">
        <ele>30</ele>
        <time>2020-07-22T17:59:03Z</time>
      </trkpt>
      <trkpt lat="48.81726" lon="2.44264">
        <ele>30</ele>
        <time>2020-07-22T17:59:04Z</time>
      </trkpt>
      <trkpt lat="48.81727" lon="2.44264">
        <ele>30</ele>
        <time>2020-07-22T17:59:05Z</time>
      </trkpt>
      <trkpt lat="48.81728" lon="2.44264">
        <ele>30</ele>
        <time>2020-07-22T17:59:06Z</time>
      </trkpt>
      <trkpt lat="48.8173" lon="2.44265">
        <ele>30</ele>
        <time>2020-07-22T17:59:07Z</time>
      </trkpt>
      <trkpt lat="48.81731" lon="2.44265">
        <ele>30</ele>
        <time>2020-07-22T17:59:08Z</time>
      </trkpt>
      <trkpt lat="48.81732" lon="2.44265">
        <ele>29</ele>
        <time>2020-07-22T17:59:09Z</time>
      </trkpt>
      <trkpt lat="48.81733" lon="2.44266">
        <ele>29</ele>
        <time>2020-07-22T17:59:10Z</time>
      </trkpt>
      <trkpt lat="48.81735" lon="2.44266">
        <ele>29</ele>
        <time>2020-07-22T17:59:11Z</time>
      </trkpt>
      <trkpt lat="48.81736" lon="2.44267">
        <ele>29</ele>
        <time>2020-07-22T17:59:12Z</time>
      </trkpt>
      <trkpt lat="48.81737" lon="2.44267">
        <ele>29</ele>
        <time>2020-07-22T17:59:13Z</time>
      </trkpt>
      <trkpt lat="48.81739" lon="2.44268">
        <ele>29</ele>
        <time>2020-07-22T17:59:14Z</time>
      </trkpt>
      <trkpt lat="48.81741" lon="2.44268">
        <ele>29</ele>
        <time>2020-07-22T17:59:15Z</time>
      </trkpt>
      <trkpt lat="48.81742" lon="2.44268">
        <ele>29</ele>
        <time>2020-07-22T17:59:16Z</time>
      </trkpt>
      <trkpt lat="48.81743" lon="2.44269">
        <ele>29</ele>
        <time>2020-07-22T17:59:17Z</time>
      </trkpt>
      <trkpt lat="48.81745" lon="2.44269">
        <ele>29</ele>
        <time>2020-07-22T17:59:18Z</time>
      </trkpt>
      <trkpt lat="48.81747" lon="2.4427">
        <ele>28</ele>
        <time>2020-07-22T17:59:19Z</time>
      </trkpt>
      <trkpt lat="48.81748" lon="2.4427">
        <ele>28</ele>
        <time>2020-07-22T17:59:20Z</time>
      </trkpt>
      <trkpt lat="48.81749" lon="2.44271">
        <ele>28</ele>
        <time>2020-07-22T17:59:21Z</time>
      </trkpt>
      <trkpt lat="48.81751" lon="2.44271">
        <ele>28</ele>
        <time>2020-07-22T17:59:22Z</time>
      </trkpt>
      <trkpt lat="48.81753" lon="2.44271">
        <ele>28</ele>
        <time>2020-07-22T17:59:23Z</time>
      </trkpt>
      <trkpt lat="48.81754" lon="2.44271">
        <ele>28</ele>
        <time>2020-07-22T17:59:24Z</time>
      </trkpt>
      <trkpt lat="48.81755" lon="2.44271">
        <ele>28</ele>
        <time>2020-07-22T17:59:25Z</time>
      </trkpt>
      <trkpt lat="48.81757" lon="2.44271">
        <ele>28</ele>
        <time>2020-07-22T17:59:26Z</time>
      </trkpt>
      <trkpt lat="48.81758" lon="2.44271">
        <ele>28</ele>
        <time>2020-07-22T17:59:27Z</time>
      </trkpt>
      <trkpt lat="48.81759" lon="2.44271">
        <ele>28</ele>
        <time>2020-07-22T17:59:28Z</time>
      </trkpt>
      <trkpt lat="48.8176" lon="2.44272">
        <ele>27</ele>
        <time>2020-07-22T17:59:29Z</time>
      </trkpt>
      <trkpt lat="48.81761" lon="2.44272">
        <ele>27</ele>
        <time>2020-07-22T17:59:30Z</time>
      </trkpt>
      <trkpt lat="48.81762" lon="2.44272">
        <ele>27</ele>
        <time>2020-07-22T17:59:31Z</time>
      </trkpt>
      <trkpt lat="48.81763" lon="2.44273">
        <ele>27</ele>
        <time>2020-07-22T17:59:32Z</time>
      </trkpt>
      <trkpt lat="48.81765" lon="2.44273">
        <ele>27</ele>
        <time>2020-07-22T17:59:33Z</time>
      </trkpt>
      <trkpt lat="48.81766" lon="2.44274">
        <ele>27</ele>
        <time>2020-07-22T17:59:34Z</time>
      </trkpt>
      <trkpt lat="48.81767" lon="2.44275">
        <ele>27</ele>
        <time>2020-07-22T17:59:35Z</time>
      </trkpt>
      <trkpt lat="48.81768" lon="2.44276">
        <ele>27</ele>
        <time>2020-07-22T17:59:36Z</time>
      </trkpt>
      <trkpt lat="48.81768" lon="2.44278">
        <ele>27</ele>
        <time>2020-07-22T17:59:37Z</time>
      </trkpt>
      <trkpt lat="48.81769" lon="2.44279">
        <ele>27</ele>
        <time>2020-07-22T17:59:38Z</time>
      </trkpt>
      <trkpt lat="48.81769" lon="2.44281">
        <ele>26</ele>
        <time>2020-07-22T17:59:39Z</time>
      </trkpt>
      <trkpt lat="48.81769" lon="2.44283">
        <ele>26</ele>
        <time>2020-07-22T17:59:40Z</time>
      </trkpt>
      <trkpt lat="48.81769" lon="2.44285">
        <ele>26</ele>
        <time>2020-07-22T17:59:41Z</time>
      </trkpt>
      <trkpt lat="48.81769" lon="2.44287">
        <ele>26</ele>
        <time>2020-07-22T17:59:42Z</time>
      </trkpt>
      <trkpt lat="48.81768" lon="2.44289">
        <ele>26</ele>
        <time>2020-07-22T17:59:43Z</time>
      </trkpt>
      <trkpt lat="48.81768" lon="2.4429">
        <ele>25</ele>
        <time>2020-07-22T17:59:44Z</time>
      </trkpt>
      <trkpt lat="48.81767" lon="2.44291">
        <ele>25</ele>
        <time>2020-07-22T17:59:45Z</time>
      </trkpt>
      <trkpt lat="48.81767" lon="2.44293">
        <ele>25</ele>
        <time>2020-07-22T17:59:46Z</time>
      </trkpt>
      <trkpt lat="48.81765" lon="2.44293">
        <ele>25</ele>
        <time>2020-07-22T17:59:47Z</time>
      </trkpt>
      <trkpt lat="48.81764" lon="2.44293">
        <ele>25</ele>
        <time>2020-07-22T17:59:48Z</time>
      </trkpt>
      <trkpt lat="48.81763" lon="2.44293">
        <ele>25</ele>
        <time>2020-07-22T17:59:49Z</time>
      </trkpt>
      <trkpt lat="48.81762" lon="2.44292">
        <ele>25</ele>
        <time>2020-07-22T17:59:50Z</time>
      </trkpt>
      <trkpt lat="48.81761" lon="2.4429">
        <ele>25</ele>
        <time>2020-07-22T17:59:51Z</time>
      </trkpt>
      <trkpt lat="48.81761" lon="2.44289">
        <ele>25</ele>
        <time>2020-07-22T17:59:52Z</time>
      </trkpt>
      <trkpt lat="48.8176" lon="2.44287">
        <ele>25</ele>
        <time>2020-07-22T17:59:53Z</time>
      </trkpt>
      <trkpt lat="48.8176" lon="2.44285">
        <ele>24</ele>
        <time>2020-07-22T17:59:54Z</time>
      </trkpt>
      <trkpt lat="48.8176" lon="2.44283">
        <ele>24</ele>
        <time>2020-07-22T17:59:55Z</time>
      </trkpt>
      <trkpt lat="48.8176" lon="2.44282">
        <ele>24</ele>
        <time>2020-07-22T17:59:56Z</time>
      </trkpt>
      <trkpt lat="48.8176" lon="2.4428">
        <ele>24</ele>
        <time>2020-07-22T17:59:57Z</time>
      </trkpt>
      <trkpt lat="48.81759" lon="2.44279">
        <ele>24</ele>
        <time>2020-07-22T17:59:58Z</time>
      </trkpt>
      <trkpt lat="48.81759" lon="2.44278">
        <ele>24</ele>
        <time>2020-07-22T17:59:59Z</time>
      </trkpt>
      <trkpt lat="48.81759" lon="2.44277">
        <ele>24</ele>
        <time>2020-07-22T18:00:00Z</time>
      </trkpt>
      <trkpt lat="48.8176" lon="2.44276">
        <ele>24</ele>
        <time>2020-07-22T18:00:01Z</time>
      </trkpt>
      <trkpt lat="48.8176" lon="2.44275">
        <ele>24</ele>
        <time>2020-07-22T18:00:02Z</time>
      </trkpt>
      <trkpt lat="48.81762" lon="2.44275">
        <ele>24</ele>
        <time>2020-07-22T18:00:03Z</time>
      </trkpt>
      <trkpt lat="48.81763" lon="2.44274">
        <ele>23</ele>
        <time>2020-07-22T18:00:04Z</time>
      </trkpt>
      <trkpt lat="48.81764" lon="2.44274">
        <ele>23</ele>
        <time>2020-07-22T18:00:05Z</time>
      </trkpt>
      <trkpt lat="48.81766" lon="2.44274">
        <ele>23</ele>
        <time>2020-07-22T18:00:06Z</time>
      </trkpt>
      <trkpt lat="48.81767" lon="2.44274">
        <ele>23</ele>
        <time>2020-07-22T18:00:07Z</time>
      </trkpt>
      <trkpt lat="48.81769" lon="2.44274">
        <ele>23</ele>
        <time>2020-07-22T18:00:08Z</time>
      </trkpt>
      <trkpt lat="48.8177" lon="2.44274">
        <ele>22</ele>
        <time>2020-07-22T18:00:09Z</time>
      </trkpt>
      <trkpt lat="48.81771" lon="2.44275">
        <ele>22</ele>
        <time>2020-07-22T18:00:10Z</time>
      </trkpt>
      <trkpt lat="48.81772" lon="2.44275">
        <ele>22</ele>
        <time>2020-07-22T18:00:11Z</time>
      </trkpt>
      <trkpt lat="48.81773" lon="2.44275">
        <ele>22</ele>
        <time>2020-07-22T18:00:12Z</time>
      </trkpt>
      <trkpt lat="48.81774" lon="2.44275">
        <ele>22</ele>
        <time>2020-07-22T18:00:13Z</time>
      </trkpt>
      <trkpt lat="48.81775" lon="2.44275">
        <ele>21</ele>
        <time>2020-07-22T18:00:14Z</time>
      </trkpt>
      <trkpt lat="48.81776" lon="2.44275">
        <ele>21</ele>
        <time>2020-07-22T18:00:15Z</time>
      </trkpt>
      <trkpt lat="48.81777" lon="2.44275">
        <ele>21</ele>
        <time>2020-07-22T18:00:16Z</time>
      </trkpt>
      <trkpt lat="48.81778" lon="2.44275">
        <ele>21</ele>
        <time>2020-07-22T18:00:17Z</time>
      </trkpt>
      <trkpt lat="48.81779" lon="2.44274">
        <ele>21</ele>
        <time>2020-07-22T18:00:18Z</time>
      </trkpt>
      <trkpt lat="48.81781" lon="2.44274">
        <ele>21</ele>
        <time>2020-07-22T18:00:19Z</time>
      </trkpt>
      <trkpt lat="48.81781" lon="2.44273">
        <ele>21</ele>
        <time>2020-07-22T18:00:20Z</time>
      </trkpt>
      <trkpt lat="48.81783" lon="2.44273">
        <ele>21</ele>
        <time>2020-07-22T18:00:21Z</time>
      </trkpt>
      <trkpt lat="48.81784" lon="2.44273">
        <ele>21</ele>
        <time>2020-07-22T18:00:22Z</time>
      </trkpt>
      <trkpt lat="48.81785" lon="2.44272">
        <ele>21</ele>
        <time>2020-07-22T18:00:23Z</time>
      </trkpt>
      <trkpt lat="48.81786" lon="2.44272">
        <ele>21</ele>
        <time>2020-07-22T18:00:24Z</time>
      </trkpt>
      <trkpt lat="48.81787" lon="2.44272">
        <ele>21</ele>
        <time>2020-07-22T18:00:25Z</time>
      </trkpt>
      <trkpt lat="48.81789" lon="2.44271">
        <ele>21</ele>
        <time>2020-07-22T18:00:26Z</time>
      </trkpt>
      <trkpt lat="48.8179" lon="2.4427">
        <ele>21</ele>
        <time>2020-07-22T18:00:27Z</time>
      </trkpt>
      <trkpt lat="48.81791" lon="2.44269">
        <ele>21</ele>
        <time>2020-07-22T18:00:28Z</time>
      </trkpt>
      <trkpt lat="48.81791" lon="2.44267">
        <ele>20</ele>
        <time>2020-07-22T18:00:29Z</time>
      </trkpt>
      <trkpt lat="48.81792" lon="2.44266">
        <ele>20</ele>
        <time>2020-07-22T18:00:30Z</time>
      </trkpt>
      <trkpt lat="48.81792" lon="2.44264">
        <ele>20</ele>
        <time>2020-07-22T18:00:31Z</time>
      </trkpt>
      <trkpt lat="48.81792" lon="2.44262">
        <ele>20</ele>
        <time>2020-07-22T18:00:32Z</time>
      </trkpt>
      <trkpt lat="48.81792" lon="2.4426">
        <ele>20</ele>
        <time>2020-07-22T18:00:33Z</time>
      </trkpt>
      <trkpt lat="48.81792" lon="2.44258">
        <ele>20</ele>
        <time>2020-07-22T18:00:34Z</time>
      </trkpt>
      <trkpt lat="48.81792" lon="2.44256">
        <ele>20</ele>
        <time>2020-07-22T18:00:35Z</time>
      </trkpt>
      <trkpt lat="48.81792" lon="2.44254">
        <ele>20</ele>
        <time>2020-07-22T18:00:36Z</time>
      </trkpt>
      <trkpt lat="48.81792" lon="2.44251">
        <ele>20</ele>
        <time>2020-07-22T18:00:37Z</time>
      </trkpt>
      <trkpt lat="48.81792" lon="2.44249">
        <ele>20</ele>
        <time>2020-07-22T18:00:38Z</time>
      </trkpt>
      <trkpt lat="48.81792" lon="2.44247">
        <ele>20</ele>
        <time>2020-07-22T18:00:39Z</time>
      </trkpt>
      <trkpt lat="48.81792" lon="2.44245">
        <ele>20</ele>
        <time>2020-07-22T18:00:40Z</time>
      </trkpt>
      <trkpt lat="48.81792" lon="2.44243">
        <ele>20</ele>
        <time>2020-07-22T18:00:41Z</time>
      </trkpt>
      <trkpt lat="48.81792" lon="2.44242">
        <ele>20</ele>
        <time>2020-07-22T18:00:42Z</time>
      </trkpt>
      <trkpt lat="48.81791" lon="2.44241">
        <ele>21</ele>
        <time>2020-07-22T18:00:59Z</time>
      </trkpt>
      <trkpt lat="48.81791" lon="2.4424">
        <ele>21</ele>
        <time>2020-07-22T18:01:00Z</time>
      </trkpt>
      <trkpt lat="48.8179" lon="2.4424">
        <ele>21</ele>
        <time>2020-07-22T18:01:01Z</time>
      </trkpt>
      <trkpt lat="48.8179" lon="2.44239">
        <ele>21</ele>
        <time>2020-07-22T18:01:02Z</time>
      </trkpt>
      <trkpt lat="48.81791" lon="2.44238">
        <ele>21</ele>
        <time>2020-07-22T18:01:03Z</time>
      </trkpt>
      <trkpt lat="48.81791" lon="2.44236">
        <ele>21</ele>
        <time>2020-07-22T18:01:04Z</time>
      </trkpt>
      <trkpt lat="48.81791" lon="2.44235">
        <ele>21</ele>
        <time>2020-07-22T18:01:05Z</time>
      </trkpt>
      <trkpt lat="48.81792" lon="2.44233">
        <ele>21</ele>
        <time>2020-07-22T18:01:06Z</time>
      </trkpt>
      <trkpt lat="48.81792" lon="2.44232">
        <ele>21</ele>
        <time>2020-07-22T18:01:07Z</time>
      </trkpt>
      <trkpt lat="48.81792" lon="2.4423">
        <ele>21</ele>
        <time>2020-07-22T18:01:08Z</time>
      </trkpt>
      <trkpt lat="48.81792" lon="2.44228">
        <ele>21</ele>
        <time>2020-07-22T18:01:09Z</time>
      </trkpt>
      <trkpt lat="48.81793" lon="2.44226">
        <ele>21</ele>
        <time>2020-07-22T18:01:10Z</time>
      </trkpt>
      <trkpt lat="48.81793" lon="2.44225">
        <ele>21</ele>
        <time>2020-07-22T18:01:11Z</time>
      </trkpt>
      <trkpt lat="48.81794" lon="2.44223">
        <ele>21</ele>
        <time>2020-07-22T18:01:12Z</time>
      </trkpt>
      <trkpt lat="48.81794" lon="2.44221">
        <ele>21</ele>
        <time>2020-07-22T18:01:13Z</time>
      </trkpt>
      <trkpt lat="48.81794" lon="2.44219">
        <ele>21</ele>
        <time>2020-07-22T18:01:14Z</time>
      </trkpt>
      <trkpt lat="48.81794" lon="2.44218">
        <ele>21</ele>
        <time>2020-07-22T18:01:15Z</time>
      </trkpt>
      <trkpt lat="48.81795" lon="2.44216">
        <ele>21</ele>
        <time>2020-07-22T18:01:16Z</time>
      </trkpt>
      <trkpt lat="48.81795" lon="2.44214">
        <ele>21</ele>
        <time>2020-07-22T18:01:17Z</time>
      </trkpt>
      <trkpt lat="48.81795" lon="2.44214">
        <ele>21</ele>
        <time>2020-07-22T18:01:18Z</time>
      </trkpt>
      <trkpt lat="48.81796" lon="2.44213">
        <ele>21</ele>
        <time>2020-07-22T18:01:19Z</time>
      </trkpt>
      <trkpt lat="48.81797" lon="2.44213">
        <ele>21</ele>
        <time>2020-07-22T18:01:20Z</time>
      </trkpt>
      <trkpt lat="48.81799" lon="2.44213">
        <ele>21</ele>
        <time>2020-07-22T18:01:21Z</time>
      </trkpt>
      <trkpt lat="48.81801" lon="2.44212">
        <ele>21</ele>
        <time>2020-07-22T18:01:27Z</time>
      </trkpt>
      <trkpt lat="48.81802" lon="2.44212">
        <ele>21</ele>
        <time>2020-07-22T18:01:28Z</time>
      </trkpt>
      <trkpt lat="48.81802" lon="2.44212">
        <ele>21</ele>
        <time>2020-07-22T18:01:29Z</time>
      </trkpt>
      <trkpt lat="48.81802" lon="2.44213">
        <ele>21</ele>
        <time>2020-07-22T18:01:30Z</time>
      </trkpt>
      <trkpt lat="48.81803" lon="2.44213">
        <ele>21</ele>
        <time>2020-07-22T18:01:31Z</time>
      </trkpt>
      <trkpt lat="48.81803" lon="2.44214">
        <ele>21</ele>
        <time>2020-07-22T18:01:32Z</time>
      </trkpt>
      <trkpt lat="48.81803" lon="2.44215">
        <ele>21</ele>
        <time>2020-07-22T18:01:33Z</time>
      </trkpt>
      <trkpt lat="48.81803" lon="2.44217">
        <ele>21</ele>
        <time>2020-07-22T18:01:34Z</time>
      </trkpt>
      <trkpt lat="48.81803" lon="2.44218">
        <ele>21</ele>
        <time>2020-07-22T18:01:35Z</time>
      </trkpt>
      <trkpt lat="48.81803" lon="2.44219">
        <ele>21</ele>
        <time>2020-07-22T18:01:36Z</time>
      </trkpt>
      <trkpt lat="48.81802" lon="2.44221">
        <ele>21</ele>
        <time>2020-07-22T18:01:37Z</time>
      </trkpt>
      <trkpt lat="48.81802" lon="2.44222">
        <ele>22</ele>
        <time>2020-07-22T18:01:38Z</time>
      </trkpt>
      <trkpt lat="48.81802" lon="2.44223">
        <ele>22</ele>
        <time>2020-07-22T18:01:39Z</time>
      </trkpt>
      <trkpt lat="48.81801" lon="2.44224">
        <ele>24</ele>
        <time>2020-07-22T18:02:01Z</time>
      </trkpt>
      <trkpt lat="48.81801" lon="2.44223">
        <ele>24</ele>
        <time>2020-07-22T18:02:02Z</time>
      </trkpt>
      <trkpt lat="48.81801" lon="2.44223">
        <ele>24</ele>
        <time>2020-07-22T18:02:03Z</time>
      </trkpt>
      <trkpt lat="48.81801" lon="2.44223">
        <ele>24</ele>
        <time>2020-07-22T18:02:04Z</time>
      </trkpt>
      <trkpt lat="48.81801" lon="2.44222">
        <ele>24</ele>
        <time>2020-07-22T18:02:05Z</time>
      </trkpt>
      <trkpt lat="48.81801" lon="2.44222">
        <ele>24</ele>
        <time>2020-07-22T18:02:06Z</time>
      </trkpt>
      <trkpt lat="48.818" lon="2.44222">
        <ele>24</ele>
        <time>2020-07-22T18:02:07Z</time>
      </trkpt>
      <trkpt lat="48.818" lon="2.44221">
        <ele>25</ele>
        <time>2020-07-22T18:02:08Z</time>
      </trkpt>
      <trkpt lat="48.818" lon="2.4422">
        <ele>24</ele>
        <time>2020-07-22T18:02:09Z</time>
      </trkpt>
      <trkpt lat="48.818" lon="2.44219">
        <ele>24</ele>
        <time>2020-07-22T18:02:10Z</time>
      </trkpt>
      <trkpt lat="48.818" lon="2.44218">
        <ele>24</ele>
        <time>2020-07-22T18:02:11Z</time>
      </trkpt>
      <trkpt lat="48.818" lon="2.44217">
        <ele>24</ele>
        <time>2020-07-22T18:02:12Z</time>
      </trkpt>
      <trkpt lat="48.81799" lon="2.44215">
        <ele>24</ele>
        <time>2020-07-22T18:02:13Z</time>
      </trkpt>
      <trkpt lat="48.81799" lon="2.44214">
        <ele>24</ele>
        <time>2020-07-22T18:02:14Z</time>
      </trkpt>
      <trkpt lat="48.81799" lon="2.44212">
        <ele>24</ele>
        <time>2020-07-22T18:02:15Z</time>
      </trkpt>
      <trkpt lat="48.818" lon="2.4421">
        <ele>24</ele>
        <time>2020-07-22T18:02:16Z</time>
      </trkpt>
      <trkpt lat="48.818" lon="2.44209">
        <ele>24</ele>
        <time>2020-07-22T18:02:17Z</time>
      </trkpt>
      <trkpt lat="48.81801" lon="2.44207">
        <ele>24</ele>
        <time>2020-07-22T18:02:18Z</time>
      </trkpt>
      <trkpt lat="48.81801" lon="2.44205">
        <ele>24</ele>
        <time>2020-07-22T18:02:19Z</time>
      </trkpt>
      <trkpt lat="48.81801" lon="2.44203">
        <ele>24</ele>
        <time>2020-07-22T18:02:20Z</time>
      </trkpt>
      <trkpt lat="48.81802" lon="2.44201">
        <ele>24</ele>
        <time>2020-07-22T18:02:21Z</time>
      </trkpt>
      <trkpt lat="48.81802" lon="2.442">
        <ele>24</ele>
        <time>2020-07-22T18:02:22Z</time>
      </trkpt>
      <trkpt lat="48.81802" lon="2.44199">
        <ele>24</ele>
        <time>2020-07-22T18:02:23Z</time>
      </trkpt>
      <trkpt lat="48.81802" lon="2.44198">
        <ele>24</ele>
        <time>2020-07-22T18:02:24Z</time>
      </trkpt>
      <trkpt lat="48.81802" lon="2.44197">
        <ele>24</ele>
        <time>2020-07-22T18:02:25Z</time>
      </trkpt>
      <trkpt lat="48.81803" lon="2.44196">
        <ele>24</ele>
        <time>2020-07-22T18:02:26Z</time>
      </trkpt>
      <trkpt lat="48.81803" lon="2.44195">
        <ele>24</ele>
        <time>2020-07-22T18:02:27Z</time>
      </trkpt>
      <trkpt lat="48.81804" lon="2.44193">
        <ele>24</ele>
        <time>2020-07-22T18:02:28Z</time>
      </trkpt>
      <trkpt lat="48.81804" lon="2.44192">
        <ele>24</ele>
        <time>2020-07-22T18:02:29Z</time>
      </trkpt>
      <trkpt lat="48.81805" lon="2.44191">
        <ele>24</ele>
        <time>2020-07-22T18:02:30Z</time>
      </trkpt>
      <trkpt lat="48.81807" lon="2.44189">
        <ele>24</ele>
        <time>2020-07-22T18:02:31Z</time>
      </trkpt>
      <trkpt lat="48.81807" lon="2.44188">
        <ele>24</ele>
        <time>2020-07-22T18:02:32Z</time>
      </trkpt>
      <trkpt lat="48.81809" lon="2.44187">
        <ele>25</ele>
        <time>2020-07-22T18:02:33Z</time>
      </trkpt>
      <trkpt lat="48.81809" lon="2.44186">
        <ele>25</ele>
        <time>2020-07-22T18:02:34Z</time>
      </trkpt>
      <trkpt lat="48.81809" lon="2.44186">
        <ele>25</ele>
        <time>2020-07-22T18:02:35Z</time>
      </trkpt>
      <trkpt lat="48.8181" lon="2.44185">
        <ele>25</ele>
        <time>2020-07-22T18:02:36Z</time>
      </trkpt>
      <trkpt lat="48.8181" lon="2.44185">
        <ele>25</ele>
        <time>2020-07-22T18:02:37Z</time>
      </trkpt>
      <trkpt lat="48.81811" lon="2.44184">
        <ele>25</ele>
        <time>2020-07-22T18:02:38Z</time>
      </trkpt>
      <trkpt lat="48.81812" lon="2.44184">
        <ele>25</ele>
        <time>2020-07-22T18:02:39Z</time>
      </trkpt>
      <trkpt lat="48.81812" lon="2.44183">
        <ele>25</ele>
        <time>2020-07-22T18:02:40Z</time>
      </trkpt>
      <trkpt lat="48.81812" lon="2.44183">
        <ele>25</ele>
        <time>2020-07-22T18:02:41Z</time>
      </trkpt>
      <trkpt lat="48.81813" lon="2.44182">
        <ele>25</ele>
        <time>2020-07-22T18:02:42Z</time>
      </trkpt>
      <trkpt lat="48.81813" lon="2.44181">
        <ele>25</ele>
        <time>2020-07-22T18:02:43Z</time>
      </trkpt>
      <trkpt lat="48.81813" lon="2.4418">
        <ele>25</ele>
        <time>2020-07-22T18:02:44Z</time>
      </trkpt>
      <trkpt lat="48.81814" lon="2.4418">
        <ele>25</ele>
        <time>2020-07-22T18:02:45Z</time>
      </trkpt>
      <trkpt lat="48.81815" lon="2.44179">
        <ele>25</ele>
        <time>2020-07-22T18:02:46Z</time>
      </trkpt>
      <trkpt lat="48.81815" lon="2.44178">
        <ele>25</ele>
        <time>2020-07-22T18:02:47Z</time>
      </trkpt>
      <trkpt lat="48.81816" lon="2.44177">
        <ele>26</ele>
        <time>2020-07-22T18:02:48Z</time>
      </trkpt>
      <trkpt lat="48.81817" lon="2.44176">
        <ele>26</ele>
        <time>2020-07-22T18:02:49Z</time>
      </trkpt>
      <trkpt lat="48.81817" lon="2.44176">
        <ele>26</ele>
        <time>2020-07-22T18:02:50Z</time>
      </trkpt>
      <trkpt lat="48.81817" lon="2.44175">
        <ele>26</ele>
        <time>2020-07-22T18:02:51Z</time>
      </trkpt>
      <trkpt lat="48.81817" lon="2.44175">
        <ele>26</ele>
        <time>2020-07-22T18:02:52Z</time>
      </trkpt>
      <trkpt lat="48.81817" lon="2.44174">
        <ele>26</ele>
        <time>2020-07-22T18:02:53Z</time>
      </trkpt>
      <trkpt lat="48.81818" lon="2.44173">
        <ele>26</ele>
        <time>2020-07-22T18:02:54Z</time>
      </trkpt>
      <trkpt lat="48.81818" lon="2.44172">
        <ele>26</ele>
        <time>2020-07-22T18:02:55Z</time>
      </trkpt>
      <trkpt lat="48.81819" lon="2.44171">
        <ele>26</ele>
        <time>2020-07-22T18:02:56Z</time>
      </trkpt>
      <trkpt lat="48.8182" lon="2.4417">
        <ele>26</ele>
        <time>2020-07-22T18:02:57Z</time>
      </trkpt>
      <trkpt lat="48.8182" lon="2.4417">
        <ele>27</ele>
        <time>2020-07-22T18:02:58Z</time>
      </trkpt>
      <trkpt lat="48.8182" lon="2.44169">
        <ele>27</ele>
        <time>2020-07-22T18:02:59Z</time>
      </trkpt>
      <trkpt lat="48.81821" lon="2.44168">
        <ele>27</ele>
        <time>2020-07-22T18:03:00Z</time>
      </trkpt>
      <trkpt lat="48.81821" lon="2.44166">
        <ele>27</ele>
        <time>2020-07-22T18:03:01Z</time>
      </trkpt>
      <trkpt lat="48.81822" lon="2.44165">
        <ele>27</ele>
        <time>2020-07-22T18:03:02Z</time>
      </trkpt>
      <trkpt lat="48.81822" lon="2.44164">
        <ele>27</ele>
        <time>2020-07-22T18:03:03Z</time>
      </trkpt>
      <trkpt lat="48.81823" lon="2.44162">
        <ele>27</ele>
        <time>2020-07-22T18:03:04Z</time>
      </trkpt>
      <trkpt lat="48.81823" lon="2.44161">
        <ele>27</ele>
        <time>2020-07-22T18:03:05Z</time>
      </trkpt>
      <trkpt lat="48.81823" lon="2.4416">
        <ele>27</ele>
        <time>2020-07-22T18:03:06Z</time>
      </trkpt>
      <trkpt lat="48.81824" lon="2.44159">
        <ele>27</ele>
        <time>2020-07-22T18:03:07Z</time>
      </trkpt>
      <trkpt lat="48.81824" lon="2.44157">
        <ele>27</ele>
        <time>2020-07-22T18:03:08Z</time>
      </trkpt>
      <trkpt lat="48.81824" lon="2.44156">
        <ele>27</ele>
        <time>2020-07-22T18:03:09Z</time>
      </trkpt>
      <trkpt lat="48.81824" lon="2.44155">
        <ele>27</ele>
        <time>2020-07-22T18:03:10Z</time>
      </trkpt>
      <trkpt lat="48.81825" lon="2.44154">
        <ele>27</ele>
        <time>2020-07-22T18:03:11Z</time>
      </trkpt>
      <trkpt lat="48.81825" lon="2.44153">
        <ele>27</ele>
        <time>2020-07-22T18:03:12Z</time>
      </trkpt>
      <trkpt lat="48.81825" lon="2.44152">
        <ele>28</ele>
        <time>2020-07-22T18:03:13Z</time>
      </trkpt>
      <trkpt lat="48.81825" lon="2.44151">
        <ele>28</ele>
        <time>2020-07-22T18:03:14Z</time>
      </trkpt>
      <trkpt lat="48.81826" lon="2.44151">
        <ele>28</ele>
        <time>2020-07-22T18:03:15Z</time>
      </trkpt>
      <trkpt lat="48.81826" lon="2.4415">
        <ele>28</ele>
        <time>2020-07-22T18:03:16Z</time>
      </trkpt>
      <trkpt lat="48.81826" lon="2.44149">
        <ele>28</ele>
        <time>2020-07-22T18:03:17Z</time>
      </trkpt>
      <trkpt lat="48.81826" lon="2.44148">
        <ele>29</ele>
        <time>2020-07-22T18:03:18Z</time>
      </trkpt>
      <trkpt lat="48.81827" lon="2.44148">
        <ele>29</ele>
        <time>2020-07-22T18:03:19Z</time>
      </trkpt>
      <trkpt lat="48.81828" lon="2.44147">
        <ele>29</ele>
        <time>2020-07-22T18:03:20Z</time>
      </trkpt>
      <trkpt lat="48.81828" lon="2.44146">
        <ele>29</ele>
        <time>2020-07-22T18:03:21Z</time>
      </trkpt>
      <trkpt lat="48.81828" lon="2.44145">
        <ele>29</ele>
        <time>2020-07-22T18:03:22Z</time>
      </trkpt>
      <trkpt lat="48.81829" lon="2.44144">
        <ele>30</ele>
        <time>2020-07-22T18:03:23Z</time>
      </trkpt>
      <trkpt lat="48.8183" lon="2.44143">
        <ele>30</ele>
        <time>2020-07-22T18:03:24Z</time>
      </trkpt>
      <trkpt lat="48.8183" lon="2.44143">
        <ele>30</ele>
        <time>2020-07-22T18:03:25Z</time>
      </trkpt>
      <trkpt lat="48.81831" lon="2.44142">
        <ele>30</ele>
        <time>2020-07-22T18:03:26Z</time>
      </trkpt>
      <trkpt lat="48.81831" lon="2.4414">
        <ele>32</ele>
        <time>2020-07-22T18:03:46Z</time>
      </trkpt>
      <trkpt lat="48.81831" lon="2.44139">
        <ele>32</ele>
        <time>2020-07-22T18:03:47Z</time>
      </trkpt>
      <trkpt lat="48.81831" lon="2.44138">
        <ele>32</ele>
        <time>2020-07-22T18:03:48Z</time>
      </trkpt>
      <trkpt lat="48.81831" lon="2.44137">
        <ele>32</ele>
        <time>2020-07-22T18:03:49Z</time>
      </trkpt>
      <trkpt lat="48.81832" lon="2.44137">
        <ele>32</ele>
        <time>2020-07-22T18:03:50Z</time>
      </trkpt>
      <trkpt lat="48.81833" lon="2.44136">
        <ele>32</ele>
        <time>2020-07-22T18:03:51Z</time>
      </trkpt>
      <trkpt lat="48.81833" lon="2.44135">
        <ele>32</ele>
        <time>2020-07-22T18:03:52Z</time>
      </trkpt>
      <trkpt lat="48.81834" lon="2.44134">
        <ele>32</ele>
        <time>2020-07-22T18:03:53Z</time>
      </trkpt>
      <trkpt lat="48.81834" lon="2.44133">
        <ele>32</ele>
        <time>2020-07-22T18:03:54Z</time>
      </trkpt>
      <trkpt lat="48.81835" lon="2.44132">
        <ele>32</ele>
        <time>2020-07-22T18:03:55Z</time>
      </trkpt>
      <trkpt lat="48.81836" lon="2.44131">
        <ele>32</ele>
        <time>2020-07-22T18:03:56Z</time>
      </trkpt>
      <trkpt lat="48.81836" lon="2.4413">
        <ele>32</ele>
        <time>2020-07-22T18:03:57Z</time>
      </trkpt>
      <trkpt lat="48.81836" lon="2.44129">
        <ele>33</ele>
        <time>2020-07-22T18:03:58Z</time>
      </trkpt>
      <trkpt lat="48.81836" lon="2.44127">
        <ele>33</ele>
        <time>2020-07-22T18:03:59Z</time>
      </trkpt>
      <trkpt lat="48.81837" lon="2.44126">
        <ele>33</ele>
        <time>2020-07-22T18:04:00Z</time>
      </trkpt>
      <trkpt lat="48.81838" lon="2.44124">
        <ele>33</ele>
        <time>2020-07-22T18:04:01Z</time>
      </trkpt>
      <trkpt lat="48.81838" lon="2.44122">
        <ele>33</ele>
        <time>2020-07-22T18:04:02Z</time>
      </trkpt>
      <trkpt lat="48.81839" lon="2.4412">
        <ele>33</ele>
        <time>2020-07-22T18:04:03Z</time>
      </trkpt>
      <trkpt lat="48.8184" lon="2.44118">
        <ele>33</ele>
        <time>2020-07-22T18:04:04Z</time>
      </trkpt>
      <trkpt lat="48.81841" lon="2.44116">
        <ele>33</ele>
        <time>2020-07-22T18:04:05Z</time>
      </trkpt>
      <trkpt lat="48.81842" lon="2.44115">
        <ele>33</ele>
        <time>2020-07-22T18:04:06Z</time>
      </trkpt>
      <trkpt lat="48.81843" lon="2.44113">
        <ele>33</ele>
        <time>2020-07-22T18:04:07Z</time>
      </trkpt>
      <trkpt lat="48.81844" lon="2.44111">
        <ele>34</ele>
        <time>2020-07-22T18:04:08Z</time>
      </trkpt>
      <trkpt lat="48.81844" lon="2.4411">
        <ele>34</ele>
        <time>2020-07-22T18:04:09Z</time>
      </trkpt>
      <trkpt lat="48.81845" lon="2.44108">
        <ele>34</ele>
        <time>2020-07-22T18:04:10Z</time>
      </trkpt>
      <trkpt lat="48.81846" lon="2.44106">
        <ele>34</ele>
        <time>2020-07-22T18:04:11Z</time>
      </trkpt>
      <trkpt lat="48.81846" lon="2.44105">
        <ele>34</ele>
        <time>2020-07-22T18:04:12Z</time>
      </trkpt>
      <trkpt lat="48.81847" lon="2.44104">
        <ele>35</ele>
        <time>2020-07-22T18:04:13Z</time>
      </trkpt>
      <trkpt lat="48.81847" lon="2.44103">
        <ele>35</ele>
        <time>2020-07-22T18:04:14Z</time>
      </trkpt>
      <trkpt lat="48.81847" lon="2.44102">
        <ele>35</ele>
        <time>2020-07-22T18:04:15Z</time>
      </trkpt>
      <trkpt lat="48.81848" lon="2.44101">
        <ele>35</ele>
        <time>2020-07-22T18:04:16Z</time>
      </trkpt>
      <trkpt lat="48.81848" lon="2.441">
        <ele>35</ele>
        <time>2020-07-22T18:04:17Z</time>
      </trkpt>
      <trkpt lat="48.81849" lon="2.44099">
        <ele>36</ele>
        <time>2020-07-22T18:04:18Z</time>
      </trkpt>
      <trkpt lat="48.81849" lon="2.44098">
        <ele>36</ele>
        <time>2020-07-22T18:04:19Z</time>
      </trkpt>
      <trkpt lat="48.81849" lon="2.44097">
        <ele>36</ele>
        <time>2020-07-22T18:04:20Z</time>
      </trkpt>
      <trkpt lat="48.8185" lon="2.44096">
        <ele>36</ele>
        <time>2020-07-22T18:04:21Z</time>
      </trkpt>
      <trkpt lat="48.8185" lon="2.44095">
        <ele>36</ele>
        <time>2020-07-22T18:04:22Z</time>
      </trkpt>
      <trkpt lat="48.81851" lon="2.44094">
        <ele>37</ele>
        <time>2020-07-22T18:04:23Z</time>
      </trkpt>
      <trkpt lat="48.81851" lon="2.44092">
        <ele>37</ele>
        <time>2020-07-22T18:04:24Z</time>
      </trkpt>
      <trkpt lat="48.81852" lon="2.44091">
        <ele>37</ele>
        <time>2020-07-22T18:04:25Z</time>
      </trkpt>
      <trkpt lat="48.81852" lon="2.4409">
        <ele>37</ele>
        <time>2020-07-22T18:04:26Z</time>
      </trkpt>
      <trkpt lat="48.81853" lon="2.44088">
        <ele>37</ele>
        <time>2020-07-22T18:04:27Z</time>
      </trkpt>
      <trkpt lat="48.81853" lon="2.44087">
        <ele>37</ele>
        <time>2020-07-22T18:04:28Z</time>
      </trkpt>
      <trkpt lat="48.81854" lon="2.44086">
        <ele>37</ele>
        <time>2020-07-22T18:04:29Z</time>
      </trkpt>
      <trkpt lat="48.81854" lon="2.44084">
        <ele>37</ele>
        <time>2020-07-22T18:04:30Z</time>
      </trkpt>
      <trkpt lat="48.81854" lon="2.44083">
        <ele>37</ele>
        <time>2020-07-22T18:04:31Z</time>
      </trkpt>
      <trkpt lat="48.81854" lon="2.44082">
        <ele>37</ele>
        <time>2020-07-22T18:04:32Z</time>
      </trkpt>
      <trkpt lat="48.81854" lon="2.44081">
        <ele>38</ele>
        <time>2020-07-22T18:04:33Z</time>
      </trkpt>
      <trkpt lat="48.81854" lon="2.44079">
        <ele>38</ele>
        <time>2020-07-22T18:04:34Z</time>
      </trkpt>
      <trkpt lat="48.81854" lon="2.44078">
        <ele>38</ele>
        <time>2020-07-22T18:04:35Z</time>
      </trkpt>
      <trkpt lat="48.81854" lon="2.44076">
        <ele>38</ele>
        <time>2020-07-22T18:04:36Z</time>
      </trkpt>
      <trkpt lat="48.81854" lon="2.44074">
        <ele>38</ele>
        <time>2020-07-22T18:04:37Z</time>
      </trkpt>
      <trkpt lat="48.81855" lon="2.44072">
        <ele>39</ele>
        <time>2020-07-22T18:04:38Z</time>
      </trkpt>
      <trkpt lat="48.81855" lon="2.4407">
        <ele>39</ele>
        <time>2020-07-22T18:04:39Z</time>
      </trkpt>
      <trkpt lat="48.81856" lon="2.44068">
        <ele>39</ele>
        <time>2020-07-22T18:04:40Z</time>
      </trkpt>
      <trkpt lat="48.81856" lon="2.44067">
        <ele>39</ele>
        <time>2020-07-22T18:04:41Z</time>
      </trkpt>
      <trkpt lat="48.81857" lon="2.44065">
        <ele>39</ele>
        <time>2020-07-22T18:04:42Z</time>
      </trkpt>
      <trkpt lat="48.81857" lon="2.44064">
        <ele>39</ele>
        <time>2020-07-22T18:04:43Z</time>
      </trkpt>
      <trkpt lat="48.81858" lon="2.44062">
        <ele>39</ele>
        <time>2020-07-22T18:04:44Z</time>
      </trkpt>
      <trkpt lat="48.81859" lon="2.4406">
        <ele>39</ele>
        <time>2020-07-22T18:04:45Z</time>
      </trkpt>
      <trkpt lat="48.8186" lon="2.44058">
        <ele>39</ele>
        <time>2020-07-22T18:04:46Z</time>
      </trkpt>
      <trkpt lat="48.8186" lon="2.44056">
        <ele>39</ele>
        <time>2020-07-22T18:04:47Z</time>
      </trkpt>
      <trkpt lat="48.81861" lon="2.44053">
        <ele>39</ele>
        <time>2020-07-22T18:04:48Z</time>
      </trkpt>
      <trkpt lat="48.81862" lon="2.44051">
        <ele>39</ele>
        <time>2020-07-22T18:04:49Z</time>
      </trkpt>
      <trkpt lat="48.81862" lon="2.44049">
        <ele>39</ele>
        <time>2020-07-22T18:04:50Z</time>
      </trkpt>
      <trkpt lat="48.81862" lon="2.44047">
        <ele>39</ele>
        <time>2020-07-22T18:04:51Z</time>
      </trkpt>
      <trkpt lat="48.81863" lon="2.44045">
        <ele>39</ele>
        <time>2020-07-22T18:04:52Z</time>
      </trkpt>
      <trkpt lat="48.81863" lon="2.44044">
        <ele>40</ele>
        <time>2020-07-22T18:04:53Z</time>
      </trkpt>
      <trkpt lat="48.81863" lon="2.44042">
        <ele>40</ele>
        <time>2020-07-22T18:04:54Z</time>
      </trkpt>
      <trkpt lat="48.81864" lon="2.44041">
        <ele>40</ele>
        <time>2020-07-22T18:04:55Z</time>
      </trkpt>
      <trkpt lat="48.81864" lon="2.44039">
        <ele>40</ele>
        <time>2020-07-22T18:04:56Z</time>
      </trkpt>
      <trkpt lat="48.81865" lon="2.44038">
        <ele>40</ele>
        <time>2020-07-22T18:04:57Z</time>
      </trkpt>
      <trkpt lat="48.81865" lon="2.44037">
        <ele>40</ele>
        <time>2020-07-22T18:04:58Z</time>
      </trkpt>
      <trkpt lat="48.81866" lon="2.44035">
        <ele>40</ele>
        <time>2020-07-22T18:04:59Z</time>
      </trkpt>
      <trkpt lat="48.81866" lon="2.44034">
        <ele>40</ele>
        <time>2020-07-22T18:05:00Z</time>
      </trkpt>
      <trkpt lat="48.81867" lon="2.44032">
        <ele>40</ele>
        <time>2020-07-22T18:05:01Z</time>
      </trkpt>
      <trkpt lat="48.81867" lon="2.44031">
        <ele>40</ele>
        <time>2020-07-22T18:05:02Z</time>
      </trkpt>
      <trkpt lat="48.81868" lon="2.4403">
        <ele>41</ele>
        <time>2020-07-22T18:05:03Z</time>
      </trkpt>
      <trkpt lat="48.81869" lon="2.44028">
        <ele>41</ele>
        <time>2020-07-22T18:05:04Z</time>
      </trkpt>
      <trkpt lat="48.8187" lon="2.44027">
        <ele>41</ele>
        <time>2020-07-22T18:05:05Z</time>
      </trkpt>
      <trkpt lat="48.8187" lon="2.44025">
        <ele>41</ele>
        <time>2020-07-22T18:05:06Z</time>
      </trkpt>
      <trkpt lat="48.8187" lon="2.44024">
        <ele>41</ele>
        <time>2020-07-22T18:05:07Z</time>
      </trkpt>
      <trkpt lat="48.81871" lon="2.44022">
        <ele>42</ele>
        <time>2020-07-22T18:05:08Z</time>
      </trkpt>
      <trkpt lat="48.81871" lon="2.44021">
        <ele>42</ele>
        <time>2020-07-22T18:05:09Z</time>
      </trkpt>
      <trkpt lat="48.81871" lon="2.44019">
        <ele>42</ele>
        <time>2020-07-22T18:05:10Z</time>
      </trkpt>
      <trkpt lat="48.81872" lon="2.44018">
        <ele>42</ele>
        <time>2020-07-22T18:05:11Z</time>
      </trkpt>
      <trkpt lat="48.81872" lon="2.44016">
        <ele>42</ele>
        <time>2020-07-22T18:05:12Z</time>
      </trkpt>
      <trkpt lat="48.81873" lon="2.44014">
        <ele>42</ele>
        <time>2020-07-22T18:05:13Z</time>
      </trkpt>
      <trkpt lat="48.81873" lon="2.44012">
        <ele>42</ele>
        <time>2020-07-22T18:05:14Z</time>
      </trkpt>
      <trkpt lat="48.81874" lon="2.44011">
        <ele>42</ele>
        <time>2020-07-22T18:05:15Z</time>
      </trkpt>
      <trkpt lat="48.81875" lon="2.44009">
        <ele>42</ele>
        <time>2020-07-22T18:05:16Z</time>
      </trkpt>
      <trkpt lat="48.81875" lon="2.44008">
        <ele>42</ele>
        <time>2020-07-22T18:05:17Z</time>
      </trkpt>
      <trkpt lat="48.81876" lon="2.44006">
        <ele>43</ele>
        <time>2020-07-22T18:05:18Z</time>
      </trkpt>
      <trkpt lat="48.81876" lon="2.44005">
        <ele>43</ele>
        <time>2020-07-22T18:05:19Z</time>
      </trkpt>
      <trkpt lat="48.81877" lon="2.44004">
        <ele>43</ele>
        <time>2020-07-22T18:05:20Z</time>
      </trkpt>
      <trkpt lat="48.81878" lon="2.44003">
        <ele>43</ele>
        <time>2020-07-22T18:05:21Z</time>
      </trkpt>
      <trkpt lat="48.81878" lon="2.44003">
        <ele>43</ele>
        <time>2020-07-22T18:05:22Z</time>
      </trkpt>
      <trkpt lat="48.81879" lon="2.44003">
        <ele>44</ele>
        <time>2020-07-22T18:05:23Z</time>
      </trkpt>
      <trkpt lat="48.81879" lon="2.44003">
        <ele>44</ele>
        <time>2020-07-22T18:05:24Z</time>
      </trkpt>
      <trkpt lat="48.81881" lon="2.44003">
        <ele>45</ele>
        <time>2020-07-22T18:05:35Z</time>
      </trkpt>
      <trkpt lat="48.81882" lon="2.44002">
        <ele>45</ele>
        <time>2020-07-22T18:05:36Z</time>
      </trkpt>
      <trkpt lat="48.81883" lon="2.44002">
        <ele>45</ele>
        <time>2020-07-22T18:05:37Z</time>
      </trkpt>
      <trkpt lat="48.81883" lon="2.44001">
        <ele>45</ele>
        <time>2020-07-22T18:05:38Z</time>
      </trkpt>
      <trkpt lat="48.81884" lon="2.44">
        <ele>45</ele>
        <time>2020-07-22T18:05:39Z</time>
      </trkpt>
      <trkpt lat="48.81884" lon="2.43999">
        <ele>45</ele>
        <time>2020-07-22T18:05:40Z</time>
      </trkpt>
      <trkpt lat="48.81884" lon="2.43998">
        <ele>45</ele>
        <time>2020-07-22T18:05:41Z</time>
      </trkpt>
      <trkpt lat="48.81885" lon="2.43998">
        <ele>45</ele>
        <time>2020-07-22T18:05:42Z</time>
      </trkpt>
      <trkpt lat="48.81886" lon="2.43998">
        <ele>45</ele>
        <time>2020-07-22T18:05:43Z</time>
      </trkpt>
      <trkpt lat="48.81887" lon="2.43999">
        <ele>45</ele>
        <time>2020-07-22T18:05:44Z</time>
      </trkpt>
      <trkpt lat="48.81888" lon="2.44">
        <ele>45</ele>
        <time>2020-07-22T18:05:45Z</time>
      </trkpt>
      <trkpt lat="48.8189" lon="2.44">
        <ele>45</ele>
        <time>2020-07-22T18:05:46Z</time>
      </trkpt>
      <trkpt lat="48.81891" lon="2.44001">
        <ele>45</ele>
        <time>2020-07-22T18:05:47Z</time>
      </trkpt>
      <trkpt lat="48.81892" lon="2.44002">
        <ele>45</ele>
        <time>2020-07-22T18:05:48Z</time>
      </trkpt>
      <trkpt lat="48.81893" lon="2.44003">
        <ele>45</ele>
        <time>2020-07-22T18:05:49Z</time>
      </trkpt>
      <trkpt lat="48.81894" lon="2.44004">
        <ele>45</ele>
        <time>2020-07-22T18:05:50Z</time>
      </trkpt>
      <trkpt lat="48.81895" lon="2.44005">
        <ele>45</ele>
        <time>2020-07-22T18:05:51Z</time>
      </trkpt>
      <trkpt lat="48.81896" lon="2.44006">
        <ele>45</ele>
        <time>2020-07-22T18:05:52Z</time>
      </trkpt>
      <trkpt lat="48.81897" lon="2.44007">
        <ele>45</ele>
        <time>2020-07-22T18:05:53Z</time>
      </trkpt>
      <trkpt lat="48.81898" lon="2.44007">
        <ele>45</ele>
        <time>2020-07-22T18:05:54Z</time>
      </trkpt>
      <trkpt lat="48.819" lon="2.44008">
        <ele>45</ele>
        <time>2020-07-22T18:05:55Z</time>
      </trkpt>
      <trkpt lat="48.819" lon="2.44009">
        <ele>45</ele>
        <time>2020-07-22T18:05:56Z</time>
      </trkpt>
      <trkpt lat="48.81902" lon="2.4401">
        <ele>45</ele>
        <time>2020-07-22T18:05:57Z</time>
      </trkpt>
      <trkpt lat="48.81903" lon="2.4401">
        <ele>45</ele>
        <time>2020-07-22T18:05:58Z</time>
      </trkpt>
      <trkpt lat="48.81904" lon="2.44011">
        <ele>45</ele>
        <time>2020-07-22T18:05:59Z</time>
      </trkpt>
      <trkpt lat="48.81905" lon="2.44011">
        <ele>45</ele>
        <time>2020-07-22T18:06:00Z</time>
      </trkpt>
      <trkpt lat="48.81906" lon="2.44012">
        <ele>45</ele>
        <time>2020-07-22T18:06:01Z</time>
      </trkpt>
      <trkpt lat="48.81907" lon="2.44012">
        <ele>45</ele>
        <time>2020-07-22T18:06:02Z</time>
      </trkpt>
      <trkpt lat="48.81908" lon="2.44012">
        <ele>45</ele>
        <time>2020-07-22T18:06:03Z</time>
      </trkpt>
      <trkpt lat="48.8191" lon="2.44013">
        <ele>45</ele>
        <time>2020-07-22T18:06:04Z</time>
      </trkpt>
      <trkpt lat="48.8191" lon="2.44013">
        <ele>45</ele>
        <time>2020-07-22T18:06:05Z</time>
      </trkpt>
      <trkpt lat="48.81912" lon="2.44013">
        <ele>45</ele>
        <time>2020-07-22T18:06:06Z</time>
      </trkpt>
      <trkpt lat="48.81913" lon="2.44014">
        <ele>45</ele>
        <time>2020-07-22T18:06:07Z</time>
      </trkpt>
      <trkpt lat="48.81914" lon="2.44014">
        <ele>45</ele>
        <time>2020-07-22T18:06:08Z</time>
      </trkpt>
      <trkpt lat="48.81915" lon="2.44015">
        <ele>45</ele>
        <time>2020-07-22T18:06:09Z</time>
      </trkpt>
      <trkpt lat="48.81916" lon="2.44016">
        <ele>45</ele>
        <time>2020-07-22T18:06:10Z</time>
      </trkpt>
      <trkpt lat="48.81918" lon="2.44016">
        <ele>45</ele>
        <time>2020-07-22T18:06:11Z</time>
      </trkpt>
      <trkpt lat="48.81918" lon="2.44017">
        <ele>45</ele>
        <time>2020-07-22T18:06:12Z</time>
      </trkpt>
      <trkpt lat="48.8192" lon="2.44018">
        <ele>45</ele>
        <time>2020-07-22T18:06:13Z</time>
      </trkpt>
      <trkpt lat="48.8192" lon="2.44018">
        <ele>45</ele>
        <time>2020-07-22T18:06:14Z</time>
      </trkpt>
      <trkpt lat="48.81921" lon="2.44018">
        <ele>45</ele>
        <time>2020-07-22T18:06:15Z</time>
      </trkpt>
      <trkpt lat="48.81922" lon="2.44018">
        <ele>45</ele>
        <time>2020-07-22T18:06:16Z</time>
      </trkpt>
      <trkpt lat="48.81923" lon="2.44017">
        <ele>45</ele>
        <time>2020-07-22T18:06:17Z</time>
      </trkpt>
      <trkpt lat="48.81924" lon="2.44017">
        <ele>46</ele>
        <time>2020-07-22T18:06:18Z</time>
      </trkpt>
      <trkpt lat="48.81925" lon="2.44017">
        <ele>46</ele>
        <time>2020-07-22T18:06:19Z</time>
      </trkpt>
      <trkpt lat="48.81926" lon="2.44017">
        <ele>46</ele>
        <time>2020-07-22T18:06:20Z</time>
      </trkpt>
      <trkpt lat="48.81927" lon="2.44017">
        <ele>46</ele>
        <time>2020-07-22T18:06:21Z</time>
      </trkpt>
      <trkpt lat="48.81928" lon="2.44017">
        <ele>46</ele>
        <time>2020-07-22T18:06:22Z</time>
      </trkpt>
      <trkpt lat="48.81929" lon="2.44018">
        <ele>46</ele>
        <time>2020-07-22T18:06:23Z</time>
      </trkpt>
      <trkpt lat="48.81931" lon="2.44018">
        <ele>46</ele>
        <time>2020-07-22T18:06:24Z</time>
      </trkpt>
      <trkpt lat="48.81932" lon="2.44018">
        <ele>46</ele>
        <time>2020-07-22T18:06:25Z</time>
      </trkpt>
      <trkpt lat="48.81934" lon="2.44018">
        <ele>46</ele>
        <time>2020-07-22T18:06:26Z</time>
      </trkpt>
      <trkpt lat="48.81936" lon="2.44018">
        <ele>46</ele>
        <time>2020-07-22T18:06:27Z</time>
      </trkpt>
      <trkpt lat="48.81937" lon="2.44018">
        <ele>47</ele>
        <time>2020-07-22T18:06:28Z</time>
      </trkpt>
      <trkpt lat="48.81939" lon="2.44017">
        <ele>47</ele>
        <time>2020-07-22T18:06:29Z</time>
      </trkpt>
      <trkpt lat="48.8194" lon="2.44017">
        <ele>47</ele>
        <time>2020-07-22T18:06:30Z</time>
      </trkpt>
      <trkpt lat="48.81941" lon="2.44017">
        <ele>47</ele>
        <time>2020-07-22T18:06:31Z</time>
      </trkpt>
      <trkpt lat="48.81942" lon="2.44017">
        <ele>47</ele>
        <time>2020-07-22T18:06:32Z</time>
      </trkpt>
      <trkpt lat="48.81944" lon="2.44017">
        <ele>47</ele>
        <time>2020-07-22T18:06:33Z</time>
      </trkpt>
      <trkpt lat="48.81944" lon="2.44018">
        <ele>47</ele>
        <time>2020-07-22T18:06:34Z</time>
      </trkpt>
      <trkpt lat="48.81945" lon="2.44018">
        <ele>47</ele>
        <time>2020-07-22T18:06:35Z</time>
      </trkpt>
      <trkpt lat="48.81947" lon="2.44018">
        <ele>47</ele>
        <time>2020-07-22T18:06:36Z</time>
      </trkpt>
      <trkpt lat="48.81948" lon="2.44018">
        <ele>47</ele>
        <time>2020-07-22T18:06:37Z</time>
      </trkpt>
      <trkpt lat="48.81949" lon="2.44018">
        <ele>48</ele>
        <time>2020-07-22T18:06:38Z</time>
      </trkpt>
      <trkpt lat="48.8195" lon="2.44019">
        <ele>48</ele>
        <time>2020-07-22T18:06:39Z</time>
      </trkpt>
      <trkpt lat="48.81951" lon="2.44019">
        <ele>48</ele>
        <time>2020-07-22T18:06:40Z</time>
      </trkpt>
      <trkpt lat="48.81953" lon="2.44019">
        <ele>48</ele>
        <time>2020-07-22T18:06:41Z</time>
      </trkpt>
      <trkpt lat="48.81954" lon="2.44019">
        <ele>48</ele>
        <time>2020-07-22T18:06:42Z</time>
      </trkpt>
      <trkpt lat="48.81955" lon="2.44019">
        <ele>48</ele>
        <time>2020-07-22T18:06:43Z</time>
      </trkpt>
      <trkpt lat="48.81957" lon="2.44019">
        <ele>48</ele>
        <time>2020-07-22T18:06:44Z</time>
      </trkpt>
      <trkpt lat="48.81958" lon="2.4402">
        <ele>48</ele>
        <time>2020-07-22T18:06:45Z</time>
      </trkpt>
      <trkpt lat="48.81958" lon="2.4402">
        <ele>48</ele>
        <time>2020-07-22T18:06:46Z</time>
      </trkpt>
      <trkpt lat="48.8196" lon="2.4402">
        <ele>48</ele>
        <time>2020-07-22T18:06:47Z</time>
      </trkpt>
      <trkpt lat="48.81961" lon="2.4402">
        <ele>48</ele>
        <time>2020-07-22T18:06:48Z</time>
      </trkpt>
      <trkpt lat="48.81962" lon="2.4402">
        <ele>48</ele>
        <time>2020-07-22T18:06:49Z</time>
      </trkpt>
      <trkpt lat="48.81963" lon="2.4402">
        <ele>48</ele>
        <time>2020-07-22T18:06:50Z</time>
      </trkpt>
      <trkpt lat="48.81964" lon="2.4402">
        <ele>48</ele>
        <time>2020-07-22T18:06:51Z</time>
      </trkpt>
      <trkpt lat="48.81965" lon="2.44019">
        <ele>48</ele>
        <time>2020-07-22T18:06:52Z</time>
      </trkpt>
      <trkpt lat="48.81967" lon="2.44019">
        <ele>48</ele>
        <time>2020-07-22T18:06:53Z</time>
      </trkpt>
      <trkpt lat="48.81969" lon="2.44019">
        <ele>48</ele>
        <time>2020-07-22T18:06:54Z</time>
      </trkpt>
      <trkpt lat="48.81971" lon="2.44019">
        <ele>48</ele>
        <time>2020-07-22T18:06:55Z</time>
      </trkpt>
      <trkpt lat="48.81972" lon="2.4402">
        <ele>48</ele>
        <time>2020-07-22T18:06:56Z</time>
      </trkpt>
      <trkpt lat="48.81974" lon="2.4402">
        <ele>48</ele>
        <time>2020-07-22T18:06:57Z</time>
      </trkpt>
      <trkpt lat="48.81975" lon="2.4402">
        <ele>48</ele>
        <time>2020-07-22T18:06:58Z</time>
      </trkpt>
      <trkpt lat="48.81976" lon="2.4402">
        <ele>48</ele>
        <time>2020-07-22T18:06:59Z</time>
      </trkpt>
      <trkpt lat="48.81977" lon="2.44021">
        <ele>48</ele>
        <time>2020-07-22T18:07:00Z</time>
      </trkpt>
      <trkpt lat="48.81978" lon="2.44021">
        <ele>48</ele>
        <time>2020-07-22T18:07:01Z</time>
      </trkpt>
      <trkpt lat="48.81979" lon="2.44021">
        <ele>48</ele>
        <time>2020-07-22T18:07:02Z</time>
      </trkpt>
      <trkpt lat="48.8198" lon="2.44021">
        <ele>48</ele>
        <time>2020-07-22T18:07:03Z</time>
      </trkpt>
      <trkpt lat="48.81981" lon="2.44022">
        <ele>48</ele>
        <time>2020-07-22T18:07:04Z</time>
      </trkpt>
      <trkpt lat="48.81982" lon="2.44022">
        <ele>48</ele>
        <time>2020-07-22T18:07:05Z</time>
      </trkpt>
      <trkpt lat="48.81984" lon="2.44023">
        <ele>48</ele>
        <time>2020-07-22T18:07:06Z</time>
      </trkpt>
      <trkpt lat="48.81985" lon="2.44023">
        <ele>48</ele>
        <time>2020-07-22T18:07:07Z</time>
      </trkpt>
      <trkpt lat="48.81986" lon="2.44024">
        <ele>48</ele>
        <time>2020-07-22T18:07:08Z</time>
      </trkpt>
      <trkpt lat="48.81987" lon="2.44025">
        <ele>48</ele>
        <time>2020-07-22T18:07:09Z</time>
      </trkpt>
      <trkpt lat="48.81988" lon="2.44026">
        <ele>48</ele>
        <time>2020-07-22T18:07:10Z</time>
      </trkpt>
      <trkpt lat="48.81989" lon="2.44026">
        <ele>48</ele>
        <time>2020-07-22T18:07:11Z</time>
      </trkpt>
      <trkpt lat="48.8199" lon="2.44027">
        <ele>48</ele>
        <time>2020-07-22T18:07:12Z</time>
      </trkpt>
      <trkpt lat="48.81991" lon="2.44028">
        <ele>48</ele>
        <time>2020-07-22T18:07:13Z</time>
      </trkpt>
      <trkpt lat="48.81992" lon="2.44028">
        <ele>48</ele>
        <time>2020-07-22T18:07:14Z</time>
      </trkpt>
      <trkpt lat="48.81993" lon="2.44028">
        <ele>48</ele>
        <time>2020-07-22T18:07:15Z</time>
      </trkpt>
      <trkpt lat="48.81994" lon="2.44027">
        <ele>48</ele>
        <time>2020-07-22T18:07:16Z</time>
      </trkpt>
      <trkpt lat="48.81995" lon="2.44027">
        <ele>48</ele>
        <time>2020-07-22T18:07:17Z</time>
      </trkpt>
      <trkpt lat="48.81995" lon="2.44026">
        <ele>48</ele>
        <time>2020-07-22T18:07:18Z</time>
      </trkpt>
      <trkpt lat="48.81997" lon="2.44025">
        <ele>48</ele>
        <time>2020-07-22T18:07:19Z</time>
      </trkpt>
      <trkpt lat="48.81998" lon="2.44025">
        <ele>48</ele>
        <time>2020-07-22T18:07:20Z</time>
      </trkpt>
      <trkpt lat="48.81999" lon="2.44024">
        <ele>48</ele>
        <time>2020-07-22T18:07:21Z</time>
      </trkpt>
      <trkpt lat="48.82001" lon="2.44024">
        <ele>48</ele>
        <time>2020-07-22T18:07:22Z</time>
      </trkpt>
      <trkpt lat="48.82003" lon="2.44023">
        <ele>48</ele>
        <time>2020-07-22T18:07:23Z</time>
      </trkpt>
      <trkpt lat="48.82004" lon="2.44024">
        <ele>48</ele>
        <time>2020-07-22T18:07:24Z</time>
      </trkpt>
      <trkpt lat="48.82006" lon="2.44024">
        <ele>48</ele>
        <time>2020-07-22T18:07:25Z</time>
      </trkpt>
      <trkpt lat="48.82007" lon="2.44024">
        <ele>48</ele>
        <time>2020-07-22T18:07:26Z</time>
      </trkpt>
      <trkpt lat="48.82009" lon="2.44025">
        <ele>48</ele>
        <time>2020-07-22T18:07:27Z</time>
      </trkpt>
      <trkpt lat="48.8201" lon="2.44026">
        <ele>48</ele>
        <time>2020-07-22T18:07:28Z</time>
      </trkpt>
      <trkpt lat="48.82012" lon="2.44026">
        <ele>47</ele>
        <time>2020-07-22T18:07:29Z</time>
      </trkpt>
      <trkpt lat="48.82013" lon="2.44027">
        <ele>47</ele>
        <time>2020-07-22T18:07:30Z</time>
      </trkpt>
      <trkpt lat="48.82015" lon="2.44027">
        <ele>47</ele>
        <time>2020-07-22T18:07:31Z</time>
      </trkpt>
      <trkpt lat="48.82016" lon="2.44028">
        <ele>47</ele>
        <time>2020-07-22T18:07:32Z</time>
      </trkpt>
      <trkpt lat="48.82018" lon="2.44028">
        <ele>47</ele>
        <time>2020-07-22T18:07:33Z</time>
      </trkpt>
      <trkpt lat="48.82019" lon="2.44029">
        <ele>47</ele>
        <time>2020-07-22T18:07:34Z</time>
      </trkpt>
      <trkpt lat="48.82021" lon="2.44029">
        <ele>47</ele>
        <time>2020-07-22T18:07:35Z</time>
      </trkpt>
      <trkpt lat="48.82022" lon="2.4403">
        <ele>47</ele>
        <time>2020-07-22T18:07:36Z</time>
      </trkpt>
      <trkpt lat="48.82023" lon="2.4403">
        <ele>47</ele>
        <time>2020-07-22T18:07:37Z</time>
      </trkpt>
      <trkpt lat="48.82024" lon="2.4403">
        <ele>47</ele>
        <time>2020-07-22T18:07:38Z</time>
      </trkpt>
      <trkpt lat="48.82025" lon="2.44031">
        <ele>47</ele>
        <time>2020-07-22T18:07:39Z</time>
      </trkpt>
      <trkpt lat="48.82026" lon="2.44031">
        <ele>47</ele>
        <time>2020-07-22T18:07:40Z</time>
      </trkpt>
      <trkpt lat="48.82027" lon="2.44031">
        <ele>47</ele>
        <time>2020-07-22T18:07:41Z</time>
      </trkpt>
      <trkpt lat="48.82028" lon="2.44031">
        <ele>47</ele>
        <time>2020-07-22T18:07:42Z</time>
      </trkpt>
      <trkpt lat="48.82029" lon="2.4403">
        <ele>47</ele>
        <time>2020-07-22T18:07:43Z</time>
      </trkpt>
      <trkpt lat="48.8203" lon="2.4403">
        <ele>47</ele>
        <time>2020-07-22T18:07:44Z</time>
      </trkpt>
      <trkpt lat="48.82031" lon="2.4403">
        <ele>47</ele>
        <time>2020-07-22T18:07:45Z</time>
      </trkpt>
      <trkpt lat="48.82033" lon="2.4403">
        <ele>47</ele>
        <time>2020-07-22T18:07:46Z</time>
      </trkpt>
      <trkpt lat="48.82035" lon="2.4403">
        <ele>47</ele>
        <time>2020-07-22T18:07:47Z</time>
      </trkpt>
      <trkpt lat="48.82036" lon="2.4403">
        <ele>47</ele>
        <time>2020-07-22T18:07:48Z</time>
      </trkpt>
      <trkpt lat="48.82037" lon="2.44031">
        <ele>46</ele>
        <time>2020-07-22T18:07:49Z</time>
      </trkpt>
      <trkpt lat="48.82039" lon="2.44031">
        <ele>46</ele>
        <time>2020-07-22T18:07:50Z</time>
      </trkpt>
      <trkpt lat="48.8204" lon="2.44032">
        <ele>46</ele>
        <time>2020-07-22T18:07:51Z</time>
      </trkpt>
      <trkpt lat="48.82042" lon="2.44032">
        <ele>46</ele>
        <time>2020-07-22T18:07:52Z</time>
      </trkpt>
      <trkpt lat="48.82043" lon="2.44032">
        <ele>46</ele>
        <time>2020-07-22T18:07:53Z</time>
      </trkpt>
      <trkpt lat="48.82045" lon="2.44032">
        <ele>46</ele>
        <time>2020-07-22T18:07:54Z</time>
      </trkpt>
      <trkpt lat="48.82046" lon="2.44033">
        <ele>46</ele>
        <time>2020-07-22T18:07:55Z</time>
      </trkpt>
      <trkpt lat="48.82047" lon="2.44032">
        <ele>46</ele>
        <time>2020-07-22T18:07:56Z</time>
      </trkpt>
      <trkpt lat="48.82049" lon="2.44032">
        <ele>46</ele>
        <time>2020-07-22T18:07:57Z</time>
      </trkpt>
      <trkpt lat="48.8205" lon="2.44032">
        <ele>46</ele>
        <time>2020-07-22T18:07:58Z</time>
      </trkpt>
      <trkpt lat="48.82052" lon="2.44032">
        <ele>46</ele>
        <time>2020-07-22T18:07:59Z</time>
      </trkpt>
      <trkpt lat="48.82053" lon="2.44032">
        <ele>46</ele>
        <time>2020-07-22T18:08:00Z</time>
      </trkpt>
      <trkpt lat="48.82055" lon="2.44031">
        <ele>46</ele>
        <time>2020-07-22T18:08:01Z</time>
      </trkpt>
      <trkpt lat="48.82055" lon="2.44031">
        <ele>46</ele>
        <time>2020-07-22T18:08:02Z</time>
      </trkpt>
      <trkpt lat="48.82056" lon="2.44031">
        <ele>46</ele>
        <time>2020-07-22T18:08:03Z</time>
      </trkpt>
      <trkpt lat="48.82058" lon="2.44031">
        <ele>46</ele>
        <time>2020-07-22T18:08:04Z</time>
      </trkpt>
      <trkpt lat="48.82059" lon="2.4403">
        <ele>46</ele>
        <time>2020-07-22T18:08:05Z</time>
      </trkpt>
      <trkpt lat="48.8206" lon="2.4403">
        <ele>46</ele>
        <time>2020-07-22T18:08:06Z</time>
      </trkpt>
      <trkpt lat="48.82061" lon="2.4403">
        <ele>46</ele>
        <time>2020-07-22T18:08:07Z</time>
      </trkpt>
      <trkpt lat="48.82063" lon="2.44031">
        <ele>46</ele>
        <time>2020-07-22T18:08:08Z</time>
      </trkpt>
      <trkpt lat="48.82063" lon="2.44031">
        <ele>46</ele>
        <time>2020-07-22T18:08:09Z</time>
      </trkpt>
      <trkpt lat="48.82065" lon="2.44032">
        <ele>46</ele>
        <time>2020-07-22T18:08:10Z</time>
      </trkpt>
      <trkpt lat="48.82066" lon="2.44033">
        <ele>46</ele>
        <time>2020-07-22T18:08:11Z</time>
      </trkpt>
      <trkpt lat="48.82067" lon="2.44033">
        <ele>46</ele>
        <time>2020-07-22T18:08:12Z</time>
      </trkpt>
      <trkpt lat="48.82069" lon="2.44034">
        <ele>46</ele>
        <time>2020-07-22T18:08:13Z</time>
      </trkpt>
      <trkpt lat="48.8207" lon="2.44035">
        <ele>46</ele>
        <time>2020-07-22T18:08:14Z</time>
      </trkpt>
      <trkpt lat="48.82071" lon="2.44036">
        <ele>46</ele>
        <time>2020-07-22T18:08:15Z</time>
      </trkpt>
      <trkpt lat="48.82072" lon="2.44037">
        <ele>46</ele>
        <time>2020-07-22T18:08:16Z</time>
      </trkpt>
      <trkpt lat="48.82073" lon="2.44038">
        <ele>46</ele>
        <time>2020-07-22T18:08:17Z</time>
      </trkpt>
      <trkpt lat="48.82074" lon="2.4404">
        <ele>46</ele>
        <time>2020-07-22T18:08:18Z</time>
      </trkpt>
      <trkpt lat="48.82075" lon="2.44041">
        <ele>46</ele>
        <time>2020-07-22T18:08:19Z</time>
      </trkpt>
      <trkpt lat="48.82076" lon="2.44042">
        <ele>46</ele>
        <time>2020-07-22T18:08:20Z</time>
      </trkpt>
      <trkpt lat="48.82076" lon="2.44043">
        <ele>46</ele>
        <time>2020-07-22T18:08:21Z</time>
      </trkpt>
      <trkpt lat="48.82077" lon="2.44044">
        <ele>46</ele>
        <time>2020-07-22T18:08:22Z</time>
      </trkpt>
      <trkpt lat="48.82078" lon="2.44045">
        <ele>46</ele>
        <time>2020-07-22T18:08:23Z</time>
      </trkpt>
      <trkpt lat="48.82079" lon="2.44047">
        <ele>46</ele>
        <time>2020-07-22T18:08:24Z</time>
      </trkpt>
      <trkpt lat="48.8208" lon="2.44048">
        <ele>46</ele>
        <time>2020-07-22T18:08:25Z</time>
      </trkpt>
      <trkpt lat="48.82081" lon="2.4405">
        <ele>46</ele>
        <time>2020-07-22T18:08:26Z</time>
      </trkpt>
      <trkpt lat="48.82082" lon="2.44052">
        <ele>46</ele>
        <time>2020-07-22T18:08:27Z</time>
      </trkpt>
      <trkpt lat="48.82083" lon="2.44054">
        <ele>46</ele>
        <time>2020-07-22T18:08:28Z</time>
      </trkpt>
      <trkpt lat="48.82083" lon="2.44056">
        <ele>46</ele>
        <time>2020-07-22T18:08:29Z</time>
      </trkpt>
      <trkpt lat="48.82084" lon="2.44058">
        <ele>46</ele>
        <time>2020-07-22T18:08:30Z</time>
      </trkpt>
      <trkpt lat="48.82085" lon="2.44061">
        <ele>46</ele>
        <time>2020-07-22T18:08:31Z</time>
      </trkpt>
      <trkpt lat="48.82086" lon="2.44063">
        <ele>46</ele>
        <time>2020-07-22T18:08:32Z</time>
      </trkpt>
      <trkpt lat="48.82087" lon="2.44065">
        <ele>46</ele>
        <time>2020-07-22T18:08:33Z</time>
      </trkpt>
      <trkpt lat="48.82087" lon="2.44068">
        <ele>46</ele>
        <time>2020-07-22T18:08:34Z</time>
      </trkpt>
      <trkpt lat="48.82088" lon="2.44069">
        <ele>46</ele>
        <time>2020-07-22T18:08:35Z</time>
      </trkpt>
      <trkpt lat="48.82089" lon="2.44071">
        <ele>46</ele>
        <time>2020-07-22T18:08:36Z</time>
      </trkpt>
      <trkpt lat="48.82089" lon="2.44072">
        <ele>46</ele>
        <time>2020-07-22T18:08:37Z</time>
      </trkpt>
      <trkpt lat="48.82089" lon="2.44073">
        <ele>46</ele>
        <time>2020-07-22T18:08:38Z</time>
      </trkpt>
      <trkpt lat="48.8209" lon="2.44074">
        <ele>46</ele>
        <time>2020-07-22T18:08:39Z</time>
      </trkpt>
      <trkpt lat="48.8209" lon="2.44076">
        <ele>46</ele>
        <time>2020-07-22T18:08:40Z</time>
      </trkpt>
      <trkpt lat="48.82092" lon="2.44077">
        <ele>46</ele>
        <time>2020-07-22T18:08:41Z</time>
      </trkpt>
      <trkpt lat="48.82093" lon="2.44079">
        <ele>46</ele>
        <time>2020-07-22T18:08:42Z</time>
      </trkpt>
      <trkpt lat="48.82093" lon="2.44081">
        <ele>46</ele>
        <time>2020-07-22T18:08:43Z</time>
      </trkpt>
      <trkpt lat="48.82095" lon="2.44083">
        <ele>46</ele>
        <time>2020-07-22T18:08:44Z</time>
      </trkpt>
      <trkpt lat="48.82096" lon="2.44084">
        <ele>46</ele>
        <time>2020-07-22T18:08:45Z</time>
      </trkpt>
      <trkpt lat="48.82097" lon="2.44086">
        <ele>46</ele>
        <time>2020-07-22T18:08:46Z</time>
      </trkpt>
      <trkpt lat="48.82097" lon="2.44088">
        <ele>46</ele>
        <time>2020-07-22T18:08:47Z</time>
      </trkpt>
      <trkpt lat="48.82098" lon="2.44089">
        <ele>46</ele>
        <time>2020-07-22T18:08:48Z</time>
      </trkpt>
      <trkpt lat="48.82098" lon="2.44091">
        <ele>46</ele>
        <time>2020-07-22T18:08:49Z</time>
      </trkpt>
      <trkpt lat="48.82099" lon="2.44093">
        <ele>46</ele>
        <time>2020-07-22T18:08:50Z</time>
      </trkpt>
      <trkpt lat="48.821" lon="2.44094">
        <ele>46</ele>
        <time>2020-07-22T18:08:51Z</time>
      </trkpt>
      <trkpt lat="48.821" lon="2.44096">
        <ele>46</ele>
        <time>2020-07-22T18:08:52Z</time>
      </trkpt>
      <trkpt lat="48.82101" lon="2.44097">
        <ele>46</ele>
        <time>2020-07-22T18:08:53Z</time>
      </trkpt>
      <trkpt lat="48.82102" lon="2.44099">
        <ele>46</ele>
        <time>2020-07-22T18:08:54Z</time>
      </trkpt>
      <trkpt lat="48.82103" lon="2.44101">
        <ele>46</ele>
        <time>2020-07-22T18:08:55Z</time>
      </trkpt>
      <trkpt lat="48.82104" lon="2.44102">
        <ele>46</ele>
        <time>2020-07-22T18:08:56Z</time>
      </trkpt>
      <trkpt lat="48.82105" lon="2.44104">
        <ele>46</ele>
        <time>2020-07-22T18:08:57Z</time>
      </trkpt>
      <trkpt lat="48.82105" lon="2.44106">
        <ele>46</ele>
        <time>2020-07-22T18:08:58Z</time>
      </trkpt>
      <trkpt lat="48.82105" lon="2.44107">
        <ele>46</ele>
        <time>2020-07-22T18:08:59Z</time>
      </trkpt>
      <trkpt lat="48.82106" lon="2.44109">
        <ele>46</ele>
        <time>2020-07-22T18:09:00Z</time>
      </trkpt>
      <trkpt lat="48.82106" lon="2.44111">
        <ele>46</ele>
        <time>2020-07-22T18:09:01Z</time>
      </trkpt>
      <trkpt lat="48.82107" lon="2.44112">
        <ele>46</ele>
        <time>2020-07-22T18:09:02Z</time>
      </trkpt>
      <trkpt lat="48.82108" lon="2.44114">
        <ele>46</ele>
        <time>2020-07-22T18:09:03Z</time>
      </trkpt>
      <trkpt lat="48.82108" lon="2.44116">
        <ele>46</ele>
        <time>2020-07-22T18:09:04Z</time>
      </trkpt>
      <trkpt lat="48.82109" lon="2.44117">
        <ele>46</ele>
        <time>2020-07-22T18:09:05Z</time>
      </trkpt>
      <trkpt lat="48.8211" lon="2.44119">
        <ele>46</ele>
        <time>2020-07-22T18:09:06Z</time>
      </trkpt>
      <trkpt lat="48.8211" lon="2.44121">
        <ele>46</ele>
        <time>2020-07-22T18:09:07Z</time>
      </trkpt>
      <trkpt lat="48.82111" lon="2.44122">
        <ele>46</ele>
        <time>2020-07-22T18:09:08Z</time>
      </trkpt>
      <trkpt lat="48.82112" lon="2.44124">
        <ele>46</ele>
        <time>2020-07-22T18:09:09Z</time>
      </trkpt>
      <trkpt lat="48.82113" lon="2.44126">
        <ele>46</ele>
        <time>2020-07-22T18:09:10Z</time>
      </trkpt>
      <trkpt lat="48.82114" lon="2.44128">
        <ele>46</ele>
        <time>2020-07-22T18:09:11Z</time>
      </trkpt>
      <trkpt lat="48.82114" lon="2.44129">
        <ele>46</ele>
        <time>2020-07-22T18:09:12Z</time>
      </trkpt>
      <trkpt lat="48.82116" lon="2.44131">
        <ele>46</ele>
        <time>2020-07-22T18:09:13Z</time>
      </trkpt>
      <trkpt lat="48.82116" lon="2.44133">
        <ele>46</ele>
        <time>2020-07-22T18:09:14Z</time>
      </trkpt>
      <trkpt lat="48.82117" lon="2.44136">
        <ele>46</ele>
        <time>2020-07-22T18:09:15Z</time>
      </trkpt>
      <trkpt lat="48.82118" lon="2.44138">
        <ele>46</ele>
        <time>2020-07-22T18:09:16Z</time>
      </trkpt>
      <trkpt lat="48.82119" lon="2.4414">
        <ele>46</ele>
        <time>2020-07-22T18:09:17Z</time>
      </trkpt>
      <trkpt lat="48.82119" lon="2.44142">
        <ele>46</ele>
        <time>2020-07-22T18:09:18Z</time>
      </trkpt>
      <trkpt lat="48.8212" lon="2.44144">
        <ele>46</ele>
        <time>2020-07-22T18:09:19Z</time>
      </trkpt>
      <trkpt lat="48.8212" lon="2.44145">
        <ele>46</ele>
        <time>2020-07-22T18:09:20Z</time>
      </trkpt>
      <trkpt lat="48.82121" lon="2.44147">
        <ele>46</ele>
        <time>2020-07-22T18:09:21Z</time>
      </trkpt>
      <trkpt lat="48.82121" lon="2.44149">
        <ele>46</ele>
        <time>2020-07-22T18:09:22Z</time>
      </trkpt>
      <trkpt lat="48.82122" lon="2.4415">
        <ele>46</ele>
        <time>2020-07-22T18:09:23Z</time>
      </trkpt>
      <trkpt lat="48.82122" lon="2.44152">
        <ele>46</ele>
        <time>2020-07-22T18:09:24Z</time>
      </trkpt>
      <trkpt lat="48.82122" lon="2.44154">
        <ele>46</ele>
        <time>2020-07-22T18:09:25Z</time>
      </trkpt>
      <trkpt lat="48.82123" lon="2.44155">
        <ele>46</ele>
        <time>2020-07-22T18:09:26Z</time>
      </trkpt>
      <trkpt lat="48.82123" lon="2.44156">
        <ele>46</ele>
        <time>2020-07-22T18:09:27Z</time>
      </trkpt>
      <trkpt lat="48.82124" lon="2.44157">
        <ele>46</ele>
        <time>2020-07-22T18:09:28Z</time>
      </trkpt>
      <trkpt lat="48.82124" lon="2.44158">
        <ele>46</ele>
        <time>2020-07-22T18:09:29Z</time>
      </trkpt>
      <trkpt lat="48.82124" lon="2.4416">
        <ele>46</ele>
        <time>2020-07-22T18:09:30Z</time>
      </trkpt>
      <trkpt lat="48.82124" lon="2.44161">
        <ele>46</ele>
        <time>2020-07-22T18:09:31Z</time>
      </trkpt>
      <trkpt lat="48.82124" lon="2.44162">
        <ele>46</ele>
        <time>2020-07-22T18:09:32Z</time>
      </trkpt>
      <trkpt lat="48.82125" lon="2.44163">
        <ele>46</ele>
        <time>2020-07-22T18:09:33Z</time>
      </trkpt>
      <trkpt lat="48.82126" lon="2.44165">
        <ele>46</ele>
        <time>2020-07-22T18:09:34Z</time>
      </trkpt>
      <trkpt lat="48.82126" lon="2.44166">
        <ele>46</ele>
        <time>2020-07-22T18:09:35Z</time>
      </trkpt>
      <trkpt lat="48.82127" lon="2.44168">
        <ele>46</ele>
        <time>2020-07-22T18:09:36Z</time>
      </trkpt>
      <trkpt lat="48.82127" lon="2.44168">
        <ele>46</ele>
        <time>2020-07-22T18:09:42Z</time>
      </trkpt>
      <trkpt lat="48.82127" lon="2.44168">
        <ele>46</ele>
        <time>2020-07-22T18:09:43Z</time>
      </trkpt>
      <trkpt lat="48.82126" lon="2.44168">
        <ele>46</ele>
        <time>2020-07-22T18:09:44Z</time>
      </trkpt>
      <trkpt lat="48.82126" lon="2.44167">
        <ele>46</ele>
        <time>2020-07-22T18:09:45Z</time>
      </trkpt>
      <trkpt lat="48.82126" lon="2.44167">
        <ele>46</ele>
        <time>2020-07-22T18:09:46Z</time>
      </trkpt>
      <trkpt lat="48.82127" lon="2.44168">
        <ele>46</ele>
        <time>2020-07-22T18:10:18Z</time>
      </trkpt>
      <trkpt lat="48.82128" lon="2.44168">
        <ele>46</ele>
        <time>2020-07-22T18:10:19Z</time>
      </trkpt>
      <trkpt lat="48.82128" lon="2.44169">
        <ele>46</ele>
        <time>2020-07-22T18:10:20Z</time>
      </trkpt>
      <trkpt lat="48.82128" lon="2.44171">
        <ele>46</ele>
        <time>2020-07-22T18:10:21Z</time>
      </trkpt>
      <trkpt lat="48.82129" lon="2.44172">
        <ele>46</ele>
        <time>2020-07-22T18:10:22Z</time>
      </trkpt>
      <trkpt lat="48.82129" lon="2.44173">
        <ele>46</ele>
        <time>2020-07-22T18:10:23Z</time>
      </trkpt>
      <trkpt lat="48.8213" lon="2.44175">
        <ele>46</ele>
        <time>2020-07-22T18:10:24Z</time>
      </trkpt>
      <trkpt lat="48.8213" lon="2.44177">
        <ele>46</ele>
        <time>2020-07-22T18:10:25Z</time>
      </trkpt>
      <trkpt lat="48.82131" lon="2.44179">
        <ele>46</ele>
        <time>2020-07-22T18:10:26Z</time>
      </trkpt>
      <trkpt lat="48.82132" lon="2.44181">
        <ele>46</ele>
        <time>2020-07-22T18:10:27Z</time>
      </trkpt>
      <trkpt lat="48.82133" lon="2.44183">
        <ele>46</ele>
        <time>2020-07-22T18:10:28Z</time>
      </trkpt>
      <trkpt lat="48.82134" lon="2.44184">
        <ele>46</ele>
        <time>2020-07-22T18:10:29Z</time>
      </trkpt>
      <trkpt lat="48.82135" lon="2.44185">
        <ele>46</ele>
        <time>2020-07-22T18:10:30Z</time>
      </trkpt>
      <trkpt lat="48.82136" lon="2.44186">
        <ele>46</ele>
        <time>2020-07-22T18:10:31Z</time>
      </trkpt>
      <trkpt lat="48.82136" lon="2.44187">
        <ele>46</ele>
        <time>2020-07-22T18:10:32Z</time>
      </trkpt>
      <trkpt lat="48.82137" lon="2.44188">
        <ele>46</ele>
        <time>2020-07-22T18:10:33Z</time>
      </trkpt>
      <trkpt lat="48.82138" lon="2.44189">
        <ele>46</ele>
        <time>2020-07-22T18:10:34Z</time>
      </trkpt>
      <trkpt lat="48.82138" lon="2.44191">
        <ele>46</ele>
        <time>2020-07-22T18:10:35Z</time>
      </trkpt>
      <trkpt lat="48.8214" lon="2.44192">
        <ele>46</ele>
        <time>2020-07-22T18:10:36Z</time>
      </trkpt>
      <trkpt lat="48.8214" lon="2.44193">
        <ele>46</ele>
        <time>2020-07-22T18:10:37Z</time>
      </trkpt>
      <trkpt lat="48.82142" lon="2.44194">
        <ele>46</ele>
        <time>2020-07-22T18:10:38Z</time>
      </trkpt>
      <trkpt lat="48.82143" lon="2.44195">
        <ele>46</ele>
        <time>2020-07-22T18:10:39Z</time>
      </trkpt>
      <trkpt lat="48.82144" lon="2.44195">
        <ele>46</ele>
        <time>2020-07-22T18:10:40Z</time>
      </trkpt>
      <trkpt lat="48.82145" lon="2.44196">
        <ele>46</ele>
        <time>2020-07-22T18:10:41Z</time>
      </trkpt>
      <trkpt lat="48.82146" lon="2.44197">
        <ele>46</ele>
        <time>2020-07-22T18:10:42Z</time>
      </trkpt>
      <trkpt lat="48.82148" lon="2.44198">
        <ele>46</ele>
        <time>2020-07-22T18:10:43Z</time>
      </trkpt>
      <trkpt lat="48.82149" lon="2.44199">
        <ele>46</ele>
        <time>2020-07-22T18:10:44Z</time>
      </trkpt>
      <trkpt lat="48.82151" lon="2.44201">
        <ele>46</ele>
        <time>2020-07-22T18:10:45Z</time>
      </trkpt>
      <trkpt lat="48.82152" lon="2.44202">
        <ele>46</ele>
        <time>2020-07-22T18:10:46Z</time>
      </trkpt>
      <trkpt lat="48.82153" lon="2.44203">
        <ele>46</ele>
        <time>2020-07-22T18:10:47Z</time>
      </trkpt>
      <trkpt lat="48.82155" lon="2.44203">
        <ele>46</ele>
        <time>2020-07-22T18:10:48Z</time>
      </trkpt>
      <trkpt lat="48.82156" lon="2.44204">
        <ele>46</ele>
        <time>2020-07-22T18:10:49Z</time>
      </trkpt>
      <trkpt lat="48.82158" lon="2.44205">
        <ele>46</ele>
        <time>2020-07-22T18:10:50Z</time>
      </trkpt>
      <trkpt lat="48.82159" lon="2.44206">
        <ele>46</ele>
        <time>2020-07-22T18:10:51Z</time>
      </trkpt>
      <trkpt lat="48.82161" lon="2.44206">
        <ele>46</ele>
        <time>2020-07-22T18:10:52Z</time>
      </trkpt>
      <trkpt lat="48.82162" lon="2.44207">
        <ele>46</ele>
        <time>2020-07-22T18:10:53Z</time>
      </trkpt>
      <trkpt lat="48.82164" lon="2.44208">
        <ele>46</ele>
        <time>2020-07-22T18:10:54Z</time>
      </trkpt>
      <trkpt lat="48.82165" lon="2.44209">
        <ele>46</ele>
        <time>2020-07-22T18:10:55Z</time>
      </trkpt>
      <trkpt lat="48.82166" lon="2.44209">
        <ele>46</ele>
        <time>2020-07-22T18:10:56Z</time>
      </trkpt>
      <trkpt lat="48.82167" lon="2.4421">
        <ele>46</ele>
        <time>2020-07-22T18:10:57Z</time>
      </trkpt>
      <trkpt lat="48.82168" lon="2.44211">
        <ele>46</ele>
        <time>2020-07-22T18:10:58Z</time>
      </trkpt>
      <trkpt lat="48.82169" lon="2.44212">
        <ele>46</ele>
        <time>2020-07-22T18:10:59Z</time>
      </trkpt>
      <trkpt lat="48.8217" lon="2.44213">
        <ele>46</ele>
        <time>2020-07-22T18:11:00Z</time>
      </trkpt>
      <trkpt lat="48.82171" lon="2.44214">
        <ele>46</ele>
        <time>2020-07-22T18:11:01Z</time>
      </trkpt>
      <trkpt lat="48.82172" lon="2.44215">
        <ele>46</ele>
        <time>2020-07-22T18:11:02Z</time>
      </trkpt>
      <trkpt lat="48.82173" lon="2.44216">
        <ele>46</ele>
        <time>2020-07-22T18:11:03Z</time>
      </trkpt>
      <trkpt lat="48.82175" lon="2.44217">
        <ele>46</ele>
        <time>2020-07-22T18:11:04Z</time>
      </trkpt>
      <trkpt lat="48.82176" lon="2.44218">
        <ele>46</ele>
        <time>2020-07-22T18:11:05Z</time>
      </trkpt>
      <trkpt lat="48.82178" lon="2.44218">
        <ele>46</ele>
        <time>2020-07-22T18:11:06Z</time>
      </trkpt>
      <trkpt lat="48.82179" lon="2.44218">
        <ele>46</ele>
        <time>2020-07-22T18:11:07Z</time>
      </trkpt>
      <trkpt lat="48.8218" lon="2.44218">
        <ele>46</ele>
        <time>2020-07-22T18:11:08Z</time>
      </trkpt>
      <trkpt lat="48.82182" lon="2.44217">
        <ele>46</ele>
        <time>2020-07-22T18:11:09Z</time>
      </trkpt>
      <trkpt lat="48.82182" lon="2.44216">
        <ele>46</ele>
        <time>2020-07-22T18:11:10Z</time>
      </trkpt>
      <trkpt lat="48.82183" lon="2.44215">
        <ele>46</ele>
        <time>2020-07-22T18:11:11Z</time>
      </trkpt>
      <trkpt lat="48.82184" lon="2.44214">
        <ele>46</ele>
        <time>2020-07-22T18:11:12Z</time>
      </trkpt>
      <trkpt lat="48.82184" lon="2.44213">
        <ele>46</ele>
        <time>2020-07-22T18:11:13Z</time>
      </trkpt>
      <trkpt lat="48.82185" lon="2.44211">
        <ele>46</ele>
        <time>2020-07-22T18:11:14Z</time>
      </trkpt>
      <trkpt lat="48.82185" lon="2.44209">
        <ele>46</ele>
        <time>2020-07-22T18:11:15Z</time>
      </trkpt>
      <trkpt lat="48.82185" lon="2.44208">
        <ele>46</ele>
        <time>2020-07-22T18:11:16Z</time>
      </trkpt>
      <trkpt lat="48.82186" lon="2.44206">
        <ele>46</ele>
        <time>2020-07-22T18:11:17Z</time>
      </trkpt>
      <trkpt lat="48.82186" lon="2.44204">
        <ele>46</ele>
        <time>2020-07-22T18:11:18Z</time>
      </trkpt>
      <trkpt lat="48.82186" lon="2.44202">
        <ele>45</ele>
        <time>2020-07-22T18:11:19Z</time>
      </trkpt>
      <trkpt lat="48.82186" lon="2.44201">
        <ele>45</ele>
        <time>2020-07-22T18:11:20Z</time>
      </trkpt>
      <trkpt lat="48.82186" lon="2.44199">
        <ele>45</ele>
        <time>2020-07-22T18:11:21Z</time>
      </trkpt>
      <trkpt lat="48.82186" lon="2.44197">
        <ele>45</ele>
        <time>2020-07-22T18:11:22Z</time>
      </trkpt>
      <trkpt lat="48.82186" lon="2.44195">
        <ele>45</ele>
        <time>2020-07-22T18:11:23Z</time>
      </trkpt>
      <trkpt lat="48.82186" lon="2.44193">
        <ele>45</ele>
        <time>2020-07-22T18:11:24Z</time>
      </trkpt>
      <trkpt lat="48.82186" lon="2.44191">
        <ele>45</ele>
        <time>2020-07-22T18:11:25Z</time>
      </trkpt>
      <trkpt lat="48.82186" lon="2.44189">
        <ele>45</ele>
        <time>2020-07-22T18:11:26Z</time>
      </trkpt>
      <trkpt lat="48.82186" lon="2.44186">
        <ele>45</ele>
        <time>2020-07-22T18:11:27Z</time>
      </trkpt>
      <trkpt lat="48.82186" lon="2.44184">
        <ele>45</ele>
        <time>2020-07-22T18:11:28Z</time>
      </trkpt>
      <trkpt lat="48.82186" lon="2.44182">
        <ele>45</ele>
        <time>2020-07-22T18:11:29Z</time>
      </trkpt>
      <trkpt lat="48.82186" lon="2.44181">
        <ele>45</ele>
        <time>2020-07-22T18:11:30Z</time>
      </trkpt>
      <trkpt lat="48.82186" lon="2.44179">
        <ele>45</ele>
        <time>2020-07-22T18:11:31Z</time>
      </trkpt>
      <trkpt lat="48.82186" lon="2.44177">
        <ele>45</ele>
        <time>2020-07-22T18:11:32Z</time>
      </trkpt>
      <trkpt lat="48.82186" lon="2.44175">
        <ele>45</ele>
        <time>2020-07-22T18:11:33Z</time>
      </trkpt>
      <trkpt lat="48.82186" lon="2.44173">
        <ele>45</ele>
        <time>2020-07-22T18:11:34Z</time>
      </trkpt>
      <trkpt lat="48.82186" lon="2.44172">
        <ele>45</ele>
        <time>2020-07-22T18:11:35Z</time>
      </trkpt>
      <trkpt lat="48.82186" lon="2.4417">
        <ele>45</ele>
        <time>2020-07-22T18:11:36Z</time>
      </trkpt>
      <trkpt lat="48.82185" lon="2.44168">
        <ele>45</ele>
        <time>2020-07-22T18:11:37Z</time>
      </trkpt>
      <trkpt lat="48.82185" lon="2.44166">
        <ele>45</ele>
        <time>2020-07-22T18:11:38Z</time>
      </trkpt>
      <trkpt lat="48.82185" lon="2.44164">
        <ele>45</ele>
        <time>2020-07-22T18:11:39Z</time>
      </trkpt>
      <trkpt lat="48.82185" lon="2.44162">
        <ele>45</ele>
        <time>2020-07-22T18:11:40Z</time>
      </trkpt>
      <trkpt lat="48.82185" lon="2.4416">
        <ele>45</ele>
        <time>2020-07-22T18:11:41Z</time>
      </trkpt>
      <trkpt lat="48.82185" lon="2.44159">
        <ele>45</ele>
        <time>2020-07-22T18:11:42Z</time>
      </trkpt>
      <trkpt lat="48.82185" lon="2.44157">
        <ele>45</ele>
        <time>2020-07-22T18:11:43Z</time>
      </trkpt>
      <trkpt lat="48.82185" lon="2.44156">
        <ele>45</ele>
        <time>2020-07-22T18:11:44Z</time>
      </trkpt>
      <trkpt lat="48.82185" lon="2.44154">
        <ele>45</ele>
        <time>2020-07-22T18:11:45Z</time>
      </trkpt>
      <trkpt lat="48.82185" lon="2.44153">
        <ele>45</ele>
        <time>2020-07-22T18:11:46Z</time>
      </trkpt>
      <trkpt lat="48.82185" lon="2.44151">
        <ele>45</ele>
        <time>2020-07-22T18:11:47Z</time>
      </trkpt>
      <trkpt lat="48.82185" lon="2.4415">
        <ele>45</ele>
        <time>2020-07-22T18:11:48Z</time>
      </trkpt>
      <trkpt lat="48.82185" lon="2.44149">
        <ele>45</ele>
        <time>2020-07-22T18:11:49Z</time>
      </trkpt>
      <trkpt lat="48.82185" lon="2.44147">
        <ele>45</ele>
        <time>2020-07-22T18:11:50Z</time>
      </trkpt>
      <trkpt lat="48.82185" lon="2.44146">
        <ele>45</ele>
        <time>2020-07-22T18:11:51Z</time>
      </trkpt>
      <trkpt lat="48.82185" lon="2.44144">
        <ele>45</ele>
        <time>2020-07-22T18:11:52Z</time>
      </trkpt>
      <trkpt lat="48.82185" lon="2.44143">
        <ele>45</ele>
        <time>2020-07-22T18:11:53Z</time>
      </trkpt>
      <trkpt lat="48.82185" lon="2.44141">
        <ele>45</ele>
        <time>2020-07-22T18:11:54Z</time>
      </trkpt>
      <trkpt lat="48.82185" lon="2.44139">
        <ele>45</ele>
        <time>2020-07-22T18:11:55Z</time>
      </trkpt>
      <trkpt lat="48.82185" lon="2.44137">
        <ele>45</ele>
        <time>2020-07-22T18:11:56Z</time>
      </trkpt>
      <trkpt lat="48.82185" lon="2.44135">
        <ele>45</ele>
        <time>2020-07-22T18:11:57Z</time>
      </trkpt>
      <trkpt lat="48.82185" lon="2.44133">
        <ele>45</ele>
        <time>2020-07-22T18:11:58Z</time>
      </trkpt>
      <trkpt lat="48.82184" lon="2.44131">
        <ele>45</ele>
        <time>2020-07-22T18:11:59Z</time>
      </trkpt>
      <trkpt lat="48.82184" lon="2.44129">
        <ele>45</ele>
        <time>2020-07-22T18:12:00Z</time>
      </trkpt>
      <trkpt lat="48.82184" lon="2.44127">
        <ele>45</ele>
        <time>2020-07-22T18:12:01Z</time>
      </trkpt>
      <trkpt lat="48.82184" lon="2.44125">
        <ele>45</ele>
        <time>2020-07-22T18:12:02Z</time>
      </trkpt>
      <trkpt lat="48.82184" lon="2.44123">
        <ele>45</ele>
        <time>2020-07-22T18:12:03Z</time>
      </trkpt>
      <trkpt lat="48.82184" lon="2.44121">
        <ele>45</ele>
        <time>2020-07-22T18:12:04Z</time>
      </trkpt>
      <trkpt lat="48.82183" lon="2.4412">
        <ele>45</ele>
        <time>2020-07-22T18:12:05Z</time>
      </trkpt>
      <trkpt lat="48.82183" lon="2.44118">
        <ele>45</ele>
        <time>2020-07-22T18:12:06Z</time>
      </trkpt>
      <trkpt lat="48.82183" lon="2.44117">
        <ele>45</ele>
        <time>2020-07-22T18:12:07Z</time>
      </trkpt>
      <trkpt lat="48.82183" lon="2.44115">
        <ele>45</ele>
        <time>2020-07-22T18:12:08Z</time>
      </trkpt>
      <trkpt lat="48.82183" lon="2.44113">
        <ele>45</ele>
        <time>2020-07-22T18:12:09Z</time>
      </trkpt>
      <trkpt lat="48.82184" lon="2.44111">
        <ele>45</ele>
        <time>2020-07-22T18:12:10Z</time>
      </trkpt>
      <trkpt lat="48.82184" lon="2.44109">
        <ele>45</ele>
        <time>2020-07-22T18:12:11Z</time>
      </trkpt>
      <trkpt lat="48.82185" lon="2.44107">
        <ele>45</ele>
        <time>2020-07-22T18:12:12Z</time>
      </trkpt>
      <trkpt lat="48.82185" lon="2.44105">
        <ele>45</ele>
        <time>2020-07-22T18:12:13Z</time>
      </trkpt>
      <trkpt lat="48.82186" lon="2.44103">
        <ele>45</ele>
        <time>2020-07-22T18:12:14Z</time>
      </trkpt>
      <trkpt lat="48.82187" lon="2.44101">
        <ele>45</ele>
        <time>2020-07-22T18:12:15Z</time>
      </trkpt>
      <trkpt lat="48.82187" lon="2.44099">
        <ele>45</ele>
        <time>2020-07-22T18:12:16Z</time>
      </trkpt>
      <trkpt lat="48.82188" lon="2.44097">
        <ele>45</ele>
        <time>2020-07-22T18:12:17Z</time>
      </trkpt>
      <trkpt lat="48.82188" lon="2.44096">
        <ele>45</ele>
        <time>2020-07-22T18:12:18Z</time>
      </trkpt>
      <trkpt lat="48.82188" lon="2.44094">
        <ele>45</ele>
        <time>2020-07-22T18:12:19Z</time>
      </trkpt>
      <trkpt lat="48.82188" lon="2.44093">
        <ele>45</ele>
        <time>2020-07-22T18:12:20Z</time>
      </trkpt>
      <trkpt lat="48.82189" lon="2.44092">
        <ele>45</ele>
        <time>2020-07-22T18:12:21Z</time>
      </trkpt>
      <trkpt lat="48.8219" lon="2.44091">
        <ele>45</ele>
        <time>2020-07-22T18:12:22Z</time>
      </trkpt>
      <trkpt lat="48.8219" lon="2.44089">
        <ele>45</ele>
        <time>2020-07-22T18:12:23Z</time>
      </trkpt>
      <trkpt lat="48.8219" lon="2.44088">
        <ele>45</ele>
        <time>2020-07-22T18:12:24Z</time>
      </trkpt>
      <trkpt lat="48.8219" lon="2.44086">
        <ele>45</ele>
        <time>2020-07-22T18:12:25Z</time>
      </trkpt>
      <trkpt lat="48.8219" lon="2.44085">
        <ele>45</ele>
        <time>2020-07-22T18:12:26Z</time>
      </trkpt>
      <trkpt lat="48.82191" lon="2.44083">
        <ele>45</ele>
        <time>2020-07-22T18:12:27Z</time>
      </trkpt>
      <trkpt lat="48.82191" lon="2.44082">
        <ele>45</ele>
        <time>2020-07-22T18:12:28Z</time>
      </trkpt>
      <trkpt lat="48.82192" lon="2.4408">
        <ele>45</ele>
        <time>2020-07-22T18:12:29Z</time>
      </trkpt>
      <trkpt lat="48.82192" lon="2.44078">
        <ele>45</ele>
        <time>2020-07-22T18:12:30Z</time>
      </trkpt>
      <trkpt lat="48.82192" lon="2.44076">
        <ele>45</ele>
        <time>2020-07-22T18:12:31Z</time>
      </trkpt>
      <trkpt lat="48.82193" lon="2.44075">
        <ele>45</ele>
        <time>2020-07-22T18:12:32Z</time>
      </trkpt>
      <trkpt lat="48.82193" lon="2.44073">
        <ele>45</ele>
        <time>2020-07-22T18:12:33Z</time>
      </trkpt>
      <trkpt lat="48.82193" lon="2.44071">
        <ele>45</ele>
        <time>2020-07-22T18:12:34Z</time>
      </trkpt>
      <trkpt lat="48.82193" lon="2.4407">
        <ele>45</ele>
        <time>2020-07-22T18:12:35Z</time>
      </trkpt>
      <trkpt lat="48.82193" lon="2.44068">
        <ele>45</ele>
        <time>2020-07-22T18:12:36Z</time>
      </trkpt>
      <trkpt lat="48.82193" lon="2.44066">
        <ele>45</ele>
        <time>2020-07-22T18:12:37Z</time>
      </trkpt>
      <trkpt lat="48.82194" lon="2.44065">
        <ele>45</ele>
        <time>2020-07-22T18:12:38Z</time>
      </trkpt>
      <trkpt lat="48.82194" lon="2.44063">
        <ele>45</ele>
        <time>2020-07-22T18:12:39Z</time>
      </trkpt>
      <trkpt lat="48.82194" lon="2.44062">
        <ele>45</ele>
        <time>2020-07-22T18:12:40Z</time>
      </trkpt>
      <trkpt lat="48.82195" lon="2.4406">
        <ele>45</ele>
        <time>2020-07-22T18:12:41Z</time>
      </trkpt>
      <trkpt lat="48.82195" lon="2.44058">
        <ele>45</ele>
        <time>2020-07-22T18:12:42Z</time>
      </trkpt>
      <trkpt lat="48.82195" lon="2.44056">
        <ele>45</ele>
        <time>2020-07-22T18:12:43Z</time>
      </trkpt>
      <trkpt lat="48.82196" lon="2.44053">
        <ele>45</ele>
        <time>2020-07-22T18:12:44Z</time>
      </trkpt>
      <trkpt lat="48.82196" lon="2.44051">
        <ele>45</ele>
        <time>2020-07-22T18:12:45Z</time>
      </trkpt>
      <trkpt lat="48.82196" lon="2.44049">
        <ele>45</ele>
        <time>2020-07-22T18:12:46Z</time>
      </trkpt>
      <trkpt lat="48.82196" lon="2.44047">
        <ele>45</ele>
        <time>2020-07-22T18:12:47Z</time>
      </trkpt>
      <trkpt lat="48.82196" lon="2.44045">
        <ele>45</ele>
        <time>2020-07-22T18:12:48Z</time>
      </trkpt>
      <trkpt lat="48.82196" lon="2.44043">
        <ele>44</ele>
        <time>2020-07-22T18:12:49Z</time>
      </trkpt>
      <trkpt lat="48.82196" lon="2.44042">
        <ele>44</ele>
        <time>2020-07-22T18:12:50Z</time>
      </trkpt>
      <trkpt lat="48.82197" lon="2.4404">
        <ele>44</ele>
        <time>2020-07-22T18:12:51Z</time>
      </trkpt>
      <trkpt lat="48.82197" lon="2.44038">
        <ele>44</ele>
        <time>2020-07-22T18:12:52Z</time>
      </trkpt>
      <trkpt lat="48.82198" lon="2.44036">
        <ele>44</ele>
        <time>2020-07-22T18:12:53Z</time>
      </trkpt>
      <trkpt lat="48.82198" lon="2.44035">
        <ele>44</ele>
        <time>2020-07-22T18:12:54Z</time>
      </trkpt>
      <trkpt lat="48.82198" lon="2.44033">
        <ele>44</ele>
        <time>2020-07-22T18:12:55Z</time>
      </trkpt>
      <trkpt lat="48.82198" lon="2.44031">
        <ele>44</ele>
        <time>2020-07-22T18:12:56Z</time>
      </trkpt>
      <trkpt lat="48.82198" lon="2.4403">
        <ele>44</ele>
        <time>2020-07-22T18:12:57Z</time>
      </trkpt>
      <trkpt lat="48.82198" lon="2.44028">
        <ele>44</ele>
        <time>2020-07-22T18:12:58Z</time>
      </trkpt>
      <trkpt lat="48.82198" lon="2.44027">
        <ele>44</ele>
        <time>2020-07-22T18:12:59Z</time>
      </trkpt>
      <trkpt lat="48.82198" lon="2.44025">
        <ele>44</ele>
        <time>2020-07-22T18:13:00Z</time>
      </trkpt>
      <trkpt lat="48.82197" lon="2.44024">
        <ele>44</ele>
        <time>2020-07-22T18:13:01Z</time>
      </trkpt>
      <trkpt lat="48.82197" lon="2.44022">
        <ele>44</ele>
        <time>2020-07-22T18:13:02Z</time>
      </trkpt>
      <trkpt lat="48.82196" lon="2.44021">
        <ele>44</ele>
        <time>2020-07-22T18:13:03Z</time>
      </trkpt>
      <trkpt lat="48.82196" lon="2.44019">
        <ele>44</ele>
        <time>2020-07-22T18:13:04Z</time>
      </trkpt>
      <trkpt lat="48.82196" lon="2.44017">
        <ele>44</ele>
        <time>2020-07-22T18:13:05Z</time>
      </trkpt>
      <trkpt lat="48.82195" lon="2.44015">
        <ele>44</ele>
        <time>2020-07-22T18:13:06Z</time>
      </trkpt>
      <trkpt lat="48.82195" lon="2.44013">
        <ele>44</ele>
        <time>2020-07-22T18:13:07Z</time>
      </trkpt>
      <trkpt lat="48.82194" lon="2.44011">
        <ele>44</ele>
        <time>2020-07-22T18:13:08Z</time>
      </trkpt>
      <trkpt lat="48.82193" lon="2.4401">
        <ele>44</ele>
        <time>2020-07-22T18:13:09Z</time>
      </trkpt>
      <trkpt lat="48.82192" lon="2.44008">
        <ele>44</ele>
        <time>2020-07-22T18:13:10Z</time>
      </trkpt>
      <trkpt lat="48.82192" lon="2.44006">
        <ele>44</ele>
        <time>2020-07-22T18:13:11Z</time>
      </trkpt>
      <trkpt lat="48.82192" lon="2.44004">
        <ele>44</ele>
        <time>2020-07-22T18:13:12Z</time>
      </trkpt>
      <trkpt lat="48.82191" lon="2.44002">
        <ele>44</ele>
        <time>2020-07-22T18:13:13Z</time>
      </trkpt>
      <trkpt lat="48.82192" lon="2.44">
        <ele>44</ele>
        <time>2020-07-22T18:13:14Z</time>
      </trkpt>
      <trkpt lat="48.82192" lon="2.43998">
        <ele>44</ele>
        <time>2020-07-22T18:13:15Z</time>
      </trkpt>
      <trkpt lat="48.82193" lon="2.43996">
        <ele>44</ele>
        <time>2020-07-22T18:13:16Z</time>
      </trkpt>
      <trkpt lat="48.82194" lon="2.43994">
        <ele>44</ele>
        <time>2020-07-22T18:13:17Z</time>
      </trkpt>
      <trkpt lat="48.82194" lon="2.43992">
        <ele>44</ele>
        <time>2020-07-22T18:13:18Z</time>
      </trkpt>
      <trkpt lat="48.82195" lon="2.4399">
        <ele>44</ele>
        <time>2020-07-22T18:13:19Z</time>
      </trkpt>
      <trkpt lat="48.82195" lon="2.43988">
        <ele>44</ele>
        <time>2020-07-22T18:13:20Z</time>
      </trkpt>
      <trkpt lat="48.82196" lon="2.43986">
        <ele>44</ele>
        <time>2020-07-22T18:13:21Z</time>
      </trkpt>
      <trkpt lat="48.82196" lon="2.43984">
        <ele>44</ele>
        <time>2020-07-22T18:13:22Z</time>
      </trkpt>
      <trkpt lat="48.82196" lon="2.43981">
        <ele>44</ele>
        <time>2020-07-22T18:13:23Z</time>
      </trkpt>
      <trkpt lat="48.82196" lon="2.43979">
        <ele>44</ele>
        <time>2020-07-22T18:13:24Z</time>
      </trkpt>
      <trkpt lat="48.82197" lon="2.43977">
        <ele>44</ele>
        <time>2020-07-22T18:13:25Z</time>
      </trkpt>
      <trkpt lat="48.82197" lon="2.43974">
        <ele>44</ele>
        <time>2020-07-22T18:13:26Z</time>
      </trkpt>
      <trkpt lat="48.82198" lon="2.43972">
        <ele>44</ele>
        <time>2020-07-22T18:13:27Z</time>
      </trkpt>
      <trkpt lat="48.82198" lon="2.4397">
        <ele>44</ele>
        <time>2020-07-22T18:13:28Z</time>
      </trkpt>
      <trkpt lat="48.82199" lon="2.43968">
        <ele>44</ele>
        <time>2020-07-22T18:13:29Z</time>
      </trkpt>
      <trkpt lat="48.822" lon="2.43966">
        <ele>44</ele>
        <time>2020-07-22T18:13:30Z</time>
      </trkpt>
      <trkpt lat="48.822" lon="2.43965">
        <ele>44</ele>
        <time>2020-07-22T18:13:31Z</time>
      </trkpt>
      <trkpt lat="48.822" lon="2.43963">
        <ele>44</ele>
        <time>2020-07-22T18:13:32Z</time>
      </trkpt>
      <trkpt lat="48.82201" lon="2.43961">
        <ele>44</ele>
        <time>2020-07-22T18:13:33Z</time>
      </trkpt>
      <trkpt lat="48.82201" lon="2.43959">
        <ele>44</ele>
        <time>2020-07-22T18:13:34Z</time>
      </trkpt>
      <trkpt lat="48.82201" lon="2.43958">
        <ele>44</ele>
        <time>2020-07-22T18:13:35Z</time>
      </trkpt>
      <trkpt lat="48.82201" lon="2.43957">
        <ele>44</ele>
        <time>2020-07-22T18:13:36Z</time>
      </trkpt>
      <trkpt lat="48.82201" lon="2.43955">
        <ele>44</ele>
        <time>2020-07-22T18:13:37Z</time>
      </trkpt>
      <trkpt lat="48.822" lon="2.43953">
        <ele>44</ele>
        <time>2020-07-22T18:13:38Z</time>
      </trkpt>
      <trkpt lat="48.822" lon="2.43952">
        <ele>44</ele>
        <time>2020-07-22T18:13:39Z</time>
      </trkpt>
      <trkpt lat="48.822" lon="2.4395">
        <ele>44</ele>
        <time>2020-07-22T18:13:40Z</time>
      </trkpt>
      <trkpt lat="48.822" lon="2.43949">
        <ele>44</ele>
        <time>2020-07-22T18:13:41Z</time>
      </trkpt>
      <trkpt lat="48.822" lon="2.43947">
        <ele>44</ele>
        <time>2020-07-22T18:13:42Z</time>
      </trkpt>
      <trkpt lat="48.822" lon="2.43945">
        <ele>44</ele>
        <time>2020-07-22T18:13:43Z</time>
      </trkpt>
      <trkpt lat="48.822" lon="2.43944">
        <ele>44</ele>
        <time>2020-07-22T18:13:44Z</time>
      </trkpt>
      <trkpt lat="48.822" lon="2.43942">
        <ele>44</ele>
        <time>2020-07-22T18:13:45Z</time>
      </trkpt>
      <trkpt lat="48.822" lon="2.4394">
        <ele>44</ele>
        <time>2020-07-22T18:13:46Z</time>
      </trkpt>
      <trkpt lat="48.822" lon="2.43938">
        <ele>44</ele>
        <time>2020-07-22T18:13:47Z</time>
      </trkpt>
      <trkpt lat="48.822" lon="2.43936">
        <ele>44</ele>
        <time>2020-07-22T18:13:48Z</time>
      </trkpt>
      <trkpt lat="48.822" lon="2.43934">
        <ele>44</ele>
        <time>2020-07-22T18:13:49Z</time>
      </trkpt>
      <trkpt lat="48.822" lon="2.43932">
        <ele>44</ele>
        <time>2020-07-22T18:13:50Z</time>
      </trkpt>
      <trkpt lat="48.822" lon="2.4393">
        <ele>44</ele>
        <time>2020-07-22T18:13:51Z</time>
      </trkpt>
      <trkpt lat="48.822" lon="2.43928">
        <ele>44</ele>
        <time>2020-07-22T18:13:52Z</time>
      </trkpt>
      <trkpt lat="48.822" lon="2.43926">
        <ele>45</ele>
        <time>2020-07-22T18:13:53Z</time>
      </trkpt>
      <trkpt lat="48.822" lon="2.43924">
        <ele>45</ele>
        <time>2020-07-22T18:13:54Z</time>
      </trkpt>
      <trkpt lat="48.822" lon="2.43922">
        <ele>45</ele>
        <time>2020-07-22T18:13:55Z</time>
      </trkpt>
      <trkpt lat="48.82201" lon="2.4392">
        <ele>45</ele>
        <time>2020-07-22T18:13:56Z</time>
      </trkpt>
      <trkpt lat="48.82201" lon="2.43918">
        <ele>45</ele>
        <time>2020-07-22T18:13:57Z</time>
      </trkpt>
      <trkpt lat="48.82201" lon="2.43916">
        <ele>45</ele>
        <time>2020-07-22T18:13:58Z</time>
      </trkpt>
      <trkpt lat="48.82201" lon="2.43914">
        <ele>45</ele>
        <time>2020-07-22T18:13:59Z</time>
      </trkpt>
      <trkpt lat="48.82201" lon="2.43912">
        <ele>45</ele>
        <time>2020-07-22T18:14:00Z</time>
      </trkpt>
      <trkpt lat="48.82202" lon="2.43911">
        <ele>45</ele>
        <time>2020-07-22T18:14:01Z</time>
      </trkpt>
      <trkpt lat="48.82202" lon="2.43909">
        <ele>45</ele>
        <time>2020-07-22T18:14:02Z</time>
      </trkpt>
      <trkpt lat="48.82202" lon="2.43908">
        <ele>45</ele>
        <time>2020-07-22T18:14:03Z</time>
      </trkpt>
      <trkpt lat="48.82202" lon="2.43906">
        <ele>45</ele>
        <time>2020-07-22T18:14:04Z</time>
      </trkpt>
      <trkpt lat="48.82203" lon="2.43904">
        <ele>45</ele>
        <time>2020-07-22T18:14:05Z</time>
      </trkpt>
      <trkpt lat="48.82203" lon="2.43902">
        <ele>45</ele>
        <time>2020-07-22T18:14:06Z</time>
      </trkpt>
      <trkpt lat="48.82203" lon="2.43901">
        <ele>45</ele>
        <time>2020-07-22T18:14:07Z</time>
      </trkpt>
      <trkpt lat="48.82203" lon="2.43899">
        <ele>45</ele>
        <time>2020-07-22T18:14:08Z</time>
      </trkpt>
      <trkpt lat="48.82203" lon="2.43898">
        <ele>45</ele>
        <time>2020-07-22T18:14:09Z</time>
      </trkpt>
      <trkpt lat="48.82202" lon="2.43896">
        <ele>45</ele>
        <time>2020-07-22T18:14:10Z</time>
      </trkpt>
      <trkpt lat="48.82202" lon="2.43895">
        <ele>45</ele>
        <time>2020-07-22T18:14:11Z</time>
      </trkpt>
      <trkpt lat="48.82203" lon="2.43894">
        <ele>45</ele>
        <time>2020-07-22T18:14:12Z</time>
      </trkpt>
      <trkpt lat="48.82203" lon="2.43892">
        <ele>45</ele>
        <time>2020-07-22T18:14:13Z</time>
      </trkpt>
      <trkpt lat="48.82203" lon="2.43891">
        <ele>45</ele>
        <time>2020-07-22T18:14:14Z</time>
      </trkpt>
      <trkpt lat="48.82203" lon="2.43889">
        <ele>45</ele>
        <time>2020-07-22T18:14:15Z</time>
      </trkpt>
      <trkpt lat="48.82203" lon="2.43887">
        <ele>45</ele>
        <time>2020-07-22T18:14:16Z</time>
      </trkpt>
      <trkpt lat="48.82203" lon="2.43885">
        <ele>45</ele>
        <time>2020-07-22T18:14:17Z</time>
      </trkpt>
      <trkpt lat="48.82203" lon="2.43883">
        <ele>45</ele>
        <time>2020-07-22T18:14:18Z</time>
      </trkpt>
      <trkpt lat="48.82202" lon="2.43881">
        <ele>45</ele>
        <time>2020-07-22T18:14:19Z</time>
      </trkpt>
      <trkpt lat="48.82202" lon="2.43879">
        <ele>45</ele>
        <time>2020-07-22T18:14:20Z</time>
      </trkpt>
      <trkpt lat="48.82202" lon="2.43877">
        <ele>45</ele>
        <time>2020-07-22T18:14:21Z</time>
      </trkpt>
      <trkpt lat="48.82202" lon="2.43875">
        <ele>45</ele>
        <time>2020-07-22T18:14:22Z</time>
      </trkpt>
      <trkpt lat="48.82202" lon="2.43872">
        <ele>45</ele>
        <time>2020-07-22T18:14:23Z</time>
      </trkpt>
      <trkpt lat="48.82202" lon="2.4387">
        <ele>45</ele>
        <time>2020-07-22T18:14:24Z</time>
      </trkpt>
      <trkpt lat="48.82201" lon="2.43868">
        <ele>45</ele>
        <time>2020-07-22T18:14:25Z</time>
      </trkpt>
      <trkpt lat="48.82201" lon="2.43865">
        <ele>45</ele>
        <time>2020-07-22T18:14:26Z</time>
      </trkpt>
      <trkpt lat="48.822" lon="2.43863">
        <ele>45</ele>
        <time>2020-07-22T18:14:27Z</time>
      </trkpt>
      <trkpt lat="48.822" lon="2.43861">
        <ele>45</ele>
        <time>2020-07-22T18:14:28Z</time>
      </trkpt>
      <trkpt lat="48.822" lon="2.43859">
        <ele>45</ele>
        <time>2020-07-22T18:14:29Z</time>
      </trkpt>
      <trkpt lat="48.82199" lon="2.43857">
        <ele>45</ele>
        <time>2020-07-22T18:14:30Z</time>
      </trkpt>
      <trkpt lat="48.82199" lon="2.43855">
        <ele>45</ele>
        <time>2020-07-22T18:14:31Z</time>
      </trkpt>
      <trkpt lat="48.82198" lon="2.43853">
        <ele>45</ele>
        <time>2020-07-22T18:14:32Z</time>
      </trkpt>
      <trkpt lat="48.82199" lon="2.4385">
        <ele>45</ele>
        <time>2020-07-22T18:14:33Z</time>
      </trkpt>
      <trkpt lat="48.82199" lon="2.43848">
        <ele>45</ele>
        <time>2020-07-22T18:14:34Z</time>
      </trkpt>
      <trkpt lat="48.82199" lon="2.43845">
        <ele>45</ele>
        <time>2020-07-22T18:14:35Z</time>
      </trkpt>
      <trkpt lat="48.822" lon="2.43843">
        <ele>45</ele>
        <time>2020-07-22T18:14:36Z</time>
      </trkpt>
      <trkpt lat="48.822" lon="2.43841">
        <ele>45</ele>
        <time>2020-07-22T18:14:37Z</time>
      </trkpt>
      <trkpt lat="48.822" lon="2.43839">
        <ele>45</ele>
        <time>2020-07-22T18:14:38Z</time>
      </trkpt>
      <trkpt lat="48.82201" lon="2.43837">
        <ele>45</ele>
        <time>2020-07-22T18:14:39Z</time>
      </trkpt>
      <trkpt lat="48.82201" lon="2.43836">
        <ele>45</ele>
        <time>2020-07-22T18:14:40Z</time>
      </trkpt>
      <trkpt lat="48.82201" lon="2.43834">
        <ele>45</ele>
        <time>2020-07-22T18:14:41Z</time>
      </trkpt>
      <trkpt lat="48.82202" lon="2.43833">
        <ele>45</ele>
        <time>2020-07-22T18:14:42Z</time>
      </trkpt>
      <trkpt lat="48.82202" lon="2.43832">
        <ele>45</ele>
        <time>2020-07-22T18:14:43Z</time>
      </trkpt>
      <trkpt lat="48.82202" lon="2.4383">
        <ele>45</ele>
        <time>2020-07-22T18:14:44Z</time>
      </trkpt>
      <trkpt lat="48.82202" lon="2.43829">
        <ele>45</ele>
        <time>2020-07-22T18:14:45Z</time>
      </trkpt>
      <trkpt lat="48.82203" lon="2.43827">
        <ele>45</ele>
        <time>2020-07-22T18:14:46Z</time>
      </trkpt>
      <trkpt lat="48.82204" lon="2.43826">
        <ele>45</ele>
        <time>2020-07-22T18:14:47Z</time>
      </trkpt>
      <trkpt lat="48.82204" lon="2.43824">
        <ele>45</ele>
        <time>2020-07-22T18:14:48Z</time>
      </trkpt>
      <trkpt lat="48.82204" lon="2.43822">
        <ele>45</ele>
        <time>2020-07-22T18:14:49Z</time>
      </trkpt>
      <trkpt lat="48.82205" lon="2.4382">
        <ele>45</ele>
        <time>2020-07-22T18:14:50Z</time>
      </trkpt>
      <trkpt lat="48.82205" lon="2.43818">
        <ele>45</ele>
        <time>2020-07-22T18:14:51Z</time>
      </trkpt>
      <trkpt lat="48.82205" lon="2.43817">
        <ele>45</ele>
        <time>2020-07-22T18:14:52Z</time>
      </trkpt>
      <trkpt lat="48.82205" lon="2.43815">
        <ele>45</ele>
        <time>2020-07-22T18:14:53Z</time>
      </trkpt>
      <trkpt lat="48.82204" lon="2.43814">
        <ele>45</ele>
        <time>2020-07-22T18:14:54Z</time>
      </trkpt>
      <trkpt lat="48.82204" lon="2.43812">
        <ele>45</ele>
        <time>2020-07-22T18:14:55Z</time>
      </trkpt>
      <trkpt lat="48.82204" lon="2.4381">
        <ele>45</ele>
        <time>2020-07-22T18:14:56Z</time>
      </trkpt>
      <trkpt lat="48.82203" lon="2.43808">
        <ele>45</ele>
        <time>2020-07-22T18:14:57Z</time>
      </trkpt>
      <trkpt lat="48.82203" lon="2.43806">
        <ele>45</ele>
        <time>2020-07-22T18:14:58Z</time>
      </trkpt>
      <trkpt lat="48.82203" lon="2.43804">
        <ele>45</ele>
        <time>2020-07-22T18:14:59Z</time>
      </trkpt>
      <trkpt lat="48.82203" lon="2.43802">
        <ele>45</ele>
        <time>2020-07-22T18:15:00Z</time>
      </trkpt>
      <trkpt lat="48.82203" lon="2.438">
        <ele>45</ele>
        <time>2020-07-22T18:15:01Z</time>
      </trkpt>
      <trkpt lat="48.82203" lon="2.43799">
        <ele>45</ele>
        <time>2020-07-22T18:15:02Z</time>
      </trkpt>
      <trkpt lat="48.82203" lon="2.43797">
        <ele>45</ele>
        <time>2020-07-22T18:15:03Z</time>
      </trkpt>
      <trkpt lat="48.82204" lon="2.43795">
        <ele>45</ele>
        <time>2020-07-22T18:15:04Z</time>
      </trkpt>
      <trkpt lat="48.82204" lon="2.43793">
        <ele>45</ele>
        <time>2020-07-22T18:15:05Z</time>
      </trkpt>
      <trkpt lat="48.82204" lon="2.43792">
        <ele>45</ele>
        <time>2020-07-22T18:15:06Z</time>
      </trkpt>
      <trkpt lat="48.82205" lon="2.4379">
        <ele>45</ele>
        <time>2020-07-22T18:15:07Z</time>
      </trkpt>
      <trkpt lat="48.82206" lon="2.43788">
        <ele>45</ele>
        <time>2020-07-22T18:15:08Z</time>
      </trkpt>
      <trkpt lat="48.82206" lon="2.43785">
        <ele>45</ele>
        <time>2020-07-22T18:15:09Z</time>
      </trkpt>
      <trkpt lat="48.82207" lon="2.43783">
        <ele>45</ele>
        <time>2020-07-22T18:15:10Z</time>
      </trkpt>
      <trkpt lat="48.82208" lon="2.43781">
        <ele>45</ele>
        <time>2020-07-22T18:15:11Z</time>
      </trkpt>
      <trkpt lat="48.82209" lon="2.43778">
        <ele>45</ele>
        <time>2020-07-22T18:15:12Z</time>
      </trkpt>
      <trkpt lat="48.8221" lon="2.43776">
        <ele>45</ele>
        <time>2020-07-22T18:15:13Z</time>
      </trkpt>
      <trkpt lat="48.8221" lon="2.43773">
        <ele>45</ele>
        <time>2020-07-22T18:15:14Z</time>
      </trkpt>
      <trkpt lat="48.82211" lon="2.43771">
        <ele>45</ele>
        <time>2020-07-22T18:15:15Z</time>
      </trkpt>
      <trkpt lat="48.82211" lon="2.43769">
        <ele>45</ele>
        <time>2020-07-22T18:15:16Z</time>
      </trkpt>
      <trkpt lat="48.82212" lon="2.43768">
        <ele>45</ele>
        <time>2020-07-22T18:15:17Z</time>
      </trkpt>
      <trkpt lat="48.82212" lon="2.43766">
        <ele>45</ele>
        <time>2020-07-22T18:15:18Z</time>
      </trkpt>
      <trkpt lat="48.82212" lon="2.43764">
        <ele>45</ele>
        <time>2020-07-22T18:15:19Z</time>
      </trkpt>
      <trkpt lat="48.82212" lon="2.43762">
        <ele>45</ele>
        <time>2020-07-22T18:15:20Z</time>
      </trkpt>
      <trkpt lat="48.82213" lon="2.4376">
        <ele>45</ele>
        <time>2020-07-22T18:15:21Z</time>
      </trkpt>
      <trkpt lat="48.82213" lon="2.43758">
        <ele>45</ele>
        <time>2020-07-22T18:15:22Z</time>
      </trkpt>
      <trkpt lat="48.82214" lon="2.43756">
        <ele>45</ele>
        <time>2020-07-22T18:15:23Z</time>
      </trkpt>
      <trkpt lat="48.82214" lon="2.43755">
        <ele>45</ele>
        <time>2020-07-22T18:15:24Z</time>
      </trkpt>
      <trkpt lat="48.82214" lon="2.43753">
        <ele>45</ele>
        <time>2020-07-22T18:15:25Z</time>
      </trkpt>
      <trkpt lat="48.82215" lon="2.43751">
        <ele>45</ele>
        <time>2020-07-22T18:15:26Z</time>
      </trkpt>
      <trkpt lat="48.82216" lon="2.43749">
        <ele>45</ele>
        <time>2020-07-22T18:15:27Z</time>
      </trkpt>
      <trkpt lat="48.82216" lon="2.43748">
        <ele>45</ele>
        <time>2020-07-22T18:15:28Z</time>
      </trkpt>
      <trkpt lat="48.82216" lon="2.43746">
        <ele>45</ele>
        <time>2020-07-22T18:15:29Z</time>
      </trkpt>
      <trkpt lat="48.82216" lon="2.43744">
        <ele>45</ele>
        <time>2020-07-22T18:15:30Z</time>
      </trkpt>
      <trkpt lat="48.82217" lon="2.43741">
        <ele>45</ele>
        <time>2020-07-22T18:15:31Z</time>
      </trkpt>
      <trkpt lat="48.82217" lon="2.43739">
        <ele>45</ele>
        <time>2020-07-22T18:15:32Z</time>
      </trkpt>
      <trkpt lat="48.82218" lon="2.43736">
        <ele>45</ele>
        <time>2020-07-22T18:15:33Z</time>
      </trkpt>
      <trkpt lat="48.82219" lon="2.43734">
        <ele>45</ele>
        <time>2020-07-22T18:15:34Z</time>
      </trkpt>
      <trkpt lat="48.82219" lon="2.43731">
        <ele>45</ele>
        <time>2020-07-22T18:15:35Z</time>
      </trkpt>
      <trkpt lat="48.8222" lon="2.43729">
        <ele>45</ele>
        <time>2020-07-22T18:15:36Z</time>
      </trkpt>
      <trkpt lat="48.8222" lon="2.43727">
        <ele>45</ele>
        <time>2020-07-22T18:15:37Z</time>
      </trkpt>
      <trkpt lat="48.82221" lon="2.43725">
        <ele>45</ele>
        <time>2020-07-22T18:15:38Z</time>
      </trkpt>
      <trkpt lat="48.82221" lon="2.43724">
        <ele>45</ele>
        <time>2020-07-22T18:15:39Z</time>
      </trkpt>
      <trkpt lat="48.82221" lon="2.43722">
        <ele>45</ele>
        <time>2020-07-22T18:15:40Z</time>
      </trkpt>
      <trkpt lat="48.82222" lon="2.43721">
        <ele>45</ele>
        <time>2020-07-22T18:15:41Z</time>
      </trkpt>
      <trkpt lat="48.82222" lon="2.43719">
        <ele>45</ele>
        <time>2020-07-22T18:15:42Z</time>
      </trkpt>
      <trkpt lat="48.82222" lon="2.43717">
        <ele>45</ele>
        <time>2020-07-22T18:15:43Z</time>
      </trkpt>
      <trkpt lat="48.82222" lon="2.43716">
        <ele>45</ele>
        <time>2020-07-22T18:15:44Z</time>
      </trkpt>
      <trkpt lat="48.82223" lon="2.43714">
        <ele>45</ele>
        <time>2020-07-22T18:15:45Z</time>
      </trkpt>
      <trkpt lat="48.82223" lon="2.43712">
        <ele>45</ele>
        <time>2020-07-22T18:15:46Z</time>
      </trkpt>
      <trkpt lat="48.82224" lon="2.43709">
        <ele>45</ele>
        <time>2020-07-22T18:15:47Z</time>
      </trkpt>
      <trkpt lat="48.82224" lon="2.43707">
        <ele>45</ele>
        <time>2020-07-22T18:15:48Z</time>
      </trkpt>
      <trkpt lat="48.82225" lon="2.43705">
        <ele>45</ele>
        <time>2020-07-22T18:15:49Z</time>
      </trkpt>
      <trkpt lat="48.82225" lon="2.43703">
        <ele>45</ele>
        <time>2020-07-22T18:15:50Z</time>
      </trkpt>
      <trkpt lat="48.82225" lon="2.43701">
        <ele>45</ele>
        <time>2020-07-22T18:15:51Z</time>
      </trkpt>
      <trkpt lat="48.82225" lon="2.43699">
        <ele>45</ele>
        <time>2020-07-22T18:15:52Z</time>
      </trkpt>
      <trkpt lat="48.82226" lon="2.43698">
        <ele>45</ele>
        <time>2020-07-22T18:15:53Z</time>
      </trkpt>
      <trkpt lat="48.82227" lon="2.43696">
        <ele>45</ele>
        <time>2020-07-22T18:15:54Z</time>
      </trkpt>
      <trkpt lat="48.82227" lon="2.43694">
        <ele>45</ele>
        <time>2020-07-22T18:15:55Z</time>
      </trkpt>
      <trkpt lat="48.82227" lon="2.43692">
        <ele>45</ele>
        <time>2020-07-22T18:15:56Z</time>
      </trkpt>
      <trkpt lat="48.82227" lon="2.4369">
        <ele>45</ele>
        <time>2020-07-22T18:15:57Z</time>
      </trkpt>
      <trkpt lat="48.82227" lon="2.43689">
        <ele>45</ele>
        <time>2020-07-22T18:15:58Z</time>
      </trkpt>
      <trkpt lat="48.82228" lon="2.43687">
        <ele>45</ele>
        <time>2020-07-22T18:15:59Z</time>
      </trkpt>
      <trkpt lat="48.82228" lon="2.43685">
        <ele>45</ele>
        <time>2020-07-22T18:16:00Z</time>
      </trkpt>
      <trkpt lat="48.82228" lon="2.43683">
        <ele>45</ele>
        <time>2020-07-22T18:16:01Z</time>
      </trkpt>
      <trkpt lat="48.82228" lon="2.43682">
        <ele>45</ele>
        <time>2020-07-22T18:16:02Z</time>
      </trkpt>
      <trkpt lat="48.82228" lon="2.4368">
        <ele>45</ele>
        <time>2020-07-22T18:16:03Z</time>
      </trkpt>
      <trkpt lat="48.82228" lon="2.43678">
        <ele>45</ele>
        <time>2020-07-22T18:16:04Z</time>
      </trkpt>
      <trkpt lat="48.82228" lon="2.43676">
        <ele>45</ele>
        <time>2020-07-22T18:16:05Z</time>
      </trkpt>
      <trkpt lat="48.82228" lon="2.43673">
        <ele>45</ele>
        <time>2020-07-22T18:16:06Z</time>
      </trkpt>
      <trkpt lat="48.82228" lon="2.43671">
        <ele>45</ele>
        <time>2020-07-22T18:16:07Z</time>
      </trkpt>
      <trkpt lat="48.82229" lon="2.43668">
        <ele>45</ele>
        <time>2020-07-22T18:16:08Z</time>
      </trkpt>
      <trkpt lat="48.82229" lon="2.43665">
        <ele>45</ele>
        <time>2020-07-22T18:16:09Z</time>
      </trkpt>
      <trkpt lat="48.82229" lon="2.43662">
        <ele>45</ele>
        <time>2020-07-22T18:16:10Z</time>
      </trkpt>
      <trkpt lat="48.82229" lon="2.43659">
        <ele>45</ele>
        <time>2020-07-22T18:16:11Z</time>
      </trkpt>
      <trkpt lat="48.82229" lon="2.43656">
        <ele>45</ele>
        <time>2020-07-22T18:16:12Z</time>
      </trkpt>
      <trkpt lat="48.82228" lon="2.43654">
        <ele>45</ele>
        <time>2020-07-22T18:16:13Z</time>
      </trkpt>
      <trkpt lat="48.82228" lon="2.43651">
        <ele>45</ele>
        <time>2020-07-22T18:16:14Z</time>
      </trkpt>
      <trkpt lat="48.82228" lon="2.43649">
        <ele>45</ele>
        <time>2020-07-22T18:16:15Z</time>
      </trkpt>
      <trkpt lat="48.82228" lon="2.43647">
        <ele>45</ele>
        <time>2020-07-22T18:16:16Z</time>
      </trkpt>
      <trkpt lat="48.82228" lon="2.43645">
        <ele>45</ele>
        <time>2020-07-22T18:16:17Z</time>
      </trkpt>
      <trkpt lat="48.82228" lon="2.43643">
        <ele>45</ele>
        <time>2020-07-22T18:16:18Z</time>
      </trkpt>
      <trkpt lat="48.82228" lon="2.43641">
        <ele>45</ele>
        <time>2020-07-22T18:16:19Z</time>
      </trkpt>
      <trkpt lat="48.82228" lon="2.43639">
        <ele>45</ele>
        <time>2020-07-22T18:16:20Z</time>
      </trkpt>
      <trkpt lat="48.82228" lon="2.43637">
        <ele>45</ele>
        <time>2020-07-22T18:16:21Z</time>
      </trkpt>
      <trkpt lat="48.82227" lon="2.43635">
        <ele>45</ele>
        <time>2020-07-22T18:16:22Z</time>
      </trkpt>
      <trkpt lat="48.82227" lon="2.43633">
        <ele>45</ele>
        <time>2020-07-22T18:16:23Z</time>
      </trkpt>
      <trkpt lat="48.82227" lon="2.43631">
        <ele>45</ele>
        <time>2020-07-22T18:16:24Z</time>
      </trkpt>
      <trkpt lat="48.82226" lon="2.43629">
        <ele>45</ele>
        <time>2020-07-22T18:16:25Z</time>
      </trkpt>
      <trkpt lat="48.82226" lon="2.43627">
        <ele>45</ele>
        <time>2020-07-22T18:16:26Z</time>
      </trkpt>
      <trkpt lat="48.82225" lon="2.43626">
        <ele>45</ele>
        <time>2020-07-22T18:16:27Z</time>
      </trkpt>
      <trkpt lat="48.82225" lon="2.43624">
        <ele>45</ele>
        <time>2020-07-22T18:16:28Z</time>
      </trkpt>
      <trkpt lat="48.82225" lon="2.43623">
        <ele>45</ele>
        <time>2020-07-22T18:16:29Z</time>
      </trkpt>
      <trkpt lat="48.82225" lon="2.43622">
        <ele>45</ele>
        <time>2020-07-22T18:16:30Z</time>
      </trkpt>
      <trkpt lat="48.82225" lon="2.43621">
        <ele>45</ele>
        <time>2020-07-22T18:16:31Z</time>
      </trkpt>
      <trkpt lat="48.82225" lon="2.43619">
        <ele>45</ele>
        <time>2020-07-22T18:16:32Z</time>
      </trkpt>
      <trkpt lat="48.82224" lon="2.43618">
        <ele>45</ele>
        <time>2020-07-22T18:16:33Z</time>
      </trkpt>
      <trkpt lat="48.82224" lon="2.43616">
        <ele>45</ele>
        <time>2020-07-22T18:16:34Z</time>
      </trkpt>
      <trkpt lat="48.82224" lon="2.43614">
        <ele>45</ele>
        <time>2020-07-22T18:16:35Z</time>
      </trkpt>
      <trkpt lat="48.82224" lon="2.43612">
        <ele>45</ele>
        <time>2020-07-22T18:16:36Z</time>
      </trkpt>
      <trkpt lat="48.82224" lon="2.4361">
        <ele>45</ele>
        <time>2020-07-22T18:16:37Z</time>
      </trkpt>
      <trkpt lat="48.82224" lon="2.43609">
        <ele>45</ele>
        <time>2020-07-22T18:16:38Z</time>
      </trkpt>
      <trkpt lat="48.82224" lon="2.43607">
        <ele>45</ele>
        <time>2020-07-22T18:16:39Z</time>
      </trkpt>
      <trkpt lat="48.82224" lon="2.43605">
        <ele>45</ele>
        <time>2020-07-22T18:16:40Z</time>
      </trkpt>
      <trkpt lat="48.82224" lon="2.43603">
        <ele>45</ele>
        <time>2020-07-22T18:16:41Z</time>
      </trkpt>
      <trkpt lat="48.82225" lon="2.43601">
        <ele>45</ele>
        <time>2020-07-22T18:16:42Z</time>
      </trkpt>
      <trkpt lat="48.82225" lon="2.43599">
        <ele>45</ele>
        <time>2020-07-22T18:16:43Z</time>
      </trkpt>
      <trkpt lat="48.82225" lon="2.43597">
        <ele>45</ele>
        <time>2020-07-22T18:16:44Z</time>
      </trkpt>
      <trkpt lat="48.82226" lon="2.43595">
        <ele>45</ele>
        <time>2020-07-22T18:16:45Z</time>
      </trkpt>
      <trkpt lat="48.82226" lon="2.43594">
        <ele>45</ele>
        <time>2020-07-22T18:16:46Z</time>
      </trkpt>
      <trkpt lat="48.82227" lon="2.43592">
        <ele>45</ele>
        <time>2020-07-22T18:16:47Z</time>
      </trkpt>
      <trkpt lat="48.82228" lon="2.4359">
        <ele>45</ele>
        <time>2020-07-22T18:16:48Z</time>
      </trkpt>
      <trkpt lat="48.82228" lon="2.43589">
        <ele>45</ele>
        <time>2020-07-22T18:16:49Z</time>
      </trkpt>
      <trkpt lat="48.82229" lon="2.43588">
        <ele>45</ele>
        <time>2020-07-22T18:16:50Z</time>
      </trkpt>
      <trkpt lat="48.82229" lon="2.43587">
        <ele>45</ele>
        <time>2020-07-22T18:16:51Z</time>
      </trkpt>
      <trkpt lat="48.82229" lon="2.43586">
        <ele>45</ele>
        <time>2020-07-22T18:16:52Z</time>
      </trkpt>
      <trkpt lat="48.8223" lon="2.43585">
        <ele>45</ele>
        <time>2020-07-22T18:16:53Z</time>
      </trkpt>
      <trkpt lat="48.8223" lon="2.43584">
        <ele>45</ele>
        <time>2020-07-22T18:16:54Z</time>
      </trkpt>
      <trkpt lat="48.8223" lon="2.43583">
        <ele>45</ele>
        <time>2020-07-22T18:16:55Z</time>
      </trkpt>
      <trkpt lat="48.82231" lon="2.43582">
        <ele>45</ele>
        <time>2020-07-22T18:16:56Z</time>
      </trkpt>
      <trkpt lat="48.82231" lon="2.43581">
        <ele>45</ele>
        <time>2020-07-22T18:16:57Z</time>
      </trkpt>
      <trkpt lat="48.82232" lon="2.43579">
        <ele>45</ele>
        <time>2020-07-22T18:16:58Z</time>
      </trkpt>
      <trkpt lat="48.82232" lon="2.43578">
        <ele>45</ele>
        <time>2020-07-22T18:16:59Z</time>
      </trkpt>
      <trkpt lat="48.82232" lon="2.43576">
        <ele>45</ele>
        <time>2020-07-22T18:17:00Z</time>
      </trkpt>
      <trkpt lat="48.82233" lon="2.43574">
        <ele>45</ele>
        <time>2020-07-22T18:17:01Z</time>
      </trkpt>
      <trkpt lat="48.82233" lon="2.43571">
        <ele>45</ele>
        <time>2020-07-22T18:17:02Z</time>
      </trkpt>
      <trkpt lat="48.82233" lon="2.43569">
        <ele>45</ele>
        <time>2020-07-22T18:17:03Z</time>
      </trkpt>
      <trkpt lat="48.82233" lon="2.43567">
        <ele>45</ele>
        <time>2020-07-22T18:17:04Z</time>
      </trkpt>
      <trkpt lat="48.82233" lon="2.43564">
        <ele>45</ele>
        <time>2020-07-22T18:17:05Z</time>
      </trkpt>
      <trkpt lat="48.82234" lon="2.43562">
        <ele>45</ele>
        <time>2020-07-22T18:17:06Z</time>
      </trkpt>
      <trkpt lat="48.82234" lon="2.43559">
        <ele>45</ele>
        <time>2020-07-22T18:17:07Z</time>
      </trkpt>
      <trkpt lat="48.82235" lon="2.43557">
        <ele>45</ele>
        <time>2020-07-22T18:17:08Z</time>
      </trkpt>
      <trkpt lat="48.82235" lon="2.43555">
        <ele>45</ele>
        <time>2020-07-22T18:17:09Z</time>
      </trkpt>
      <trkpt lat="48.82235" lon="2.43553">
        <ele>45</ele>
        <time>2020-07-22T18:17:10Z</time>
      </trkpt>
      <trkpt lat="48.82235" lon="2.43551">
        <ele>45</ele>
        <time>2020-07-22T18:17:11Z</time>
      </trkpt>
      <trkpt lat="48.82236" lon="2.43549">
        <ele>45</ele>
        <time>2020-07-22T18:17:12Z</time>
      </trkpt>
      <trkpt lat="48.82236" lon="2.43547">
        <ele>45</ele>
        <time>2020-07-22T18:17:13Z</time>
      </trkpt>
      <trkpt lat="48.82237" lon="2.43544">
        <ele>45</ele>
        <time>2020-07-22T18:17:14Z</time>
      </trkpt>
      <trkpt lat="48.82237" lon="2.43542">
        <ele>45</ele>
        <time>2020-07-22T18:17:15Z</time>
      </trkpt>
      <trkpt lat="48.82238" lon="2.4354">
        <ele>45</ele>
        <time>2020-07-22T18:17:16Z</time>
      </trkpt>
      <trkpt lat="48.82238" lon="2.43538">
        <ele>45</ele>
        <time>2020-07-22T18:17:17Z</time>
      </trkpt>
      <trkpt lat="48.82239" lon="2.43536">
        <ele>45</ele>
        <time>2020-07-22T18:17:18Z</time>
      </trkpt>
      <trkpt lat="48.8224" lon="2.43534">
        <ele>45</ele>
        <time>2020-07-22T18:17:19Z</time>
      </trkpt>
      <trkpt lat="48.8224" lon="2.43532">
        <ele>45</ele>
        <time>2020-07-22T18:17:20Z</time>
      </trkpt>
      <trkpt lat="48.8224" lon="2.43531">
        <ele>45</ele>
        <time>2020-07-22T18:17:21Z</time>
      </trkpt>
      <trkpt lat="48.8224" lon="2.43529">
        <ele>45</ele>
        <time>2020-07-22T18:17:22Z</time>
      </trkpt>
      <trkpt lat="48.8224" lon="2.43527">
        <ele>45</ele>
        <time>2020-07-22T18:17:23Z</time>
      </trkpt>
      <trkpt lat="48.8224" lon="2.43525">
        <ele>45</ele>
        <time>2020-07-22T18:17:24Z</time>
      </trkpt>
      <trkpt lat="48.82241" lon="2.43523">
        <ele>45</ele>
        <time>2020-07-22T18:17:25Z</time>
      </trkpt>
      <trkpt lat="48.82241" lon="2.43521">
        <ele>45</ele>
        <time>2020-07-22T18:17:26Z</time>
      </trkpt>
      <trkpt lat="48.82241" lon="2.43519">
        <ele>45</ele>
        <time>2020-07-22T18:17:27Z</time>
      </trkpt>
      <trkpt lat="48.82242" lon="2.43518">
        <ele>45</ele>
        <time>2020-07-22T18:17:28Z</time>
      </trkpt>
      <trkpt lat="48.82242" lon="2.43516">
        <ele>45</ele>
        <time>2020-07-22T18:17:29Z</time>
      </trkpt>
      <trkpt lat="48.82243" lon="2.43515">
        <ele>45</ele>
        <time>2020-07-22T18:17:30Z</time>
      </trkpt>
      <trkpt lat="48.82243" lon="2.43513">
        <ele>45</ele>
        <time>2020-07-22T18:17:31Z</time>
      </trkpt>
      <trkpt lat="48.82243" lon="2.43512">
        <ele>45</ele>
        <time>2020-07-22T18:17:32Z</time>
      </trkpt>
      <trkpt lat="48.82243" lon="2.43511">
        <ele>45</ele>
        <time>2020-07-22T18:17:33Z</time>
      </trkpt>
      <trkpt lat="48.82243" lon="2.4351">
        <ele>45</ele>
        <time>2020-07-22T18:17:34Z</time>
      </trkpt>
      <trkpt lat="48.82243" lon="2.43508">
        <ele>45</ele>
        <time>2020-07-22T18:17:35Z</time>
      </trkpt>
      <trkpt lat="48.82244" lon="2.43507">
        <ele>45</ele>
        <time>2020-07-22T18:17:36Z</time>
      </trkpt>
      <trkpt lat="48.82244" lon="2.43506">
        <ele>45</ele>
        <time>2020-07-22T18:17:37Z</time>
      </trkpt>
      <trkpt lat="48.82245" lon="2.43504">
        <ele>45</ele>
        <time>2020-07-22T18:17:38Z</time>
      </trkpt>
      <trkpt lat="48.82245" lon="2.43502">
        <ele>45</ele>
        <time>2020-07-22T18:17:39Z</time>
      </trkpt>
      <trkpt lat="48.82245" lon="2.435">
        <ele>45</ele>
        <time>2020-07-22T18:17:40Z</time>
      </trkpt>
      <trkpt lat="48.82245" lon="2.43498">
        <ele>45</ele>
        <time>2020-07-22T18:17:41Z</time>
      </trkpt>
      <trkpt lat="48.82245" lon="2.43496">
        <ele>45</ele>
        <time>2020-07-22T18:17:42Z</time>
      </trkpt>
      <trkpt lat="48.82245" lon="2.43495">
        <ele>45</ele>
        <time>2020-07-22T18:17:43Z</time>
      </trkpt>
      <trkpt lat="48.82245" lon="2.43493">
        <ele>44</ele>
        <time>2020-07-22T18:17:44Z</time>
      </trkpt>
      <trkpt lat="48.82245" lon="2.43492">
        <ele>44</ele>
        <time>2020-07-22T18:17:45Z</time>
      </trkpt>
      <trkpt lat="48.82245" lon="2.4349">
        <ele>44</ele>
        <time>2020-07-22T18:17:46Z</time>
      </trkpt>
      <trkpt lat="48.82245" lon="2.43488">
        <ele>44</ele>
        <time>2020-07-22T18:17:47Z</time>
      </trkpt>
      <trkpt lat="48.82246" lon="2.43486">
        <ele>44</ele>
        <time>2020-07-22T18:17:48Z</time>
      </trkpt>
      <trkpt lat="48.82246" lon="2.43484">
        <ele>44</ele>
        <time>2020-07-22T18:17:49Z</time>
      </trkpt>
      <trkpt lat="48.82246" lon="2.43481">
        <ele>44</ele>
        <time>2020-07-22T18:17:50Z</time>
      </trkpt>
      <trkpt lat="48.82246" lon="2.43479">
        <ele>44</ele>
        <time>2020-07-22T18:17:51Z</time>
      </trkpt>
      <trkpt lat="48.82247" lon="2.43477">
        <ele>44</ele>
        <time>2020-07-22T18:17:52Z</time>
      </trkpt>
      <trkpt lat="48.82247" lon="2.43475">
        <ele>44</ele>
        <time>2020-07-22T18:17:53Z</time>
      </trkpt>
      <trkpt lat="48.82248" lon="2.43473">
        <ele>44</ele>
        <time>2020-07-22T18:17:54Z</time>
      </trkpt>
      <trkpt lat="48.82248" lon="2.43471">
        <ele>44</ele>
        <time>2020-07-22T18:17:55Z</time>
      </trkpt>
      <trkpt lat="48.8225" lon="2.4347">
        <ele>44</ele>
        <time>2020-07-22T18:17:56Z</time>
      </trkpt>
      <trkpt lat="48.8225" lon="2.43468">
        <ele>44</ele>
        <time>2020-07-22T18:17:57Z</time>
      </trkpt>
      <trkpt lat="48.82251" lon="2.43466">
        <ele>44</ele>
        <time>2020-07-22T18:17:58Z</time>
      </trkpt>
      <trkpt lat="48.82253" lon="2.43465">
        <ele>44</ele>
        <time>2020-07-22T18:17:59Z</time>
      </trkpt>
      <trkpt lat="48.82254" lon="2.43463">
        <ele>44</ele>
        <time>2020-07-22T18:18:00Z</time>
      </trkpt>
      <trkpt lat="48.82255" lon="2.43461">
        <ele>44</ele>
        <time>2020-07-22T18:18:01Z</time>
      </trkpt>
      <trkpt lat="48.82256" lon="2.4346">
        <ele>44</ele>
        <time>2020-07-22T18:18:02Z</time>
      </trkpt>
      <trkpt lat="48.82258" lon="2.43458">
        <ele>44</ele>
        <time>2020-07-22T18:18:03Z</time>
      </trkpt>
      <trkpt lat="48.82258" lon="2.43457">
        <ele>44</ele>
        <time>2020-07-22T18:18:04Z</time>
      </trkpt>
      <trkpt lat="48.82259" lon="2.43455">
        <ele>44</ele>
        <time>2020-07-22T18:18:05Z</time>
      </trkpt>
      <trkpt lat="48.8226" lon="2.43454">
        <ele>44</ele>
        <time>2020-07-22T18:18:06Z</time>
      </trkpt>
      <trkpt lat="48.82261" lon="2.43453">
        <ele>44</ele>
        <time>2020-07-22T18:18:07Z</time>
      </trkpt>
      <trkpt lat="48.82261" lon="2.43453">
        <ele>44</ele>
        <time>2020-07-22T18:18:08Z</time>
      </trkpt>
      <trkpt lat="48.82262" lon="2.43452">
        <ele>44</ele>
        <time>2020-07-22T18:18:09Z</time>
      </trkpt>
      <trkpt lat="48.82263" lon="2.43451">
        <ele>44</ele>
        <time>2020-07-22T18:18:10Z</time>
      </trkpt>
      <trkpt lat="48.82263" lon="2.43451">
        <ele>44</ele>
        <time>2020-07-22T18:18:11Z</time>
      </trkpt>
      <trkpt lat="48.82264" lon="2.43449">
        <ele>44</ele>
        <time>2020-07-22T18:18:12Z</time>
      </trkpt>
      <trkpt lat="48.82265" lon="2.43448">
        <ele>44</ele>
        <time>2020-07-22T18:18:13Z</time>
      </trkpt>
      <trkpt lat="48.82266" lon="2.43447">
        <ele>44</ele>
        <time>2020-07-22T18:18:14Z</time>
      </trkpt>
      <trkpt lat="48.82266" lon="2.43445">
        <ele>44</ele>
        <time>2020-07-22T18:18:15Z</time>
      </trkpt>
      <trkpt lat="48.82267" lon="2.43444">
        <ele>44</ele>
        <time>2020-07-22T18:18:16Z</time>
      </trkpt>
      <trkpt lat="48.82268" lon="2.43442">
        <ele>44</ele>
        <time>2020-07-22T18:18:17Z</time>
      </trkpt>
      <trkpt lat="48.82269" lon="2.43441">
        <ele>44</ele>
        <time>2020-07-22T18:18:18Z</time>
      </trkpt>
      <trkpt lat="48.82269" lon="2.4344">
        <ele>44</ele>
        <time>2020-07-22T18:18:19Z</time>
      </trkpt>
      <trkpt lat="48.82269" lon="2.43438">
        <ele>44</ele>
        <time>2020-07-22T18:18:20Z</time>
      </trkpt>
      <trkpt lat="48.8227" lon="2.43437">
        <ele>44</ele>
        <time>2020-07-22T18:18:21Z</time>
      </trkpt>
      <trkpt lat="48.8227" lon="2.43436">
        <ele>44</ele>
        <time>2020-07-22T18:18:22Z</time>
      </trkpt>
      <trkpt lat="48.8227" lon="2.43436">
        <ele>44</ele>
        <time>2020-07-22T18:18:23Z</time>
      </trkpt>
      <trkpt lat="48.82271" lon="2.43435">
        <ele>43</ele>
        <time>2020-07-22T18:18:24Z</time>
      </trkpt>
      <trkpt lat="48.82271" lon="2.43434">
        <ele>43</ele>
        <time>2020-07-22T18:18:25Z</time>
      </trkpt>
      <trkpt lat="48.82272" lon="2.43432">
        <ele>43</ele>
        <time>2020-07-22T18:18:26Z</time>
      </trkpt>
      <trkpt lat="48.82272" lon="2.43431">
        <ele>43</ele>
        <time>2020-07-22T18:18:27Z</time>
      </trkpt>
      <trkpt lat="48.82273" lon="2.43429">
        <ele>43</ele>
        <time>2020-07-22T18:18:28Z</time>
      </trkpt>
      <trkpt lat="48.82274" lon="2.43428">
        <ele>43</ele>
        <time>2020-07-22T18:18:29Z</time>
      </trkpt>
      <trkpt lat="48.82275" lon="2.43426">
        <ele>43</ele>
        <time>2020-07-22T18:18:30Z</time>
      </trkpt>
      <trkpt lat="48.82275" lon="2.43424">
        <ele>43</ele>
        <time>2020-07-22T18:18:31Z</time>
      </trkpt>
      <trkpt lat="48.82277" lon="2.43422">
        <ele>43</ele>
        <time>2020-07-22T18:18:32Z</time>
      </trkpt>
      <trkpt lat="48.82278" lon="2.43421">
        <ele>43</ele>
        <time>2020-07-22T18:18:33Z</time>
      </trkpt>
      <trkpt lat="48.82279" lon="2.43419">
        <ele>43</ele>
        <time>2020-07-22T18:18:34Z</time>
      </trkpt>
      <trkpt lat="48.8228" lon="2.43418">
        <ele>43</ele>
        <time>2020-07-22T18:18:35Z</time>
      </trkpt>
      <trkpt lat="48.82281" lon="2.43416">
        <ele>43</ele>
        <time>2020-07-22T18:18:36Z</time>
      </trkpt>
      <trkpt lat="48.82282" lon="2.43415">
        <ele>43</ele>
        <time>2020-07-22T18:18:37Z</time>
      </trkpt>
      <trkpt lat="48.82282" lon="2.43414">
        <ele>43</ele>
        <time>2020-07-22T18:18:38Z</time>
      </trkpt>
      <trkpt lat="48.82283" lon="2.43414">
        <ele>43</ele>
        <time>2020-07-22T18:18:39Z</time>
      </trkpt>
      <trkpt lat="48.82283" lon="2.43413">
        <ele>43</ele>
        <time>2020-07-22T18:18:40Z</time>
      </trkpt>
      <trkpt lat="48.82283" lon="2.43412">
        <ele>43</ele>
        <time>2020-07-22T18:18:41Z</time>
      </trkpt>
      <trkpt lat="48.82284" lon="2.43411">
        <ele>43</ele>
        <time>2020-07-22T18:18:42Z</time>
      </trkpt>
      <trkpt lat="48.82285" lon="2.43409">
        <ele>43</ele>
        <time>2020-07-22T18:18:43Z</time>
      </trkpt>
      <trkpt lat="48.82285" lon="2.43407">
        <ele>43</ele>
        <time>2020-07-22T18:18:44Z</time>
      </trkpt>
      <trkpt lat="48.82285" lon="2.43405">
        <ele>43</ele>
        <time>2020-07-22T18:18:45Z</time>
      </trkpt>
      <trkpt lat="48.82286" lon="2.43403">
        <ele>43</ele>
        <time>2020-07-22T18:18:46Z</time>
      </trkpt>
      <trkpt lat="48.82287" lon="2.434">
        <ele>43</ele>
        <time>2020-07-22T18:18:47Z</time>
      </trkpt>
      <trkpt lat="48.82288" lon="2.43398">
        <ele>44</ele>
        <time>2020-07-22T18:18:48Z</time>
      </trkpt>
      <trkpt lat="48.82289" lon="2.43396">
        <ele>44</ele>
        <time>2020-07-22T18:18:49Z</time>
      </trkpt>
      <trkpt lat="48.8229" lon="2.43394">
        <ele>44</ele>
        <time>2020-07-22T18:18:50Z</time>
      </trkpt>
      <trkpt lat="48.82291" lon="2.43392">
        <ele>44</ele>
        <time>2020-07-22T18:18:51Z</time>
      </trkpt>
      <trkpt lat="48.82291" lon="2.4339">
        <ele>44</ele>
        <time>2020-07-22T18:18:52Z</time>
      </trkpt>
      <trkpt lat="48.82293" lon="2.43388">
        <ele>44</ele>
        <time>2020-07-22T18:18:53Z</time>
      </trkpt>
      <trkpt lat="48.82294" lon="2.43386">
        <ele>44</ele>
        <time>2020-07-22T18:18:54Z</time>
      </trkpt>
      <trkpt lat="48.82295" lon="2.43384">
        <ele>44</ele>
        <time>2020-07-22T18:18:55Z</time>
      </trkpt>
      <trkpt lat="48.82295" lon="2.43383">
        <ele>44</ele>
        <time>2020-07-22T18:18:56Z</time>
      </trkpt>
      <trkpt lat="48.82296" lon="2.43381">
        <ele>44</ele>
        <time>2020-07-22T18:18:57Z</time>
      </trkpt>
      <trkpt lat="48.82297" lon="2.4338">
        <ele>44</ele>
        <time>2020-07-22T18:18:58Z</time>
      </trkpt>
      <trkpt lat="48.82297" lon="2.43379">
        <ele>44</ele>
        <time>2020-07-22T18:18:59Z</time>
      </trkpt>
      <trkpt lat="48.82298" lon="2.43378">
        <ele>44</ele>
        <time>2020-07-22T18:19:00Z</time>
      </trkpt>
      <trkpt lat="48.82299" lon="2.43377">
        <ele>44</ele>
        <time>2020-07-22T18:19:01Z</time>
      </trkpt>
      <trkpt lat="48.82299" lon="2.43376">
        <ele>44</ele>
        <time>2020-07-22T18:19:02Z</time>
      </trkpt>
      <trkpt lat="48.823" lon="2.43374">
        <ele>44</ele>
        <time>2020-07-22T18:19:03Z</time>
      </trkpt>
      <trkpt lat="48.82301" lon="2.43373">
        <ele>44</ele>
        <time>2020-07-22T18:19:04Z</time>
      </trkpt>
      <trkpt lat="48.82301" lon="2.43371">
        <ele>44</ele>
        <time>2020-07-22T18:19:05Z</time>
      </trkpt>
      <trkpt lat="48.82302" lon="2.4337">
        <ele>44</ele>
        <time>2020-07-22T18:19:06Z</time>
      </trkpt>
      <trkpt lat="48.82303" lon="2.43368">
        <ele>44</ele>
        <time>2020-07-22T18:19:07Z</time>
      </trkpt>
      <trkpt lat="48.82304" lon="2.43366">
        <ele>44</ele>
        <time>2020-07-22T18:19:08Z</time>
      </trkpt>
      <trkpt lat="48.82304" lon="2.43365">
        <ele>44</ele>
        <time>2020-07-22T18:19:09Z</time>
      </trkpt>
      <trkpt lat="48.82304" lon="2.43363">
        <ele>44</ele>
        <time>2020-07-22T18:19:10Z</time>
      </trkpt>
      <trkpt lat="48.82305" lon="2.43362">
        <ele>44</ele>
        <time>2020-07-22T18:19:11Z</time>
      </trkpt>
      <trkpt lat="48.82306" lon="2.4336">
        <ele>44</ele>
        <time>2020-07-22T18:19:12Z</time>
      </trkpt>
      <trkpt lat="48.82306" lon="2.43358">
        <ele>44</ele>
        <time>2020-07-22T18:19:13Z</time>
      </trkpt>
      <trkpt lat="48.82307" lon="2.43357">
        <ele>44</ele>
        <time>2020-07-22T18:19:14Z</time>
      </trkpt>
      <trkpt lat="48.82307" lon="2.43355">
        <ele>44</ele>
        <time>2020-07-22T18:19:15Z</time>
      </trkpt>
      <trkpt lat="48.82308" lon="2.43354">
        <ele>44</ele>
        <time>2020-07-22T18:19:16Z</time>
      </trkpt>
      <trkpt lat="48.82308" lon="2.43352">
        <ele>44</ele>
        <time>2020-07-22T18:19:17Z</time>
      </trkpt>
      <trkpt lat="48.82309" lon="2.43351">
        <ele>44</ele>
        <time>2020-07-22T18:19:18Z</time>
      </trkpt>
      <trkpt lat="48.82309" lon="2.4335">
        <ele>44</ele>
        <time>2020-07-22T18:19:19Z</time>
      </trkpt>
      <trkpt lat="48.8231" lon="2.43349">
        <ele>44</ele>
        <time>2020-07-22T18:19:20Z</time>
      </trkpt>
      <trkpt lat="48.82311" lon="2.43347">
        <ele>44</ele>
        <time>2020-07-22T18:19:21Z</time>
      </trkpt>
      <trkpt lat="48.82312" lon="2.43346">
        <ele>44</ele>
        <time>2020-07-22T18:19:22Z</time>
      </trkpt>
      <trkpt lat="48.82313" lon="2.43344">
        <ele>44</ele>
        <time>2020-07-22T18:19:23Z</time>
      </trkpt>
      <trkpt lat="48.82314" lon="2.43343">
        <ele>44</ele>
        <time>2020-07-22T18:19:24Z</time>
      </trkpt>
      <trkpt lat="48.82315" lon="2.43341">
        <ele>44</ele>
        <time>2020-07-22T18:19:25Z</time>
      </trkpt>
      <trkpt lat="48.82316" lon="2.4334">
        <ele>44</ele>
        <time>2020-07-22T18:19:26Z</time>
      </trkpt>
      <trkpt lat="48.82317" lon="2.43338">
        <ele>44</ele>
        <time>2020-07-22T18:19:27Z</time>
      </trkpt>
      <trkpt lat="48.82319" lon="2.43337">
        <ele>44</ele>
        <time>2020-07-22T18:19:28Z</time>
      </trkpt>
      <trkpt lat="48.82319" lon="2.43335">
        <ele>44</ele>
        <time>2020-07-22T18:19:29Z</time>
      </trkpt>
      <trkpt lat="48.82321" lon="2.43334">
        <ele>44</ele>
        <time>2020-07-22T18:19:30Z</time>
      </trkpt>
      <trkpt lat="48.82322" lon="2.43333">
        <ele>44</ele>
        <time>2020-07-22T18:19:31Z</time>
      </trkpt>
      <trkpt lat="48.82324" lon="2.43332">
        <ele>44</ele>
        <time>2020-07-22T18:19:32Z</time>
      </trkpt>
      <trkpt lat="48.82325" lon="2.43331">
        <ele>44</ele>
        <time>2020-07-22T18:19:33Z</time>
      </trkpt>
      <trkpt lat="48.82326" lon="2.4333">
        <ele>44</ele>
        <time>2020-07-22T18:19:34Z</time>
      </trkpt>
      <trkpt lat="48.82327" lon="2.43329">
        <ele>44</ele>
        <time>2020-07-22T18:19:35Z</time>
      </trkpt>
      <trkpt lat="48.82328" lon="2.43328">
        <ele>44</ele>
        <time>2020-07-22T18:19:36Z</time>
      </trkpt>
      <trkpt lat="48.82329" lon="2.43327">
        <ele>44</ele>
        <time>2020-07-22T18:19:37Z</time>
      </trkpt>
      <trkpt lat="48.82331" lon="2.43327">
        <ele>44</ele>
        <time>2020-07-22T18:19:38Z</time>
      </trkpt>
      <trkpt lat="48.82332" lon="2.43326">
        <ele>44</ele>
        <time>2020-07-22T18:19:39Z</time>
      </trkpt>
      <trkpt lat="48.82334" lon="2.43325">
        <ele>44</ele>
        <time>2020-07-22T18:19:40Z</time>
      </trkpt>
      <trkpt lat="48.82335" lon="2.43324">
        <ele>44</ele>
        <time>2020-07-22T18:19:41Z</time>
      </trkpt>
      <trkpt lat="48.82337" lon="2.43324">
        <ele>44</ele>
        <time>2020-07-22T18:19:42Z</time>
      </trkpt>
      <trkpt lat="48.82339" lon="2.43323">
        <ele>44</ele>
        <time>2020-07-22T18:19:43Z</time>
      </trkpt>
      <trkpt lat="48.82341" lon="2.43322">
        <ele>44</ele>
        <time>2020-07-22T18:19:44Z</time>
      </trkpt>
      <trkpt lat="48.82342" lon="2.43322">
        <ele>44</ele>
        <time>2020-07-22T18:19:45Z</time>
      </trkpt>
      <trkpt lat="48.82344" lon="2.43321">
        <ele>44</ele>
        <time>2020-07-22T18:19:46Z</time>
      </trkpt>
      <trkpt lat="48.82345" lon="2.43319">
        <ele>44</ele>
        <time>2020-07-22T18:19:47Z</time>
      </trkpt>
      <trkpt lat="48.82346" lon="2.43318">
        <ele>44</ele>
        <time>2020-07-22T18:19:48Z</time>
      </trkpt>
      <trkpt lat="48.82348" lon="2.43316">
        <ele>44</ele>
        <time>2020-07-22T18:19:49Z</time>
      </trkpt>
      <trkpt lat="48.82349" lon="2.43314">
        <ele>44</ele>
        <time>2020-07-22T18:19:50Z</time>
      </trkpt>
      <trkpt lat="48.82349" lon="2.43313">
        <ele>44</ele>
        <time>2020-07-22T18:19:51Z</time>
      </trkpt>
      <trkpt lat="48.8235" lon="2.43311">
        <ele>44</ele>
        <time>2020-07-22T18:19:52Z</time>
      </trkpt>
      <trkpt lat="48.82351" lon="2.43309">
        <ele>44</ele>
        <time>2020-07-22T18:19:53Z</time>
      </trkpt>
      <trkpt lat="48.82351" lon="2.43307">
        <ele>44</ele>
        <time>2020-07-22T18:19:54Z</time>
      </trkpt>
      <trkpt lat="48.82352" lon="2.43306">
        <ele>44</ele>
        <time>2020-07-22T18:19:55Z</time>
      </trkpt>
      <trkpt lat="48.82353" lon="2.43304">
        <ele>44</ele>
        <time>2020-07-22T18:19:56Z</time>
      </trkpt>
      <trkpt lat="48.82354" lon="2.43303">
        <ele>44</ele>
        <time>2020-07-22T18:19:57Z</time>
      </trkpt>
      <trkpt lat="48.82355" lon="2.43301">
        <ele>44</ele>
        <time>2020-07-22T18:19:58Z</time>
      </trkpt>
      <trkpt lat="48.82356" lon="2.433">
        <ele>44</ele>
        <time>2020-07-22T18:19:59Z</time>
      </trkpt>
      <trkpt lat="48.82357" lon="2.43298">
        <ele>44</ele>
        <time>2020-07-22T18:20:00Z</time>
      </trkpt>
      <trkpt lat="48.82358" lon="2.43297">
        <ele>44</ele>
        <time>2020-07-22T18:20:01Z</time>
      </trkpt>
      <trkpt lat="48.82359" lon="2.43295">
        <ele>44</ele>
        <time>2020-07-22T18:20:02Z</time>
      </trkpt>
      <trkpt lat="48.82361" lon="2.43294">
        <ele>44</ele>
        <time>2020-07-22T18:20:03Z</time>
      </trkpt>
      <trkpt lat="48.82362" lon="2.43292">
        <ele>43</ele>
        <time>2020-07-22T18:20:04Z</time>
      </trkpt>
      <trkpt lat="48.82363" lon="2.43291">
        <ele>43</ele>
        <time>2020-07-22T18:20:05Z</time>
      </trkpt>
      <trkpt lat="48.82364" lon="2.4329">
        <ele>43</ele>
        <time>2020-07-22T18:20:06Z</time>
      </trkpt>
      <trkpt lat="48.82365" lon="2.43289">
        <ele>43</ele>
        <time>2020-07-22T18:20:07Z</time>
      </trkpt>
      <trkpt lat="48.82367" lon="2.43288">
        <ele>43</ele>
        <time>2020-07-22T18:20:08Z</time>
      </trkpt>
      <trkpt lat="48.82367" lon="2.43287">
        <ele>43</ele>
        <time>2020-07-22T18:20:09Z</time>
      </trkpt>
      <trkpt lat="48.82369" lon="2.43286">
        <ele>43</ele>
        <time>2020-07-22T18:20:10Z</time>
      </trkpt>
      <trkpt lat="48.8237" lon="2.43286">
        <ele>43</ele>
        <time>2020-07-22T18:20:11Z</time>
      </trkpt>
      <trkpt lat="48.82371" lon="2.43285">
        <ele>43</ele>
        <time>2020-07-22T18:20:12Z</time>
      </trkpt>
      <trkpt lat="48.82372" lon="2.43284">
        <ele>43</ele>
        <time>2020-07-22T18:20:13Z</time>
      </trkpt>
      <trkpt lat="48.82373" lon="2.43283">
        <ele>43</ele>
        <time>2020-07-22T18:20:14Z</time>
      </trkpt>
      <trkpt lat="48.82375" lon="2.43282">
        <ele>43</ele>
        <time>2020-07-22T18:20:15Z</time>
      </trkpt>
      <trkpt lat="48.82376" lon="2.43281">
        <ele>43</ele>
        <time>2020-07-22T18:20:16Z</time>
      </trkpt>
      <trkpt lat="48.82377" lon="2.43281">
        <ele>43</ele>
        <time>2020-07-22T18:20:17Z</time>
      </trkpt>
      <trkpt lat="48.82378" lon="2.4328">
        <ele>44</ele>
        <time>2020-07-22T18:20:18Z</time>
      </trkpt>
      <trkpt lat="48.82379" lon="2.43279">
        <ele>44</ele>
        <time>2020-07-22T18:20:19Z</time>
      </trkpt>
      <trkpt lat="48.8238" lon="2.43278">
        <ele>44</ele>
        <time>2020-07-22T18:20:20Z</time>
      </trkpt>
      <trkpt lat="48.82381" lon="2.43278">
        <ele>44</ele>
        <time>2020-07-22T18:20:21Z</time>
      </trkpt>
      <trkpt lat="48.82383" lon="2.43277">
        <ele>44</ele>
        <time>2020-07-22T18:20:22Z</time>
      </trkpt>
      <trkpt lat="48.82384" lon="2.43276">
        <ele>44</ele>
        <time>2020-07-22T18:20:23Z</time>
      </trkpt>
      <trkpt lat="48.82385" lon="2.43276">
        <ele>44</ele>
        <time>2020-07-22T18:20:24Z</time>
      </trkpt>
      <trkpt lat="48.82386" lon="2.43275">
        <ele>44</ele>
        <time>2020-07-22T18:20:25Z</time>
      </trkpt>
      <trkpt lat="48.82387" lon="2.43274">
        <ele>44</ele>
        <time>2020-07-22T18:20:26Z</time>
      </trkpt>
      <trkpt lat="48.82388" lon="2.43274">
        <ele>44</ele>
        <time>2020-07-22T18:20:27Z</time>
      </trkpt>
      <trkpt lat="48.82389" lon="2.43273">
        <ele>44</ele>
        <time>2020-07-22T18:20:28Z</time>
      </trkpt>
      <trkpt lat="48.8239" lon="2.43273">
        <ele>44</ele>
        <time>2020-07-22T18:20:29Z</time>
      </trkpt>
      <trkpt lat="48.82392" lon="2.43272">
        <ele>44</ele>
        <time>2020-07-22T18:20:30Z</time>
      </trkpt>
      <trkpt lat="48.82393" lon="2.43271">
        <ele>44</ele>
        <time>2020-07-22T18:20:31Z</time>
      </trkpt>
      <trkpt lat="48.82394" lon="2.43271">
        <ele>44</ele>
        <time>2020-07-22T18:20:32Z</time>
      </trkpt>
      <trkpt lat="48.82395" lon="2.4327">
        <ele>44</ele>
        <time>2020-07-22T18:20:33Z</time>
      </trkpt>
      <trkpt lat="48.82396" lon="2.43269">
        <ele>44</ele>
        <time>2020-07-22T18:20:34Z</time>
      </trkpt>
      <trkpt lat="48.82397" lon="2.43268">
        <ele>44</ele>
        <time>2020-07-22T18:20:35Z</time>
      </trkpt>
      <trkpt lat="48.82398" lon="2.43268">
        <ele>44</ele>
        <time>2020-07-22T18:20:36Z</time>
      </trkpt>
      <trkpt lat="48.82399" lon="2.43267">
        <ele>44</ele>
        <time>2020-07-22T18:20:37Z</time>
      </trkpt>
      <trkpt lat="48.82401" lon="2.43266">
        <ele>44</ele>
        <time>2020-07-22T18:20:38Z</time>
      </trkpt>
      <trkpt lat="48.82402" lon="2.43265">
        <ele>44</ele>
        <time>2020-07-22T18:20:39Z</time>
      </trkpt>
      <trkpt lat="48.82403" lon="2.43264">
        <ele>44</ele>
        <time>2020-07-22T18:20:40Z</time>
      </trkpt>
      <trkpt lat="48.82404" lon="2.43263">
        <ele>44</ele>
        <time>2020-07-22T18:20:41Z</time>
      </trkpt>
      <trkpt lat="48.82406" lon="2.43262">
        <ele>44</ele>
        <time>2020-07-22T18:20:42Z</time>
      </trkpt>
      <trkpt lat="48.82407" lon="2.43261">
        <ele>44</ele>
        <time>2020-07-22T18:20:43Z</time>
      </trkpt>
      <trkpt lat="48.82408" lon="2.4326">
        <ele>44</ele>
        <time>2020-07-22T18:20:44Z</time>
      </trkpt>
      <trkpt lat="48.82409" lon="2.43259">
        <ele>44</ele>
        <time>2020-07-22T18:20:45Z</time>
      </trkpt>
      <trkpt lat="48.8241" lon="2.43258">
        <ele>44</ele>
        <time>2020-07-22T18:20:46Z</time>
      </trkpt>
      <trkpt lat="48.82411" lon="2.43257">
        <ele>44</ele>
        <time>2020-07-22T18:20:47Z</time>
      </trkpt>
      <trkpt lat="48.82412" lon="2.43256">
        <ele>44</ele>
        <time>2020-07-22T18:20:48Z</time>
      </trkpt>
      <trkpt lat="48.82413" lon="2.43255">
        <ele>44</ele>
        <time>2020-07-22T18:20:49Z</time>
      </trkpt>
      <trkpt lat="48.82414" lon="2.43254">
        <ele>44</ele>
        <time>2020-07-22T18:20:50Z</time>
      </trkpt>
      <trkpt lat="48.82415" lon="2.43253">
        <ele>44</ele>
        <time>2020-07-22T18:20:51Z</time>
      </trkpt>
      <trkpt lat="48.82416" lon="2.43252">
        <ele>44</ele>
        <time>2020-07-22T18:20:52Z</time>
      </trkpt>
      <trkpt lat="48.82417" lon="2.43251">
        <ele>44</ele>
        <time>2020-07-22T18:20:53Z</time>
      </trkpt>
      <trkpt lat="48.82418" lon="2.4325">
        <ele>44</ele>
        <time>2020-07-22T18:20:54Z</time>
      </trkpt>
      <trkpt lat="48.82419" lon="2.43249">
        <ele>44</ele>
        <time>2020-07-22T18:20:55Z</time>
      </trkpt>
      <trkpt lat="48.8242" lon="2.43249">
        <ele>44</ele>
        <time>2020-07-22T18:20:56Z</time>
      </trkpt>
      <trkpt lat="48.82422" lon="2.43248">
        <ele>44</ele>
        <time>2020-07-22T18:20:57Z</time>
      </trkpt>
      <trkpt lat="48.82423" lon="2.43247">
        <ele>44</ele>
        <time>2020-07-22T18:20:58Z</time>
      </trkpt>
      <trkpt lat="48.82424" lon="2.43247">
        <ele>44</ele>
        <time>2020-07-22T18:20:59Z</time>
      </trkpt>
      <trkpt lat="48.82425" lon="2.43246">
        <ele>44</ele>
        <time>2020-07-22T18:21:00Z</time>
      </trkpt>
      <trkpt lat="48.82426" lon="2.43245">
        <ele>44</ele>
        <time>2020-07-22T18:21:01Z</time>
      </trkpt>
      <trkpt lat="48.82428" lon="2.43244">
        <ele>44</ele>
        <time>2020-07-22T18:21:02Z</time>
      </trkpt>
      <trkpt lat="48.82429" lon="2.43242">
        <ele>44</ele>
        <time>2020-07-22T18:21:03Z</time>
      </trkpt>
      <trkpt lat="48.8243" lon="2.43241">
        <ele>44</ele>
        <time>2020-07-22T18:21:04Z</time>
      </trkpt>
      <trkpt lat="48.82432" lon="2.4324">
        <ele>44</ele>
        <time>2020-07-22T18:21:05Z</time>
      </trkpt>
      <trkpt lat="48.82433" lon="2.43239">
        <ele>44</ele>
        <time>2020-07-22T18:21:06Z</time>
      </trkpt>
      <trkpt lat="48.82435" lon="2.43238">
        <ele>44</ele>
        <time>2020-07-22T18:21:07Z</time>
      </trkpt>
      <trkpt lat="48.82436" lon="2.43237">
        <ele>44</ele>
        <time>2020-07-22T18:21:08Z</time>
      </trkpt>
      <trkpt lat="48.82438" lon="2.43236">
        <ele>44</ele>
        <time>2020-07-22T18:21:09Z</time>
      </trkpt>
      <trkpt lat="48.82439" lon="2.43236">
        <ele>44</ele>
        <time>2020-07-22T18:21:10Z</time>
      </trkpt>
      <trkpt lat="48.8244" lon="2.43235">
        <ele>44</ele>
        <time>2020-07-22T18:21:11Z</time>
      </trkpt>
      <trkpt lat="48.82441" lon="2.43234">
        <ele>44</ele>
        <time>2020-07-22T18:21:12Z</time>
      </trkpt>
      <trkpt lat="48.82443" lon="2.43233">
        <ele>44</ele>
        <time>2020-07-22T18:21:13Z</time>
      </trkpt>
      <trkpt lat="48.82444" lon="2.43232">
        <ele>44</ele>
        <time>2020-07-22T18:21:14Z</time>
      </trkpt>
      <trkpt lat="48.82445" lon="2.43231">
        <ele>44</ele>
        <time>2020-07-22T18:21:15Z</time>
      </trkpt>
      <trkpt lat="48.82446" lon="2.4323">
        <ele>44</ele>
        <time>2020-07-22T18:21:16Z</time>
      </trkpt>
      <trkpt lat="48.82448" lon="2.43229">
        <ele>44</ele>
        <time>2020-07-22T18:21:17Z</time>
      </trkpt>
      <trkpt lat="48.82449" lon="2.43228">
        <ele>44</ele>
        <time>2020-07-22T18:21:18Z</time>
      </trkpt>
      <trkpt lat="48.8245" lon="2.43227">
        <ele>44</ele>
        <time>2020-07-22T18:21:19Z</time>
      </trkpt>
      <trkpt lat="48.82451" lon="2.43227">
        <ele>44</ele>
        <time>2020-07-22T18:21:20Z</time>
      </trkpt>
      <trkpt lat="48.82452" lon="2.43226">
        <ele>44</ele>
        <time>2020-07-22T18:21:21Z</time>
      </trkpt>
      <trkpt lat="48.82454" lon="2.43226">
        <ele>44</ele>
        <time>2020-07-22T18:21:22Z</time>
      </trkpt>
      <trkpt lat="48.82455" lon="2.43226">
        <ele>44</ele>
        <time>2020-07-22T18:21:23Z</time>
      </trkpt>
      <trkpt lat="48.82456" lon="2.43226">
        <ele>44</ele>
        <time>2020-07-22T18:21:24Z</time>
      </trkpt>
      <trkpt lat="48.82457" lon="2.43227">
        <ele>44</ele>
        <time>2020-07-22T18:21:25Z</time>
      </trkpt>
      <trkpt lat="48.82458" lon="2.43228">
        <ele>44</ele>
        <time>2020-07-22T18:21:26Z</time>
      </trkpt>
      <trkpt lat="48.8246" lon="2.43229">
        <ele>44</ele>
        <time>2020-07-22T18:21:27Z</time>
      </trkpt>
      <trkpt lat="48.82462" lon="2.43231">
        <ele>44</ele>
        <time>2020-07-22T18:21:28Z</time>
      </trkpt>
      <trkpt lat="48.82463" lon="2.43233">
        <ele>44</ele>
        <time>2020-07-22T18:21:29Z</time>
      </trkpt>
      <trkpt lat="48.82465" lon="2.43234">
        <ele>44</ele>
        <time>2020-07-22T18:21:30Z</time>
      </trkpt>
      <trkpt lat="48.82466" lon="2.43236">
        <ele>44</ele>
        <time>2020-07-22T18:21:31Z</time>
      </trkpt>
      <trkpt lat="48.82468" lon="2.43237">
        <ele>44</ele>
        <time>2020-07-22T18:21:32Z</time>
      </trkpt>
      <trkpt lat="48.82469" lon="2.43238">
        <ele>44</ele>
        <time>2020-07-22T18:21:33Z</time>
      </trkpt>
      <trkpt lat="48.8247" lon="2.43239">
        <ele>44</ele>
        <time>2020-07-22T18:21:34Z</time>
      </trkpt>
      <trkpt lat="48.82472" lon="2.43239">
        <ele>44</ele>
        <time>2020-07-22T18:21:35Z</time>
      </trkpt>
      <trkpt lat="48.82473" lon="2.4324">
        <ele>44</ele>
        <time>2020-07-22T18:21:36Z</time>
      </trkpt>
      <trkpt lat="48.82474" lon="2.4324">
        <ele>44</ele>
        <time>2020-07-22T18:21:37Z</time>
      </trkpt>
      <trkpt lat="48.82476" lon="2.43241">
        <ele>44</ele>
        <time>2020-07-22T18:21:38Z</time>
      </trkpt>
      <trkpt lat="48.82476" lon="2.43241">
        <ele>44</ele>
        <time>2020-07-22T18:21:39Z</time>
      </trkpt>
      <trkpt lat="48.82478" lon="2.43241">
        <ele>44</ele>
        <time>2020-07-22T18:21:40Z</time>
      </trkpt>
      <trkpt lat="48.82479" lon="2.43242">
        <ele>44</ele>
        <time>2020-07-22T18:21:41Z</time>
      </trkpt>
      <trkpt lat="48.8248" lon="2.43242">
        <ele>44</ele>
        <time>2020-07-22T18:21:42Z</time>
      </trkpt>
      <trkpt lat="48.82482" lon="2.43242">
        <ele>44</ele>
        <time>2020-07-22T18:21:43Z</time>
      </trkpt>
      <trkpt lat="48.82483" lon="2.43243">
        <ele>44</ele>
        <time>2020-07-22T18:21:44Z</time>
      </trkpt>
      <trkpt lat="48.82484" lon="2.43243">
        <ele>44</ele>
        <time>2020-07-22T18:21:45Z</time>
      </trkpt>
      <trkpt lat="48.82486" lon="2.43243">
        <ele>44</ele>
        <time>2020-07-22T18:21:46Z</time>
      </trkpt>
      <trkpt lat="48.82487" lon="2.43244">
        <ele>44</ele>
        <time>2020-07-22T18:21:47Z</time>
      </trkpt>
      <trkpt lat="48.82488" lon="2.43244">
        <ele>44</ele>
        <time>2020-07-22T18:21:48Z</time>
      </trkpt>
      <trkpt lat="48.82489" lon="2.43245">
        <ele>44</ele>
        <time>2020-07-22T18:21:49Z</time>
      </trkpt>
      <trkpt lat="48.82491" lon="2.43245">
        <ele>44</ele>
        <time>2020-07-22T18:21:50Z</time>
      </trkpt>
      <trkpt lat="48.82492" lon="2.43245">
        <ele>44</ele>
        <time>2020-07-22T18:21:51Z</time>
      </trkpt>
      <trkpt lat="48.82493" lon="2.43245">
        <ele>44</ele>
        <time>2020-07-22T18:21:52Z</time>
      </trkpt>
      <trkpt lat="48.82494" lon="2.43245">
        <ele>44</ele>
        <time>2020-07-22T18:21:53Z</time>
      </trkpt>
      <trkpt lat="48.82496" lon="2.43245">
        <ele>44</ele>
        <time>2020-07-22T18:21:54Z</time>
      </trkpt>
      <trkpt lat="48.82497" lon="2.43245">
        <ele>44</ele>
        <time>2020-07-22T18:21:55Z</time>
      </trkpt>
      <trkpt lat="48.82498" lon="2.43246">
        <ele>44</ele>
        <time>2020-07-22T18:21:56Z</time>
      </trkpt>
      <trkpt lat="48.82499" lon="2.43245">
        <ele>44</ele>
        <time>2020-07-22T18:21:57Z</time>
      </trkpt>
      <trkpt lat="48.82501" lon="2.43245">
        <ele>44</ele>
        <time>2020-07-22T18:21:58Z</time>
      </trkpt>
      <trkpt lat="48.82502" lon="2.43245">
        <ele>44</ele>
        <time>2020-07-22T18:21:59Z</time>
      </trkpt>
      <trkpt lat="48.82503" lon="2.43245">
        <ele>44</ele>
        <time>2020-07-22T18:22:00Z</time>
      </trkpt>
      <trkpt lat="48.82504" lon="2.43244">
        <ele>44</ele>
        <time>2020-07-22T18:22:01Z</time>
      </trkpt>
      <trkpt lat="48.82505" lon="2.43244">
        <ele>44</ele>
        <time>2020-07-22T18:22:02Z</time>
      </trkpt>
      <trkpt lat="48.82507" lon="2.43244">
        <ele>44</ele>
        <time>2020-07-22T18:22:03Z</time>
      </trkpt>
      <trkpt lat="48.82508" lon="2.43243">
        <ele>44</ele>
        <time>2020-07-22T18:22:04Z</time>
      </trkpt>
      <trkpt lat="48.8251" lon="2.43244">
        <ele>44</ele>
        <time>2020-07-22T18:22:05Z</time>
      </trkpt>
      <trkpt lat="48.8251" lon="2.43244">
        <ele>44</ele>
        <time>2020-07-22T18:22:06Z</time>
      </trkpt>
      <trkpt lat="48.82512" lon="2.43244">
        <ele>44</ele>
        <time>2020-07-22T18:22:07Z</time>
      </trkpt>
      <trkpt lat="48.82513" lon="2.43244">
        <ele>44</ele>
        <time>2020-07-22T18:22:08Z</time>
      </trkpt>
      <trkpt lat="48.82514" lon="2.43245">
        <ele>44</ele>
        <time>2020-07-22T18:22:09Z</time>
      </trkpt>
      <trkpt lat="48.82516" lon="2.43245">
        <ele>44</ele>
        <time>2020-07-22T18:22:10Z</time>
      </trkpt>
      <trkpt lat="48.82517" lon="2.43245">
        <ele>44</ele>
        <time>2020-07-22T18:22:11Z</time>
      </trkpt>
      <trkpt lat="48.82518" lon="2.43246">
        <ele>44</ele>
        <time>2020-07-22T18:22:12Z</time>
      </trkpt>
      <trkpt lat="48.8252" lon="2.43246">
        <ele>44</ele>
        <time>2020-07-22T18:22:13Z</time>
      </trkpt>
      <trkpt lat="48.82521" lon="2.43246">
        <ele>44</ele>
        <time>2020-07-22T18:22:14Z</time>
      </trkpt>
      <trkpt lat="48.82522" lon="2.43246">
        <ele>44</ele>
        <time>2020-07-22T18:22:15Z</time>
      </trkpt>
      <trkpt lat="48.82523" lon="2.43246">
        <ele>44</ele>
        <time>2020-07-22T18:22:16Z</time>
      </trkpt>
      <trkpt lat="48.82525" lon="2.43247">
        <ele>44</ele>
        <time>2020-07-22T18:22:17Z</time>
      </trkpt>
      <trkpt lat="48.82526" lon="2.43247">
        <ele>44</ele>
        <time>2020-07-22T18:22:18Z</time>
      </trkpt>
      <trkpt lat="48.82528" lon="2.43247">
        <ele>44</ele>
        <time>2020-07-22T18:22:19Z</time>
      </trkpt>
      <trkpt lat="48.82529" lon="2.43247">
        <ele>44</ele>
        <time>2020-07-22T18:22:20Z</time>
      </trkpt>
      <trkpt lat="48.82531" lon="2.43247">
        <ele>44</ele>
        <time>2020-07-22T18:22:21Z</time>
      </trkpt>
      <trkpt lat="48.82532" lon="2.43247">
        <ele>44</ele>
        <time>2020-07-22T18:22:22Z</time>
      </trkpt>
      <trkpt lat="48.82533" lon="2.43247">
        <ele>44</ele>
        <time>2020-07-22T18:22:23Z</time>
      </trkpt>
      <trkpt lat="48.82534" lon="2.43247">
        <ele>44</ele>
        <time>2020-07-22T18:22:24Z</time>
      </trkpt>
      <trkpt lat="48.82535" lon="2.43248">
        <ele>44</ele>
        <time>2020-07-22T18:22:25Z</time>
      </trkpt>
      <trkpt lat="48.82536" lon="2.43248">
        <ele>44</ele>
        <time>2020-07-22T18:22:26Z</time>
      </trkpt>
      <trkpt lat="48.82538" lon="2.43248">
        <ele>44</ele>
        <time>2020-07-22T18:22:27Z</time>
      </trkpt>
      <trkpt lat="48.82538" lon="2.43248">
        <ele>45</ele>
        <time>2020-07-22T18:22:28Z</time>
      </trkpt>
      <trkpt lat="48.82539" lon="2.43249">
        <ele>45</ele>
        <time>2020-07-22T18:22:29Z</time>
      </trkpt>
      <trkpt lat="48.82541" lon="2.43249">
        <ele>45</ele>
        <time>2020-07-22T18:22:30Z</time>
      </trkpt>
      <trkpt lat="48.82541" lon="2.43249">
        <ele>45</ele>
        <time>2020-07-22T18:22:31Z</time>
      </trkpt>
      <trkpt lat="48.82543" lon="2.4325">
        <ele>45</ele>
        <time>2020-07-22T18:22:32Z</time>
      </trkpt>
      <trkpt lat="48.82544" lon="2.4325">
        <ele>45</ele>
        <time>2020-07-22T18:22:33Z</time>
      </trkpt>
      <trkpt lat="48.82545" lon="2.4325">
        <ele>45</ele>
        <time>2020-07-22T18:22:34Z</time>
      </trkpt>
      <trkpt lat="48.82547" lon="2.43251">
        <ele>45</ele>
        <time>2020-07-22T18:22:35Z</time>
      </trkpt>
      <trkpt lat="48.82548" lon="2.43251">
        <ele>45</ele>
        <time>2020-07-22T18:22:36Z</time>
      </trkpt>
      <trkpt lat="48.82549" lon="2.43251">
        <ele>45</ele>
        <time>2020-07-22T18:22:37Z</time>
      </trkpt>
      <trkpt lat="48.8255" lon="2.43251">
        <ele>45</ele>
        <time>2020-07-22T18:22:38Z</time>
      </trkpt>
      <trkpt lat="48.82552" lon="2.43252">
        <ele>45</ele>
        <time>2020-07-22T18:22:39Z</time>
      </trkpt>
      <trkpt lat="48.82553" lon="2.43252">
        <ele>45</ele>
        <time>2020-07-22T18:22:40Z</time>
      </trkpt>
      <trkpt lat="48.82554" lon="2.43252">
        <ele>45</ele>
        <time>2020-07-22T18:22:41Z</time>
      </trkpt>
      <trkpt lat="48.82556" lon="2.43253">
        <ele>45</ele>
        <time>2020-07-22T18:22:42Z</time>
      </trkpt>
      <trkpt lat="48.82557" lon="2.43253">
        <ele>45</ele>
        <time>2020-07-22T18:22:43Z</time>
      </trkpt>
      <trkpt lat="48.82558" lon="2.43253">
        <ele>45</ele>
        <time>2020-07-22T18:22:44Z</time>
      </trkpt>
      <trkpt lat="48.82559" lon="2.43253">
        <ele>45</ele>
        <time>2020-07-22T18:22:45Z</time>
      </trkpt>
      <trkpt lat="48.82561" lon="2.43252">
        <ele>45</ele>
        <time>2020-07-22T18:22:46Z</time>
      </trkpt>
      <trkpt lat="48.82562" lon="2.43252">
        <ele>45</ele>
        <time>2020-07-22T18:22:47Z</time>
      </trkpt>
      <trkpt lat="48.82563" lon="2.43252">
        <ele>45</ele>
        <time>2020-07-22T18:22:48Z</time>
      </trkpt>
      <trkpt lat="48.82565" lon="2.43252">
        <ele>45</ele>
        <time>2020-07-22T18:22:49Z</time>
      </trkpt>
      <trkpt lat="48.82566" lon="2.43252">
        <ele>45</ele>
        <time>2020-07-22T18:22:50Z</time>
      </trkpt>
      <trkpt lat="48.82567" lon="2.43253">
        <ele>45</ele>
        <time>2020-07-22T18:22:51Z</time>
      </trkpt>
      <trkpt lat="48.82568" lon="2.43253">
        <ele>45</ele>
        <time>2020-07-22T18:22:52Z</time>
      </trkpt>
      <trkpt lat="48.82569" lon="2.43253">
        <ele>45</ele>
        <time>2020-07-22T18:22:53Z</time>
      </trkpt>
      <trkpt lat="48.8257" lon="2.43253">
        <ele>45</ele>
        <time>2020-07-22T18:22:54Z</time>
      </trkpt>
      <trkpt lat="48.82571" lon="2.43253">
        <ele>45</ele>
        <time>2020-07-22T18:22:55Z</time>
      </trkpt>
      <trkpt lat="48.82573" lon="2.43254">
        <ele>45</ele>
        <time>2020-07-22T18:22:56Z</time>
      </trkpt>
      <trkpt lat="48.82574" lon="2.43254">
        <ele>45</ele>
        <time>2020-07-22T18:22:57Z</time>
      </trkpt>
      <trkpt lat="48.82575" lon="2.43254">
        <ele>45</ele>
        <time>2020-07-22T18:22:58Z</time>
      </trkpt>
      <trkpt lat="48.82577" lon="2.43255">
        <ele>45</ele>
        <time>2020-07-22T18:22:59Z</time>
      </trkpt>
      <trkpt lat="48.82578" lon="2.43255">
        <ele>45</ele>
        <time>2020-07-22T18:23:00Z</time>
      </trkpt>
      <trkpt lat="48.8258" lon="2.43255">
        <ele>45</ele>
        <time>2020-07-22T18:23:01Z</time>
      </trkpt>
      <trkpt lat="48.82581" lon="2.43256">
        <ele>45</ele>
        <time>2020-07-22T18:23:02Z</time>
      </trkpt>
      <trkpt lat="48.82583" lon="2.43256">
        <ele>45</ele>
        <time>2020-07-22T18:23:03Z</time>
      </trkpt>
      <trkpt lat="48.82584" lon="2.43256">
        <ele>45</ele>
        <time>2020-07-22T18:23:04Z</time>
      </trkpt>
      <trkpt lat="48.82585" lon="2.43256">
        <ele>45</ele>
        <time>2020-07-22T18:23:05Z</time>
      </trkpt>
      <trkpt lat="48.82586" lon="2.43257">
        <ele>45</ele>
        <time>2020-07-22T18:23:06Z</time>
      </trkpt>
      <trkpt lat="48.82587" lon="2.43257">
        <ele>45</ele>
        <time>2020-07-22T18:23:07Z</time>
      </trkpt>
      <trkpt lat="48.82589" lon="2.43258">
        <ele>45</ele>
        <time>2020-07-22T18:23:08Z</time>
      </trkpt>
      <trkpt lat="48.8259" lon="2.43258">
        <ele>45</ele>
        <time>2020-07-22T18:23:09Z</time>
      </trkpt>
      <trkpt lat="48.82591" lon="2.43259">
        <ele>45</ele>
        <time>2020-07-22T18:23:10Z</time>
      </trkpt>
      <trkpt lat="48.82593" lon="2.43259">
        <ele>45</ele>
        <time>2020-07-22T18:23:11Z</time>
      </trkpt>
      <trkpt lat="48.82594" lon="2.43259">
        <ele>45</ele>
        <time>2020-07-22T18:23:12Z</time>
      </trkpt>
      <trkpt lat="48.82595" lon="2.4326">
        <ele>45</ele>
        <time>2020-07-22T18:23:13Z</time>
      </trkpt>
      <trkpt lat="48.82596" lon="2.4326">
        <ele>45</ele>
        <time>2020-07-22T18:23:14Z</time>
      </trkpt>
      <trkpt lat="48.82597" lon="2.4326">
        <ele>45</ele>
        <time>2020-07-22T18:23:15Z</time>
      </trkpt>
      <trkpt lat="48.82599" lon="2.43261">
        <ele>45</ele>
        <time>2020-07-22T18:23:16Z</time>
      </trkpt>
      <trkpt lat="48.82599" lon="2.43261">
        <ele>45</ele>
        <time>2020-07-22T18:23:17Z</time>
      </trkpt>
      <trkpt lat="48.82601" lon="2.43262">
        <ele>45</ele>
        <time>2020-07-22T18:23:18Z</time>
      </trkpt>
      <trkpt lat="48.82602" lon="2.43262">
        <ele>45</ele>
        <time>2020-07-22T18:23:19Z</time>
      </trkpt>
      <trkpt lat="48.82603" lon="2.43263">
        <ele>45</ele>
        <time>2020-07-22T18:23:20Z</time>
      </trkpt>
      <trkpt lat="48.82604" lon="2.43263">
        <ele>45</ele>
        <time>2020-07-22T18:23:21Z</time>
      </trkpt>
      <trkpt lat="48.82605" lon="2.43264">
        <ele>45</ele>
        <time>2020-07-22T18:23:22Z</time>
      </trkpt>
      <trkpt lat="48.82607" lon="2.43264">
        <ele>45</ele>
        <time>2020-07-22T18:23:23Z</time>
      </trkpt>
      <trkpt lat="48.82608" lon="2.43265">
        <ele>44</ele>
        <time>2020-07-22T18:23:24Z</time>
      </trkpt>
      <trkpt lat="48.82609" lon="2.43265">
        <ele>44</ele>
        <time>2020-07-22T18:23:25Z</time>
      </trkpt>
      <trkpt lat="48.82611" lon="2.43266">
        <ele>44</ele>
        <time>2020-07-22T18:23:26Z</time>
      </trkpt>
      <trkpt lat="48.82612" lon="2.43266">
        <ele>44</ele>
        <time>2020-07-22T18:23:27Z</time>
      </trkpt>
      <trkpt lat="48.82613" lon="2.43266">
        <ele>44</ele>
        <time>2020-07-22T18:23:28Z</time>
      </trkpt>
      <trkpt lat="48.82615" lon="2.43267">
        <ele>44</ele>
        <time>2020-07-22T18:23:29Z</time>
      </trkpt>
      <trkpt lat="48.82616" lon="2.43267">
        <ele>44</ele>
        <time>2020-07-22T18:23:30Z</time>
      </trkpt>
      <trkpt lat="48.82617" lon="2.43267">
        <ele>44</ele>
        <time>2020-07-22T18:23:31Z</time>
      </trkpt>
      <trkpt lat="48.82618" lon="2.43268">
        <ele>44</ele>
        <time>2020-07-22T18:23:32Z</time>
      </trkpt>
      <trkpt lat="48.8262" lon="2.43268">
        <ele>44</ele>
        <time>2020-07-22T18:23:33Z</time>
      </trkpt>
      <trkpt lat="48.82621" lon="2.43269">
        <ele>44</ele>
        <time>2020-07-22T18:23:34Z</time>
      </trkpt>
      <trkpt lat="48.82622" lon="2.43269">
        <ele>44</ele>
        <time>2020-07-22T18:23:35Z</time>
      </trkpt>
      <trkpt lat="48.82623" lon="2.4327">
        <ele>44</ele>
        <time>2020-07-22T18:23:36Z</time>
      </trkpt>
      <trkpt lat="48.82625" lon="2.4327">
        <ele>44</ele>
        <time>2020-07-22T18:23:37Z</time>
      </trkpt>
      <trkpt lat="48.82626" lon="2.43271">
        <ele>44</ele>
        <time>2020-07-22T18:23:38Z</time>
      </trkpt>
      <trkpt lat="48.82627" lon="2.43271">
        <ele>44</ele>
        <time>2020-07-22T18:23:39Z</time>
      </trkpt>
      <trkpt lat="48.82629" lon="2.43272">
        <ele>44</ele>
        <time>2020-07-22T18:23:40Z</time>
      </trkpt>
      <trkpt lat="48.8263" lon="2.43272">
        <ele>44</ele>
        <time>2020-07-22T18:23:41Z</time>
      </trkpt>
      <trkpt lat="48.82631" lon="2.43272">
        <ele>44</ele>
        <time>2020-07-22T18:23:42Z</time>
      </trkpt>
      <trkpt lat="48.82632" lon="2.43273">
        <ele>44</ele>
        <time>2020-07-22T18:23:43Z</time>
      </trkpt>
      <trkpt lat="48.82634" lon="2.43273">
        <ele>44</ele>
        <time>2020-07-22T18:23:44Z</time>
      </trkpt>
      <trkpt lat="48.82635" lon="2.43274">
        <ele>44</ele>
        <time>2020-07-22T18:23:45Z</time>
      </trkpt>
      <trkpt lat="48.82636" lon="2.43274">
        <ele>44</ele>
        <time>2020-07-22T18:23:46Z</time>
      </trkpt>
      <trkpt lat="48.82637" lon="2.43275">
        <ele>44</ele>
        <time>2020-07-22T18:23:47Z</time>
      </trkpt>
      <trkpt lat="48.82639" lon="2.43275">
        <ele>45</ele>
        <time>2020-07-22T18:23:48Z</time>
      </trkpt>
      <trkpt lat="48.8264" lon="2.43276">
        <ele>45</ele>
        <time>2020-07-22T18:23:49Z</time>
      </trkpt>
      <trkpt lat="48.82641" lon="2.43276">
        <ele>45</ele>
        <time>2020-07-22T18:23:50Z</time>
      </trkpt>
      <trkpt lat="48.82643" lon="2.43276">
        <ele>45</ele>
        <time>2020-07-22T18:23:51Z</time>
      </trkpt>
      <trkpt lat="48.82644" lon="2.43277">
        <ele>45</ele>
        <time>2020-07-22T18:23:52Z</time>
      </trkpt>
      <trkpt lat="48.82645" lon="2.43277">
        <ele>45</ele>
        <time>2020-07-22T18:23:53Z</time>
      </trkpt>
      <trkpt lat="48.82647" lon="2.43278">
        <ele>45</ele>
        <time>2020-07-22T18:23:54Z</time>
      </trkpt>
      <trkpt lat="48.82648" lon="2.43278">
        <ele>45</ele>
        <time>2020-07-22T18:23:55Z</time>
      </trkpt>
      <trkpt lat="48.82649" lon="2.43278">
        <ele>45</ele>
        <time>2020-07-22T18:23:56Z</time>
      </trkpt>
      <trkpt lat="48.8265" lon="2.43278">
        <ele>45</ele>
        <time>2020-07-22T18:23:57Z</time>
      </trkpt>
      <trkpt lat="48.82651" lon="2.43278">
        <ele>45</ele>
        <time>2020-07-22T18:23:58Z</time>
      </trkpt>
      <trkpt lat="48.82652" lon="2.43279">
        <ele>45</ele>
        <time>2020-07-22T18:23:59Z</time>
      </trkpt>
      <trkpt lat="48.82653" lon="2.43279">
        <ele>45</ele>
        <time>2020-07-22T18:24:00Z</time>
      </trkpt>
      <trkpt lat="48.82655" lon="2.43279">
        <ele>45</ele>
        <time>2020-07-22T18:24:01Z</time>
      </trkpt>
      <trkpt lat="48.82656" lon="2.43279">
        <ele>45</ele>
        <time>2020-07-22T18:24:02Z</time>
      </trkpt>
      <trkpt lat="48.82657" lon="2.43279">
        <ele>45</ele>
        <time>2020-07-22T18:24:03Z</time>
      </trkpt>
      <trkpt lat="48.82658" lon="2.43279">
        <ele>45</ele>
        <time>2020-07-22T18:24:04Z</time>
      </trkpt>
      <trkpt lat="48.8266" lon="2.43278">
        <ele>45</ele>
        <time>2020-07-22T18:24:05Z</time>
      </trkpt>
      <trkpt lat="48.82661" lon="2.43278">
        <ele>45</ele>
        <time>2020-07-22T18:24:06Z</time>
      </trkpt>
      <trkpt lat="48.82662" lon="2.43278">
        <ele>45</ele>
        <time>2020-07-22T18:24:07Z</time>
      </trkpt>
      <trkpt lat="48.82663" lon="2.43278">
        <ele>45</ele>
        <time>2020-07-22T18:24:08Z</time>
      </trkpt>
      <trkpt lat="48.82665" lon="2.43278">
        <ele>45</ele>
        <time>2020-07-22T18:24:09Z</time>
      </trkpt>
      <trkpt lat="48.82666" lon="2.43278">
        <ele>45</ele>
        <time>2020-07-22T18:24:10Z</time>
      </trkpt>
      <trkpt lat="48.82667" lon="2.43278">
        <ele>45</ele>
        <time>2020-07-22T18:24:11Z</time>
      </trkpt>
      <trkpt lat="48.82668" lon="2.43278">
        <ele>45</ele>
        <time>2020-07-22T18:24:12Z</time>
      </trkpt>
      <trkpt lat="48.82669" lon="2.43278">
        <ele>45</ele>
        <time>2020-07-22T18:24:13Z</time>
      </trkpt>
      <trkpt lat="48.82671" lon="2.43278">
        <ele>45</ele>
        <time>2020-07-22T18:24:14Z</time>
      </trkpt>
      <trkpt lat="48.82673" lon="2.43279">
        <ele>45</ele>
        <time>2020-07-22T18:24:15Z</time>
      </trkpt>
      <trkpt lat="48.82674" lon="2.4328">
        <ele>45</ele>
        <time>2020-07-22T18:24:16Z</time>
      </trkpt>
      <trkpt lat="48.82676" lon="2.43281">
        <ele>45</ele>
        <time>2020-07-22T18:24:17Z</time>
      </trkpt>
      <trkpt lat="48.82678" lon="2.43282">
        <ele>45</ele>
        <time>2020-07-22T18:24:18Z</time>
      </trkpt>
      <trkpt lat="48.82679" lon="2.43283">
        <ele>45</ele>
        <time>2020-07-22T18:24:19Z</time>
      </trkpt>
      <trkpt lat="48.82681" lon="2.43284">
        <ele>45</ele>
        <time>2020-07-22T18:24:20Z</time>
      </trkpt>
      <trkpt lat="48.82682" lon="2.43284">
        <ele>45</ele>
        <time>2020-07-22T18:24:21Z</time>
      </trkpt>
      <trkpt lat="48.82683" lon="2.43284">
        <ele>45</ele>
        <time>2020-07-22T18:24:22Z</time>
      </trkpt>
      <trkpt lat="48.82684" lon="2.43285">
        <ele>45</ele>
        <time>2020-07-22T18:24:23Z</time>
      </trkpt>
      <trkpt lat="48.82686" lon="2.43285">
        <ele>44</ele>
        <time>2020-07-22T18:24:24Z</time>
      </trkpt>
      <trkpt lat="48.82687" lon="2.43285">
        <ele>44</ele>
        <time>2020-07-22T18:24:25Z</time>
      </trkpt>
      <trkpt lat="48.82688" lon="2.43285">
        <ele>44</ele>
        <time>2020-07-22T18:24:26Z</time>
      </trkpt>
      <trkpt lat="48.82689" lon="2.43286">
        <ele>44</ele>
        <time>2020-07-22T18:24:27Z</time>
      </trkpt>
      <trkpt lat="48.8269" lon="2.43286">
        <ele>44</ele>
        <time>2020-07-22T18:24:28Z</time>
      </trkpt>
      <trkpt lat="48.8269" lon="2.43286">
        <ele>44</ele>
        <time>2020-07-22T18:24:29Z</time>
      </trkpt>
      <trkpt lat="48.82692" lon="2.43287">
        <ele>44</ele>
        <time>2020-07-22T18:24:30Z</time>
      </trkpt>
      <trkpt lat="48.82692" lon="2.43286">
        <ele>44</ele>
        <time>2020-07-22T18:24:31Z</time>
      </trkpt>
      <trkpt lat="48.82693" lon="2.43286">
        <ele>44</ele>
        <time>2020-07-22T18:24:32Z</time>
      </trkpt>
      <trkpt lat="48.82694" lon="2.43286">
        <ele>44</ele>
        <time>2020-07-22T18:24:33Z</time>
      </trkpt>
      <trkpt lat="48.82695" lon="2.43286">
        <ele>44</ele>
        <time>2020-07-22T18:24:34Z</time>
      </trkpt>
      <trkpt lat="48.82696" lon="2.43286">
        <ele>44</ele>
        <time>2020-07-22T18:24:35Z</time>
      </trkpt>
      <trkpt lat="48.82698" lon="2.43286">
        <ele>44</ele>
        <time>2020-07-22T18:24:36Z</time>
      </trkpt>
      <trkpt lat="48.82699" lon="2.43285">
        <ele>44</ele>
        <time>2020-07-22T18:24:37Z</time>
      </trkpt>
      <trkpt lat="48.827" lon="2.43285">
        <ele>44</ele>
        <time>2020-07-22T18:24:38Z</time>
      </trkpt>
      <trkpt lat="48.82702" lon="2.43285">
        <ele>44</ele>
        <time>2020-07-22T18:24:39Z</time>
      </trkpt>
      <trkpt lat="48.82703" lon="2.43284">
        <ele>44</ele>
        <time>2020-07-22T18:24:40Z</time>
      </trkpt>
      <trkpt lat="48.82704" lon="2.43284">
        <ele>44</ele>
        <time>2020-07-22T18:24:41Z</time>
      </trkpt>
      <trkpt lat="48.82706" lon="2.43283">
        <ele>44</ele>
        <time>2020-07-22T18:24:42Z</time>
      </trkpt>
      <trkpt lat="48.82707" lon="2.43283">
        <ele>44</ele>
        <time>2020-07-22T18:24:43Z</time>
      </trkpt>
      <trkpt lat="48.82708" lon="2.43283">
        <ele>44</ele>
        <time>2020-07-22T18:24:44Z</time>
      </trkpt>
      <trkpt lat="48.8271" lon="2.43283">
        <ele>44</ele>
        <time>2020-07-22T18:24:45Z</time>
      </trkpt>
      <trkpt lat="48.82712" lon="2.43284">
        <ele>44</ele>
        <time>2020-07-22T18:24:46Z</time>
      </trkpt>
      <trkpt lat="48.82713" lon="2.43284">
        <ele>44</ele>
        <time>2020-07-22T18:24:47Z</time>
      </trkpt>
      <trkpt lat="48.82715" lon="2.43284">
        <ele>44</ele>
        <time>2020-07-22T18:24:48Z</time>
      </trkpt>
      <trkpt lat="48.82716" lon="2.43284">
        <ele>44</ele>
        <time>2020-07-22T18:24:49Z</time>
      </trkpt>
      <trkpt lat="48.82717" lon="2.43285">
        <ele>44</ele>
        <time>2020-07-22T18:24:50Z</time>
      </trkpt>
      <trkpt lat="48.82718" lon="2.43284">
        <ele>44</ele>
        <time>2020-07-22T18:24:51Z</time>
      </trkpt>
      <trkpt lat="48.8272" lon="2.43284">
        <ele>44</ele>
        <time>2020-07-22T18:24:52Z</time>
      </trkpt>
      <trkpt lat="48.82721" lon="2.43284">
        <ele>44</ele>
        <time>2020-07-22T18:24:53Z</time>
      </trkpt>
      <trkpt lat="48.82722" lon="2.43283">
        <ele>44</ele>
        <time>2020-07-22T18:24:54Z</time>
      </trkpt>
      <trkpt lat="48.82724" lon="2.43283">
        <ele>44</ele>
        <time>2020-07-22T18:24:55Z</time>
      </trkpt>
      <trkpt lat="48.82725" lon="2.43283">
        <ele>44</ele>
        <time>2020-07-22T18:24:56Z</time>
      </trkpt>
      <trkpt lat="48.82726" lon="2.43283">
        <ele>44</ele>
        <time>2020-07-22T18:24:57Z</time>
      </trkpt>
      <trkpt lat="48.82728" lon="2.43283">
        <ele>44</ele>
        <time>2020-07-22T18:24:58Z</time>
      </trkpt>
      <trkpt lat="48.82729" lon="2.43283">
        <ele>44</ele>
        <time>2020-07-22T18:24:59Z</time>
      </trkpt>
      <trkpt lat="48.82731" lon="2.43284">
        <ele>44</ele>
        <time>2020-07-22T18:25:00Z</time>
      </trkpt>
      <trkpt lat="48.82732" lon="2.43284">
        <ele>44</ele>
        <time>2020-07-22T18:25:01Z</time>
      </trkpt>
      <trkpt lat="48.82734" lon="2.43284">
        <ele>44</ele>
        <time>2020-07-22T18:25:02Z</time>
      </trkpt>
      <trkpt lat="48.82735" lon="2.43285">
        <ele>44</ele>
        <time>2020-07-22T18:25:03Z</time>
      </trkpt>
      <trkpt lat="48.82736" lon="2.43286">
        <ele>44</ele>
        <time>2020-07-22T18:25:04Z</time>
      </trkpt>
      <trkpt lat="48.82737" lon="2.43286">
        <ele>44</ele>
        <time>2020-07-22T18:25:05Z</time>
      </trkpt>
      <trkpt lat="48.82738" lon="2.43286">
        <ele>44</ele>
        <time>2020-07-22T18:25:06Z</time>
      </trkpt>
      <trkpt lat="48.82739" lon="2.43286">
        <ele>44</ele>
        <time>2020-07-22T18:25:07Z</time>
      </trkpt>
      <trkpt lat="48.8274" lon="2.43286">
        <ele>44</ele>
        <time>2020-07-22T18:25:08Z</time>
      </trkpt>
      <trkpt lat="48.82742" lon="2.43286">
        <ele>44</ele>
        <time>2020-07-22T18:25:09Z</time>
      </trkpt>
      <trkpt lat="48.82743" lon="2.43286">
        <ele>44</ele>
        <time>2020-07-22T18:25:10Z</time>
      </trkpt>
      <trkpt lat="48.82744" lon="2.43285">
        <ele>44</ele>
        <time>2020-07-22T18:25:11Z</time>
      </trkpt>
      <trkpt lat="48.82745" lon="2.43285">
        <ele>44</ele>
        <time>2020-07-22T18:25:12Z</time>
      </trkpt>
      <trkpt lat="48.82746" lon="2.43285">
        <ele>44</ele>
        <time>2020-07-22T18:25:13Z</time>
      </trkpt>
      <trkpt lat="48.82747" lon="2.43285">
        <ele>44</ele>
        <time>2020-07-22T18:25:14Z</time>
      </trkpt>
      <trkpt lat="48.82748" lon="2.43285">
        <ele>44</ele>
        <time>2020-07-22T18:25:15Z</time>
      </trkpt>
      <trkpt lat="48.82749" lon="2.43285">
        <ele>44</ele>
        <time>2020-07-22T18:25:16Z</time>
      </trkpt>
      <trkpt lat="48.8275" lon="2.43285">
        <ele>44</ele>
        <time>2020-07-22T18:25:17Z</time>
      </trkpt>
      <trkpt lat="48.82752" lon="2.43285">
        <ele>44</ele>
        <time>2020-07-22T18:25:18Z</time>
      </trkpt>
      <trkpt lat="48.82753" lon="2.43285">
        <ele>44</ele>
        <time>2020-07-22T18:25:19Z</time>
      </trkpt>
      <trkpt lat="48.82754" lon="2.43286">
        <ele>44</ele>
        <time>2020-07-22T18:25:20Z</time>
      </trkpt>
      <trkpt lat="48.82755" lon="2.43286">
        <ele>44</ele>
        <time>2020-07-22T18:25:21Z</time>
      </trkpt>
      <trkpt lat="48.82756" lon="2.43285">
        <ele>44</ele>
        <time>2020-07-22T18:25:22Z</time>
      </trkpt>
      <trkpt lat="48.82758" lon="2.43285">
        <ele>44</ele>
        <time>2020-07-22T18:25:23Z</time>
      </trkpt>
      <trkpt lat="48.82759" lon="2.43285">
        <ele>44</ele>
        <time>2020-07-22T18:25:24Z</time>
      </trkpt>
      <trkpt lat="48.82761" lon="2.43285">
        <ele>44</ele>
        <time>2020-07-22T18:25:25Z</time>
      </trkpt>
      <trkpt lat="48.82762" lon="2.43285">
        <ele>44</ele>
        <time>2020-07-22T18:25:26Z</time>
      </trkpt>
      <trkpt lat="48.82764" lon="2.43286">
        <ele>44</ele>
        <time>2020-07-22T18:25:27Z</time>
      </trkpt>
      <trkpt lat="48.82765" lon="2.43286">
        <ele>44</ele>
        <time>2020-07-22T18:25:28Z</time>
      </trkpt>
      <trkpt lat="48.82766" lon="2.43286">
        <ele>44</ele>
        <time>2020-07-22T18:25:29Z</time>
      </trkpt>
      <trkpt lat="48.82768" lon="2.43287">
        <ele>44</ele>
        <time>2020-07-22T18:25:30Z</time>
      </trkpt>
      <trkpt lat="48.82768" lon="2.43287">
        <ele>44</ele>
        <time>2020-07-22T18:25:31Z</time>
      </trkpt>
      <trkpt lat="48.8277" lon="2.43288">
        <ele>44</ele>
        <time>2020-07-22T18:25:32Z</time>
      </trkpt>
      <trkpt lat="48.82771" lon="2.43288">
        <ele>44</ele>
        <time>2020-07-22T18:25:33Z</time>
      </trkpt>
      <trkpt lat="48.82772" lon="2.43289">
        <ele>44</ele>
        <time>2020-07-22T18:25:34Z</time>
      </trkpt>
      <trkpt lat="48.82773" lon="2.43289">
        <ele>44</ele>
        <time>2020-07-22T18:25:35Z</time>
      </trkpt>
      <trkpt lat="48.82774" lon="2.4329">
        <ele>44</ele>
        <time>2020-07-22T18:25:36Z</time>
      </trkpt>
      <trkpt lat="48.82775" lon="2.4329">
        <ele>44</ele>
        <time>2020-07-22T18:25:37Z</time>
      </trkpt>
      <trkpt lat="48.82776" lon="2.4329">
        <ele>44</ele>
        <time>2020-07-22T18:25:38Z</time>
      </trkpt>
      <trkpt lat="48.82778" lon="2.43291">
        <ele>44</ele>
        <time>2020-07-22T18:25:39Z</time>
      </trkpt>
      <trkpt lat="48.82779" lon="2.43291">
        <ele>44</ele>
        <time>2020-07-22T18:25:40Z</time>
      </trkpt>
      <trkpt lat="48.8278" lon="2.43292">
        <ele>44</ele>
        <time>2020-07-22T18:25:41Z</time>
      </trkpt>
      <trkpt lat="48.82782" lon="2.43292">
        <ele>44</ele>
        <time>2020-07-22T18:25:42Z</time>
      </trkpt>
      <trkpt lat="48.82783" lon="2.43293">
        <ele>44</ele>
        <time>2020-07-22T18:25:43Z</time>
      </trkpt>
      <trkpt lat="48.82784" lon="2.43293">
        <ele>44</ele>
        <time>2020-07-22T18:25:44Z</time>
      </trkpt>
      <trkpt lat="48.82785" lon="2.43293">
        <ele>44</ele>
        <time>2020-07-22T18:25:45Z</time>
      </trkpt>
      <trkpt lat="48.82787" lon="2.43294">
        <ele>44</ele>
        <time>2020-07-22T18:25:46Z</time>
      </trkpt>
      <trkpt lat="48.82788" lon="2.43294">
        <ele>44</ele>
        <time>2020-07-22T18:25:47Z</time>
      </trkpt>
      <trkpt lat="48.82789" lon="2.43294">
        <ele>44</ele>
        <time>2020-07-22T18:25:48Z</time>
      </trkpt>
      <trkpt lat="48.8279" lon="2.43294">
        <ele>44</ele>
        <time>2020-07-22T18:25:49Z</time>
      </trkpt>
      <trkpt lat="48.82792" lon="2.43294">
        <ele>44</ele>
        <time>2020-07-22T18:25:50Z</time>
      </trkpt>
      <trkpt lat="48.82793" lon="2.43294">
        <ele>44</ele>
        <time>2020-07-22T18:25:51Z</time>
      </trkpt>
      <trkpt lat="48.82794" lon="2.43295">
        <ele>44</ele>
        <time>2020-07-22T18:25:52Z</time>
      </trkpt>
      <trkpt lat="48.82795" lon="2.43295">
        <ele>44</ele>
        <time>2020-07-22T18:25:53Z</time>
      </trkpt>
      <trkpt lat="48.82797" lon="2.43295">
        <ele>44</ele>
        <time>2020-07-22T18:25:54Z</time>
      </trkpt>
      <trkpt lat="48.82798" lon="2.43296">
        <ele>44</ele>
        <time>2020-07-22T18:25:55Z</time>
      </trkpt>
      <trkpt lat="48.828" lon="2.43296">
        <ele>44</ele>
        <time>2020-07-22T18:25:56Z</time>
      </trkpt>
      <trkpt lat="48.82801" lon="2.43297">
        <ele>44</ele>
        <time>2020-07-22T18:25:57Z</time>
      </trkpt>
      <trkpt lat="48.82802" lon="2.43298">
        <ele>44</ele>
        <time>2020-07-22T18:25:58Z</time>
      </trkpt>
      <trkpt lat="48.82804" lon="2.43298">
        <ele>44</ele>
        <time>2020-07-22T18:25:59Z</time>
      </trkpt>
      <trkpt lat="48.82805" lon="2.43299">
        <ele>44</ele>
        <time>2020-07-22T18:26:00Z</time>
      </trkpt>
      <trkpt lat="48.82806" lon="2.433">
        <ele>44</ele>
        <time>2020-07-22T18:26:01Z</time>
      </trkpt>
      <trkpt lat="48.82808" lon="2.433">
        <ele>44</ele>
        <time>2020-07-22T18:26:02Z</time>
      </trkpt>
      <trkpt lat="48.82809" lon="2.43301">
        <ele>44</ele>
        <time>2020-07-22T18:26:03Z</time>
      </trkpt>
      <trkpt lat="48.82811" lon="2.43302">
        <ele>44</ele>
        <time>2020-07-22T18:26:04Z</time>
      </trkpt>
      <trkpt lat="48.82812" lon="2.43303">
        <ele>44</ele>
        <time>2020-07-22T18:26:05Z</time>
      </trkpt>
      <trkpt lat="48.82813" lon="2.43304">
        <ele>44</ele>
        <time>2020-07-22T18:26:06Z</time>
      </trkpt>
      <trkpt lat="48.82814" lon="2.43304">
        <ele>44</ele>
        <time>2020-07-22T18:26:07Z</time>
      </trkpt>
      <trkpt lat="48.82816" lon="2.43305">
        <ele>44</ele>
        <time>2020-07-22T18:26:08Z</time>
      </trkpt>
      <trkpt lat="48.82817" lon="2.43305">
        <ele>44</ele>
        <time>2020-07-22T18:26:09Z</time>
      </trkpt>
      <trkpt lat="48.82819" lon="2.43306">
        <ele>44</ele>
        <time>2020-07-22T18:26:10Z</time>
      </trkpt>
      <trkpt lat="48.8282" lon="2.43306">
        <ele>44</ele>
        <time>2020-07-22T18:26:11Z</time>
      </trkpt>
      <trkpt lat="48.82822" lon="2.43307">
        <ele>44</ele>
        <time>2020-07-22T18:26:12Z</time>
      </trkpt>
      <trkpt lat="48.82824" lon="2.43307">
        <ele>44</ele>
        <time>2020-07-22T18:26:13Z</time>
      </trkpt>
      <trkpt lat="48.82826" lon="2.43307">
        <ele>44</ele>
        <time>2020-07-22T18:26:14Z</time>
      </trkpt>
      <trkpt lat="48.82827" lon="2.43308">
        <ele>44</ele>
        <time>2020-07-22T18:26:15Z</time>
      </trkpt>
      <trkpt lat="48.82829" lon="2.43309">
        <ele>44</ele>
        <time>2020-07-22T18:26:16Z</time>
      </trkpt>
      <trkpt lat="48.82831" lon="2.43309">
        <ele>44</ele>
        <time>2020-07-22T18:26:17Z</time>
      </trkpt>
      <trkpt lat="48.82833" lon="2.4331">
        <ele>44</ele>
        <time>2020-07-22T18:26:18Z</time>
      </trkpt>
      <trkpt lat="48.82835" lon="2.43311">
        <ele>44</ele>
        <time>2020-07-22T18:26:19Z</time>
      </trkpt>
      <trkpt lat="48.82836" lon="2.43311">
        <ele>44</ele>
        <time>2020-07-22T18:26:20Z</time>
      </trkpt>
      <trkpt lat="48.82837" lon="2.43311">
        <ele>44</ele>
        <time>2020-07-22T18:26:21Z</time>
      </trkpt>
      <trkpt lat="48.82839" lon="2.43312">
        <ele>44</ele>
        <time>2020-07-22T18:26:22Z</time>
      </trkpt>
      <trkpt lat="48.8284" lon="2.43312">
        <ele>44</ele>
        <time>2020-07-22T18:26:23Z</time>
      </trkpt>
      <trkpt lat="48.82841" lon="2.43312">
        <ele>44</ele>
        <time>2020-07-22T18:26:24Z</time>
      </trkpt>
      <trkpt lat="48.82842" lon="2.43312">
        <ele>44</ele>
        <time>2020-07-22T18:26:25Z</time>
      </trkpt>
      <trkpt lat="48.82843" lon="2.43312">
        <ele>44</ele>
        <time>2020-07-22T18:26:26Z</time>
      </trkpt>
      <trkpt lat="48.82845" lon="2.43312">
        <ele>44</ele>
        <time>2020-07-22T18:26:27Z</time>
      </trkpt>
      <trkpt lat="48.82847" lon="2.43313">
        <ele>44</ele>
        <time>2020-07-22T18:26:28Z</time>
      </trkpt>
      <trkpt lat="48.82848" lon="2.43312">
        <ele>44</ele>
        <time>2020-07-22T18:26:29Z</time>
      </trkpt>
      <trkpt lat="48.82849" lon="2.43312">
        <ele>44</ele>
        <time>2020-07-22T18:26:30Z</time>
      </trkpt>
      <trkpt lat="48.8285" lon="2.43312">
        <ele>44</ele>
        <time>2020-07-22T18:26:31Z</time>
      </trkpt>
      <trkpt lat="48.82851" lon="2.43312">
        <ele>44</ele>
        <time>2020-07-22T18:26:32Z</time>
      </trkpt>
      <trkpt lat="48.82853" lon="2.43312">
        <ele>44</ele>
        <time>2020-07-22T18:26:33Z</time>
      </trkpt>
      <trkpt lat="48.82854" lon="2.43312">
        <ele>43</ele>
        <time>2020-07-22T18:26:34Z</time>
      </trkpt>
      <trkpt lat="48.82855" lon="2.43313">
        <ele>43</ele>
        <time>2020-07-22T18:26:35Z</time>
      </trkpt>
      <trkpt lat="48.82857" lon="2.43313">
        <ele>43</ele>
        <time>2020-07-22T18:26:36Z</time>
      </trkpt>
      <trkpt lat="48.82858" lon="2.43313">
        <ele>43</ele>
        <time>2020-07-22T18:26:37Z</time>
      </trkpt>
      <trkpt lat="48.82859" lon="2.43313">
        <ele>43</ele>
        <time>2020-07-22T18:26:38Z</time>
      </trkpt>
      <trkpt lat="48.82861" lon="2.43314">
        <ele>43</ele>
        <time>2020-07-22T18:26:39Z</time>
      </trkpt>
      <trkpt lat="48.82861" lon="2.43314">
        <ele>43</ele>
        <time>2020-07-22T18:26:40Z</time>
      </trkpt>
      <trkpt lat="48.82863" lon="2.43314">
        <ele>43</ele>
        <time>2020-07-22T18:26:41Z</time>
      </trkpt>
      <trkpt lat="48.82864" lon="2.43315">
        <ele>43</ele>
        <time>2020-07-22T18:26:42Z</time>
      </trkpt>
      <trkpt lat="48.82865" lon="2.43315">
        <ele>43</ele>
        <time>2020-07-22T18:26:43Z</time>
      </trkpt>
      <trkpt lat="48.82866" lon="2.43315">
        <ele>43</ele>
        <time>2020-07-22T18:26:44Z</time>
      </trkpt>
      <trkpt lat="48.82867" lon="2.43316">
        <ele>43</ele>
        <time>2020-07-22T18:26:45Z</time>
      </trkpt>
      <trkpt lat="48.82869" lon="2.43316">
        <ele>43</ele>
        <time>2020-07-22T18:26:46Z</time>
      </trkpt>
      <trkpt lat="48.8287" lon="2.43316">
        <ele>43</ele>
        <time>2020-07-22T18:26:47Z</time>
      </trkpt>
      <trkpt lat="48.82871" lon="2.43317">
        <ele>43</ele>
        <time>2020-07-22T18:26:48Z</time>
      </trkpt>
      <trkpt lat="48.82872" lon="2.43317">
        <ele>43</ele>
        <time>2020-07-22T18:26:49Z</time>
      </trkpt>
      <trkpt lat="48.82874" lon="2.43317">
        <ele>43</ele>
        <time>2020-07-22T18:26:50Z</time>
      </trkpt>
      <trkpt lat="48.82875" lon="2.43317">
        <ele>43</ele>
        <time>2020-07-22T18:26:51Z</time>
      </trkpt>
      <trkpt lat="48.82877" lon="2.43317">
        <ele>43</ele>
        <time>2020-07-22T18:26:52Z</time>
      </trkpt>
      <trkpt lat="48.82878" lon="2.43318">
        <ele>43</ele>
        <time>2020-07-22T18:26:53Z</time>
      </trkpt>
      <trkpt lat="48.82879" lon="2.43318">
        <ele>43</ele>
        <time>2020-07-22T18:26:54Z</time>
      </trkpt>
      <trkpt lat="48.82881" lon="2.43318">
        <ele>43</ele>
        <time>2020-07-22T18:26:55Z</time>
      </trkpt>
      <trkpt lat="48.82882" lon="2.43319">
        <ele>43</ele>
        <time>2020-07-22T18:26:56Z</time>
      </trkpt>
      <trkpt lat="48.82883" lon="2.43319">
        <ele>43</ele>
        <time>2020-07-22T18:26:57Z</time>
      </trkpt>
      <trkpt lat="48.82884" lon="2.43319">
        <ele>43</ele>
        <time>2020-07-22T18:26:58Z</time>
      </trkpt>
      <trkpt lat="48.82885" lon="2.4332">
        <ele>43</ele>
        <time>2020-07-22T18:26:59Z</time>
      </trkpt>
      <trkpt lat="48.82887" lon="2.4332">
        <ele>43</ele>
        <time>2020-07-22T18:27:00Z</time>
      </trkpt>
      <trkpt lat="48.82888" lon="2.4332">
        <ele>43</ele>
        <time>2020-07-22T18:27:01Z</time>
      </trkpt>
      <trkpt lat="48.82889" lon="2.4332">
        <ele>43</ele>
        <time>2020-07-22T18:27:02Z</time>
      </trkpt>
      <trkpt lat="48.82891" lon="2.4332">
        <ele>44</ele>
        <time>2020-07-22T18:27:03Z</time>
      </trkpt>
      <trkpt lat="48.82892" lon="2.43321">
        <ele>44</ele>
        <time>2020-07-22T18:27:04Z</time>
      </trkpt>
      <trkpt lat="48.82893" lon="2.43321">
        <ele>44</ele>
        <time>2020-07-22T18:27:05Z</time>
      </trkpt>
      <trkpt lat="48.82895" lon="2.43321">
        <ele>44</ele>
        <time>2020-07-22T18:27:06Z</time>
      </trkpt>
      <trkpt lat="48.82896" lon="2.43321">
        <ele>44</ele>
        <time>2020-07-22T18:27:07Z</time>
      </trkpt>
      <trkpt lat="48.82897" lon="2.43321">
        <ele>44</ele>
        <time>2020-07-22T18:27:08Z</time>
      </trkpt>
      <trkpt lat="48.82898" lon="2.43322">
        <ele>44</ele>
        <time>2020-07-22T18:27:09Z</time>
      </trkpt>
      <trkpt lat="48.82899" lon="2.43322">
        <ele>44</ele>
        <time>2020-07-22T18:27:10Z</time>
      </trkpt>
      <trkpt lat="48.82901" lon="2.43322">
        <ele>44</ele>
        <time>2020-07-22T18:27:11Z</time>
      </trkpt>
      <trkpt lat="48.82902" lon="2.43322">
        <ele>44</ele>
        <time>2020-07-22T18:27:12Z</time>
      </trkpt>
      <trkpt lat="48.82903" lon="2.43323">
        <ele>44</ele>
        <time>2020-07-22T18:27:13Z</time>
      </trkpt>
      <trkpt lat="48.82904" lon="2.43323">
        <ele>44</ele>
        <time>2020-07-22T18:27:14Z</time>
      </trkpt>
      <trkpt lat="48.82906" lon="2.43323">
        <ele>44</ele>
        <time>2020-07-22T18:27:15Z</time>
      </trkpt>
      <trkpt lat="48.82907" lon="2.43323">
        <ele>44</ele>
        <time>2020-07-22T18:27:16Z</time>
      </trkpt>
      <trkpt lat="48.82908" lon="2.43323">
        <ele>44</ele>
        <time>2020-07-22T18:27:17Z</time>
      </trkpt>
      <trkpt lat="48.82909" lon="2.43323">
        <ele>44</ele>
        <time>2020-07-22T18:27:18Z</time>
      </trkpt>
      <trkpt lat="48.82911" lon="2.43323">
        <ele>44</ele>
        <time>2020-07-22T18:27:19Z</time>
      </trkpt>
      <trkpt lat="48.82912" lon="2.43323">
        <ele>44</ele>
        <time>2020-07-22T18:27:20Z</time>
      </trkpt>
      <trkpt lat="48.82913" lon="2.43324">
        <ele>44</ele>
        <time>2020-07-22T18:27:21Z</time>
      </trkpt>
      <trkpt lat="48.82915" lon="2.43324">
        <ele>44</ele>
        <time>2020-07-22T18:27:22Z</time>
      </trkpt>
      <trkpt lat="48.82916" lon="2.43324">
        <ele>44</ele>
        <time>2020-07-22T18:27:23Z</time>
      </trkpt>
      <trkpt lat="48.82918" lon="2.43324">
        <ele>44</ele>
        <time>2020-07-22T18:27:24Z</time>
      </trkpt>
      <trkpt lat="48.82919" lon="2.43324">
        <ele>44</ele>
        <time>2020-07-22T18:27:25Z</time>
      </trkpt>
      <trkpt lat="48.8292" lon="2.43324">
        <ele>44</ele>
        <time>2020-07-22T18:27:26Z</time>
      </trkpt>
      <trkpt lat="48.82921" lon="2.43324">
        <ele>44</ele>
        <time>2020-07-22T18:27:27Z</time>
      </trkpt>
      <trkpt lat="48.82922" lon="2.43324">
        <ele>44</ele>
        <time>2020-07-22T18:27:28Z</time>
      </trkpt>
      <trkpt lat="48.82924" lon="2.43324">
        <ele>44</ele>
        <time>2020-07-22T18:27:29Z</time>
      </trkpt>
      <trkpt lat="48.82925" lon="2.43324">
        <ele>44</ele>
        <time>2020-07-22T18:27:30Z</time>
      </trkpt>
      <trkpt lat="48.82926" lon="2.43324">
        <ele>44</ele>
        <time>2020-07-22T18:27:31Z</time>
      </trkpt>
      <trkpt lat="48.82927" lon="2.43324">
        <ele>44</ele>
        <time>2020-07-22T18:27:32Z</time>
      </trkpt>
      <trkpt lat="48.82929" lon="2.43325">
        <ele>44</ele>
        <time>2020-07-22T18:27:33Z</time>
      </trkpt>
      <trkpt lat="48.8293" lon="2.43325">
        <ele>44</ele>
        <time>2020-07-22T18:27:34Z</time>
      </trkpt>
      <trkpt lat="48.82932" lon="2.43325">
        <ele>44</ele>
        <time>2020-07-22T18:27:35Z</time>
      </trkpt>
      <trkpt lat="48.82933" lon="2.43325">
        <ele>44</ele>
        <time>2020-07-22T18:27:36Z</time>
      </trkpt>
      <trkpt lat="48.82935" lon="2.43326">
        <ele>44</ele>
        <time>2020-07-22T18:27:37Z</time>
      </trkpt>
      <trkpt lat="48.82936" lon="2.43326">
        <ele>44</ele>
        <time>2020-07-22T18:27:38Z</time>
      </trkpt>
      <trkpt lat="48.82937" lon="2.43326">
        <ele>44</ele>
        <time>2020-07-22T18:27:39Z</time>
      </trkpt>
      <trkpt lat="48.82938" lon="2.43327">
        <ele>44</ele>
        <time>2020-07-22T18:27:40Z</time>
      </trkpt>
      <trkpt lat="48.8294" lon="2.43327">
        <ele>44</ele>
        <time>2020-07-22T18:27:41Z</time>
      </trkpt>
      <trkpt lat="48.82941" lon="2.43327">
        <ele>44</ele>
        <time>2020-07-22T18:27:42Z</time>
      </trkpt>
      <trkpt lat="48.82942" lon="2.43327">
        <ele>44</ele>
        <time>2020-07-22T18:27:43Z</time>
      </trkpt>
      <trkpt lat="48.82943" lon="2.43328">
        <ele>44</ele>
        <time>2020-07-22T18:27:44Z</time>
      </trkpt>
      <trkpt lat="48.82944" lon="2.43328">
        <ele>44</ele>
        <time>2020-07-22T18:27:45Z</time>
      </trkpt>
      <trkpt lat="48.82945" lon="2.43328">
        <ele>44</ele>
        <time>2020-07-22T18:27:46Z</time>
      </trkpt>
      <trkpt lat="48.82946" lon="2.43328">
        <ele>44</ele>
        <time>2020-07-22T18:27:47Z</time>
      </trkpt>
      <trkpt lat="48.82947" lon="2.43329">
        <ele>44</ele>
        <time>2020-07-22T18:27:48Z</time>
      </trkpt>
      <trkpt lat="48.82948" lon="2.43329">
        <ele>44</ele>
        <time>2020-07-22T18:27:49Z</time>
      </trkpt>
      <trkpt lat="48.8295" lon="2.43329">
        <ele>44</ele>
        <time>2020-07-22T18:27:50Z</time>
      </trkpt>
      <trkpt lat="48.82951" lon="2.43329">
        <ele>44</ele>
        <time>2020-07-22T18:27:51Z</time>
      </trkpt>
      <trkpt lat="48.82953" lon="2.43329">
        <ele>44</ele>
        <time>2020-07-22T18:27:52Z</time>
      </trkpt>
      <trkpt lat="48.82954" lon="2.43329">
        <ele>44</ele>
        <time>2020-07-22T18:27:53Z</time>
      </trkpt>
      <trkpt lat="48.82955" lon="2.43329">
        <ele>44</ele>
        <time>2020-07-22T18:27:54Z</time>
      </trkpt>
      <trkpt lat="48.82957" lon="2.4333">
        <ele>44</ele>
        <time>2020-07-22T18:27:55Z</time>
      </trkpt>
      <trkpt lat="48.82958" lon="2.4333">
        <ele>44</ele>
        <time>2020-07-22T18:27:56Z</time>
      </trkpt>
      <trkpt lat="48.8296" lon="2.43331">
        <ele>44</ele>
        <time>2020-07-22T18:27:57Z</time>
      </trkpt>
      <trkpt lat="48.82961" lon="2.43331">
        <ele>44</ele>
        <time>2020-07-22T18:27:58Z</time>
      </trkpt>
      <trkpt lat="48.82963" lon="2.43332">
        <ele>44</ele>
        <time>2020-07-22T18:27:59Z</time>
      </trkpt>
      <trkpt lat="48.82965" lon="2.43333">
        <ele>44</ele>
        <time>2020-07-22T18:28:00Z</time>
      </trkpt>
      <trkpt lat="48.82966" lon="2.43334">
        <ele>44</ele>
        <time>2020-07-22T18:28:01Z</time>
      </trkpt>
      <trkpt lat="48.82968" lon="2.43335">
        <ele>44</ele>
        <time>2020-07-22T18:28:02Z</time>
      </trkpt>
      <trkpt lat="48.8297" lon="2.43335">
        <ele>44</ele>
        <time>2020-07-22T18:28:03Z</time>
      </trkpt>
      <trkpt lat="48.82971" lon="2.43335">
        <ele>44</ele>
        <time>2020-07-22T18:28:04Z</time>
      </trkpt>
      <trkpt lat="48.82972" lon="2.43335">
        <ele>44</ele>
        <time>2020-07-22T18:28:05Z</time>
      </trkpt>
      <trkpt lat="48.82974" lon="2.43335">
        <ele>44</ele>
        <time>2020-07-22T18:28:06Z</time>
      </trkpt>
      <trkpt lat="48.82974" lon="2.43335">
        <ele>44</ele>
        <time>2020-07-22T18:28:07Z</time>
      </trkpt>
      <trkpt lat="48.82975" lon="2.43335">
        <ele>44</ele>
        <time>2020-07-22T18:28:08Z</time>
      </trkpt>
      <trkpt lat="48.82977" lon="2.43335">
        <ele>44</ele>
        <time>2020-07-22T18:28:09Z</time>
      </trkpt>
      <trkpt lat="48.82978" lon="2.43336">
        <ele>44</ele>
        <time>2020-07-22T18:28:10Z</time>
      </trkpt>
      <trkpt lat="48.82979" lon="2.43336">
        <ele>44</ele>
        <time>2020-07-22T18:28:11Z</time>
      </trkpt>
      <trkpt lat="48.8298" lon="2.43337">
        <ele>44</ele>
        <time>2020-07-22T18:28:12Z</time>
      </trkpt>
      <trkpt lat="48.82981" lon="2.43337">
        <ele>44</ele>
        <time>2020-07-22T18:28:13Z</time>
      </trkpt>
      <trkpt lat="48.82983" lon="2.43338">
        <ele>44</ele>
        <time>2020-07-22T18:28:14Z</time>
      </trkpt>
      <trkpt lat="48.82984" lon="2.43338">
        <ele>44</ele>
        <time>2020-07-22T18:28:15Z</time>
      </trkpt>
      <trkpt lat="48.82985" lon="2.43339">
        <ele>44</ele>
        <time>2020-07-22T18:28:16Z</time>
      </trkpt>
      <trkpt lat="48.82986" lon="2.43339">
        <ele>44</ele>
        <time>2020-07-22T18:28:17Z</time>
      </trkpt>
      <trkpt lat="48.82988" lon="2.4334">
        <ele>44</ele>
        <time>2020-07-22T18:28:18Z</time>
      </trkpt>
      <trkpt lat="48.82988" lon="2.4334">
        <ele>44</ele>
        <time>2020-07-22T18:28:19Z</time>
      </trkpt>
      <trkpt lat="48.82989" lon="2.4334">
        <ele>44</ele>
        <time>2020-07-22T18:28:20Z</time>
      </trkpt>
      <trkpt lat="48.8299" lon="2.4334">
        <ele>44</ele>
        <time>2020-07-22T18:28:21Z</time>
      </trkpt>
      <trkpt lat="48.82991" lon="2.4334">
        <ele>44</ele>
        <time>2020-07-22T18:28:22Z</time>
      </trkpt>
      <trkpt lat="48.82992" lon="2.43341">
        <ele>44</ele>
        <time>2020-07-22T18:28:23Z</time>
      </trkpt>
      <trkpt lat="48.82993" lon="2.43341">
        <ele>44</ele>
        <time>2020-07-22T18:28:24Z</time>
      </trkpt>
      <trkpt lat="48.82994" lon="2.43341">
        <ele>44</ele>
        <time>2020-07-22T18:28:25Z</time>
      </trkpt>
      <trkpt lat="48.82995" lon="2.43341">
        <ele>44</ele>
        <time>2020-07-22T18:28:26Z</time>
      </trkpt>
      <trkpt lat="48.82996" lon="2.43342">
        <ele>44</ele>
        <time>2020-07-22T18:28:27Z</time>
      </trkpt>
      <trkpt lat="48.82998" lon="2.43342">
        <ele>44</ele>
        <time>2020-07-22T18:28:28Z</time>
      </trkpt>
      <trkpt lat="48.82999" lon="2.43343">
        <ele>44</ele>
        <time>2020-07-22T18:28:29Z</time>
      </trkpt>
      <trkpt lat="48.83" lon="2.43343">
        <ele>44</ele>
        <time>2020-07-22T18:28:30Z</time>
      </trkpt>
      <trkpt lat="48.83001" lon="2.43343">
        <ele>44</ele>
        <time>2020-07-22T18:28:31Z</time>
      </trkpt>
      <trkpt lat="48.83003" lon="2.43344">
        <ele>44</ele>
        <time>2020-07-22T18:28:32Z</time>
      </trkpt>
      <trkpt lat="48.83004" lon="2.43344">
        <ele>44</ele>
        <time>2020-07-22T18:28:33Z</time>
      </trkpt>
      <trkpt lat="48.83006" lon="2.43344">
        <ele>44</ele>
        <time>2020-07-22T18:28:34Z</time>
      </trkpt>
      <trkpt lat="48.83007" lon="2.43345">
        <ele>44</ele>
        <time>2020-07-22T18:28:35Z</time>
      </trkpt>
      <trkpt lat="48.83008" lon="2.43345">
        <ele>44</ele>
        <time>2020-07-22T18:28:36Z</time>
      </trkpt>
      <trkpt lat="48.83009" lon="2.43345">
        <ele>44</ele>
        <time>2020-07-22T18:28:37Z</time>
      </trkpt>
      <trkpt lat="48.8301" lon="2.43345">
        <ele>44</ele>
        <time>2020-07-22T18:28:38Z</time>
      </trkpt>
      <trkpt lat="48.83012" lon="2.43346">
        <ele>44</ele>
        <time>2020-07-22T18:28:39Z</time>
      </trkpt>
      <trkpt lat="48.83012" lon="2.43346">
        <ele>44</ele>
        <time>2020-07-22T18:28:40Z</time>
      </trkpt>
      <trkpt lat="48.83014" lon="2.43346">
        <ele>44</ele>
        <time>2020-07-22T18:28:41Z</time>
      </trkpt>
      <trkpt lat="48.83015" lon="2.43346">
        <ele>44</ele>
        <time>2020-07-22T18:28:42Z</time>
      </trkpt>
      <trkpt lat="48.83016" lon="2.43347">
        <ele>44</ele>
        <time>2020-07-22T18:28:43Z</time>
      </trkpt>
      <trkpt lat="48.83017" lon="2.43347">
        <ele>44</ele>
        <time>2020-07-22T18:28:44Z</time>
      </trkpt>
      <trkpt lat="48.83018" lon="2.43347">
        <ele>44</ele>
        <time>2020-07-22T18:28:45Z</time>
      </trkpt>
      <trkpt lat="48.8302" lon="2.43347">
        <ele>44</ele>
        <time>2020-07-22T18:28:46Z</time>
      </trkpt>
      <trkpt lat="48.83021" lon="2.43348">
        <ele>44</ele>
        <time>2020-07-22T18:28:47Z</time>
      </trkpt>
      <trkpt lat="48.83022" lon="2.43348">
        <ele>44</ele>
        <time>2020-07-22T18:28:48Z</time>
      </trkpt>
      <trkpt lat="48.83024" lon="2.43348">
        <ele>44</ele>
        <time>2020-07-22T18:28:49Z</time>
      </trkpt>
      <trkpt lat="48.83025" lon="2.43348">
        <ele>44</ele>
        <time>2020-07-22T18:28:50Z</time>
      </trkpt>
      <trkpt lat="48.83026" lon="2.43349">
        <ele>44</ele>
        <time>2020-07-22T18:28:51Z</time>
      </trkpt>
      <trkpt lat="48.83027" lon="2.43349">
        <ele>44</ele>
        <time>2020-07-22T18:28:52Z</time>
      </trkpt>
      <trkpt lat="48.83028" lon="2.43349">
        <ele>44</ele>
        <time>2020-07-22T18:28:53Z</time>
      </trkpt>
      <trkpt lat="48.8303" lon="2.43349">
        <ele>44</ele>
        <time>2020-07-22T18:28:54Z</time>
      </trkpt>
      <trkpt lat="48.8303" lon="2.43349">
        <ele>44</ele>
        <time>2020-07-22T18:28:55Z</time>
      </trkpt>
      <trkpt lat="48.83032" lon="2.4335">
        <ele>44</ele>
        <time>2020-07-22T18:28:56Z</time>
      </trkpt>
      <trkpt lat="48.83032" lon="2.4335">
        <ele>44</ele>
        <time>2020-07-22T18:28:57Z</time>
      </trkpt>
      <trkpt lat="48.83034" lon="2.4335">
        <ele>44</ele>
        <time>2020-07-22T18:28:58Z</time>
      </trkpt>
      <trkpt lat="48.83035" lon="2.4335">
        <ele>44</ele>
        <time>2020-07-22T18:28:59Z</time>
      </trkpt>
      <trkpt lat="48.83036" lon="2.4335">
        <ele>44</ele>
        <time>2020-07-22T18:29:00Z</time>
      </trkpt>
      <trkpt lat="48.83037" lon="2.4335">
        <ele>44</ele>
        <time>2020-07-22T18:29:01Z</time>
      </trkpt>
      <trkpt lat="48.83038" lon="2.43351">
        <ele>44</ele>
        <time>2020-07-22T18:29:02Z</time>
      </trkpt>
      <trkpt lat="48.83039" lon="2.43351">
        <ele>45</ele>
        <time>2020-07-22T18:29:03Z</time>
      </trkpt>
      <trkpt lat="48.8304" lon="2.43351">
        <ele>45</ele>
        <time>2020-07-22T18:29:04Z</time>
      </trkpt>
      <trkpt lat="48.83041" lon="2.43351">
        <ele>45</ele>
        <time>2020-07-22T18:29:05Z</time>
      </trkpt>
      <trkpt lat="48.83043" lon="2.43352">
        <ele>45</ele>
        <time>2020-07-22T18:29:06Z</time>
      </trkpt>
      <trkpt lat="48.83044" lon="2.43352">
        <ele>45</ele>
        <time>2020-07-22T18:29:07Z</time>
      </trkpt>
      <trkpt lat="48.83044" lon="2.43352">
        <ele>45</ele>
        <time>2020-07-22T18:29:08Z</time>
      </trkpt>
      <trkpt lat="48.83046" lon="2.43352">
        <ele>45</ele>
        <time>2020-07-22T18:29:09Z</time>
      </trkpt>
      <trkpt lat="48.83047" lon="2.43353">
        <ele>45</ele>
        <time>2020-07-22T18:29:10Z</time>
      </trkpt>
      <trkpt lat="48.83048" lon="2.43353">
        <ele>45</ele>
        <time>2020-07-22T18:29:11Z</time>
      </trkpt>
      <trkpt lat="48.83049" lon="2.43353">
        <ele>45</ele>
        <time>2020-07-22T18:29:12Z</time>
      </trkpt>
      <trkpt lat="48.8305" lon="2.43353">
        <ele>45</ele>
        <time>2020-07-22T18:29:13Z</time>
      </trkpt>
      <trkpt lat="48.83052" lon="2.43354">
        <ele>45</ele>
        <time>2020-07-22T18:29:14Z</time>
      </trkpt>
      <trkpt lat="48.83052" lon="2.43354">
        <ele>45</ele>
        <time>2020-07-22T18:29:15Z</time>
      </trkpt>
      <trkpt lat="48.83054" lon="2.43354">
        <ele>45</ele>
        <time>2020-07-22T18:29:16Z</time>
      </trkpt>
      <trkpt lat="48.83054" lon="2.43354">
        <ele>45</ele>
        <time>2020-07-22T18:29:17Z</time>
      </trkpt>
      <trkpt lat="48.83056" lon="2.43354">
        <ele>45</ele>
        <time>2020-07-22T18:29:18Z</time>
      </trkpt>
      <trkpt lat="48.83056" lon="2.43355">
        <ele>45</ele>
        <time>2020-07-22T18:29:19Z</time>
      </trkpt>
      <trkpt lat="48.83057" lon="2.43355">
        <ele>45</ele>
        <time>2020-07-22T18:29:20Z</time>
      </trkpt>
      <trkpt lat="48.83058" lon="2.43355">
        <ele>45</ele>
        <time>2020-07-22T18:29:21Z</time>
      </trkpt>
      <trkpt lat="48.83059" lon="2.43355">
        <ele>45</ele>
        <time>2020-07-22T18:29:22Z</time>
      </trkpt>
      <trkpt lat="48.8306" lon="2.43355">
        <ele>45</ele>
        <time>2020-07-22T18:29:23Z</time>
      </trkpt>
      <trkpt lat="48.83061" lon="2.43356">
        <ele>45</ele>
        <time>2020-07-22T18:29:24Z</time>
      </trkpt>
      <trkpt lat="48.83062" lon="2.43356">
        <ele>45</ele>
        <time>2020-07-22T18:29:25Z</time>
      </trkpt>
      <trkpt lat="48.83064" lon="2.43357">
        <ele>45</ele>
        <time>2020-07-22T18:29:26Z</time>
      </trkpt>
      <trkpt lat="48.83065" lon="2.43357">
        <ele>45</ele>
        <time>2020-07-22T18:29:27Z</time>
      </trkpt>
      <trkpt lat="48.83066" lon="2.43358">
        <ele>45</ele>
        <time>2020-07-22T18:29:28Z</time>
      </trkpt>
      <trkpt lat="48.83067" lon="2.43358">
        <ele>45</ele>
        <time>2020-07-22T18:29:29Z</time>
      </trkpt>
      <trkpt lat="48.83068" lon="2.43358">
        <ele>45</ele>
        <time>2020-07-22T18:29:30Z</time>
      </trkpt>
      <trkpt lat="48.8307" lon="2.43358">
        <ele>45</ele>
        <time>2020-07-22T18:29:31Z</time>
      </trkpt>
      <trkpt lat="48.83071" lon="2.43358">
        <ele>45</ele>
        <time>2020-07-22T18:29:32Z</time>
      </trkpt>
      <trkpt lat="48.83072" lon="2.43358">
        <ele>45</ele>
        <time>2020-07-22T18:29:33Z</time>
      </trkpt>
      <trkpt lat="48.83073" lon="2.43358">
        <ele>45</ele>
        <time>2020-07-22T18:29:34Z</time>
      </trkpt>
      <trkpt lat="48.83075" lon="2.43358">
        <ele>45</ele>
        <time>2020-07-22T18:29:35Z</time>
      </trkpt>
      <trkpt lat="48.83076" lon="2.43359">
        <ele>45</ele>
        <time>2020-07-22T18:29:36Z</time>
      </trkpt>
      <trkpt lat="48.83077" lon="2.43359">
        <ele>45</ele>
        <time>2020-07-22T18:29:37Z</time>
      </trkpt>
      <trkpt lat="48.83078" lon="2.4336">
        <ele>45</ele>
        <time>2020-07-22T18:29:38Z</time>
      </trkpt>
      <trkpt lat="48.8308" lon="2.4336">
        <ele>45</ele>
        <time>2020-07-22T18:29:39Z</time>
      </trkpt>
      <trkpt lat="48.8308" lon="2.43361">
        <ele>45</ele>
        <time>2020-07-22T18:29:40Z</time>
      </trkpt>
      <trkpt lat="48.83081" lon="2.43361">
        <ele>45</ele>
        <time>2020-07-22T18:29:41Z</time>
      </trkpt>
      <trkpt lat="48.83083" lon="2.43362">
        <ele>45</ele>
        <time>2020-07-22T18:29:42Z</time>
      </trkpt>
      <trkpt lat="48.83084" lon="2.43362">
        <ele>45</ele>
        <time>2020-07-22T18:29:43Z</time>
      </trkpt>
      <trkpt lat="48.83085" lon="2.43363">
        <ele>45</ele>
        <time>2020-07-22T18:29:44Z</time>
      </trkpt>
      <trkpt lat="48.83086" lon="2.43363">
        <ele>45</ele>
        <time>2020-07-22T18:29:45Z</time>
      </trkpt>
      <trkpt lat="48.83088" lon="2.43364">
        <ele>45</ele>
        <time>2020-07-22T18:29:46Z</time>
      </trkpt>
      <trkpt lat="48.83089" lon="2.43364">
        <ele>45</ele>
        <time>2020-07-22T18:29:47Z</time>
      </trkpt>
      <trkpt lat="48.8309" lon="2.43364">
        <ele>45</ele>
        <time>2020-07-22T18:29:48Z</time>
      </trkpt>
      <trkpt lat="48.83091" lon="2.43364">
        <ele>44</ele>
        <time>2020-07-22T18:29:49Z</time>
      </trkpt>
      <trkpt lat="48.83092" lon="2.43365">
        <ele>44</ele>
        <time>2020-07-22T18:29:50Z</time>
      </trkpt>
      <trkpt lat="48.83093" lon="2.43365">
        <ele>44</ele>
        <time>2020-07-22T18:29:51Z</time>
      </trkpt>
      <trkpt lat="48.83095" lon="2.43365">
        <ele>44</ele>
        <time>2020-07-22T18:29:52Z</time>
      </trkpt>
      <trkpt lat="48.83096" lon="2.43365">
        <ele>44</ele>
        <time>2020-07-22T18:29:53Z</time>
      </trkpt>
      <trkpt lat="48.83097" lon="2.43366">
        <ele>44</ele>
        <time>2020-07-22T18:29:54Z</time>
      </trkpt>
      <trkpt lat="48.83098" lon="2.43366">
        <ele>44</ele>
        <time>2020-07-22T18:29:55Z</time>
      </trkpt>
      <trkpt lat="48.83099" lon="2.43366">
        <ele>44</ele>
        <time>2020-07-22T18:29:56Z</time>
      </trkpt>
      <trkpt lat="48.83101" lon="2.43367">
        <ele>44</ele>
        <time>2020-07-22T18:29:57Z</time>
      </trkpt>
      <trkpt lat="48.83102" lon="2.43367">
        <ele>44</ele>
        <time>2020-07-22T18:29:58Z</time>
      </trkpt>
      <trkpt lat="48.83103" lon="2.43368">
        <ele>44</ele>
        <time>2020-07-22T18:29:59Z</time>
      </trkpt>
      <trkpt lat="48.83104" lon="2.43368">
        <ele>44</ele>
        <time>2020-07-22T18:30:00Z</time>
      </trkpt>
      <trkpt lat="48.83106" lon="2.43369">
        <ele>44</ele>
        <time>2020-07-22T18:30:01Z</time>
      </trkpt>
      <trkpt lat="48.83107" lon="2.43369">
        <ele>44</ele>
        <time>2020-07-22T18:30:02Z</time>
      </trkpt>
      <trkpt lat="48.83108" lon="2.4337">
        <ele>44</ele>
        <time>2020-07-22T18:30:03Z</time>
      </trkpt>
      <trkpt lat="48.83109" lon="2.4337">
        <ele>44</ele>
        <time>2020-07-22T18:30:04Z</time>
      </trkpt>
      <trkpt lat="48.8311" lon="2.43371">
        <ele>44</ele>
        <time>2020-07-22T18:30:05Z</time>
      </trkpt>
      <trkpt lat="48.83112" lon="2.43372">
        <ele>44</ele>
        <time>2020-07-22T18:30:06Z</time>
      </trkpt>
      <trkpt lat="48.83113" lon="2.43372">
        <ele>44</ele>
        <time>2020-07-22T18:30:07Z</time>
      </trkpt>
      <trkpt lat="48.83115" lon="2.43372">
        <ele>44</ele>
        <time>2020-07-22T18:30:08Z</time>
      </trkpt>
      <trkpt lat="48.83115" lon="2.43373">
        <ele>44</ele>
        <time>2020-07-22T18:30:09Z</time>
      </trkpt>
      <trkpt lat="48.83117" lon="2.43373">
        <ele>44</ele>
        <time>2020-07-22T18:30:10Z</time>
      </trkpt>
      <trkpt lat="48.83118" lon="2.43373">
        <ele>44</ele>
        <time>2020-07-22T18:30:11Z</time>
      </trkpt>
      <trkpt lat="48.83119" lon="2.43373">
        <ele>44</ele>
        <time>2020-07-22T18:30:12Z</time>
      </trkpt>
      <trkpt lat="48.8312" lon="2.43373">
        <ele>44</ele>
        <time>2020-07-22T18:30:13Z</time>
      </trkpt>
      <trkpt lat="48.83121" lon="2.43374">
        <ele>44</ele>
        <time>2020-07-22T18:30:14Z</time>
      </trkpt>
      <trkpt lat="48.83122" lon="2.43374">
        <ele>44</ele>
        <time>2020-07-22T18:30:15Z</time>
      </trkpt>
      <trkpt lat="48.83123" lon="2.43374">
        <ele>44</ele>
        <time>2020-07-22T18:30:16Z</time>
      </trkpt>
      <trkpt lat="48.83123" lon="2.43374">
        <ele>44</ele>
        <time>2020-07-22T18:30:17Z</time>
      </trkpt>
      <trkpt lat="48.83124" lon="2.43374">
        <ele>44</ele>
        <time>2020-07-22T18:30:18Z</time>
      </trkpt>
      <trkpt lat="48.83125" lon="2.43374">
        <ele>44</ele>
        <time>2020-07-22T18:30:19Z</time>
      </trkpt>
      <trkpt lat="48.83126" lon="2.43374">
        <ele>44</ele>
        <time>2020-07-22T18:30:20Z</time>
      </trkpt>
      <trkpt lat="48.83127" lon="2.43373">
        <ele>44</ele>
        <time>2020-07-22T18:30:21Z</time>
      </trkpt>
      <trkpt lat="48.83128" lon="2.43373">
        <ele>44</ele>
        <time>2020-07-22T18:30:22Z</time>
      </trkpt>
      <trkpt lat="48.83129" lon="2.43373">
        <ele>44</ele>
        <time>2020-07-22T18:30:23Z</time>
      </trkpt>
      <trkpt lat="48.8313" lon="2.43373">
        <ele>44</ele>
        <time>2020-07-22T18:30:24Z</time>
      </trkpt>
      <trkpt lat="48.83131" lon="2.43373">
        <ele>44</ele>
        <time>2020-07-22T18:30:25Z</time>
      </trkpt>
      <trkpt lat="48.83131" lon="2.43373">
        <ele>44</ele>
        <time>2020-07-22T18:30:26Z</time>
      </trkpt>
      <trkpt lat="48.83133" lon="2.43374">
        <ele>44</ele>
        <time>2020-07-22T18:30:27Z</time>
      </trkpt>
      <trkpt lat="48.83133" lon="2.43374">
        <ele>44</ele>
        <time>2020-07-22T18:30:28Z</time>
      </trkpt>
      <trkpt lat="48.83135" lon="2.43374">
        <ele>44</ele>
        <time>2020-07-22T18:30:29Z</time>
      </trkpt>
      <trkpt lat="48.83136" lon="2.43374">
        <ele>44</ele>
        <time>2020-07-22T18:30:30Z</time>
      </trkpt>
      <trkpt lat="48.83137" lon="2.43375">
        <ele>44</ele>
        <time>2020-07-22T18:30:31Z</time>
      </trkpt>
      <trkpt lat="48.83138" lon="2.43375">
        <ele>44</ele>
        <time>2020-07-22T18:30:32Z</time>
      </trkpt>
      <trkpt lat="48.83139" lon="2.43375">
        <ele>44</ele>
        <time>2020-07-22T18:30:33Z</time>
      </trkpt>
      <trkpt lat="48.8314" lon="2.43375">
        <ele>44</ele>
        <time>2020-07-22T18:30:34Z</time>
      </trkpt>
      <trkpt lat="48.83141" lon="2.43375">
        <ele>44</ele>
        <time>2020-07-22T18:30:35Z</time>
      </trkpt>
      <trkpt lat="48.83143" lon="2.43376">
        <ele>44</ele>
        <time>2020-07-22T18:30:36Z</time>
      </trkpt>
      <trkpt lat="48.83144" lon="2.43376">
        <ele>44</ele>
        <time>2020-07-22T18:30:37Z</time>
      </trkpt>
      <trkpt lat="48.83145" lon="2.43376">
        <ele>44</ele>
        <time>2020-07-22T18:30:38Z</time>
      </trkpt>
      <trkpt lat="48.83146" lon="2.43376">
        <ele>44</ele>
        <time>2020-07-22T18:30:39Z</time>
      </trkpt>
      <trkpt lat="48.83147" lon="2.43376">
        <ele>44</ele>
        <time>2020-07-22T18:30:40Z</time>
      </trkpt>
      <trkpt lat="48.83148" lon="2.43376">
        <ele>44</ele>
        <time>2020-07-22T18:30:41Z</time>
      </trkpt>
      <trkpt lat="48.83149" lon="2.43376">
        <ele>44</ele>
        <time>2020-07-22T18:30:42Z</time>
      </trkpt>
      <trkpt lat="48.83151" lon="2.43376">
        <ele>44</ele>
        <time>2020-07-22T18:30:43Z</time>
      </trkpt>
      <trkpt lat="48.83152" lon="2.43376">
        <ele>44</ele>
        <time>2020-07-22T18:30:44Z</time>
      </trkpt>
      <trkpt lat="48.83153" lon="2.43377">
        <ele>44</ele>
        <time>2020-07-22T18:30:45Z</time>
      </trkpt>
      <trkpt lat="48.83154" lon="2.43377">
        <ele>44</ele>
        <time>2020-07-22T18:30:46Z</time>
      </trkpt>
      <trkpt lat="48.83155" lon="2.43377">
        <ele>44</ele>
        <time>2020-07-22T18:30:47Z</time>
      </trkpt>
      <trkpt lat="48.83156" lon="2.43377">
        <ele>44</ele>
        <time>2020-07-22T18:30:48Z</time>
      </trkpt>
      <trkpt lat="48.83157" lon="2.43378">
        <ele>44</ele>
        <time>2020-07-22T18:30:49Z</time>
      </trkpt>
      <trkpt lat="48.83159" lon="2.43378">
        <ele>44</ele>
        <time>2020-07-22T18:30:50Z</time>
      </trkpt>
      <trkpt lat="48.8316" lon="2.43378">
        <ele>44</ele>
        <time>2020-07-22T18:30:51Z</time>
      </trkpt>
      <trkpt lat="48.83161" lon="2.43378">
        <ele>44</ele>
        <time>2020-07-22T18:30:52Z</time>
      </trkpt>
      <trkpt lat="48.83162" lon="2.43379">
        <ele>44</ele>
        <time>2020-07-22T18:30:53Z</time>
      </trkpt>
      <trkpt lat="48.83164" lon="2.43379">
        <ele>44</ele>
        <time>2020-07-22T18:30:54Z</time>
      </trkpt>
      <trkpt lat="48.83165" lon="2.43379">
        <ele>44</ele>
        <time>2020-07-22T18:30:55Z</time>
      </trkpt>
      <trkpt lat="48.83166" lon="2.4338">
        <ele>44</ele>
        <time>2020-07-22T18:30:56Z</time>
      </trkpt>
      <trkpt lat="48.83167" lon="2.4338">
        <ele>44</ele>
        <time>2020-07-22T18:30:57Z</time>
      </trkpt>
      <trkpt lat="48.83168" lon="2.43381">
        <ele>44</ele>
        <time>2020-07-22T18:30:58Z</time>
      </trkpt>
      <trkpt lat="48.83169" lon="2.43381">
        <ele>44</ele>
        <time>2020-07-22T18:30:59Z</time>
      </trkpt>
      <trkpt lat="48.83171" lon="2.43381">
        <ele>44</ele>
        <time>2020-07-22T18:31:00Z</time>
      </trkpt>
      <trkpt lat="48.83172" lon="2.43381">
        <ele>44</ele>
        <time>2020-07-22T18:31:01Z</time>
      </trkpt>
      <trkpt lat="48.83173" lon="2.43381">
        <ele>44</ele>
        <time>2020-07-22T18:31:02Z</time>
      </trkpt>
      <trkpt lat="48.83173" lon="2.43381">
        <ele>44</ele>
        <time>2020-07-22T18:31:03Z</time>
      </trkpt>
      <trkpt lat="48.83175" lon="2.43381">
        <ele>44</ele>
        <time>2020-07-22T18:31:04Z</time>
      </trkpt>
      <trkpt lat="48.83176" lon="2.43381">
        <ele>44</ele>
        <time>2020-07-22T18:31:05Z</time>
      </trkpt>
      <trkpt lat="48.83177" lon="2.43381">
        <ele>44</ele>
        <time>2020-07-22T18:31:06Z</time>
      </trkpt>
      <trkpt lat="48.83178" lon="2.43381">
        <ele>44</ele>
        <time>2020-07-22T18:31:07Z</time>
      </trkpt>
      <trkpt lat="48.83179" lon="2.43382">
        <ele>44</ele>
        <time>2020-07-22T18:31:08Z</time>
      </trkpt>
      <trkpt lat="48.8318" lon="2.43382">
        <ele>44</ele>
        <time>2020-07-22T18:31:09Z</time>
      </trkpt>
      <trkpt lat="48.83181" lon="2.43382">
        <ele>44</ele>
        <time>2020-07-22T18:31:10Z</time>
      </trkpt>
      <trkpt lat="48.83183" lon="2.43382">
        <ele>44</ele>
        <time>2020-07-22T18:31:11Z</time>
      </trkpt>
      <trkpt lat="48.83184" lon="2.43382">
        <ele>44</ele>
        <time>2020-07-22T18:31:12Z</time>
      </trkpt>
      <trkpt lat="48.83185" lon="2.43383">
        <ele>44</ele>
        <time>2020-07-22T18:31:13Z</time>
      </trkpt>
      <trkpt lat="48.83186" lon="2.43383">
        <ele>44</ele>
        <time>2020-07-22T18:31:14Z</time>
      </trkpt>
      <trkpt lat="48.83187" lon="2.43383">
        <ele>44</ele>
        <time>2020-07-22T18:31:15Z</time>
      </trkpt>
      <trkpt lat="48.83188" lon="2.43383">
        <ele>44</ele>
        <time>2020-07-22T18:31:16Z</time>
      </trkpt>
      <trkpt lat="48.83189" lon="2.43383">
        <ele>44</ele>
        <time>2020-07-22T18:31:17Z</time>
      </trkpt>
      <trkpt lat="48.83189" lon="2.43383">
        <ele>44</ele>
        <time>2020-07-22T18:31:18Z</time>
      </trkpt>
      <trkpt lat="48.8319" lon="2.43384">
        <ele>44</ele>
        <time>2020-07-22T18:31:19Z</time>
      </trkpt>
      <trkpt lat="48.83191" lon="2.43384">
        <ele>44</ele>
        <time>2020-07-22T18:31:20Z</time>
      </trkpt>
      <trkpt lat="48.83192" lon="2.43384">
        <ele>44</ele>
        <time>2020-07-22T18:31:21Z</time>
      </trkpt>
      <trkpt lat="48.83192" lon="2.43384">
        <ele>44</ele>
        <time>2020-07-22T18:31:22Z</time>
      </trkpt>
      <trkpt lat="48.83193" lon="2.43385">
        <ele>44</ele>
        <time>2020-07-22T18:31:23Z</time>
      </trkpt>
      <trkpt lat="48.83195" lon="2.43385">
        <ele>44</ele>
        <time>2020-07-22T18:31:24Z</time>
      </trkpt>
      <trkpt lat="48.83196" lon="2.43386">
        <ele>44</ele>
        <time>2020-07-22T18:31:25Z</time>
      </trkpt>
      <trkpt lat="48.83197" lon="2.43386">
        <ele>44</ele>
        <time>2020-07-22T18:31:26Z</time>
      </trkpt>
      <trkpt lat="48.83199" lon="2.43387">
        <ele>44</ele>
        <time>2020-07-22T18:31:27Z</time>
      </trkpt>
      <trkpt lat="48.83199" lon="2.43387">
        <ele>44</ele>
        <time>2020-07-22T18:31:28Z</time>
      </trkpt>
      <trkpt lat="48.83201" lon="2.43388">
        <ele>44</ele>
        <time>2020-07-22T18:31:29Z</time>
      </trkpt>
      <trkpt lat="48.83202" lon="2.43388">
        <ele>44</ele>
        <time>2020-07-22T18:31:30Z</time>
      </trkpt>
      <trkpt lat="48.83203" lon="2.43388">
        <ele>44</ele>
        <time>2020-07-22T18:31:31Z</time>
      </trkpt>
      <trkpt lat="48.83204" lon="2.43389">
        <ele>44</ele>
        <time>2020-07-22T18:31:32Z</time>
      </trkpt>
      <trkpt lat="48.83205" lon="2.43389">
        <ele>44</ele>
        <time>2020-07-22T18:31:33Z</time>
      </trkpt>
      <trkpt lat="48.83206" lon="2.43389">
        <ele>44</ele>
        <time>2020-07-22T18:31:34Z</time>
      </trkpt>
      <trkpt lat="48.83207" lon="2.43389">
        <ele>44</ele>
        <time>2020-07-22T18:31:35Z</time>
      </trkpt>
      <trkpt lat="48.83208" lon="2.43389">
        <ele>44</ele>
        <time>2020-07-22T18:31:36Z</time>
      </trkpt>
      <trkpt lat="48.83209" lon="2.43389">
        <ele>44</ele>
        <time>2020-07-22T18:31:37Z</time>
      </trkpt>
      <trkpt lat="48.8321" lon="2.43389">
        <ele>44</ele>
        <time>2020-07-22T18:31:38Z</time>
      </trkpt>
      <trkpt lat="48.83211" lon="2.43389">
        <ele>44</ele>
        <time>2020-07-22T18:31:39Z</time>
      </trkpt>
      <trkpt lat="48.83213" lon="2.43389">
        <ele>44</ele>
        <time>2020-07-22T18:31:40Z</time>
      </trkpt>
      <trkpt lat="48.83213" lon="2.43389">
        <ele>44</ele>
        <time>2020-07-22T18:31:41Z</time>
      </trkpt>
      <trkpt lat="48.83215" lon="2.43389">
        <ele>44</ele>
        <time>2020-07-22T18:31:42Z</time>
      </trkpt>
      <trkpt lat="48.83216" lon="2.4339">
        <ele>44</ele>
        <time>2020-07-22T18:31:43Z</time>
      </trkpt>
      <trkpt lat="48.83217" lon="2.4339">
        <ele>44</ele>
        <time>2020-07-22T18:31:44Z</time>
      </trkpt>
      <trkpt lat="48.83218" lon="2.4339">
        <ele>44</ele>
        <time>2020-07-22T18:31:45Z</time>
      </trkpt>
      <trkpt lat="48.83219" lon="2.43391">
        <ele>44</ele>
        <time>2020-07-22T18:31:46Z</time>
      </trkpt>
      <trkpt lat="48.8322" lon="2.43391">
        <ele>44</ele>
        <time>2020-07-22T18:31:47Z</time>
      </trkpt>
      <trkpt lat="48.83221" lon="2.43391">
        <ele>44</ele>
        <time>2020-07-22T18:31:48Z</time>
      </trkpt>
      <trkpt lat="48.83223" lon="2.43392">
        <ele>44</ele>
        <time>2020-07-22T18:31:49Z</time>
      </trkpt>
      <trkpt lat="48.83223" lon="2.43392">
        <ele>44</ele>
        <time>2020-07-22T18:31:50Z</time>
      </trkpt>
      <trkpt lat="48.83225" lon="2.43392">
        <ele>44</ele>
        <time>2020-07-22T18:31:51Z</time>
      </trkpt>
      <trkpt lat="48.83226" lon="2.43393">
        <ele>44</ele>
        <time>2020-07-22T18:31:52Z</time>
      </trkpt>
      <trkpt lat="48.83227" lon="2.43393">
        <ele>44</ele>
        <time>2020-07-22T18:31:53Z</time>
      </trkpt>
      <trkpt lat="48.83228" lon="2.43393">
        <ele>44</ele>
        <time>2020-07-22T18:31:54Z</time>
      </trkpt>
      <trkpt lat="48.8323" lon="2.43394">
        <ele>44</ele>
        <time>2020-07-22T18:31:55Z</time>
      </trkpt>
      <trkpt lat="48.83231" lon="2.43394">
        <ele>44</ele>
        <time>2020-07-22T18:31:56Z</time>
      </trkpt>
      <trkpt lat="48.83233" lon="2.43395">
        <ele>44</ele>
        <time>2020-07-22T18:31:57Z</time>
      </trkpt>
      <trkpt lat="48.83234" lon="2.43395">
        <ele>44</ele>
        <time>2020-07-22T18:31:58Z</time>
      </trkpt>
      <trkpt lat="48.83235" lon="2.43395">
        <ele>44</ele>
        <time>2020-07-22T18:31:59Z</time>
      </trkpt>
      <trkpt lat="48.83236" lon="2.43395">
        <ele>44</ele>
        <time>2020-07-22T18:32:00Z</time>
      </trkpt>
      <trkpt lat="48.83238" lon="2.43396">
        <ele>44</ele>
        <time>2020-07-22T18:32:01Z</time>
      </trkpt>
      <trkpt lat="48.83239" lon="2.43396">
        <ele>44</ele>
        <time>2020-07-22T18:32:02Z</time>
      </trkpt>
      <trkpt lat="48.8324" lon="2.43396">
        <ele>44</ele>
        <time>2020-07-22T18:32:03Z</time>
      </trkpt>
      <trkpt lat="48.83241" lon="2.43396">
        <ele>44</ele>
        <time>2020-07-22T18:32:04Z</time>
      </trkpt>
      <trkpt lat="48.83242" lon="2.43396">
        <ele>44</ele>
        <time>2020-07-22T18:32:05Z</time>
      </trkpt>
      <trkpt lat="48.83244" lon="2.43397">
        <ele>44</ele>
        <time>2020-07-22T18:32:06Z</time>
      </trkpt>
      <trkpt lat="48.83245" lon="2.43397">
        <ele>44</ele>
        <time>2020-07-22T18:32:07Z</time>
      </trkpt>
      <trkpt lat="48.83246" lon="2.43397">
        <ele>44</ele>
        <time>2020-07-22T18:32:08Z</time>
      </trkpt>
      <trkpt lat="48.83248" lon="2.43398">
        <ele>44</ele>
        <time>2020-07-22T18:32:09Z</time>
      </trkpt>
      <trkpt lat="48.83249" lon="2.43398">
        <ele>44</ele>
        <time>2020-07-22T18:32:10Z</time>
      </trkpt>
      <trkpt lat="48.8325" lon="2.43399">
        <ele>44</ele>
        <time>2020-07-22T18:32:11Z</time>
      </trkpt>
      <trkpt lat="48.83252" lon="2.43399">
        <ele>44</ele>
        <time>2020-07-22T18:32:12Z</time>
      </trkpt>
      <trkpt lat="48.83253" lon="2.43399">
        <ele>44</ele>
        <time>2020-07-22T18:32:13Z</time>
      </trkpt>
      <trkpt lat="48.83254" lon="2.434">
        <ele>44</ele>
        <time>2020-07-22T18:32:14Z</time>
      </trkpt>
      <trkpt lat="48.83255" lon="2.434">
        <ele>44</ele>
        <time>2020-07-22T18:32:15Z</time>
      </trkpt>
      <trkpt lat="48.83257" lon="2.434">
        <ele>44</ele>
        <time>2020-07-22T18:32:16Z</time>
      </trkpt>
      <trkpt lat="48.83258" lon="2.434">
        <ele>44</ele>
        <time>2020-07-22T18:32:17Z</time>
      </trkpt>
      <trkpt lat="48.8326" lon="2.434">
        <ele>44</ele>
        <time>2020-07-22T18:32:18Z</time>
      </trkpt>
      <trkpt lat="48.83261" lon="2.434">
        <ele>44</ele>
        <time>2020-07-22T18:32:19Z</time>
      </trkpt>
      <trkpt lat="48.83262" lon="2.434">
        <ele>44</ele>
        <time>2020-07-22T18:32:20Z</time>
      </trkpt>
      <trkpt lat="48.83263" lon="2.434">
        <ele>44</ele>
        <time>2020-07-22T18:32:21Z</time>
      </trkpt>
      <trkpt lat="48.83264" lon="2.43401">
        <ele>44</ele>
        <time>2020-07-22T18:32:22Z</time>
      </trkpt>
      <trkpt lat="48.83266" lon="2.43401">
        <ele>44</ele>
        <time>2020-07-22T18:32:23Z</time>
      </trkpt>
      <trkpt lat="48.83267" lon="2.43401">
        <ele>44</ele>
        <time>2020-07-22T18:32:24Z</time>
      </trkpt>
      <trkpt lat="48.83268" lon="2.43401">
        <ele>44</ele>
        <time>2020-07-22T18:32:25Z</time>
      </trkpt>
      <trkpt lat="48.8327" lon="2.43402">
        <ele>44</ele>
        <time>2020-07-22T18:32:26Z</time>
      </trkpt>
      <trkpt lat="48.83271" lon="2.43402">
        <ele>44</ele>
        <time>2020-07-22T18:32:27Z</time>
      </trkpt>
      <trkpt lat="48.83272" lon="2.43402">
        <ele>44</ele>
        <time>2020-07-22T18:32:28Z</time>
      </trkpt>
      <trkpt lat="48.83273" lon="2.43403">
        <ele>44</ele>
        <time>2020-07-22T18:32:29Z</time>
      </trkpt>
      <trkpt lat="48.83274" lon="2.43403">
        <ele>44</ele>
        <time>2020-07-22T18:32:30Z</time>
      </trkpt>
      <trkpt lat="48.83276" lon="2.43403">
        <ele>44</ele>
        <time>2020-07-22T18:32:31Z</time>
      </trkpt>
      <trkpt lat="48.83276" lon="2.43404">
        <ele>44</ele>
        <time>2020-07-22T18:32:32Z</time>
      </trkpt>
      <trkpt lat="48.83278" lon="2.43404">
        <ele>44</ele>
        <time>2020-07-22T18:32:33Z</time>
      </trkpt>
      <trkpt lat="48.83279" lon="2.43404">
        <ele>44</ele>
        <time>2020-07-22T18:32:34Z</time>
      </trkpt>
      <trkpt lat="48.8328" lon="2.43405">
        <ele>44</ele>
        <time>2020-07-22T18:32:35Z</time>
      </trkpt>
      <trkpt lat="48.83282" lon="2.43405">
        <ele>44</ele>
        <time>2020-07-22T18:32:36Z</time>
      </trkpt>
      <trkpt lat="48.83283" lon="2.43405">
        <ele>44</ele>
        <time>2020-07-22T18:32:37Z</time>
      </trkpt>
      <trkpt lat="48.83284" lon="2.43405">
        <ele>44</ele>
        <time>2020-07-22T18:32:38Z</time>
      </trkpt>
      <trkpt lat="48.83285" lon="2.43405">
        <ele>44</ele>
        <time>2020-07-22T18:32:39Z</time>
      </trkpt>
      <trkpt lat="48.83286" lon="2.43405">
        <ele>44</ele>
        <time>2020-07-22T18:32:40Z</time>
      </trkpt>
      <trkpt lat="48.83288" lon="2.43406">
        <ele>44</ele>
        <time>2020-07-22T18:32:41Z</time>
      </trkpt>
      <trkpt lat="48.83289" lon="2.43406">
        <ele>44</ele>
        <time>2020-07-22T18:32:42Z</time>
      </trkpt>
      <trkpt lat="48.83291" lon="2.43406">
        <ele>44</ele>
        <time>2020-07-22T18:32:43Z</time>
      </trkpt>
      <trkpt lat="48.83292" lon="2.43407">
        <ele>44</ele>
        <time>2020-07-22T18:32:44Z</time>
      </trkpt>
      <trkpt lat="48.83293" lon="2.43407">
        <ele>44</ele>
        <time>2020-07-22T18:32:45Z</time>
      </trkpt>
      <trkpt lat="48.83294" lon="2.43408">
        <ele>44</ele>
        <time>2020-07-22T18:32:46Z</time>
      </trkpt>
      <trkpt lat="48.83295" lon="2.43408">
        <ele>44</ele>
        <time>2020-07-22T18:32:47Z</time>
      </trkpt>
      <trkpt lat="48.83297" lon="2.43409">
        <ele>44</ele>
        <time>2020-07-22T18:32:48Z</time>
      </trkpt>
      <trkpt lat="48.83298" lon="2.43409">
        <ele>44</ele>
        <time>2020-07-22T18:32:49Z</time>
      </trkpt>
      <trkpt lat="48.833" lon="2.4341">
        <ele>44</ele>
        <time>2020-07-22T18:32:50Z</time>
      </trkpt>
      <trkpt lat="48.83301" lon="2.4341">
        <ele>44</ele>
        <time>2020-07-22T18:32:51Z</time>
      </trkpt>
      <trkpt lat="48.83302" lon="2.4341">
        <ele>44</ele>
        <time>2020-07-22T18:32:52Z</time>
      </trkpt>
      <trkpt lat="48.83304" lon="2.43411">
        <ele>44</ele>
        <time>2020-07-22T18:32:53Z</time>
      </trkpt>
      <trkpt lat="48.83305" lon="2.43411">
        <ele>44</ele>
        <time>2020-07-22T18:32:54Z</time>
      </trkpt>
      <trkpt lat="48.83307" lon="2.43412">
        <ele>44</ele>
        <time>2020-07-22T18:32:55Z</time>
      </trkpt>
      <trkpt lat="48.83308" lon="2.43413">
        <ele>44</ele>
        <time>2020-07-22T18:32:56Z</time>
      </trkpt>
      <trkpt lat="48.83309" lon="2.43413">
        <ele>44</ele>
        <time>2020-07-22T18:32:57Z</time>
      </trkpt>
      <trkpt lat="48.8331" lon="2.43413">
        <ele>44</ele>
        <time>2020-07-22T18:32:58Z</time>
      </trkpt>
      <trkpt lat="48.83311" lon="2.43413">
        <ele>44</ele>
        <time>2020-07-22T18:32:59Z</time>
      </trkpt>
      <trkpt lat="48.83312" lon="2.43413">
        <ele>44</ele>
        <time>2020-07-22T18:33:00Z</time>
      </trkpt>
      <trkpt lat="48.83314" lon="2.43414">
        <ele>44</ele>
        <time>2020-07-22T18:33:01Z</time>
      </trkpt>
      <trkpt lat="48.83315" lon="2.43414">
        <ele>44</ele>
        <time>2020-07-22T18:33:02Z</time>
      </trkpt>
      <trkpt lat="48.83316" lon="2.43414">
        <ele>44</ele>
        <time>2020-07-22T18:33:03Z</time>
      </trkpt>
      <trkpt lat="48.83318" lon="2.43414">
        <ele>44</ele>
        <time>2020-07-22T18:33:04Z</time>
      </trkpt>
      <trkpt lat="48.83319" lon="2.43415">
        <ele>44</ele>
        <time>2020-07-22T18:33:05Z</time>
      </trkpt>
      <trkpt lat="48.8332" lon="2.43415">
        <ele>44</ele>
        <time>2020-07-22T18:33:06Z</time>
      </trkpt>
      <trkpt lat="48.83322" lon="2.43415">
        <ele>44</ele>
        <time>2020-07-22T18:33:07Z</time>
      </trkpt>
      <trkpt lat="48.83323" lon="2.43415">
        <ele>44</ele>
        <time>2020-07-22T18:33:08Z</time>
      </trkpt>
      <trkpt lat="48.83324" lon="2.43415">
        <ele>44</ele>
        <time>2020-07-22T18:33:09Z</time>
      </trkpt>
      <trkpt lat="48.83326" lon="2.43415">
        <ele>44</ele>
        <time>2020-07-22T18:33:10Z</time>
      </trkpt>
      <trkpt lat="48.83327" lon="2.43415">
        <ele>44</ele>
        <time>2020-07-22T18:33:11Z</time>
      </trkpt>
      <trkpt lat="48.83328" lon="2.43416">
        <ele>44</ele>
        <time>2020-07-22T18:33:12Z</time>
      </trkpt>
      <trkpt lat="48.83329" lon="2.43416">
        <ele>44</ele>
        <time>2020-07-22T18:33:13Z</time>
      </trkpt>
      <trkpt lat="48.83331" lon="2.43416">
        <ele>44</ele>
        <time>2020-07-22T18:33:14Z</time>
      </trkpt>
      <trkpt lat="48.83332" lon="2.43416">
        <ele>44</ele>
        <time>2020-07-22T18:33:15Z</time>
      </trkpt>
      <trkpt lat="48.83334" lon="2.43416">
        <ele>44</ele>
        <time>2020-07-22T18:33:16Z</time>
      </trkpt>
      <trkpt lat="48.83335" lon="2.43416">
        <ele>44</ele>
        <time>2020-07-22T18:33:17Z</time>
      </trkpt>
      <trkpt lat="48.83336" lon="2.43416">
        <ele>44</ele>
        <time>2020-07-22T18:33:18Z</time>
      </trkpt>
      <trkpt lat="48.83337" lon="2.43416">
        <ele>44</ele>
        <time>2020-07-22T18:33:19Z</time>
      </trkpt>
      <trkpt lat="48.83339" lon="2.43416">
        <ele>44</ele>
        <time>2020-07-22T18:33:20Z</time>
      </trkpt>
      <trkpt lat="48.8334" lon="2.43416">
        <ele>44</ele>
        <time>2020-07-22T18:33:21Z</time>
      </trkpt>
      <trkpt lat="48.83341" lon="2.43416">
        <ele>44</ele>
        <time>2020-07-22T18:33:22Z</time>
      </trkpt>
      <trkpt lat="48.83342" lon="2.43417">
        <ele>44</ele>
        <time>2020-07-22T18:33:23Z</time>
      </trkpt>
      <trkpt lat="48.83344" lon="2.43417">
        <ele>44</ele>
        <time>2020-07-22T18:33:24Z</time>
      </trkpt>
      <trkpt lat="48.83345" lon="2.43417">
        <ele>44</ele>
        <time>2020-07-22T18:33:25Z</time>
      </trkpt>
      <trkpt lat="48.83346" lon="2.43418">
        <ele>44</ele>
        <time>2020-07-22T18:33:26Z</time>
      </trkpt>
      <trkpt lat="48.83348" lon="2.43418">
        <ele>44</ele>
        <time>2020-07-22T18:33:27Z</time>
      </trkpt>
      <trkpt lat="48.83349" lon="2.43419">
        <ele>44</ele>
        <time>2020-07-22T18:33:28Z</time>
      </trkpt>
      <trkpt lat="48.8335" lon="2.43419">
        <ele>44</ele>
        <time>2020-07-22T18:33:29Z</time>
      </trkpt>
      <trkpt lat="48.83351" lon="2.4342">
        <ele>44</ele>
        <time>2020-07-22T18:33:30Z</time>
      </trkpt>
      <trkpt lat="48.83352" lon="2.4342">
        <ele>44</ele>
        <time>2020-07-22T18:33:31Z</time>
      </trkpt>
      <trkpt lat="48.83353" lon="2.43421">
        <ele>44</ele>
        <time>2020-07-22T18:33:32Z</time>
      </trkpt>
      <trkpt lat="48.83355" lon="2.43421">
        <ele>44</ele>
        <time>2020-07-22T18:33:33Z</time>
      </trkpt>
      <trkpt lat="48.83357" lon="2.43422">
        <ele>44</ele>
        <time>2020-07-22T18:33:34Z</time>
      </trkpt>
      <trkpt lat="48.83359" lon="2.43422">
        <ele>44</ele>
        <time>2020-07-22T18:33:35Z</time>
      </trkpt>
      <trkpt lat="48.8336" lon="2.43423">
        <ele>44</ele>
        <time>2020-07-22T18:33:36Z</time>
      </trkpt>
      <trkpt lat="48.83361" lon="2.43423">
        <ele>44</ele>
        <time>2020-07-22T18:33:37Z</time>
      </trkpt>
      <trkpt lat="48.83363" lon="2.43423">
        <ele>44</ele>
        <time>2020-07-22T18:33:38Z</time>
      </trkpt>
      <trkpt lat="48.83364" lon="2.43424">
        <ele>44</ele>
        <time>2020-07-22T18:33:39Z</time>
      </trkpt>
      <trkpt lat="48.83365" lon="2.43424">
        <ele>44</ele>
        <time>2020-07-22T18:33:40Z</time>
      </trkpt>
      <trkpt lat="48.83367" lon="2.43424">
        <ele>44</ele>
        <time>2020-07-22T18:33:41Z</time>
      </trkpt>
      <trkpt lat="48.83368" lon="2.43424">
        <ele>44</ele>
        <time>2020-07-22T18:33:42Z</time>
      </trkpt>
      <trkpt lat="48.83369" lon="2.43424">
        <ele>44</ele>
        <time>2020-07-22T18:33:43Z</time>
      </trkpt>
      <trkpt lat="48.83371" lon="2.43424">
        <ele>44</ele>
        <time>2020-07-22T18:33:44Z</time>
      </trkpt>
      <trkpt lat="48.83372" lon="2.43425">
        <ele>44</ele>
        <time>2020-07-22T18:33:45Z</time>
      </trkpt>
      <trkpt lat="48.83373" lon="2.43425">
        <ele>44</ele>
        <time>2020-07-22T18:33:46Z</time>
      </trkpt>
      <trkpt lat="48.83374" lon="2.43425">
        <ele>44</ele>
        <time>2020-07-22T18:33:47Z</time>
      </trkpt>
      <trkpt lat="48.83376" lon="2.43425">
        <ele>44</ele>
        <time>2020-07-22T18:33:48Z</time>
      </trkpt>
      <trkpt lat="48.83377" lon="2.43426">
        <ele>44</ele>
        <time>2020-07-22T18:33:49Z</time>
      </trkpt>
      <trkpt lat="48.83378" lon="2.43426">
        <ele>44</ele>
        <time>2020-07-22T18:33:50Z</time>
      </trkpt>
      <trkpt lat="48.83379" lon="2.43427">
        <ele>44</ele>
        <time>2020-07-22T18:33:51Z</time>
      </trkpt>
      <trkpt lat="48.8338" lon="2.43427">
        <ele>44</ele>
        <time>2020-07-22T18:33:52Z</time>
      </trkpt>
      <trkpt lat="48.83381" lon="2.43428">
        <ele>44</ele>
        <time>2020-07-22T18:33:53Z</time>
      </trkpt>
      <trkpt lat="48.83382" lon="2.43428">
        <ele>44</ele>
        <time>2020-07-22T18:33:54Z</time>
      </trkpt>
      <trkpt lat="48.83383" lon="2.43428">
        <ele>44</ele>
        <time>2020-07-22T18:33:55Z</time>
      </trkpt>
      <trkpt lat="48.83384" lon="2.43429">
        <ele>44</ele>
        <time>2020-07-22T18:33:56Z</time>
      </trkpt>
      <trkpt lat="48.83386" lon="2.43429">
        <ele>44</ele>
        <time>2020-07-22T18:33:57Z</time>
      </trkpt>
      <trkpt lat="48.83386" lon="2.43429">
        <ele>44</ele>
        <time>2020-07-22T18:33:58Z</time>
      </trkpt>
      <trkpt lat="48.83387" lon="2.43429">
        <ele>44</ele>
        <time>2020-07-22T18:33:59Z</time>
      </trkpt>
      <trkpt lat="48.83388" lon="2.43429">
        <ele>44</ele>
        <time>2020-07-22T18:34:00Z</time>
      </trkpt>
      <trkpt lat="48.83389" lon="2.43428">
        <ele>44</ele>
        <time>2020-07-22T18:34:01Z</time>
      </trkpt>
      <trkpt lat="48.83389" lon="2.43427">
        <ele>44</ele>
        <time>2020-07-22T18:34:02Z</time>
      </trkpt>
      <trkpt lat="48.8339" lon="2.43426">
        <ele>44</ele>
        <time>2020-07-22T18:34:03Z</time>
      </trkpt>
      <trkpt lat="48.83391" lon="2.43425">
        <ele>44</ele>
        <time>2020-07-22T18:34:04Z</time>
      </trkpt>
      <trkpt lat="48.83391" lon="2.43424">
        <ele>44</ele>
        <time>2020-07-22T18:34:05Z</time>
      </trkpt>
      <trkpt lat="48.83392" lon="2.43423">
        <ele>44</ele>
        <time>2020-07-22T18:34:06Z</time>
      </trkpt>
      <trkpt lat="48.83393" lon="2.43423">
        <ele>44</ele>
        <time>2020-07-22T18:34:07Z</time>
      </trkpt>
      <trkpt lat="48.83394" lon="2.43423">
        <ele>44</ele>
        <time>2020-07-22T18:34:08Z</time>
      </trkpt>
      <trkpt lat="48.83395" lon="2.43423">
        <ele>44</ele>
        <time>2020-07-22T18:34:09Z</time>
      </trkpt>
      <trkpt lat="48.83395" lon="2.43423">
        <ele>44</ele>
        <time>2020-07-22T18:34:10Z</time>
      </trkpt>
      <trkpt lat="48.83396" lon="2.43423">
        <ele>44</ele>
        <time>2020-07-22T18:34:11Z</time>
      </trkpt>
      <trkpt lat="48.83397" lon="2.43423">
        <ele>44</ele>
        <time>2020-07-22T18:34:12Z</time>
      </trkpt>
      <trkpt lat="48.83398" lon="2.43424">
        <ele>44</ele>
        <time>2020-07-22T18:34:13Z</time>
      </trkpt>
      <trkpt lat="48.83399" lon="2.43424">
        <ele>44</ele>
        <time>2020-07-22T18:34:14Z</time>
      </trkpt>
      <trkpt lat="48.83401" lon="2.43424">
        <ele>44</ele>
        <time>2020-07-22T18:34:15Z</time>
      </trkpt>
      <trkpt lat="48.83402" lon="2.43424">
        <ele>44</ele>
        <time>2020-07-22T18:34:16Z</time>
      </trkpt>
      <trkpt lat="48.83403" lon="2.43424">
        <ele>44</ele>
        <time>2020-07-22T18:34:17Z</time>
      </trkpt>
      <trkpt lat="48.83404" lon="2.43424">
        <ele>44</ele>
        <time>2020-07-22T18:34:18Z</time>
      </trkpt>
      <trkpt lat="48.83405" lon="2.43424">
        <ele>44</ele>
        <time>2020-07-22T18:34:19Z</time>
      </trkpt>
      <trkpt lat="48.83407" lon="2.43424">
        <ele>44</ele>
        <time>2020-07-22T18:34:20Z</time>
      </trkpt>
      <trkpt lat="48.83408" lon="2.43424">
        <ele>44</ele>
        <time>2020-07-22T18:34:21Z</time>
      </trkpt>
      <trkpt lat="48.83409" lon="2.43425">
        <ele>44</ele>
        <time>2020-07-22T18:34:22Z</time>
      </trkpt>
      <trkpt lat="48.8341" lon="2.43425">
        <ele>44</ele>
        <time>2020-07-22T18:34:23Z</time>
      </trkpt>
      <trkpt lat="48.83412" lon="2.43425">
        <ele>44</ele>
        <time>2020-07-22T18:34:24Z</time>
      </trkpt>
      <trkpt lat="48.83413" lon="2.43425">
        <ele>44</ele>
        <time>2020-07-22T18:34:25Z</time>
      </trkpt>
      <trkpt lat="48.83414" lon="2.43426">
        <ele>44</ele>
        <time>2020-07-22T18:34:26Z</time>
      </trkpt>
      <trkpt lat="48.83415" lon="2.43426">
        <ele>44</ele>
        <time>2020-07-22T18:34:27Z</time>
      </trkpt>
      <trkpt lat="48.83417" lon="2.43426">
        <ele>44</ele>
        <time>2020-07-22T18:34:28Z</time>
      </trkpt>
      <trkpt lat="48.83418" lon="2.43426">
        <ele>44</ele>
        <time>2020-07-22T18:34:29Z</time>
      </trkpt>
      <trkpt lat="48.83419" lon="2.43427">
        <ele>44</ele>
        <time>2020-07-22T18:34:30Z</time>
      </trkpt>
      <trkpt lat="48.83421" lon="2.43427">
        <ele>44</ele>
        <time>2020-07-22T18:34:31Z</time>
      </trkpt>
      <trkpt lat="48.83422" lon="2.43427">
        <ele>44</ele>
        <time>2020-07-22T18:34:32Z</time>
      </trkpt>
      <trkpt lat="48.83423" lon="2.43427">
        <ele>44</ele>
        <time>2020-07-22T18:34:33Z</time>
      </trkpt>
      <trkpt lat="48.83424" lon="2.43427">
        <ele>44</ele>
        <time>2020-07-22T18:34:34Z</time>
      </trkpt>
      <trkpt lat="48.83425" lon="2.43428">
        <ele>44</ele>
        <time>2020-07-22T18:34:35Z</time>
      </trkpt>
      <trkpt lat="48.83426" lon="2.43428">
        <ele>44</ele>
        <time>2020-07-22T18:34:36Z</time>
      </trkpt>
      <trkpt lat="48.83427" lon="2.43428">
        <ele>44</ele>
        <time>2020-07-22T18:34:37Z</time>
      </trkpt>
      <trkpt lat="48.83429" lon="2.43428">
        <ele>44</ele>
        <time>2020-07-22T18:34:38Z</time>
      </trkpt>
      <trkpt lat="48.8343" lon="2.43429">
        <ele>44</ele>
        <time>2020-07-22T18:34:39Z</time>
      </trkpt>
      <trkpt lat="48.83431" lon="2.43429">
        <ele>44</ele>
        <time>2020-07-22T18:34:40Z</time>
      </trkpt>
      <trkpt lat="48.83432" lon="2.4343">
        <ele>44</ele>
        <time>2020-07-22T18:34:41Z</time>
      </trkpt>
      <trkpt lat="48.83434" lon="2.4343">
        <ele>44</ele>
        <time>2020-07-22T18:34:42Z</time>
      </trkpt>
      <trkpt lat="48.83435" lon="2.4343">
        <ele>44</ele>
        <time>2020-07-22T18:34:43Z</time>
      </trkpt>
      <trkpt lat="48.83436" lon="2.43431">
        <ele>44</ele>
        <time>2020-07-22T18:34:44Z</time>
      </trkpt>
      <trkpt lat="48.83437" lon="2.43431">
        <ele>44</ele>
        <time>2020-07-22T18:34:45Z</time>
      </trkpt>
      <trkpt lat="48.83439" lon="2.43432">
        <ele>44</ele>
        <time>2020-07-22T18:34:46Z</time>
      </trkpt>
      <trkpt lat="48.8344" lon="2.43432">
        <ele>44</ele>
        <time>2020-07-22T18:34:47Z</time>
      </trkpt>
      <trkpt lat="48.83442" lon="2.43432">
        <ele>44</ele>
        <time>2020-07-22T18:34:48Z</time>
      </trkpt>
      <trkpt lat="48.83443" lon="2.43433">
        <ele>44</ele>
        <time>2020-07-22T18:34:49Z</time>
      </trkpt>
      <trkpt lat="48.83445" lon="2.43433">
        <ele>44</ele>
        <time>2020-07-22T18:34:50Z</time>
      </trkpt>
      <trkpt lat="48.83446" lon="2.43434">
        <ele>44</ele>
        <time>2020-07-22T18:34:51Z</time>
      </trkpt>
      <trkpt lat="48.83447" lon="2.43434">
        <ele>44</ele>
        <time>2020-07-22T18:34:52Z</time>
      </trkpt>
      <trkpt lat="48.83449" lon="2.43434">
        <ele>44</ele>
        <time>2020-07-22T18:34:53Z</time>
      </trkpt>
      <trkpt lat="48.8345" lon="2.43434">
        <ele>44</ele>
        <time>2020-07-22T18:34:54Z</time>
      </trkpt>
      <trkpt lat="48.83452" lon="2.43435">
        <ele>44</ele>
        <time>2020-07-22T18:34:55Z</time>
      </trkpt>
      <trkpt lat="48.83453" lon="2.43435">
        <ele>44</ele>
        <time>2020-07-22T18:34:56Z</time>
      </trkpt>
      <trkpt lat="48.83453" lon="2.43435">
        <ele>44</ele>
        <time>2020-07-22T18:34:57Z</time>
      </trkpt>
      <trkpt lat="48.83455" lon="2.43435">
        <ele>44</ele>
        <time>2020-07-22T18:34:58Z</time>
      </trkpt>
      <trkpt lat="48.83456" lon="2.43435">
        <ele>44</ele>
        <time>2020-07-22T18:34:59Z</time>
      </trkpt>
      <trkpt lat="48.83457" lon="2.43435">
        <ele>44</ele>
        <time>2020-07-22T18:35:00Z</time>
      </trkpt>
      <trkpt lat="48.83458" lon="2.43436">
        <ele>44</ele>
        <time>2020-07-22T18:35:01Z</time>
      </trkpt>
      <trkpt lat="48.8346" lon="2.43436">
        <ele>44</ele>
        <time>2020-07-22T18:35:02Z</time>
      </trkpt>
      <trkpt lat="48.83461" lon="2.43436">
        <ele>44</ele>
        <time>2020-07-22T18:35:03Z</time>
      </trkpt>
      <trkpt lat="48.83462" lon="2.43436">
        <ele>44</ele>
        <time>2020-07-22T18:35:04Z</time>
      </trkpt>
      <trkpt lat="48.83464" lon="2.43436">
        <ele>44</ele>
        <time>2020-07-22T18:35:05Z</time>
      </trkpt>
      <trkpt lat="48.83465" lon="2.43437">
        <ele>44</ele>
        <time>2020-07-22T18:35:06Z</time>
      </trkpt>
      <trkpt lat="48.83466" lon="2.43437">
        <ele>44</ele>
        <time>2020-07-22T18:35:07Z</time>
      </trkpt>
      <trkpt lat="48.83468" lon="2.43437">
        <ele>44</ele>
        <time>2020-07-22T18:35:08Z</time>
      </trkpt>
      <trkpt lat="48.83469" lon="2.43437">
        <ele>44</ele>
        <time>2020-07-22T18:35:09Z</time>
      </trkpt>
      <trkpt lat="48.8347" lon="2.43437">
        <ele>44</ele>
        <time>2020-07-22T18:35:10Z</time>
      </trkpt>
      <trkpt lat="48.83471" lon="2.43437">
        <ele>44</ele>
        <time>2020-07-22T18:35:11Z</time>
      </trkpt>
      <trkpt lat="48.83472" lon="2.43437">
        <ele>44</ele>
        <time>2020-07-22T18:35:12Z</time>
      </trkpt>
      <trkpt lat="48.83473" lon="2.43437">
        <ele>44</ele>
        <time>2020-07-22T18:35:13Z</time>
      </trkpt>
      <trkpt lat="48.83475" lon="2.43438">
        <ele>44</ele>
        <time>2020-07-22T18:35:14Z</time>
      </trkpt>
      <trkpt lat="48.83476" lon="2.43438">
        <ele>44</ele>
        <time>2020-07-22T18:35:15Z</time>
      </trkpt>
      <trkpt lat="48.83477" lon="2.43438">
        <ele>44</ele>
        <time>2020-07-22T18:35:16Z</time>
      </trkpt>
      <trkpt lat="48.83478" lon="2.43438">
        <ele>44</ele>
        <time>2020-07-22T18:35:17Z</time>
      </trkpt>
      <trkpt lat="48.83479" lon="2.43438">
        <ele>44</ele>
        <time>2020-07-22T18:35:18Z</time>
      </trkpt>
      <trkpt lat="48.83481" lon="2.43438">
        <ele>44</ele>
        <time>2020-07-22T18:35:19Z</time>
      </trkpt>
      <trkpt lat="48.83482" lon="2.43438">
        <ele>44</ele>
        <time>2020-07-22T18:35:20Z</time>
      </trkpt>
      <trkpt lat="48.83484" lon="2.43438">
        <ele>44</ele>
        <time>2020-07-22T18:35:21Z</time>
      </trkpt>
      <trkpt lat="48.83485" lon="2.43439">
        <ele>44</ele>
        <time>2020-07-22T18:35:22Z</time>
      </trkpt>
      <trkpt lat="48.83487" lon="2.43439">
        <ele>44</ele>
        <time>2020-07-22T18:35:23Z</time>
      </trkpt>
      <trkpt lat="48.83489" lon="2.43439">
        <ele>44</ele>
        <time>2020-07-22T18:35:24Z</time>
      </trkpt>
      <trkpt lat="48.8349" lon="2.43439">
        <ele>44</ele>
        <time>2020-07-22T18:35:25Z</time>
      </trkpt>
      <trkpt lat="48.83491" lon="2.4344">
        <ele>44</ele>
        <time>2020-07-22T18:35:26Z</time>
      </trkpt>
      <trkpt lat="48.83493" lon="2.4344">
        <ele>44</ele>
        <time>2020-07-22T18:35:27Z</time>
      </trkpt>
      <trkpt lat="48.83494" lon="2.4344">
        <ele>44</ele>
        <time>2020-07-22T18:35:28Z</time>
      </trkpt>
      <trkpt lat="48.83495" lon="2.4344">
        <ele>44</ele>
        <time>2020-07-22T18:35:29Z</time>
      </trkpt>
      <trkpt lat="48.83497" lon="2.43441">
        <ele>44</ele>
        <time>2020-07-22T18:35:30Z</time>
      </trkpt>
      <trkpt lat="48.83497" lon="2.43441">
        <ele>44</ele>
        <time>2020-07-22T18:35:31Z</time>
      </trkpt>
      <trkpt lat="48.83498" lon="2.43441">
        <ele>44</ele>
        <time>2020-07-22T18:35:32Z</time>
      </trkpt>
      <trkpt lat="48.83499" lon="2.43442">
        <ele>44</ele>
        <time>2020-07-22T18:35:33Z</time>
      </trkpt>
      <trkpt lat="48.835" lon="2.43443">
        <ele>44</ele>
        <time>2020-07-22T18:35:34Z</time>
      </trkpt>
      <trkpt lat="48.835" lon="2.43444">
        <ele>44</ele>
        <time>2020-07-22T18:35:35Z</time>
      </trkpt>
      <trkpt lat="48.83501" lon="2.43445">
        <ele>44</ele>
        <time>2020-07-22T18:35:36Z</time>
      </trkpt>
      <trkpt lat="48.83501" lon="2.43447">
        <ele>44</ele>
        <time>2020-07-22T18:35:37Z</time>
      </trkpt>
      <trkpt lat="48.83502" lon="2.43448">
        <ele>45</ele>
        <time>2020-07-22T18:35:38Z</time>
      </trkpt>
      <trkpt lat="48.83503" lon="2.4345">
        <ele>44</ele>
        <time>2020-07-22T18:35:39Z</time>
      </trkpt>
      <trkpt lat="48.83503" lon="2.43452">
        <ele>44</ele>
        <time>2020-07-22T18:35:40Z</time>
      </trkpt>
      <trkpt lat="48.83504" lon="2.43453">
        <ele>44</ele>
        <time>2020-07-22T18:35:41Z</time>
      </trkpt>
      <trkpt lat="48.83505" lon="2.43454">
        <ele>44</ele>
        <time>2020-07-22T18:35:42Z</time>
      </trkpt>
      <trkpt lat="48.83505" lon="2.43456">
        <ele>44</ele>
        <time>2020-07-22T18:35:43Z</time>
      </trkpt>
      <trkpt lat="48.83506" lon="2.43457">
        <ele>44</ele>
        <time>2020-07-22T18:35:44Z</time>
      </trkpt>
      <trkpt lat="48.83506" lon="2.43458">
        <ele>44</ele>
        <time>2020-07-22T18:35:45Z</time>
      </trkpt>
      <trkpt lat="48.83508" lon="2.4346">
        <ele>44</ele>
        <time>2020-07-22T18:35:46Z</time>
      </trkpt>
      <trkpt lat="48.83508" lon="2.43461">
        <ele>44</ele>
        <time>2020-07-22T18:35:47Z</time>
      </trkpt>
      <trkpt lat="48.83509" lon="2.43463">
        <ele>44</ele>
        <time>2020-07-22T18:35:48Z</time>
      </trkpt>
      <trkpt lat="48.8351" lon="2.43465">
        <ele>44</ele>
        <time>2020-07-22T18:35:49Z</time>
      </trkpt>
      <trkpt lat="48.83511" lon="2.43466">
        <ele>44</ele>
        <time>2020-07-22T18:35:50Z</time>
      </trkpt>
      <trkpt lat="48.83512" lon="2.43468">
        <ele>44</ele>
        <time>2020-07-22T18:35:51Z</time>
      </trkpt>
      <trkpt lat="48.83513" lon="2.43469">
        <ele>44</ele>
        <time>2020-07-22T18:35:52Z</time>
      </trkpt>
      <trkpt lat="48.83514" lon="2.4347">
        <ele>44</ele>
        <time>2020-07-22T18:35:53Z</time>
      </trkpt>
      <trkpt lat="48.83515" lon="2.43471">
        <ele>44</ele>
        <time>2020-07-22T18:35:54Z</time>
      </trkpt>
      <trkpt lat="48.83515" lon="2.43471">
        <ele>44</ele>
        <time>2020-07-22T18:35:55Z</time>
      </trkpt>
      <trkpt lat="48.83516" lon="2.43471">
        <ele>44</ele>
        <time>2020-07-22T18:35:56Z</time>
      </trkpt>
      <trkpt lat="48.83516" lon="2.43471">
        <ele>44</ele>
        <time>2020-07-22T18:35:57Z</time>
      </trkpt>
      <trkpt lat="48.83517" lon="2.43471">
        <ele>44</ele>
        <time>2020-07-22T18:35:58Z</time>
      </trkpt>
      <trkpt lat="48.83518" lon="2.43472">
        <ele>44</ele>
        <time>2020-07-22T18:35:59Z</time>
      </trkpt>
      <trkpt lat="48.83518" lon="2.43472">
        <ele>44</ele>
        <time>2020-07-22T18:36:00Z</time>
      </trkpt>
      <trkpt lat="48.83518" lon="2.43472">
        <ele>44</ele>
        <time>2020-07-22T18:36:01Z</time>
      </trkpt>
      <trkpt lat="48.83519" lon="2.43472">
        <ele>44</ele>
        <time>2020-07-22T18:36:02Z</time>
      </trkpt>
      <trkpt lat="48.83519" lon="2.43472">
        <ele>44</ele>
        <time>2020-07-22T18:36:03Z</time>
      </trkpt>
      <trkpt lat="48.8352" lon="2.43472">
        <ele>44</ele>
        <time>2020-07-22T18:36:04Z</time>
      </trkpt>
      <trkpt lat="48.83521" lon="2.43473">
        <ele>44</ele>
        <time>2020-07-22T18:36:05Z</time>
      </trkpt>
      <trkpt lat="48.83521" lon="2.43473">
        <ele>44</ele>
        <time>2020-07-22T18:36:06Z</time>
      </trkpt>
      <trkpt lat="48.83522" lon="2.43473">
        <ele>44</ele>
        <time>2020-07-22T18:36:07Z</time>
      </trkpt>
      <trkpt lat="48.83523" lon="2.43474">
        <ele>44</ele>
        <time>2020-07-22T18:36:28Z</time>
      </trkpt>
      <trkpt lat="48.83523" lon="2.43474">
        <ele>44</ele>
        <time>2020-07-22T18:36:29Z</time>
      </trkpt>
      <trkpt lat="48.83524" lon="2.43475">
        <ele>44</ele>
        <time>2020-07-22T18:36:30Z</time>
      </trkpt>
      <trkpt lat="48.83524" lon="2.43475">
        <ele>44</ele>
        <time>2020-07-22T18:36:31Z</time>
      </trkpt>
      <trkpt lat="48.83524" lon="2.43476">
        <ele>44</ele>
        <time>2020-07-22T18:36:32Z</time>
      </trkpt>
      <trkpt lat="48.83524" lon="2.43478">
        <ele>44</ele>
        <time>2020-07-22T18:36:33Z</time>
      </trkpt>
      <trkpt lat="48.83525" lon="2.43479">
        <ele>44</ele>
        <time>2020-07-22T18:36:34Z</time>
      </trkpt>
      <trkpt lat="48.83526" lon="2.43481">
        <ele>44</ele>
        <time>2020-07-22T18:36:35Z</time>
      </trkpt>
      <trkpt lat="48.83526" lon="2.43483">
        <ele>44</ele>
        <time>2020-07-22T18:36:36Z</time>
      </trkpt>
      <trkpt lat="48.83526" lon="2.43484">
        <ele>44</ele>
        <time>2020-07-22T18:36:37Z</time>
      </trkpt>
      <trkpt lat="48.83527" lon="2.43486">
        <ele>44</ele>
        <time>2020-07-22T18:36:38Z</time>
      </trkpt>
      <trkpt lat="48.83528" lon="2.43487">
        <ele>44</ele>
        <time>2020-07-22T18:36:39Z</time>
      </trkpt>
      <trkpt lat="48.83528" lon="2.43489">
        <ele>44</ele>
        <time>2020-07-22T18:36:40Z</time>
      </trkpt>
      <trkpt lat="48.83529" lon="2.4349">
        <ele>44</ele>
        <time>2020-07-22T18:36:41Z</time>
      </trkpt>
      <trkpt lat="48.83529" lon="2.43491">
        <ele>44</ele>
        <time>2020-07-22T18:36:42Z</time>
      </trkpt>
      <trkpt lat="48.8353" lon="2.43492">
        <ele>44</ele>
        <time>2020-07-22T18:36:43Z</time>
      </trkpt>
      <trkpt lat="48.8353" lon="2.43494">
        <ele>44</ele>
        <time>2020-07-22T18:36:44Z</time>
      </trkpt>
      <trkpt lat="48.8353" lon="2.43495">
        <ele>44</ele>
        <time>2020-07-22T18:36:45Z</time>
      </trkpt>
      <trkpt lat="48.8353" lon="2.43497">
        <ele>44</ele>
        <time>2020-07-22T18:36:46Z</time>
      </trkpt>
      <trkpt lat="48.8353" lon="2.43499">
        <ele>44</ele>
        <time>2020-07-22T18:36:47Z</time>
      </trkpt>
      <trkpt lat="48.8353" lon="2.435">
        <ele>44</ele>
        <time>2020-07-22T18:36:48Z</time>
      </trkpt>
      <trkpt lat="48.83531" lon="2.43501">
        <ele>44</ele>
        <time>2020-07-22T18:36:49Z</time>
      </trkpt>
      <trkpt lat="48.83531" lon="2.43502">
        <ele>44</ele>
        <time>2020-07-22T18:36:50Z</time>
      </trkpt>
      <trkpt lat="48.83531" lon="2.43503">
        <ele>44</ele>
        <time>2020-07-22T18:36:51Z</time>
      </trkpt>
      <trkpt lat="48.83532" lon="2.43505">
        <ele>44</ele>
        <time>2020-07-22T18:36:52Z</time>
      </trkpt>
      <trkpt lat="48.83532" lon="2.43507">
        <ele>44</ele>
        <time>2020-07-22T18:36:53Z</time>
      </trkpt>
      <trkpt lat="48.83532" lon="2.43508">
        <ele>44</ele>
        <time>2020-07-22T18:36:54Z</time>
      </trkpt>
      <trkpt lat="48.83533" lon="2.4351">
        <ele>44</ele>
        <time>2020-07-22T18:36:55Z</time>
      </trkpt>
      <trkpt lat="48.83533" lon="2.43511">
        <ele>44</ele>
        <time>2020-07-22T18:36:56Z</time>
      </trkpt>
      <trkpt lat="48.83534" lon="2.43513">
        <ele>44</ele>
        <time>2020-07-22T18:36:57Z</time>
      </trkpt>
      <trkpt lat="48.83534" lon="2.43514">
        <ele>44</ele>
        <time>2020-07-22T18:36:58Z</time>
      </trkpt>
      <trkpt lat="48.83535" lon="2.43515">
        <ele>44</ele>
        <time>2020-07-22T18:36:59Z</time>
      </trkpt>
      <trkpt lat="48.83536" lon="2.43517">
        <ele>44</ele>
        <time>2020-07-22T18:37:00Z</time>
      </trkpt>
      <trkpt lat="48.83536" lon="2.43518">
        <ele>44</ele>
        <time>2020-07-22T18:37:01Z</time>
      </trkpt>
      <trkpt lat="48.83537" lon="2.43519">
        <ele>44</ele>
        <time>2020-07-22T18:37:02Z</time>
      </trkpt>
      <trkpt lat="48.83537" lon="2.4352">
        <ele>45</ele>
        <time>2020-07-22T18:37:03Z</time>
      </trkpt>
      <trkpt lat="48.83537" lon="2.43521">
        <ele>45</ele>
        <time>2020-07-22T18:37:04Z</time>
      </trkpt>
      <trkpt lat="48.83538" lon="2.43522">
        <ele>45</ele>
        <time>2020-07-22T18:37:05Z</time>
      </trkpt>
      <trkpt lat="48.83538" lon="2.43523">
        <ele>45</ele>
        <time>2020-07-22T18:37:06Z</time>
      </trkpt>
      <trkpt lat="48.83538" lon="2.43524">
        <ele>45</ele>
        <time>2020-07-22T18:37:07Z</time>
      </trkpt>
      <trkpt lat="48.83539" lon="2.43525">
        <ele>45</ele>
        <time>2020-07-22T18:37:08Z</time>
      </trkpt>
      <trkpt lat="48.83539" lon="2.43526">
        <ele>45</ele>
        <time>2020-07-22T18:37:09Z</time>
      </trkpt>
      <trkpt lat="48.8354" lon="2.43527">
        <ele>45</ele>
        <time>2020-07-22T18:37:10Z</time>
      </trkpt>
      <trkpt lat="48.83541" lon="2.43528">
        <ele>45</ele>
        <time>2020-07-22T18:37:11Z</time>
      </trkpt>
      <trkpt lat="48.83542" lon="2.43528">
        <ele>45</ele>
        <time>2020-07-22T18:37:12Z</time>
      </trkpt>
      <trkpt lat="48.83543" lon="2.43529">
        <ele>45</ele>
        <time>2020-07-22T18:37:13Z</time>
      </trkpt>
      <trkpt lat="48.83544" lon="2.43529">
        <ele>45</ele>
        <time>2020-07-22T18:37:14Z</time>
      </trkpt>
      <trkpt lat="48.83545" lon="2.4353">
        <ele>45</ele>
        <time>2020-07-22T18:37:15Z</time>
      </trkpt>
      <trkpt lat="48.83546" lon="2.4353">
        <ele>45</ele>
        <time>2020-07-22T18:37:16Z</time>
      </trkpt>
      <trkpt lat="48.83547" lon="2.43531">
        <ele>45</ele>
        <time>2020-07-22T18:37:17Z</time>
      </trkpt>
      <trkpt lat="48.83548" lon="2.43531">
        <ele>45</ele>
        <time>2020-07-22T18:37:18Z</time>
      </trkpt>
      <trkpt lat="48.8355" lon="2.43531">
        <ele>45</ele>
        <time>2020-07-22T18:37:19Z</time>
      </trkpt>
      <trkpt lat="48.8355" lon="2.43531">
        <ele>45</ele>
        <time>2020-07-22T18:37:20Z</time>
      </trkpt>
      <trkpt lat="48.83551" lon="2.43532">
        <ele>45</ele>
        <time>2020-07-22T18:37:21Z</time>
      </trkpt>
      <trkpt lat="48.83553" lon="2.43532">
        <ele>45</ele>
        <time>2020-07-22T18:37:22Z</time>
      </trkpt>
      <trkpt lat="48.83554" lon="2.43532">
        <ele>45</ele>
        <time>2020-07-22T18:37:23Z</time>
      </trkpt>
      <trkpt lat="48.83555" lon="2.43532">
        <ele>45</ele>
        <time>2020-07-22T18:37:24Z</time>
      </trkpt>
      <trkpt lat="48.83556" lon="2.43532">
        <ele>45</ele>
        <time>2020-07-22T18:37:25Z</time>
      </trkpt>
      <trkpt lat="48.83558" lon="2.43532">
        <ele>45</ele>
        <time>2020-07-22T18:37:26Z</time>
      </trkpt>
      <trkpt lat="48.8356" lon="2.43532">
        <ele>45</ele>
        <time>2020-07-22T18:37:27Z</time>
      </trkpt>
      <trkpt lat="48.83561" lon="2.43533">
        <ele>45</ele>
        <time>2020-07-22T18:37:28Z</time>
      </trkpt>
      <trkpt lat="48.83562" lon="2.43533">
        <ele>45</ele>
        <time>2020-07-22T18:37:29Z</time>
      </trkpt>
      <trkpt lat="48.83564" lon="2.43533">
        <ele>45</ele>
        <time>2020-07-22T18:37:30Z</time>
      </trkpt>
      <trkpt lat="48.83565" lon="2.43534">
        <ele>45</ele>
        <time>2020-07-22T18:37:31Z</time>
      </trkpt>
      <trkpt lat="48.83566" lon="2.43534">
        <ele>45</ele>
        <time>2020-07-22T18:37:32Z</time>
      </trkpt>
      <trkpt lat="48.83567" lon="2.43534">
        <ele>45</ele>
        <time>2020-07-22T18:37:33Z</time>
      </trkpt>
      <trkpt lat="48.83568" lon="2.43533">
        <ele>45</ele>
        <time>2020-07-22T18:37:34Z</time>
      </trkpt>
      <trkpt lat="48.83569" lon="2.43533">
        <ele>45</ele>
        <time>2020-07-22T18:37:35Z</time>
      </trkpt>
      <trkpt lat="48.8357" lon="2.43533">
        <ele>45</ele>
        <time>2020-07-22T18:37:36Z</time>
      </trkpt>
      <trkpt lat="48.83571" lon="2.43533">
        <ele>45</ele>
        <time>2020-07-22T18:37:37Z</time>
      </trkpt>
      <trkpt lat="48.83572" lon="2.43533">
        <ele>45</ele>
        <time>2020-07-22T18:37:38Z</time>
      </trkpt>
      <trkpt lat="48.83574" lon="2.43534">
        <ele>45</ele>
        <time>2020-07-22T18:37:39Z</time>
      </trkpt>
      <trkpt lat="48.83574" lon="2.43534">
        <ele>45</ele>
        <time>2020-07-22T18:37:40Z</time>
      </trkpt>
      <trkpt lat="48.83575" lon="2.43534">
        <ele>45</ele>
        <time>2020-07-22T18:37:41Z</time>
      </trkpt>
      <trkpt lat="48.83576" lon="2.43535">
        <ele>45</ele>
        <time>2020-07-22T18:37:42Z</time>
      </trkpt>
      <trkpt lat="48.83577" lon="2.43535">
        <ele>45</ele>
        <time>2020-07-22T18:37:43Z</time>
      </trkpt>
      <trkpt lat="48.83579" lon="2.43536">
        <ele>45</ele>
        <time>2020-07-22T18:37:44Z</time>
      </trkpt>
      <trkpt lat="48.8358" lon="2.43536">
        <ele>45</ele>
        <time>2020-07-22T18:37:45Z</time>
      </trkpt>
      <trkpt lat="48.83581" lon="2.43537">
        <ele>45</ele>
        <time>2020-07-22T18:37:46Z</time>
      </trkpt>
      <trkpt lat="48.83582" lon="2.43538">
        <ele>45</ele>
        <time>2020-07-22T18:37:47Z</time>
      </trkpt>
      <trkpt lat="48.83584" lon="2.43538">
        <ele>45</ele>
        <time>2020-07-22T18:37:48Z</time>
      </trkpt>
      <trkpt lat="48.83585" lon="2.43539">
        <ele>45</ele>
        <time>2020-07-22T18:37:49Z</time>
      </trkpt>
      <trkpt lat="48.83586" lon="2.43539">
        <ele>45</ele>
        <time>2020-07-22T18:37:50Z</time>
      </trkpt>
      <trkpt lat="48.83587" lon="2.4354">
        <ele>45</ele>
        <time>2020-07-22T18:37:51Z</time>
      </trkpt>
      <trkpt lat="48.83588" lon="2.4354">
        <ele>45</ele>
        <time>2020-07-22T18:37:52Z</time>
      </trkpt>
      <trkpt lat="48.8359" lon="2.4354">
        <ele>45</ele>
        <time>2020-07-22T18:37:53Z</time>
      </trkpt>
      <trkpt lat="48.83591" lon="2.43541">
        <ele>44</ele>
        <time>2020-07-22T18:37:54Z</time>
      </trkpt>
      <trkpt lat="48.83592" lon="2.43541">
        <ele>44</ele>
        <time>2020-07-22T18:37:55Z</time>
      </trkpt>
      <trkpt lat="48.83593" lon="2.43541">
        <ele>44</ele>
        <time>2020-07-22T18:37:56Z</time>
      </trkpt>
      <trkpt lat="48.83594" lon="2.43542">
        <ele>44</ele>
        <time>2020-07-22T18:37:57Z</time>
      </trkpt>
      <trkpt lat="48.83596" lon="2.43543">
        <ele>44</ele>
        <time>2020-07-22T18:37:58Z</time>
      </trkpt>
      <trkpt lat="48.83597" lon="2.43543">
        <ele>44</ele>
        <time>2020-07-22T18:37:59Z</time>
      </trkpt>
      <trkpt lat="48.83598" lon="2.43544">
        <ele>44</ele>
        <time>2020-07-22T18:38:00Z</time>
      </trkpt>
      <trkpt lat="48.83599" lon="2.43545">
        <ele>44</ele>
        <time>2020-07-22T18:38:01Z</time>
      </trkpt>
      <trkpt lat="48.836" lon="2.43545">
        <ele>44</ele>
        <time>2020-07-22T18:38:02Z</time>
      </trkpt>
      <trkpt lat="48.83601" lon="2.43546">
        <ele>44</ele>
        <time>2020-07-22T18:38:03Z</time>
      </trkpt>
      <trkpt lat="48.83602" lon="2.43547">
        <ele>44</ele>
        <time>2020-07-22T18:38:04Z</time>
      </trkpt>
      <trkpt lat="48.83604" lon="2.43548">
        <ele>44</ele>
        <time>2020-07-22T18:38:05Z</time>
      </trkpt>
      <trkpt lat="48.83605" lon="2.43548">
        <ele>44</ele>
        <time>2020-07-22T18:38:06Z</time>
      </trkpt>
      <trkpt lat="48.83606" lon="2.43548">
        <ele>44</ele>
        <time>2020-07-22T18:38:07Z</time>
      </trkpt>
      <trkpt lat="48.83608" lon="2.43549">
        <ele>44</ele>
        <time>2020-07-22T18:38:08Z</time>
      </trkpt>
      <trkpt lat="48.8361" lon="2.43549">
        <ele>44</ele>
        <time>2020-07-22T18:38:09Z</time>
      </trkpt>
      <trkpt lat="48.83611" lon="2.4355">
        <ele>44</ele>
        <time>2020-07-22T18:38:10Z</time>
      </trkpt>
      <trkpt lat="48.83612" lon="2.4355">
        <ele>44</ele>
        <time>2020-07-22T18:38:11Z</time>
      </trkpt>
      <trkpt lat="48.83613" lon="2.4355">
        <ele>44</ele>
        <time>2020-07-22T18:38:12Z</time>
      </trkpt>
      <trkpt lat="48.83614" lon="2.43551">
        <ele>44</ele>
        <time>2020-07-22T18:38:13Z</time>
      </trkpt>
      <trkpt lat="48.83614" lon="2.43551">
        <ele>43</ele>
        <time>2020-07-22T18:38:14Z</time>
      </trkpt>
      <trkpt lat="48.83615" lon="2.43552">
        <ele>43</ele>
        <time>2020-07-22T18:38:15Z</time>
      </trkpt>
      <trkpt lat="48.83616" lon="2.43553">
        <ele>43</ele>
        <time>2020-07-22T18:38:16Z</time>
      </trkpt>
      <trkpt lat="48.83617" lon="2.43554">
        <ele>43</ele>
        <time>2020-07-22T18:38:17Z</time>
      </trkpt>
      <trkpt lat="48.83619" lon="2.43555">
        <ele>43</ele>
        <time>2020-07-22T18:38:18Z</time>
      </trkpt>
      <trkpt lat="48.8362" lon="2.43556">
        <ele>43</ele>
        <time>2020-07-22T18:38:19Z</time>
      </trkpt>
      <trkpt lat="48.83622" lon="2.43556">
        <ele>43</ele>
        <time>2020-07-22T18:38:20Z</time>
      </trkpt>
      <trkpt lat="48.83623" lon="2.43556">
        <ele>43</ele>
        <time>2020-07-22T18:38:21Z</time>
      </trkpt>
      <trkpt lat="48.83625" lon="2.43557">
        <ele>43</ele>
        <time>2020-07-22T18:38:22Z</time>
      </trkpt>
      <trkpt lat="48.83625" lon="2.43557">
        <ele>43</ele>
        <time>2020-07-22T18:38:23Z</time>
      </trkpt>
      <trkpt lat="48.83626" lon="2.43557">
        <ele>43</ele>
        <time>2020-07-22T18:38:24Z</time>
      </trkpt>
      <trkpt lat="48.83628" lon="2.43557">
        <ele>43</ele>
        <time>2020-07-22T18:38:25Z</time>
      </trkpt>
      <trkpt lat="48.83629" lon="2.43557">
        <ele>43</ele>
        <time>2020-07-22T18:38:26Z</time>
      </trkpt>
      <trkpt lat="48.8363" lon="2.43557">
        <ele>43</ele>
        <time>2020-07-22T18:38:27Z</time>
      </trkpt>
      <trkpt lat="48.83632" lon="2.43558">
        <ele>43</ele>
        <time>2020-07-22T18:38:28Z</time>
      </trkpt>
      <trkpt lat="48.83633" lon="2.43558">
        <ele>43</ele>
        <time>2020-07-22T18:38:29Z</time>
      </trkpt>
      <trkpt lat="48.83633" lon="2.43558">
        <ele>43</ele>
        <time>2020-07-22T18:38:30Z</time>
      </trkpt>
      <trkpt lat="48.83635" lon="2.43558">
        <ele>43</ele>
        <time>2020-07-22T18:38:31Z</time>
      </trkpt>
      <trkpt lat="48.83636" lon="2.43558">
        <ele>43</ele>
        <time>2020-07-22T18:38:32Z</time>
      </trkpt>
      <trkpt lat="48.83637" lon="2.43558">
        <ele>43</ele>
        <time>2020-07-22T18:38:33Z</time>
      </trkpt>
      <trkpt lat="48.83638" lon="2.43558">
        <ele>43</ele>
        <time>2020-07-22T18:38:34Z</time>
      </trkpt>
      <trkpt lat="48.83639" lon="2.43558">
        <ele>43</ele>
        <time>2020-07-22T18:38:35Z</time>
      </trkpt>
      <trkpt lat="48.8364" lon="2.43558">
        <ele>43</ele>
        <time>2020-07-22T18:38:36Z</time>
      </trkpt>
      <trkpt lat="48.83641" lon="2.43558">
        <ele>43</ele>
        <time>2020-07-22T18:38:37Z</time>
      </trkpt>
      <trkpt lat="48.83642" lon="2.43558">
        <ele>43</ele>
        <time>2020-07-22T18:38:38Z</time>
      </trkpt>
      <trkpt lat="48.83643" lon="2.43558">
        <ele>43</ele>
        <time>2020-07-22T18:38:39Z</time>
      </trkpt>
      <trkpt lat="48.83645" lon="2.43558">
        <ele>43</ele>
        <time>2020-07-22T18:38:40Z</time>
      </trkpt>
      <trkpt lat="48.83646" lon="2.43558">
        <ele>43</ele>
        <time>2020-07-22T18:38:41Z</time>
      </trkpt>
      <trkpt lat="48.83648" lon="2.43559">
        <ele>43</ele>
        <time>2020-07-22T18:38:42Z</time>
      </trkpt>
      <trkpt lat="48.83649" lon="2.43559">
        <ele>43</ele>
        <time>2020-07-22T18:38:43Z</time>
      </trkpt>
      <trkpt lat="48.83651" lon="2.43559">
        <ele>43</ele>
        <time>2020-07-22T18:38:44Z</time>
      </trkpt>
      <trkpt lat="48.83653" lon="2.43559">
        <ele>43</ele>
        <time>2020-07-22T18:38:45Z</time>
      </trkpt>
      <trkpt lat="48.83654" lon="2.43559">
        <ele>43</ele>
        <time>2020-07-22T18:38:46Z</time>
      </trkpt>
      <trkpt lat="48.83656" lon="2.43559">
        <ele>43</ele>
        <time>2020-07-22T18:38:47Z</time>
      </trkpt>
      <trkpt lat="48.83658" lon="2.43559">
        <ele>43</ele>
        <time>2020-07-22T18:38:48Z</time>
      </trkpt>
      <trkpt lat="48.83659" lon="2.4356">
        <ele>43</ele>
        <time>2020-07-22T18:38:49Z</time>
      </trkpt>
      <trkpt lat="48.8366" lon="2.4356">
        <ele>43</ele>
        <time>2020-07-22T18:38:50Z</time>
      </trkpt>
      <trkpt lat="48.83661" lon="2.4356">
        <ele>43</ele>
        <time>2020-07-22T18:38:51Z</time>
      </trkpt>
      <trkpt lat="48.83662" lon="2.43561">
        <ele>43</ele>
        <time>2020-07-22T18:38:52Z</time>
      </trkpt>
      <trkpt lat="48.83663" lon="2.4356">
        <ele>43</ele>
        <time>2020-07-22T18:38:53Z</time>
      </trkpt>
      <trkpt lat="48.83664" lon="2.4356">
        <ele>43</ele>
        <time>2020-07-22T18:38:54Z</time>
      </trkpt>
      <trkpt lat="48.83665" lon="2.4356">
        <ele>43</ele>
        <time>2020-07-22T18:38:55Z</time>
      </trkpt>
      <trkpt lat="48.83666" lon="2.4356">
        <ele>43</ele>
        <time>2020-07-22T18:38:56Z</time>
      </trkpt>
      <trkpt lat="48.83666" lon="2.4356">
        <ele>43</ele>
        <time>2020-07-22T18:38:57Z</time>
      </trkpt>
      <trkpt lat="48.83667" lon="2.4356">
        <ele>43</ele>
        <time>2020-07-22T18:38:58Z</time>
      </trkpt>
      <trkpt lat="48.83668" lon="2.4356">
        <ele>43</ele>
        <time>2020-07-22T18:38:59Z</time>
      </trkpt>
      <trkpt lat="48.83669" lon="2.43561">
        <ele>43</ele>
        <time>2020-07-22T18:39:00Z</time>
      </trkpt>
      <trkpt lat="48.8367" lon="2.43561">
        <ele>43</ele>
        <time>2020-07-22T18:39:01Z</time>
      </trkpt>
      <trkpt lat="48.83671" lon="2.43561">
        <ele>43</ele>
        <time>2020-07-22T18:39:02Z</time>
      </trkpt>
      <trkpt lat="48.83672" lon="2.43562">
        <ele>43</ele>
        <time>2020-07-22T18:39:03Z</time>
      </trkpt>
      <trkpt lat="48.83674" lon="2.43563">
        <ele>43</ele>
        <time>2020-07-22T18:39:04Z</time>
      </trkpt>
      <trkpt lat="48.83675" lon="2.43563">
        <ele>43</ele>
        <time>2020-07-22T18:39:05Z</time>
      </trkpt>
      <trkpt lat="48.83677" lon="2.43564">
        <ele>43</ele>
        <time>2020-07-22T18:39:06Z</time>
      </trkpt>
      <trkpt lat="48.83678" lon="2.43564">
        <ele>43</ele>
        <time>2020-07-22T18:39:07Z</time>
      </trkpt>
      <trkpt lat="48.83679" lon="2.43565">
        <ele>43</ele>
        <time>2020-07-22T18:39:08Z</time>
      </trkpt>
      <trkpt lat="48.83681" lon="2.43565">
        <ele>43</ele>
        <time>2020-07-22T18:39:09Z</time>
      </trkpt>
      <trkpt lat="48.83682" lon="2.43565">
        <ele>43</ele>
        <time>2020-07-22T18:39:10Z</time>
      </trkpt>
      <trkpt lat="48.83683" lon="2.43566">
        <ele>43</ele>
        <time>2020-07-22T18:39:11Z</time>
      </trkpt>
      <trkpt lat="48.83685" lon="2.43566">
        <ele>43</ele>
        <time>2020-07-22T18:39:12Z</time>
      </trkpt>
      <trkpt lat="48.83686" lon="2.43566">
        <ele>43</ele>
        <time>2020-07-22T18:39:13Z</time>
      </trkpt>
      <trkpt lat="48.83687" lon="2.43566">
        <ele>43</ele>
        <time>2020-07-22T18:39:14Z</time>
      </trkpt>
      <trkpt lat="48.83689" lon="2.43566">
        <ele>43</ele>
        <time>2020-07-22T18:39:15Z</time>
      </trkpt>
      <trkpt lat="48.8369" lon="2.43567">
        <ele>43</ele>
        <time>2020-07-22T18:39:16Z</time>
      </trkpt>
      <trkpt lat="48.83691" lon="2.43567">
        <ele>43</ele>
        <time>2020-07-22T18:39:17Z</time>
      </trkpt>
      <trkpt lat="48.83692" lon="2.43567">
        <ele>43</ele>
        <time>2020-07-22T18:39:18Z</time>
      </trkpt>
      <trkpt lat="48.83693" lon="2.43567">
        <ele>43</ele>
        <time>2020-07-22T18:39:19Z</time>
      </trkpt>
      <trkpt lat="48.83694" lon="2.43568">
        <ele>43</ele>
        <time>2020-07-22T18:39:20Z</time>
      </trkpt>
      <trkpt lat="48.83695" lon="2.43568">
        <ele>43</ele>
        <time>2020-07-22T18:39:21Z</time>
      </trkpt>
      <trkpt lat="48.83696" lon="2.43568">
        <ele>43</ele>
        <time>2020-07-22T18:39:22Z</time>
      </trkpt>
      <trkpt lat="48.83697" lon="2.43568">
        <ele>43</ele>
        <time>2020-07-22T18:39:23Z</time>
      </trkpt>
      <trkpt lat="48.83698" lon="2.43568">
        <ele>42</ele>
        <time>2020-07-22T18:39:24Z</time>
      </trkpt>
      <trkpt lat="48.83699" lon="2.43568">
        <ele>42</ele>
        <time>2020-07-22T18:39:25Z</time>
      </trkpt>
      <trkpt lat="48.83701" lon="2.43569">
        <ele>42</ele>
        <time>2020-07-22T18:39:26Z</time>
      </trkpt>
      <trkpt lat="48.83702" lon="2.43569">
        <ele>42</ele>
        <time>2020-07-22T18:39:27Z</time>
      </trkpt>
      <trkpt lat="48.83704" lon="2.43569">
        <ele>42</ele>
        <time>2020-07-22T18:39:28Z</time>
      </trkpt>
      <trkpt lat="48.83705" lon="2.43569">
        <ele>42</ele>
        <time>2020-07-22T18:39:29Z</time>
      </trkpt>
      <trkpt lat="48.83707" lon="2.43569">
        <ele>42</ele>
        <time>2020-07-22T18:39:30Z</time>
      </trkpt>
      <trkpt lat="48.83709" lon="2.43569">
        <ele>42</ele>
        <time>2020-07-22T18:39:31Z</time>
      </trkpt>
      <trkpt lat="48.8371" lon="2.43569">
        <ele>42</ele>
        <time>2020-07-22T18:39:32Z</time>
      </trkpt>
      <trkpt lat="48.83711" lon="2.43569">
        <ele>42</ele>
        <time>2020-07-22T18:39:33Z</time>
      </trkpt>
      <trkpt lat="48.83712" lon="2.4357">
        <ele>42</ele>
        <time>2020-07-22T18:39:34Z</time>
      </trkpt>
      <trkpt lat="48.83713" lon="2.4357">
        <ele>42</ele>
        <time>2020-07-22T18:39:35Z</time>
      </trkpt>
      <trkpt lat="48.83714" lon="2.4357">
        <ele>42</ele>
        <time>2020-07-22T18:39:36Z</time>
      </trkpt>
      <trkpt lat="48.83716" lon="2.4357">
        <ele>42</ele>
        <time>2020-07-22T18:39:37Z</time>
      </trkpt>
      <trkpt lat="48.83717" lon="2.43571">
        <ele>42</ele>
        <time>2020-07-22T18:39:38Z</time>
      </trkpt>
      <trkpt lat="48.83719" lon="2.43571">
        <ele>42</ele>
        <time>2020-07-22T18:39:39Z</time>
      </trkpt>
      <trkpt lat="48.83721" lon="2.43571">
        <ele>42</ele>
        <time>2020-07-22T18:39:40Z</time>
      </trkpt>
      <trkpt lat="48.83722" lon="2.43571">
        <ele>42</ele>
        <time>2020-07-22T18:39:41Z</time>
      </trkpt>
      <trkpt lat="48.83723" lon="2.43572">
        <ele>42</ele>
        <time>2020-07-22T18:39:42Z</time>
      </trkpt>
      <trkpt lat="48.83725" lon="2.43572">
        <ele>42</ele>
        <time>2020-07-22T18:39:43Z</time>
      </trkpt>
      <trkpt lat="48.83725" lon="2.43573">
        <ele>42</ele>
        <time>2020-07-22T18:39:44Z</time>
      </trkpt>
      <trkpt lat="48.83727" lon="2.43573">
        <ele>42</ele>
        <time>2020-07-22T18:39:45Z</time>
      </trkpt>
      <trkpt lat="48.83728" lon="2.43574">
        <ele>42</ele>
        <time>2020-07-22T18:39:46Z</time>
      </trkpt>
      <trkpt lat="48.83729" lon="2.43574">
        <ele>42</ele>
        <time>2020-07-22T18:39:47Z</time>
      </trkpt>
      <trkpt lat="48.8373" lon="2.43575">
        <ele>42</ele>
        <time>2020-07-22T18:39:48Z</time>
      </trkpt>
      <trkpt lat="48.83731" lon="2.43575">
        <ele>42</ele>
        <time>2020-07-22T18:39:49Z</time>
      </trkpt>
      <trkpt lat="48.83732" lon="2.43576">
        <ele>42</ele>
        <time>2020-07-22T18:39:50Z</time>
      </trkpt>
      <trkpt lat="48.83733" lon="2.43576">
        <ele>42</ele>
        <time>2020-07-22T18:39:51Z</time>
      </trkpt>
      <trkpt lat="48.83734" lon="2.43577">
        <ele>42</ele>
        <time>2020-07-22T18:39:52Z</time>
      </trkpt>
      <trkpt lat="48.83735" lon="2.43577">
        <ele>42</ele>
        <time>2020-07-22T18:39:53Z</time>
      </trkpt>
      <trkpt lat="48.83737" lon="2.43577">
        <ele>42</ele>
        <time>2020-07-22T18:39:54Z</time>
      </trkpt>
      <trkpt lat="48.83738" lon="2.43577">
        <ele>42</ele>
        <time>2020-07-22T18:39:55Z</time>
      </trkpt>
      <trkpt lat="48.83739" lon="2.43577">
        <ele>42</ele>
        <time>2020-07-22T18:39:56Z</time>
      </trkpt>
      <trkpt lat="48.8374" lon="2.43578">
        <ele>42</ele>
        <time>2020-07-22T18:39:57Z</time>
      </trkpt>
      <trkpt lat="48.83741" lon="2.43578">
        <ele>42</ele>
        <time>2020-07-22T18:39:58Z</time>
      </trkpt>
      <trkpt lat="48.83742" lon="2.43578">
        <ele>42</ele>
        <time>2020-07-22T18:39:59Z</time>
      </trkpt>
      <trkpt lat="48.83743" lon="2.43579">
        <ele>42</ele>
        <time>2020-07-22T18:40:00Z</time>
      </trkpt>
      <trkpt lat="48.83744" lon="2.43579">
        <ele>42</ele>
        <time>2020-07-22T18:40:01Z</time>
      </trkpt>
      <trkpt lat="48.83745" lon="2.43579">
        <ele>42</ele>
        <time>2020-07-22T18:40:02Z</time>
      </trkpt>
      <trkpt lat="48.83746" lon="2.4358">
        <ele>42</ele>
        <time>2020-07-22T18:40:03Z</time>
      </trkpt>
      <trkpt lat="48.83747" lon="2.4358">
        <ele>42</ele>
        <time>2020-07-22T18:40:04Z</time>
      </trkpt>
      <trkpt lat="48.83748" lon="2.43581">
        <ele>42</ele>
        <time>2020-07-22T18:40:05Z</time>
      </trkpt>
      <trkpt lat="48.83749" lon="2.43581">
        <ele>42</ele>
        <time>2020-07-22T18:40:06Z</time>
      </trkpt>
      <trkpt lat="48.83751" lon="2.43582">
        <ele>42</ele>
        <time>2020-07-22T18:40:07Z</time>
      </trkpt>
      <trkpt lat="48.83751" lon="2.43582">
        <ele>42</ele>
        <time>2020-07-22T18:40:08Z</time>
      </trkpt>
      <trkpt lat="48.83753" lon="2.43583">
        <ele>42</ele>
        <time>2020-07-22T18:40:09Z</time>
      </trkpt>
      <trkpt lat="48.83754" lon="2.43583">
        <ele>42</ele>
        <time>2020-07-22T18:40:10Z</time>
      </trkpt>
      <trkpt lat="48.83755" lon="2.43583">
        <ele>42</ele>
        <time>2020-07-22T18:40:11Z</time>
      </trkpt>
      <trkpt lat="48.83756" lon="2.43584">
        <ele>42</ele>
        <time>2020-07-22T18:40:12Z</time>
      </trkpt>
      <trkpt lat="48.83757" lon="2.43584">
        <ele>42</ele>
        <time>2020-07-22T18:40:13Z</time>
      </trkpt>
      <trkpt lat="48.83759" lon="2.43584">
        <ele>42</ele>
        <time>2020-07-22T18:40:14Z</time>
      </trkpt>
      <trkpt lat="48.8376" lon="2.43584">
        <ele>42</ele>
        <time>2020-07-22T18:40:15Z</time>
      </trkpt>
      <trkpt lat="48.83761" lon="2.43584">
        <ele>42</ele>
        <time>2020-07-22T18:40:16Z</time>
      </trkpt>
      <trkpt lat="48.83763" lon="2.43584">
        <ele>42</ele>
        <time>2020-07-22T18:40:17Z</time>
      </trkpt>
      <trkpt lat="48.83764" lon="2.43584">
        <ele>42</ele>
        <time>2020-07-22T18:40:18Z</time>
      </trkpt>
      <trkpt lat="48.83765" lon="2.43584">
        <ele>42</ele>
        <time>2020-07-22T18:40:19Z</time>
      </trkpt>
      <trkpt lat="48.83767" lon="2.43584">
        <ele>42</ele>
        <time>2020-07-22T18:40:20Z</time>
      </trkpt>
      <trkpt lat="48.83768" lon="2.43584">
        <ele>42</ele>
        <time>2020-07-22T18:40:21Z</time>
      </trkpt>
      <trkpt lat="48.83769" lon="2.43584">
        <ele>42</ele>
        <time>2020-07-22T18:40:22Z</time>
      </trkpt>
      <trkpt lat="48.83771" lon="2.43584">
        <ele>42</ele>
        <time>2020-07-22T18:40:23Z</time>
      </trkpt>
      <trkpt lat="48.83773" lon="2.43584">
        <ele>42</ele>
        <time>2020-07-22T18:40:24Z</time>
      </trkpt>
      <trkpt lat="48.83773" lon="2.43584">
        <ele>42</ele>
        <time>2020-07-22T18:40:25Z</time>
      </trkpt>
      <trkpt lat="48.83774" lon="2.43584">
        <ele>42</ele>
        <time>2020-07-22T18:40:26Z</time>
      </trkpt>
      <trkpt lat="48.83775" lon="2.43585">
        <ele>42</ele>
        <time>2020-07-22T18:40:27Z</time>
      </trkpt>
      <trkpt lat="48.83777" lon="2.43585">
        <ele>43</ele>
        <time>2020-07-22T18:40:28Z</time>
      </trkpt>
      <trkpt lat="48.83778" lon="2.43585">
        <ele>43</ele>
        <time>2020-07-22T18:40:29Z</time>
      </trkpt>
      <trkpt lat="48.83779" lon="2.43586">
        <ele>43</ele>
        <time>2020-07-22T18:40:30Z</time>
      </trkpt>
      <trkpt lat="48.8378" lon="2.43586">
        <ele>43</ele>
        <time>2020-07-22T18:40:31Z</time>
      </trkpt>
      <trkpt lat="48.83781" lon="2.43587">
        <ele>43</ele>
        <time>2020-07-22T18:40:32Z</time>
      </trkpt>
      <trkpt lat="48.83782" lon="2.43587">
        <ele>43</ele>
        <time>2020-07-22T18:40:33Z</time>
      </trkpt>
      <trkpt lat="48.83783" lon="2.43587">
        <ele>43</ele>
        <time>2020-07-22T18:40:34Z</time>
      </trkpt>
      <trkpt lat="48.83784" lon="2.43588">
        <ele>43</ele>
        <time>2020-07-22T18:40:35Z</time>
      </trkpt>
      <trkpt lat="48.83785" lon="2.43588">
        <ele>43</ele>
        <time>2020-07-22T18:40:36Z</time>
      </trkpt>
      <trkpt lat="48.83785" lon="2.43588">
        <ele>43</ele>
        <time>2020-07-22T18:40:37Z</time>
      </trkpt>
      <trkpt lat="48.83786" lon="2.43588">
        <ele>43</ele>
        <time>2020-07-22T18:40:38Z</time>
      </trkpt>
      <trkpt lat="48.83786" lon="2.43589">
        <ele>43</ele>
        <time>2020-07-22T18:40:39Z</time>
      </trkpt>
      <trkpt lat="48.83788" lon="2.43589">
        <ele>43</ele>
        <time>2020-07-22T18:40:40Z</time>
      </trkpt>
      <trkpt lat="48.83789" lon="2.43589">
        <ele>43</ele>
        <time>2020-07-22T18:40:41Z</time>
      </trkpt>
      <trkpt lat="48.8379" lon="2.43589">
        <ele>43</ele>
        <time>2020-07-22T18:40:42Z</time>
      </trkpt>
      <trkpt lat="48.83791" lon="2.43589">
        <ele>43</ele>
        <time>2020-07-22T18:40:43Z</time>
      </trkpt>
      <trkpt lat="48.83793" lon="2.43589">
        <ele>43</ele>
        <time>2020-07-22T18:40:44Z</time>
      </trkpt>
      <trkpt lat="48.83795" lon="2.43589">
        <ele>43</ele>
        <time>2020-07-22T18:40:45Z</time>
      </trkpt>
      <trkpt lat="48.83797" lon="2.4359">
        <ele>43</ele>
        <time>2020-07-22T18:40:46Z</time>
      </trkpt>
      <trkpt lat="48.83799" lon="2.4359">
        <ele>43</ele>
        <time>2020-07-22T18:40:47Z</time>
      </trkpt>
      <trkpt lat="48.83801" lon="2.43591">
        <ele>43</ele>
        <time>2020-07-22T18:40:48Z</time>
      </trkpt>
      <trkpt lat="48.83802" lon="2.43591">
        <ele>43</ele>
        <time>2020-07-22T18:40:49Z</time>
      </trkpt>
      <trkpt lat="48.83804" lon="2.43591">
        <ele>43</ele>
        <time>2020-07-22T18:40:50Z</time>
      </trkpt>
      <trkpt lat="48.83805" lon="2.43592">
        <ele>43</ele>
        <time>2020-07-22T18:40:51Z</time>
      </trkpt>
      <trkpt lat="48.83806" lon="2.43592">
        <ele>43</ele>
        <time>2020-07-22T18:40:52Z</time>
      </trkpt>
      <trkpt lat="48.83807" lon="2.43593">
        <ele>43</ele>
        <time>2020-07-22T18:40:53Z</time>
      </trkpt>
      <trkpt lat="48.83809" lon="2.43593">
        <ele>43</ele>
        <time>2020-07-22T18:40:54Z</time>
      </trkpt>
      <trkpt lat="48.8381" lon="2.43594">
        <ele>43</ele>
        <time>2020-07-22T18:40:55Z</time>
      </trkpt>
      <trkpt lat="48.83811" lon="2.43594">
        <ele>43</ele>
        <time>2020-07-22T18:40:56Z</time>
      </trkpt>
      <trkpt lat="48.83812" lon="2.43595">
        <ele>43</ele>
        <time>2020-07-22T18:40:57Z</time>
      </trkpt>
      <trkpt lat="48.83814" lon="2.43595">
        <ele>43</ele>
        <time>2020-07-22T18:40:58Z</time>
      </trkpt>
      <trkpt lat="48.83815" lon="2.43596">
        <ele>43</ele>
        <time>2020-07-22T18:40:59Z</time>
      </trkpt>
      <trkpt lat="48.83816" lon="2.43596">
        <ele>43</ele>
        <time>2020-07-22T18:41:00Z</time>
      </trkpt>
      <trkpt lat="48.83817" lon="2.43596">
        <ele>43</ele>
        <time>2020-07-22T18:41:01Z</time>
      </trkpt>
      <trkpt lat="48.83819" lon="2.43596">
        <ele>43</ele>
        <time>2020-07-22T18:41:02Z</time>
      </trkpt>
      <trkpt lat="48.8382" lon="2.43596">
        <ele>43</ele>
        <time>2020-07-22T18:41:03Z</time>
      </trkpt>
      <trkpt lat="48.83822" lon="2.43596">
        <ele>43</ele>
        <time>2020-07-22T18:41:04Z</time>
      </trkpt>
      <trkpt lat="48.83824" lon="2.43596">
        <ele>43</ele>
        <time>2020-07-22T18:41:05Z</time>
      </trkpt>
      <trkpt lat="48.83826" lon="2.43596">
        <ele>43</ele>
        <time>2020-07-22T18:41:06Z</time>
      </trkpt>
      <trkpt lat="48.83828" lon="2.43596">
        <ele>43</ele>
        <time>2020-07-22T18:41:07Z</time>
      </trkpt>
      <trkpt lat="48.83829" lon="2.43596">
        <ele>43</ele>
        <time>2020-07-22T18:41:08Z</time>
      </trkpt>
      <trkpt lat="48.8383" lon="2.43596">
        <ele>43</ele>
        <time>2020-07-22T18:41:09Z</time>
      </trkpt>
      <trkpt lat="48.83831" lon="2.43596">
        <ele>43</ele>
        <time>2020-07-22T18:41:10Z</time>
      </trkpt>
      <trkpt lat="48.83833" lon="2.43596">
        <ele>43</ele>
        <time>2020-07-22T18:41:11Z</time>
      </trkpt>
      <trkpt lat="48.83834" lon="2.43597">
        <ele>43</ele>
        <time>2020-07-22T18:41:12Z</time>
      </trkpt>
      <trkpt lat="48.83835" lon="2.43597">
        <ele>43</ele>
        <time>2020-07-22T18:41:13Z</time>
      </trkpt>
      <trkpt lat="48.83836" lon="2.43597">
        <ele>43</ele>
        <time>2020-07-22T18:41:14Z</time>
      </trkpt>
      <trkpt lat="48.83836" lon="2.43597">
        <ele>43</ele>
        <time>2020-07-22T18:41:15Z</time>
      </trkpt>
      <trkpt lat="48.83838" lon="2.43598">
        <ele>43</ele>
        <time>2020-07-22T18:41:16Z</time>
      </trkpt>
      <trkpt lat="48.83838" lon="2.43598">
        <ele>43</ele>
        <time>2020-07-22T18:41:17Z</time>
      </trkpt>
      <trkpt lat="48.83839" lon="2.43598">
        <ele>43</ele>
        <time>2020-07-22T18:41:18Z</time>
      </trkpt>
      <trkpt lat="48.8384" lon="2.43599">
        <ele>43</ele>
        <time>2020-07-22T18:41:19Z</time>
      </trkpt>
      <trkpt lat="48.83841" lon="2.43599">
        <ele>43</ele>
        <time>2020-07-22T18:41:20Z</time>
      </trkpt>
      <trkpt lat="48.83842" lon="2.436">
        <ele>43</ele>
        <time>2020-07-22T18:41:21Z</time>
      </trkpt>
      <trkpt lat="48.83843" lon="2.436">
        <ele>43</ele>
        <time>2020-07-22T18:41:22Z</time>
      </trkpt>
      <trkpt lat="48.83844" lon="2.43601">
        <ele>43</ele>
        <time>2020-07-22T18:41:23Z</time>
      </trkpt>
      <trkpt lat="48.83844" lon="2.43601">
        <ele>43</ele>
        <time>2020-07-22T18:41:24Z</time>
      </trkpt>
      <trkpt lat="48.83846" lon="2.43601">
        <ele>43</ele>
        <time>2020-07-22T18:41:25Z</time>
      </trkpt>
      <trkpt lat="48.83846" lon="2.43601">
        <ele>43</ele>
        <time>2020-07-22T18:41:26Z</time>
      </trkpt>
      <trkpt lat="48.83847" lon="2.43602">
        <ele>43</ele>
        <time>2020-07-22T18:41:27Z</time>
      </trkpt>
      <trkpt lat="48.83849" lon="2.43601">
        <ele>44</ele>
        <time>2020-07-22T18:41:28Z</time>
      </trkpt>
      <trkpt lat="48.8385" lon="2.43601">
        <ele>44</ele>
        <time>2020-07-22T18:41:29Z</time>
      </trkpt>
      <trkpt lat="48.83852" lon="2.43601">
        <ele>44</ele>
        <time>2020-07-22T18:41:30Z</time>
      </trkpt>
      <trkpt lat="48.83854" lon="2.436">
        <ele>44</ele>
        <time>2020-07-22T18:41:31Z</time>
      </trkpt>
      <trkpt lat="48.83855" lon="2.436">
        <ele>44</ele>
        <time>2020-07-22T18:41:32Z</time>
      </trkpt>
      <trkpt lat="48.83856" lon="2.436">
        <ele>44</ele>
        <time>2020-07-22T18:41:33Z</time>
      </trkpt>
      <trkpt lat="48.83857" lon="2.43599">
        <ele>44</ele>
        <time>2020-07-22T18:41:34Z</time>
      </trkpt>
      <trkpt lat="48.83859" lon="2.43599">
        <ele>44</ele>
        <time>2020-07-22T18:41:35Z</time>
      </trkpt>
      <trkpt lat="48.8386" lon="2.43599">
        <ele>44</ele>
        <time>2020-07-22T18:41:36Z</time>
      </trkpt>
      <trkpt lat="48.83862" lon="2.43599">
        <ele>44</ele>
        <time>2020-07-22T18:41:37Z</time>
      </trkpt>
      <trkpt lat="48.83863" lon="2.43599">
        <ele>44</ele>
        <time>2020-07-22T18:41:38Z</time>
      </trkpt>
      <trkpt lat="48.83865" lon="2.43599">
        <ele>44</ele>
        <time>2020-07-22T18:41:39Z</time>
      </trkpt>
      <trkpt lat="48.83866" lon="2.43599">
        <ele>44</ele>
        <time>2020-07-22T18:41:40Z</time>
      </trkpt>
      <trkpt lat="48.83867" lon="2.43599">
        <ele>44</ele>
        <time>2020-07-22T18:41:41Z</time>
      </trkpt>
      <trkpt lat="48.83868" lon="2.436">
        <ele>44</ele>
        <time>2020-07-22T18:41:42Z</time>
      </trkpt>
      <trkpt lat="48.8387" lon="2.436">
        <ele>44</ele>
        <time>2020-07-22T18:41:43Z</time>
      </trkpt>
      <trkpt lat="48.83871" lon="2.436">
        <ele>44</ele>
        <time>2020-07-22T18:41:44Z</time>
      </trkpt>
      <trkpt lat="48.83872" lon="2.436">
        <ele>44</ele>
        <time>2020-07-22T18:41:45Z</time>
      </trkpt>
      <trkpt lat="48.83874" lon="2.436">
        <ele>44</ele>
        <time>2020-07-22T18:41:46Z</time>
      </trkpt>
      <trkpt lat="48.83875" lon="2.43599">
        <ele>44</ele>
        <time>2020-07-22T18:41:47Z</time>
      </trkpt>
      <trkpt lat="48.83876" lon="2.43599">
        <ele>44</ele>
        <time>2020-07-22T18:41:48Z</time>
      </trkpt>
      <trkpt lat="48.83877" lon="2.43599">
        <ele>44</ele>
        <time>2020-07-22T18:41:49Z</time>
      </trkpt>
      <trkpt lat="48.83878" lon="2.43598">
        <ele>44</ele>
        <time>2020-07-22T18:41:50Z</time>
      </trkpt>
      <trkpt lat="48.8388" lon="2.43598">
        <ele>44</ele>
        <time>2020-07-22T18:41:51Z</time>
      </trkpt>
      <trkpt lat="48.83881" lon="2.43597">
        <ele>44</ele>
        <time>2020-07-22T18:41:52Z</time>
      </trkpt>
      <trkpt lat="48.83883" lon="2.43596">
        <ele>44</ele>
        <time>2020-07-22T18:41:53Z</time>
      </trkpt>
      <trkpt lat="48.83884" lon="2.43596">
        <ele>44</ele>
        <time>2020-07-22T18:41:54Z</time>
      </trkpt>
      <trkpt lat="48.83886" lon="2.43595">
        <ele>44</ele>
        <time>2020-07-22T18:41:55Z</time>
      </trkpt>
      <trkpt lat="48.83887" lon="2.43594">
        <ele>44</ele>
        <time>2020-07-22T18:41:56Z</time>
      </trkpt>
      <trkpt lat="48.83889" lon="2.43593">
        <ele>44</ele>
        <time>2020-07-22T18:41:57Z</time>
      </trkpt>
      <trkpt lat="48.8389" lon="2.43592">
        <ele>44</ele>
        <time>2020-07-22T18:41:58Z</time>
      </trkpt>
      <trkpt lat="48.83892" lon="2.43591">
        <ele>44</ele>
        <time>2020-07-22T18:41:59Z</time>
      </trkpt>
      <trkpt lat="48.83894" lon="2.4359">
        <ele>44</ele>
        <time>2020-07-22T18:42:00Z</time>
      </trkpt>
      <trkpt lat="48.83895" lon="2.43589">
        <ele>44</ele>
        <time>2020-07-22T18:42:01Z</time>
      </trkpt>
      <trkpt lat="48.83896" lon="2.43588">
        <ele>44</ele>
        <time>2020-07-22T18:42:02Z</time>
      </trkpt>
      <trkpt lat="48.83898" lon="2.43588">
        <ele>44</ele>
        <time>2020-07-22T18:42:03Z</time>
      </trkpt>
      <trkpt lat="48.83899" lon="2.43587">
        <ele>44</ele>
        <time>2020-07-22T18:42:04Z</time>
      </trkpt>
      <trkpt lat="48.839" lon="2.43586">
        <ele>44</ele>
        <time>2020-07-22T18:42:05Z</time>
      </trkpt>
      <trkpt lat="48.83901" lon="2.43585">
        <ele>44</ele>
        <time>2020-07-22T18:42:06Z</time>
      </trkpt>
      <trkpt lat="48.83902" lon="2.43583">
        <ele>44</ele>
        <time>2020-07-22T18:42:07Z</time>
      </trkpt>
      <trkpt lat="48.83903" lon="2.43582">
        <ele>44</ele>
        <time>2020-07-22T18:42:08Z</time>
      </trkpt>
      <trkpt lat="48.83904" lon="2.4358">
        <ele>44</ele>
        <time>2020-07-22T18:42:09Z</time>
      </trkpt>
      <trkpt lat="48.83904" lon="2.43579">
        <ele>44</ele>
        <time>2020-07-22T18:42:10Z</time>
      </trkpt>
      <trkpt lat="48.83905" lon="2.43577">
        <ele>44</ele>
        <time>2020-07-22T18:42:11Z</time>
      </trkpt>
      <trkpt lat="48.83906" lon="2.43576">
        <ele>44</ele>
        <time>2020-07-22T18:42:12Z</time>
      </trkpt>
      <trkpt lat="48.83907" lon="2.43575">
        <ele>44</ele>
        <time>2020-07-22T18:42:13Z</time>
      </trkpt>
      <trkpt lat="48.83909" lon="2.43575">
        <ele>43</ele>
        <time>2020-07-22T18:42:14Z</time>
      </trkpt>
      <trkpt lat="48.8391" lon="2.43575">
        <ele>43</ele>
        <time>2020-07-22T18:42:15Z</time>
      </trkpt>
      <trkpt lat="48.83911" lon="2.43576">
        <ele>43</ele>
        <time>2020-07-22T18:42:16Z</time>
      </trkpt>
      <trkpt lat="48.83912" lon="2.43576">
        <ele>43</ele>
        <time>2020-07-22T18:42:17Z</time>
      </trkpt>
      <trkpt lat="48.83913" lon="2.43577">
        <ele>43</ele>
        <time>2020-07-22T18:42:18Z</time>
      </trkpt>
      <trkpt lat="48.83914" lon="2.43578">
        <ele>43</ele>
        <time>2020-07-22T18:42:19Z</time>
      </trkpt>
      <trkpt lat="48.83916" lon="2.43579">
        <ele>43</ele>
        <time>2020-07-22T18:42:20Z</time>
      </trkpt>
      <trkpt lat="48.83917" lon="2.4358">
        <ele>43</ele>
        <time>2020-07-22T18:42:21Z</time>
      </trkpt>
      <trkpt lat="48.83918" lon="2.43581">
        <ele>43</ele>
        <time>2020-07-22T18:42:22Z</time>
      </trkpt>
      <trkpt lat="48.8392" lon="2.43582">
        <ele>44</ele>
        <time>2020-07-22T18:42:23Z</time>
      </trkpt>
      <trkpt lat="48.8392" lon="2.43582">
        <ele>44</ele>
        <time>2020-07-22T18:42:24Z</time>
      </trkpt>
      <trkpt lat="48.83921" lon="2.43582">
        <ele>44</ele>
        <time>2020-07-22T18:42:25Z</time>
      </trkpt>
      <trkpt lat="48.83922" lon="2.43582">
        <ele>44</ele>
        <time>2020-07-22T18:42:26Z</time>
      </trkpt>
      <trkpt lat="48.83923" lon="2.43583">
        <ele>44</ele>
        <time>2020-07-22T18:42:27Z</time>
      </trkpt>
      <trkpt lat="48.83924" lon="2.43583">
        <ele>44</ele>
        <time>2020-07-22T18:42:28Z</time>
      </trkpt>
      <trkpt lat="48.83926" lon="2.43583">
        <ele>44</ele>
        <time>2020-07-22T18:42:29Z</time>
      </trkpt>
      <trkpt lat="48.83927" lon="2.43583">
        <ele>44</ele>
        <time>2020-07-22T18:42:30Z</time>
      </trkpt>
      <trkpt lat="48.83928" lon="2.43584">
        <ele>44</ele>
        <time>2020-07-22T18:42:31Z</time>
      </trkpt>
      <trkpt lat="48.83929" lon="2.43584">
        <ele>44</ele>
        <time>2020-07-22T18:42:32Z</time>
      </trkpt>
      <trkpt lat="48.8393" lon="2.43584">
        <ele>44</ele>
        <time>2020-07-22T18:42:33Z</time>
      </trkpt>
      <trkpt lat="48.83931" lon="2.43584">
        <ele>44</ele>
        <time>2020-07-22T18:42:34Z</time>
      </trkpt>
      <trkpt lat="48.83933" lon="2.43584">
        <ele>44</ele>
        <time>2020-07-22T18:42:35Z</time>
      </trkpt>
      <trkpt lat="48.83934" lon="2.43584">
        <ele>44</ele>
        <time>2020-07-22T18:42:36Z</time>
      </trkpt>
      <trkpt lat="48.83936" lon="2.43584">
        <ele>44</ele>
        <time>2020-07-22T18:42:37Z</time>
      </trkpt>
      <trkpt lat="48.83937" lon="2.43585">
        <ele>44</ele>
        <time>2020-07-22T18:42:38Z</time>
      </trkpt>
      <trkpt lat="48.83938" lon="2.43585">
        <ele>44</ele>
        <time>2020-07-22T18:42:39Z</time>
      </trkpt>
      <trkpt lat="48.83939" lon="2.43586">
        <ele>44</ele>
        <time>2020-07-22T18:42:40Z</time>
      </trkpt>
      <trkpt lat="48.83941" lon="2.43586">
        <ele>44</ele>
        <time>2020-07-22T18:42:41Z</time>
      </trkpt>
      <trkpt lat="48.83941" lon="2.43587">
        <ele>44</ele>
        <time>2020-07-22T18:42:42Z</time>
      </trkpt>
      <trkpt lat="48.83943" lon="2.43588">
        <ele>44</ele>
        <time>2020-07-22T18:42:43Z</time>
      </trkpt>
      <trkpt lat="48.83944" lon="2.4359">
        <ele>44</ele>
        <time>2020-07-22T18:42:44Z</time>
      </trkpt>
      <trkpt lat="48.83945" lon="2.43591">
        <ele>44</ele>
        <time>2020-07-22T18:42:45Z</time>
      </trkpt>
      <trkpt lat="48.83946" lon="2.43593">
        <ele>44</ele>
        <time>2020-07-22T18:42:46Z</time>
      </trkpt>
      <trkpt lat="48.83947" lon="2.43594">
        <ele>44</ele>
        <time>2020-07-22T18:42:47Z</time>
      </trkpt>
      <trkpt lat="48.83949" lon="2.43596">
        <ele>44</ele>
        <time>2020-07-22T18:42:48Z</time>
      </trkpt>
      <trkpt lat="48.8395" lon="2.43598">
        <ele>44</ele>
        <time>2020-07-22T18:42:49Z</time>
      </trkpt>
      <trkpt lat="48.8395" lon="2.436">
        <ele>44</ele>
        <time>2020-07-22T18:42:50Z</time>
      </trkpt>
      <trkpt lat="48.83951" lon="2.43601">
        <ele>44</ele>
        <time>2020-07-22T18:42:51Z</time>
      </trkpt>
      <trkpt lat="48.83952" lon="2.43603">
        <ele>44</ele>
        <time>2020-07-22T18:42:52Z</time>
      </trkpt>
      <trkpt lat="48.83952" lon="2.43604">
        <ele>44</ele>
        <time>2020-07-22T18:42:53Z</time>
      </trkpt>
      <trkpt lat="48.83953" lon="2.43605">
        <ele>44</ele>
        <time>2020-07-22T18:42:54Z</time>
      </trkpt>
      <trkpt lat="48.83954" lon="2.43606">
        <ele>44</ele>
        <time>2020-07-22T18:42:55Z</time>
      </trkpt>
      <trkpt lat="48.83955" lon="2.43606">
        <ele>44</ele>
        <time>2020-07-22T18:42:56Z</time>
      </trkpt>
      <trkpt lat="48.83956" lon="2.43606">
        <ele>44</ele>
        <time>2020-07-22T18:42:57Z</time>
      </trkpt>
      <trkpt lat="48.83957" lon="2.43606">
        <ele>44</ele>
        <time>2020-07-22T18:42:58Z</time>
      </trkpt>
      <trkpt lat="48.83958" lon="2.43606">
        <ele>44</ele>
        <time>2020-07-22T18:42:59Z</time>
      </trkpt>
      <trkpt lat="48.83959" lon="2.43606">
        <ele>44</ele>
        <time>2020-07-22T18:43:00Z</time>
      </trkpt>
      <trkpt lat="48.83961" lon="2.43605">
        <ele>44</ele>
        <time>2020-07-22T18:43:01Z</time>
      </trkpt>
      <trkpt lat="48.83962" lon="2.43605">
        <ele>44</ele>
        <time>2020-07-22T18:43:02Z</time>
      </trkpt>
      <trkpt lat="48.83963" lon="2.43605">
        <ele>44</ele>
        <time>2020-07-22T18:43:03Z</time>
      </trkpt>
      <trkpt lat="48.83965" lon="2.43604">
        <ele>44</ele>
        <time>2020-07-22T18:43:04Z</time>
      </trkpt>
      <trkpt lat="48.83965" lon="2.43604">
        <ele>44</ele>
        <time>2020-07-22T18:43:05Z</time>
      </trkpt>
      <trkpt lat="48.83967" lon="2.43604">
        <ele>44</ele>
        <time>2020-07-22T18:43:06Z</time>
      </trkpt>
      <trkpt lat="48.83968" lon="2.43603">
        <ele>44</ele>
        <time>2020-07-22T18:43:07Z</time>
      </trkpt>
      <trkpt lat="48.83969" lon="2.43603">
        <ele>45</ele>
        <time>2020-07-22T18:43:08Z</time>
      </trkpt>
      <trkpt lat="48.8397" lon="2.43602">
        <ele>45</ele>
        <time>2020-07-22T18:43:09Z</time>
      </trkpt>
      <trkpt lat="48.83971" lon="2.43601">
        <ele>45</ele>
        <time>2020-07-22T18:43:10Z</time>
      </trkpt>
      <trkpt lat="48.83973" lon="2.43601">
        <ele>45</ele>
        <time>2020-07-22T18:43:11Z</time>
      </trkpt>
      <trkpt lat="48.83974" lon="2.436">
        <ele>45</ele>
        <time>2020-07-22T18:43:12Z</time>
      </trkpt>
      <trkpt lat="48.83975" lon="2.43599">
        <ele>45</ele>
        <time>2020-07-22T18:43:13Z</time>
      </trkpt>
      <trkpt lat="48.83976" lon="2.43599">
        <ele>45</ele>
        <time>2020-07-22T18:43:14Z</time>
      </trkpt>
      <trkpt lat="48.83977" lon="2.43598">
        <ele>45</ele>
        <time>2020-07-22T18:43:15Z</time>
      </trkpt>
      <trkpt lat="48.83979" lon="2.43598">
        <ele>45</ele>
        <time>2020-07-22T18:43:16Z</time>
      </trkpt>
      <trkpt lat="48.8398" lon="2.43598">
        <ele>45</ele>
        <time>2020-07-22T18:43:17Z</time>
      </trkpt>
      <trkpt lat="48.83981" lon="2.43597">
        <ele>45</ele>
        <time>2020-07-22T18:43:18Z</time>
      </trkpt>
      <trkpt lat="48.83983" lon="2.43597">
        <ele>45</ele>
        <time>2020-07-22T18:43:19Z</time>
      </trkpt>
      <trkpt lat="48.83984" lon="2.43597">
        <ele>45</ele>
        <time>2020-07-22T18:43:20Z</time>
      </trkpt>
      <trkpt lat="48.83985" lon="2.43597">
        <ele>45</ele>
        <time>2020-07-22T18:43:21Z</time>
      </trkpt>
      <trkpt lat="48.83986" lon="2.43596">
        <ele>45</ele>
        <time>2020-07-22T18:43:22Z</time>
      </trkpt>
      <trkpt lat="48.83987" lon="2.43596">
        <ele>45</ele>
        <time>2020-07-22T18:43:23Z</time>
      </trkpt>
      <trkpt lat="48.83989" lon="2.43596">
        <ele>45</ele>
        <time>2020-07-22T18:43:24Z</time>
      </trkpt>
      <trkpt lat="48.8399" lon="2.43596">
        <ele>45</ele>
        <time>2020-07-22T18:43:25Z</time>
      </trkpt>
      <trkpt lat="48.83991" lon="2.43596">
        <ele>45</ele>
        <time>2020-07-22T18:43:26Z</time>
      </trkpt>
      <trkpt lat="48.83992" lon="2.43596">
        <ele>45</ele>
        <time>2020-07-22T18:43:27Z</time>
      </trkpt>
      <trkpt lat="48.83993" lon="2.43595">
        <ele>45</ele>
        <time>2020-07-22T18:43:28Z</time>
      </trkpt>
      <trkpt lat="48.83994" lon="2.43595">
        <ele>45</ele>
        <time>2020-07-22T18:43:29Z</time>
      </trkpt>
      <trkpt lat="48.83995" lon="2.43594">
        <ele>45</ele>
        <time>2020-07-22T18:43:30Z</time>
      </trkpt>
      <trkpt lat="48.83997" lon="2.43593">
        <ele>45</ele>
        <time>2020-07-22T18:43:31Z</time>
      </trkpt>
      <trkpt lat="48.83998" lon="2.43592">
        <ele>45</ele>
        <time>2020-07-22T18:43:32Z</time>
      </trkpt>
      <trkpt lat="48.83999" lon="2.43592">
        <ele>45</ele>
        <time>2020-07-22T18:43:33Z</time>
      </trkpt>
      <trkpt lat="48.84001" lon="2.43591">
        <ele>45</ele>
        <time>2020-07-22T18:43:34Z</time>
      </trkpt>
      <trkpt lat="48.84002" lon="2.4359">
        <ele>45</ele>
        <time>2020-07-22T18:43:35Z</time>
      </trkpt>
      <trkpt lat="48.84003" lon="2.4359">
        <ele>45</ele>
        <time>2020-07-22T18:43:36Z</time>
      </trkpt>
      <trkpt lat="48.84005" lon="2.43589">
        <ele>45</ele>
        <time>2020-07-22T18:43:37Z</time>
      </trkpt>
      <trkpt lat="48.84006" lon="2.43589">
        <ele>45</ele>
        <time>2020-07-22T18:43:38Z</time>
      </trkpt>
      <trkpt lat="48.84007" lon="2.43589">
        <ele>45</ele>
        <time>2020-07-22T18:43:39Z</time>
      </trkpt>
      <trkpt lat="48.84008" lon="2.43588">
        <ele>45</ele>
        <time>2020-07-22T18:43:40Z</time>
      </trkpt>
      <trkpt lat="48.84009" lon="2.43588">
        <ele>45</ele>
        <time>2020-07-22T18:43:41Z</time>
      </trkpt>
      <trkpt lat="48.8401" lon="2.43587">
        <ele>45</ele>
        <time>2020-07-22T18:43:42Z</time>
      </trkpt>
      <trkpt lat="48.84011" lon="2.43586">
        <ele>46</ele>
        <time>2020-07-22T18:43:43Z</time>
      </trkpt>
      <trkpt lat="48.84012" lon="2.43586">
        <ele>46</ele>
        <time>2020-07-22T18:43:44Z</time>
      </trkpt>
      <trkpt lat="48.84013" lon="2.43585">
        <ele>46</ele>
        <time>2020-07-22T18:43:45Z</time>
      </trkpt>
      <trkpt lat="48.84015" lon="2.43584">
        <ele>46</ele>
        <time>2020-07-22T18:43:46Z</time>
      </trkpt>
      <trkpt lat="48.84016" lon="2.43584">
        <ele>46</ele>
        <time>2020-07-22T18:43:47Z</time>
      </trkpt>
      <trkpt lat="48.84017" lon="2.43583">
        <ele>46</ele>
        <time>2020-07-22T18:43:48Z</time>
      </trkpt>
      <trkpt lat="48.84018" lon="2.43583">
        <ele>46</ele>
        <time>2020-07-22T18:43:49Z</time>
      </trkpt>
      <trkpt lat="48.84019" lon="2.43582">
        <ele>46</ele>
        <time>2020-07-22T18:43:50Z</time>
      </trkpt>
      <trkpt lat="48.8402" lon="2.43581">
        <ele>46</ele>
        <time>2020-07-22T18:43:51Z</time>
      </trkpt>
      <trkpt lat="48.84021" lon="2.43581">
        <ele>46</ele>
        <time>2020-07-22T18:43:52Z</time>
      </trkpt>
      <trkpt lat="48.84023" lon="2.4358">
        <ele>46</ele>
        <time>2020-07-22T18:43:53Z</time>
      </trkpt>
      <trkpt lat="48.84024" lon="2.4358">
        <ele>46</ele>
        <time>2020-07-22T18:43:54Z</time>
      </trkpt>
      <trkpt lat="48.84025" lon="2.4358">
        <ele>46</ele>
        <time>2020-07-22T18:43:55Z</time>
      </trkpt>
      <trkpt lat="48.84027" lon="2.4358">
        <ele>46</ele>
        <time>2020-07-22T18:43:56Z</time>
      </trkpt>
      <trkpt lat="48.84028" lon="2.43579">
        <ele>46</ele>
        <time>2020-07-22T18:43:57Z</time>
      </trkpt>
      <trkpt lat="48.84029" lon="2.43579">
        <ele>46</ele>
        <time>2020-07-22T18:43:58Z</time>
      </trkpt>
      <trkpt lat="48.84031" lon="2.43578">
        <ele>46</ele>
        <time>2020-07-22T18:43:59Z</time>
      </trkpt>
      <trkpt lat="48.84032" lon="2.43577">
        <ele>46</ele>
        <time>2020-07-22T18:44:00Z</time>
      </trkpt>
      <trkpt lat="48.84033" lon="2.43576">
        <ele>46</ele>
        <time>2020-07-22T18:44:01Z</time>
      </trkpt>
      <trkpt lat="48.84034" lon="2.43575">
        <ele>46</ele>
        <time>2020-07-22T18:44:02Z</time>
      </trkpt>
      <trkpt lat="48.84035" lon="2.43574">
        <ele>46</ele>
        <time>2020-07-22T18:44:03Z</time>
      </trkpt>
      <trkpt lat="48.84036" lon="2.43572">
        <ele>46</ele>
        <time>2020-07-22T18:44:04Z</time>
      </trkpt>
      <trkpt lat="48.84036" lon="2.4357">
        <ele>46</ele>
        <time>2020-07-22T18:44:05Z</time>
      </trkpt>
      <trkpt lat="48.84036" lon="2.43569">
        <ele>46</ele>
        <time>2020-07-22T18:44:06Z</time>
      </trkpt>
      <trkpt lat="48.84037" lon="2.43567">
        <ele>46</ele>
        <time>2020-07-22T18:44:07Z</time>
      </trkpt>
      <trkpt lat="48.84037" lon="2.43565">
        <ele>46</ele>
        <time>2020-07-22T18:44:08Z</time>
      </trkpt>
      <trkpt lat="48.84037" lon="2.43563">
        <ele>46</ele>
        <time>2020-07-22T18:44:09Z</time>
      </trkpt>
      <trkpt lat="48.84038" lon="2.43562">
        <ele>46</ele>
        <time>2020-07-22T18:44:10Z</time>
      </trkpt>
      <trkpt lat="48.84038" lon="2.4356">
        <ele>46</ele>
        <time>2020-07-22T18:44:11Z</time>
      </trkpt>
      <trkpt lat="48.84039" lon="2.43559">
        <ele>46</ele>
        <time>2020-07-22T18:44:12Z</time>
      </trkpt>
      <trkpt lat="48.84039" lon="2.43557">
        <ele>46</ele>
        <time>2020-07-22T18:44:13Z</time>
      </trkpt>
      <trkpt lat="48.84039" lon="2.43556">
        <ele>46</ele>
        <time>2020-07-22T18:44:14Z</time>
      </trkpt>
      <trkpt lat="48.84039" lon="2.43554">
        <ele>46</ele>
        <time>2020-07-22T18:44:15Z</time>
      </trkpt>
      <trkpt lat="48.84039" lon="2.43552">
        <ele>46</ele>
        <time>2020-07-22T18:44:16Z</time>
      </trkpt>
      <trkpt lat="48.84039" lon="2.43551">
        <ele>46</ele>
        <time>2020-07-22T18:44:17Z</time>
      </trkpt>
      <trkpt lat="48.84039" lon="2.43549">
        <ele>46</ele>
        <time>2020-07-22T18:44:18Z</time>
      </trkpt>
      <trkpt lat="48.84039" lon="2.43547">
        <ele>46</ele>
        <time>2020-07-22T18:44:19Z</time>
      </trkpt>
      <trkpt lat="48.84039" lon="2.43546">
        <ele>46</ele>
        <time>2020-07-22T18:44:20Z</time>
      </trkpt>
      <trkpt lat="48.84039" lon="2.43544">
        <ele>46</ele>
        <time>2020-07-22T18:44:21Z</time>
      </trkpt>
      <trkpt lat="48.8404" lon="2.43542">
        <ele>46</ele>
        <time>2020-07-22T18:44:22Z</time>
      </trkpt>
      <trkpt lat="48.8404" lon="2.43541">
        <ele>46</ele>
        <time>2020-07-22T18:44:23Z</time>
      </trkpt>
      <trkpt lat="48.84041" lon="2.43539">
        <ele>46</ele>
        <time>2020-07-22T18:44:24Z</time>
      </trkpt>
      <trkpt lat="48.84041" lon="2.43537">
        <ele>46</ele>
        <time>2020-07-22T18:44:25Z</time>
      </trkpt>
      <trkpt lat="48.84041" lon="2.43535">
        <ele>46</ele>
        <time>2020-07-22T18:44:26Z</time>
      </trkpt>
      <trkpt lat="48.84042" lon="2.43533">
        <ele>46</ele>
        <time>2020-07-22T18:44:27Z</time>
      </trkpt>
      <trkpt lat="48.84042" lon="2.43531">
        <ele>46</ele>
        <time>2020-07-22T18:44:28Z</time>
      </trkpt>
      <trkpt lat="48.84043" lon="2.43529">
        <ele>46</ele>
        <time>2020-07-22T18:44:29Z</time>
      </trkpt>
      <trkpt lat="48.84043" lon="2.43527">
        <ele>46</ele>
        <time>2020-07-22T18:44:30Z</time>
      </trkpt>
      <trkpt lat="48.84044" lon="2.43526">
        <ele>46</ele>
        <time>2020-07-22T18:44:31Z</time>
      </trkpt>
      <trkpt lat="48.84044" lon="2.43524">
        <ele>46</ele>
        <time>2020-07-22T18:44:32Z</time>
      </trkpt>
      <trkpt lat="48.84045" lon="2.43522">
        <ele>46</ele>
        <time>2020-07-22T18:44:33Z</time>
      </trkpt>
      <trkpt lat="48.84045" lon="2.43521">
        <ele>46</ele>
        <time>2020-07-22T18:44:34Z</time>
      </trkpt>
      <trkpt lat="48.84046" lon="2.43519">
        <ele>46</ele>
        <time>2020-07-22T18:44:35Z</time>
      </trkpt>
      <trkpt lat="48.84047" lon="2.43518">
        <ele>46</ele>
        <time>2020-07-22T18:44:36Z</time>
      </trkpt>
      <trkpt lat="48.84047" lon="2.43516">
        <ele>46</ele>
        <time>2020-07-22T18:44:37Z</time>
      </trkpt>
      <trkpt lat="48.84047" lon="2.43515">
        <ele>46</ele>
        <time>2020-07-22T18:44:38Z</time>
      </trkpt>
      <trkpt lat="48.84048" lon="2.43513">
        <ele>46</ele>
        <time>2020-07-22T18:44:39Z</time>
      </trkpt>
      <trkpt lat="48.84048" lon="2.43511">
        <ele>46</ele>
        <time>2020-07-22T18:44:40Z</time>
      </trkpt>
      <trkpt lat="48.84049" lon="2.43509">
        <ele>46</ele>
        <time>2020-07-22T18:44:41Z</time>
      </trkpt>
      <trkpt lat="48.84049" lon="2.43507">
        <ele>46</ele>
        <time>2020-07-22T18:44:42Z</time>
      </trkpt>
      <trkpt lat="48.8405" lon="2.43506">
        <ele>46</ele>
        <time>2020-07-22T18:44:43Z</time>
      </trkpt>
      <trkpt lat="48.8405" lon="2.43504">
        <ele>46</ele>
        <time>2020-07-22T18:44:44Z</time>
      </trkpt>
      <trkpt lat="48.8405" lon="2.43502">
        <ele>46</ele>
        <time>2020-07-22T18:44:45Z</time>
      </trkpt>
      <trkpt lat="48.84051" lon="2.435">
        <ele>46</ele>
        <time>2020-07-22T18:44:46Z</time>
      </trkpt>
      <trkpt lat="48.84051" lon="2.43499">
        <ele>46</ele>
        <time>2020-07-22T18:44:47Z</time>
      </trkpt>
      <trkpt lat="48.84052" lon="2.43497">
        <ele>46</ele>
        <time>2020-07-22T18:44:48Z</time>
      </trkpt>
      <trkpt lat="48.84052" lon="2.43496">
        <ele>46</ele>
        <time>2020-07-22T18:44:49Z</time>
      </trkpt>
      <trkpt lat="48.84052" lon="2.43494">
        <ele>46</ele>
        <time>2020-07-22T18:44:50Z</time>
      </trkpt>
      <trkpt lat="48.84053" lon="2.43492">
        <ele>46</ele>
        <time>2020-07-22T18:44:51Z</time>
      </trkpt>
      <trkpt lat="48.84053" lon="2.43491">
        <ele>46</ele>
        <time>2020-07-22T18:44:52Z</time>
      </trkpt>
      <trkpt lat="48.84053" lon="2.43489">
        <ele>46</ele>
        <time>2020-07-22T18:44:53Z</time>
      </trkpt>
      <trkpt lat="48.84054" lon="2.43487">
        <ele>46</ele>
        <time>2020-07-22T18:44:54Z</time>
      </trkpt>
      <trkpt lat="48.84054" lon="2.43486">
        <ele>46</ele>
        <time>2020-07-22T18:44:55Z</time>
      </trkpt>
      <trkpt lat="48.84054" lon="2.43484">
        <ele>46</ele>
        <time>2020-07-22T18:44:56Z</time>
      </trkpt>
      <trkpt lat="48.84054" lon="2.43482">
        <ele>46</ele>
        <time>2020-07-22T18:44:57Z</time>
      </trkpt>
      <trkpt lat="48.84054" lon="2.43481">
        <ele>46</ele>
        <time>2020-07-22T18:44:58Z</time>
      </trkpt>
      <trkpt lat="48.84053" lon="2.43479">
        <ele>46</ele>
        <time>2020-07-22T18:44:59Z</time>
      </trkpt>
      <trkpt lat="48.84053" lon="2.43478">
        <ele>46</ele>
        <time>2020-07-22T18:45:00Z</time>
      </trkpt>
      <trkpt lat="48.84053" lon="2.43476">
        <ele>46</ele>
        <time>2020-07-22T18:45:01Z</time>
      </trkpt>
      <trkpt lat="48.84053" lon="2.43475">
        <ele>46</ele>
        <time>2020-07-22T18:45:02Z</time>
      </trkpt>
      <trkpt lat="48.84052" lon="2.43473">
        <ele>46</ele>
        <time>2020-07-22T18:45:03Z</time>
      </trkpt>
      <trkpt lat="48.84052" lon="2.43472">
        <ele>46</ele>
        <time>2020-07-22T18:45:04Z</time>
      </trkpt>
      <trkpt lat="48.84052" lon="2.4347">
        <ele>46</ele>
        <time>2020-07-22T18:45:05Z</time>
      </trkpt>
      <trkpt lat="48.84052" lon="2.43468">
        <ele>46</ele>
        <time>2020-07-22T18:45:06Z</time>
      </trkpt>
      <trkpt lat="48.84051" lon="2.43467">
        <ele>46</ele>
        <time>2020-07-22T18:45:07Z</time>
      </trkpt>
      <trkpt lat="48.84051" lon="2.43465">
        <ele>46</ele>
        <time>2020-07-22T18:45:08Z</time>
      </trkpt>
      <trkpt lat="48.84051" lon="2.43464">
        <ele>46</ele>
        <time>2020-07-22T18:45:09Z</time>
      </trkpt>
      <trkpt lat="48.84051" lon="2.43462">
        <ele>46</ele>
        <time>2020-07-22T18:45:10Z</time>
      </trkpt>
      <trkpt lat="48.84051" lon="2.4346">
        <ele>46</ele>
        <time>2020-07-22T18:45:11Z</time>
      </trkpt>
      <trkpt lat="48.84051" lon="2.43458">
        <ele>46</ele>
        <time>2020-07-22T18:45:12Z</time>
      </trkpt>
      <trkpt lat="48.84052" lon="2.43456">
        <ele>46</ele>
        <time>2020-07-22T18:45:13Z</time>
      </trkpt>
      <trkpt lat="48.84053" lon="2.43455">
        <ele>46</ele>
        <time>2020-07-22T18:45:14Z</time>
      </trkpt>
      <trkpt lat="48.84053" lon="2.43454">
        <ele>46</ele>
        <time>2020-07-22T18:45:15Z</time>
      </trkpt>
      <trkpt lat="48.84055" lon="2.43453">
        <ele>46</ele>
        <time>2020-07-22T18:45:16Z</time>
      </trkpt>
      <trkpt lat="48.84056" lon="2.43452">
        <ele>46</ele>
        <time>2020-07-22T18:45:17Z</time>
      </trkpt>
      <trkpt lat="48.84057" lon="2.43451">
        <ele>46</ele>
        <time>2020-07-22T18:45:18Z</time>
      </trkpt>
      <trkpt lat="48.84058" lon="2.43451">
        <ele>46</ele>
        <time>2020-07-22T18:45:19Z</time>
      </trkpt>
      <trkpt lat="48.84059" lon="2.4345">
        <ele>46</ele>
        <time>2020-07-22T18:45:20Z</time>
      </trkpt>
      <trkpt lat="48.84061" lon="2.4345">
        <ele>46</ele>
        <time>2020-07-22T18:45:21Z</time>
      </trkpt>
      <trkpt lat="48.84061" lon="2.43449">
        <ele>46</ele>
        <time>2020-07-22T18:45:22Z</time>
      </trkpt>
      <trkpt lat="48.84063" lon="2.43448">
        <ele>46</ele>
        <time>2020-07-22T18:45:23Z</time>
      </trkpt>
      <trkpt lat="48.84063" lon="2.43447">
        <ele>46</ele>
        <time>2020-07-22T18:45:24Z</time>
      </trkpt>
      <trkpt lat="48.84065" lon="2.43446">
        <ele>46</ele>
        <time>2020-07-22T18:45:25Z</time>
      </trkpt>
      <trkpt lat="48.84066" lon="2.43445">
        <ele>46</ele>
        <time>2020-07-22T18:45:26Z</time>
      </trkpt>
      <trkpt lat="48.84066" lon="2.43444">
        <ele>46</ele>
        <time>2020-07-22T18:45:27Z</time>
      </trkpt>
      <trkpt lat="48.84068" lon="2.43443">
        <ele>46</ele>
        <time>2020-07-22T18:45:28Z</time>
      </trkpt>
      <trkpt lat="48.84068" lon="2.43442">
        <ele>46</ele>
        <time>2020-07-22T18:45:29Z</time>
      </trkpt>
      <trkpt lat="48.84069" lon="2.43441">
        <ele>46</ele>
        <time>2020-07-22T18:45:30Z</time>
      </trkpt>
      <trkpt lat="48.8407" lon="2.43439">
        <ele>46</ele>
        <time>2020-07-22T18:45:31Z</time>
      </trkpt>
      <trkpt lat="48.84071" lon="2.43438">
        <ele>46</ele>
        <time>2020-07-22T18:45:32Z</time>
      </trkpt>
      <trkpt lat="48.84071" lon="2.43436">
        <ele>46</ele>
        <time>2020-07-22T18:45:33Z</time>
      </trkpt>
      <trkpt lat="48.84072" lon="2.43435">
        <ele>46</ele>
        <time>2020-07-22T18:45:34Z</time>
      </trkpt>
      <trkpt lat="48.84073" lon="2.43433">
        <ele>46</ele>
        <time>2020-07-22T18:45:35Z</time>
      </trkpt>
      <trkpt lat="48.84073" lon="2.43431">
        <ele>46</ele>
        <time>2020-07-22T18:45:36Z</time>
      </trkpt>
      <trkpt lat="48.84073" lon="2.43429">
        <ele>46</ele>
        <time>2020-07-22T18:45:37Z</time>
      </trkpt>
      <trkpt lat="48.84074" lon="2.43428">
        <ele>46</ele>
        <time>2020-07-22T18:45:38Z</time>
      </trkpt>
      <trkpt lat="48.84074" lon="2.43426">
        <ele>46</ele>
        <time>2020-07-22T18:45:39Z</time>
      </trkpt>
      <trkpt lat="48.84074" lon="2.43424">
        <ele>46</ele>
        <time>2020-07-22T18:45:40Z</time>
      </trkpt>
      <trkpt lat="48.84075" lon="2.43423">
        <ele>46</ele>
        <time>2020-07-22T18:45:41Z</time>
      </trkpt>
      <trkpt lat="48.84076" lon="2.43421">
        <ele>46</ele>
        <time>2020-07-22T18:45:42Z</time>
      </trkpt>
      <trkpt lat="48.84076" lon="2.4342">
        <ele>46</ele>
        <time>2020-07-22T18:45:43Z</time>
      </trkpt>
      <trkpt lat="48.84077" lon="2.43419">
        <ele>46</ele>
        <time>2020-07-22T18:45:44Z</time>
      </trkpt>
      <trkpt lat="48.84078" lon="2.43418">
        <ele>46</ele>
        <time>2020-07-22T18:45:45Z</time>
      </trkpt>
      <trkpt lat="48.84078" lon="2.43417">
        <ele>46</ele>
        <time>2020-07-22T18:45:46Z</time>
      </trkpt>
      <trkpt lat="48.84079" lon="2.43417">
        <ele>46</ele>
        <time>2020-07-22T18:45:47Z</time>
      </trkpt>
      <trkpt lat="48.84081" lon="2.43417">
        <ele>46</ele>
        <time>2020-07-22T18:45:48Z</time>
      </trkpt>
      <trkpt lat="48.84081" lon="2.43416">
        <ele>46</ele>
        <time>2020-07-22T18:45:49Z</time>
      </trkpt>
      <trkpt lat="48.84082" lon="2.43416">
        <ele>46</ele>
        <time>2020-07-22T18:45:50Z</time>
      </trkpt>
      <trkpt lat="48.84084" lon="2.43416">
        <ele>46</ele>
        <time>2020-07-22T18:45:51Z</time>
      </trkpt>
      <trkpt lat="48.84085" lon="2.43416">
        <ele>46</ele>
        <time>2020-07-22T18:45:52Z</time>
      </trkpt>
      <trkpt lat="48.84086" lon="2.43416">
        <ele>46</ele>
        <time>2020-07-22T18:45:53Z</time>
      </trkpt>
      <trkpt lat="48.84088" lon="2.43416">
        <ele>46</ele>
        <time>2020-07-22T18:45:54Z</time>
      </trkpt>
      <trkpt lat="48.84089" lon="2.43416">
        <ele>46</ele>
        <time>2020-07-22T18:45:55Z</time>
      </trkpt>
      <trkpt lat="48.8409" lon="2.43415">
        <ele>46</ele>
        <time>2020-07-22T18:45:56Z</time>
      </trkpt>
      <trkpt lat="48.84091" lon="2.43415">
        <ele>46</ele>
        <time>2020-07-22T18:45:57Z</time>
      </trkpt>
      <trkpt lat="48.84092" lon="2.43414">
        <ele>46</ele>
        <time>2020-07-22T18:45:58Z</time>
      </trkpt>
      <trkpt lat="48.84092" lon="2.43413">
        <ele>46</ele>
        <time>2020-07-22T18:45:59Z</time>
      </trkpt>
      <trkpt lat="48.84093" lon="2.43411">
        <ele>46</ele>
        <time>2020-07-22T18:46:00Z</time>
      </trkpt>
      <trkpt lat="48.84094" lon="2.4341">
        <ele>46</ele>
        <time>2020-07-22T18:46:01Z</time>
      </trkpt>
      <trkpt lat="48.84094" lon="2.43408">
        <ele>46</ele>
        <time>2020-07-22T18:46:02Z</time>
      </trkpt>
      <trkpt lat="48.84095" lon="2.43407">
        <ele>46</ele>
        <time>2020-07-22T18:46:03Z</time>
      </trkpt>
      <trkpt lat="48.84096" lon="2.43406">
        <ele>45</ele>
        <time>2020-07-22T18:46:04Z</time>
      </trkpt>
      <trkpt lat="48.84096" lon="2.43405">
        <ele>45</ele>
        <time>2020-07-22T18:46:05Z</time>
      </trkpt>
      <trkpt lat="48.84097" lon="2.43403">
        <ele>45</ele>
        <time>2020-07-22T18:46:06Z</time>
      </trkpt>
      <trkpt lat="48.84098" lon="2.43402">
        <ele>45</ele>
        <time>2020-07-22T18:46:07Z</time>
      </trkpt>
      <trkpt lat="48.84098" lon="2.43401">
        <ele>45</ele>
        <time>2020-07-22T18:46:08Z</time>
      </trkpt>
      <trkpt lat="48.84099" lon="2.43399">
        <ele>45</ele>
        <time>2020-07-22T18:46:09Z</time>
      </trkpt>
      <trkpt lat="48.841" lon="2.43398">
        <ele>45</ele>
        <time>2020-07-22T18:46:10Z</time>
      </trkpt>
      <trkpt lat="48.841" lon="2.43396">
        <ele>45</ele>
        <time>2020-07-22T18:46:11Z</time>
      </trkpt>
      <trkpt lat="48.84101" lon="2.43395">
        <ele>45</ele>
        <time>2020-07-22T18:46:12Z</time>
      </trkpt>
      <trkpt lat="48.84102" lon="2.43393">
        <ele>45</ele>
        <time>2020-07-22T18:46:13Z</time>
      </trkpt>
      <trkpt lat="48.84102" lon="2.43392">
        <ele>45</ele>
        <time>2020-07-22T18:46:14Z</time>
      </trkpt>
      <trkpt lat="48.84102" lon="2.4339">
        <ele>45</ele>
        <time>2020-07-22T18:46:15Z</time>
      </trkpt>
      <trkpt lat="48.84103" lon="2.43389">
        <ele>45</ele>
        <time>2020-07-22T18:46:16Z</time>
      </trkpt>
      <trkpt lat="48.84103" lon="2.43387">
        <ele>45</ele>
        <time>2020-07-22T18:46:17Z</time>
      </trkpt>
      <trkpt lat="48.84104" lon="2.43385">
        <ele>45</ele>
        <time>2020-07-22T18:46:18Z</time>
      </trkpt>
      <trkpt lat="48.84105" lon="2.43384">
        <ele>45</ele>
        <time>2020-07-22T18:46:19Z</time>
      </trkpt>
      <trkpt lat="48.84105" lon="2.43382">
        <ele>45</ele>
        <time>2020-07-22T18:46:20Z</time>
      </trkpt>
      <trkpt lat="48.84106" lon="2.43381">
        <ele>45</ele>
        <time>2020-07-22T18:46:21Z</time>
      </trkpt>
      <trkpt lat="48.84106" lon="2.43379">
        <ele>45</ele>
        <time>2020-07-22T18:46:22Z</time>
      </trkpt>
      <trkpt lat="48.84107" lon="2.43378">
        <ele>45</ele>
        <time>2020-07-22T18:46:23Z</time>
      </trkpt>
      <trkpt lat="48.84108" lon="2.43377">
        <ele>45</ele>
        <time>2020-07-22T18:46:24Z</time>
      </trkpt>
      <trkpt lat="48.84108" lon="2.43375">
        <ele>45</ele>
        <time>2020-07-22T18:46:25Z</time>
      </trkpt>
      <trkpt lat="48.84109" lon="2.43374">
        <ele>45</ele>
        <time>2020-07-22T18:46:26Z</time>
      </trkpt>
      <trkpt lat="48.84109" lon="2.43372">
        <ele>45</ele>
        <time>2020-07-22T18:46:27Z</time>
      </trkpt>
      <trkpt lat="48.8411" lon="2.43371">
        <ele>45</ele>
        <time>2020-07-22T18:46:28Z</time>
      </trkpt>
      <trkpt lat="48.8411" lon="2.43369">
        <ele>45</ele>
        <time>2020-07-22T18:46:29Z</time>
      </trkpt>
      <trkpt lat="48.84111" lon="2.43368">
        <ele>45</ele>
        <time>2020-07-22T18:46:30Z</time>
      </trkpt>
      <trkpt lat="48.84111" lon="2.43366">
        <ele>45</ele>
        <time>2020-07-22T18:46:31Z</time>
      </trkpt>
      <trkpt lat="48.84112" lon="2.43365">
        <ele>45</ele>
        <time>2020-07-22T18:46:32Z</time>
      </trkpt>
      <trkpt lat="48.84113" lon="2.43365">
        <ele>45</ele>
        <time>2020-07-22T18:46:33Z</time>
      </trkpt>
      <trkpt lat="48.84114" lon="2.43365">
        <ele>45</ele>
        <time>2020-07-22T18:46:34Z</time>
      </trkpt>
      <trkpt lat="48.84115" lon="2.43364">
        <ele>45</ele>
        <time>2020-07-22T18:46:35Z</time>
      </trkpt>
      <trkpt lat="48.84116" lon="2.43364">
        <ele>45</ele>
        <time>2020-07-22T18:46:36Z</time>
      </trkpt>
      <trkpt lat="48.84117" lon="2.43365">
        <ele>45</ele>
        <time>2020-07-22T18:46:37Z</time>
      </trkpt>
      <trkpt lat="48.84118" lon="2.43365">
        <ele>45</ele>
        <time>2020-07-22T18:46:38Z</time>
      </trkpt>
      <trkpt lat="48.8412" lon="2.43365">
        <ele>45</ele>
        <time>2020-07-22T18:46:39Z</time>
      </trkpt>
      <trkpt lat="48.84121" lon="2.43365">
        <ele>45</ele>
        <time>2020-07-22T18:46:40Z</time>
      </trkpt>
      <trkpt lat="48.84122" lon="2.43366">
        <ele>45</ele>
        <time>2020-07-22T18:46:41Z</time>
      </trkpt>
      <trkpt lat="48.84124" lon="2.43366">
        <ele>45</ele>
        <time>2020-07-22T18:46:42Z</time>
      </trkpt>
      <trkpt lat="48.84125" lon="2.43367">
        <ele>45</ele>
        <time>2020-07-22T18:46:43Z</time>
      </trkpt>
      <trkpt lat="48.84126" lon="2.43368">
        <ele>45</ele>
        <time>2020-07-22T18:46:44Z</time>
      </trkpt>
      <trkpt lat="48.84128" lon="2.43368">
        <ele>45</ele>
        <time>2020-07-22T18:46:45Z</time>
      </trkpt>
      <trkpt lat="48.84129" lon="2.43368">
        <ele>45</ele>
        <time>2020-07-22T18:46:46Z</time>
      </trkpt>
      <trkpt lat="48.8413" lon="2.43369">
        <ele>45</ele>
        <time>2020-07-22T18:46:47Z</time>
      </trkpt>
      <trkpt lat="48.84132" lon="2.43369">
        <ele>45</ele>
        <time>2020-07-22T18:46:48Z</time>
      </trkpt>
      <trkpt lat="48.84132" lon="2.43369">
        <ele>45</ele>
        <time>2020-07-22T18:46:49Z</time>
      </trkpt>
      <trkpt lat="48.84134" lon="2.43369">
        <ele>45</ele>
        <time>2020-07-22T18:46:50Z</time>
      </trkpt>
      <trkpt lat="48.84135" lon="2.4337">
        <ele>45</ele>
        <time>2020-07-22T18:46:51Z</time>
      </trkpt>
      <trkpt lat="48.84136" lon="2.4337">
        <ele>45</ele>
        <time>2020-07-22T18:46:52Z</time>
      </trkpt>
      <trkpt lat="48.84137" lon="2.4337">
        <ele>45</ele>
        <time>2020-07-22T18:46:53Z</time>
      </trkpt>
      <trkpt lat="48.84138" lon="2.43371">
        <ele>45</ele>
        <time>2020-07-22T18:46:54Z</time>
      </trkpt>
      <trkpt lat="48.8414" lon="2.43371">
        <ele>45</ele>
        <time>2020-07-22T18:46:55Z</time>
      </trkpt>
      <trkpt lat="48.8414" lon="2.43372">
        <ele>45</ele>
        <time>2020-07-22T18:46:56Z</time>
      </trkpt>
      <trkpt lat="48.84142" lon="2.43372">
        <ele>45</ele>
        <time>2020-07-22T18:46:57Z</time>
      </trkpt>
      <trkpt lat="48.84142" lon="2.43373">
        <ele>45</ele>
        <time>2020-07-22T18:46:58Z</time>
      </trkpt>
      <trkpt lat="48.84143" lon="2.43373">
        <ele>45</ele>
        <time>2020-07-22T18:46:59Z</time>
      </trkpt>
      <trkpt lat="48.84144" lon="2.43374">
        <ele>45</ele>
        <time>2020-07-22T18:47:00Z</time>
      </trkpt>
      <trkpt lat="48.84145" lon="2.43374">
        <ele>45</ele>
        <time>2020-07-22T18:47:01Z</time>
      </trkpt>
      <trkpt lat="48.84146" lon="2.43375">
        <ele>45</ele>
        <time>2020-07-22T18:47:02Z</time>
      </trkpt>
      <trkpt lat="48.84148" lon="2.43375">
        <ele>45</ele>
        <time>2020-07-22T18:47:03Z</time>
      </trkpt>
      <trkpt lat="48.84148" lon="2.43376">
        <ele>45</ele>
        <time>2020-07-22T18:47:04Z</time>
      </trkpt>
      <trkpt lat="48.8415" lon="2.43376">
        <ele>45</ele>
        <time>2020-07-22T18:47:05Z</time>
      </trkpt>
      <trkpt lat="48.8415" lon="2.43376">
        <ele>45</ele>
        <time>2020-07-22T18:47:06Z</time>
      </trkpt>
      <trkpt lat="48.84152" lon="2.43376">
        <ele>45</ele>
        <time>2020-07-22T18:47:07Z</time>
      </trkpt>
      <trkpt lat="48.84153" lon="2.43376">
        <ele>45</ele>
        <time>2020-07-22T18:47:08Z</time>
      </trkpt>
      <trkpt lat="48.84154" lon="2.43376">
        <ele>45</ele>
        <time>2020-07-22T18:47:09Z</time>
      </trkpt>
      <trkpt lat="48.84156" lon="2.43376">
        <ele>46</ele>
        <time>2020-07-22T18:47:18Z</time>
      </trkpt>
      <trkpt lat="48.84156" lon="2.43376">
        <ele>46</ele>
        <time>2020-07-22T18:47:19Z</time>
      </trkpt>
      <trkpt lat="48.84157" lon="2.43376">
        <ele>46</ele>
        <time>2020-07-22T18:47:20Z</time>
      </trkpt>
      <trkpt lat="48.84158" lon="2.43376">
        <ele>46</ele>
        <time>2020-07-22T18:47:21Z</time>
      </trkpt>
      <trkpt lat="48.84159" lon="2.43377">
        <ele>46</ele>
        <time>2020-07-22T18:47:22Z</time>
      </trkpt>
      <trkpt lat="48.8416" lon="2.43377">
        <ele>46</ele>
        <time>2020-07-22T18:47:23Z</time>
      </trkpt>
      <trkpt lat="48.84161" lon="2.43377">
        <ele>46</ele>
        <time>2020-07-22T18:47:24Z</time>
      </trkpt>
      <trkpt lat="48.84162" lon="2.43377">
        <ele>46</ele>
        <time>2020-07-22T18:47:25Z</time>
      </trkpt>
      <trkpt lat="48.84163" lon="2.43377">
        <ele>46</ele>
        <time>2020-07-22T18:47:26Z</time>
      </trkpt>
      <trkpt lat="48.84164" lon="2.43378">
        <ele>46</ele>
        <time>2020-07-22T18:47:27Z</time>
      </trkpt>
      <trkpt lat="48.84164" lon="2.43378">
        <ele>46</ele>
        <time>2020-07-22T18:47:28Z</time>
      </trkpt>
      <trkpt lat="48.84166" lon="2.43378">
        <ele>46</ele>
        <time>2020-07-22T18:47:29Z</time>
      </trkpt>
      <trkpt lat="48.84166" lon="2.43378">
        <ele>46</ele>
        <time>2020-07-22T18:47:30Z</time>
      </trkpt>
      <trkpt lat="48.84168" lon="2.43378">
        <ele>46</ele>
        <time>2020-07-22T18:47:31Z</time>
      </trkpt>
      <trkpt lat="48.84168" lon="2.43379">
        <ele>46</ele>
        <time>2020-07-22T18:47:32Z</time>
      </trkpt>
      <trkpt lat="48.84169" lon="2.43379">
        <ele>46</ele>
        <time>2020-07-22T18:47:33Z</time>
      </trkpt>
      <trkpt lat="48.8417" lon="2.43379">
        <ele>46</ele>
        <time>2020-07-22T18:47:34Z</time>
      </trkpt>
      <trkpt lat="48.84171" lon="2.43379">
        <ele>46</ele>
        <time>2020-07-22T18:47:35Z</time>
      </trkpt>
      <trkpt lat="48.84172" lon="2.43379">
        <ele>46</ele>
        <time>2020-07-22T18:47:36Z</time>
      </trkpt>
      <trkpt lat="48.84174" lon="2.43379">
        <ele>46</ele>
        <time>2020-07-22T18:47:37Z</time>
      </trkpt>
      <trkpt lat="48.84174" lon="2.43379">
        <ele>46</ele>
        <time>2020-07-22T18:47:38Z</time>
      </trkpt>
      <trkpt lat="48.84176" lon="2.4338">
        <ele>46</ele>
        <time>2020-07-22T18:47:39Z</time>
      </trkpt>
      <trkpt lat="48.84177" lon="2.4338">
        <ele>46</ele>
        <time>2020-07-22T18:47:40Z</time>
      </trkpt>
      <trkpt lat="48.84178" lon="2.4338">
        <ele>46</ele>
        <time>2020-07-22T18:47:41Z</time>
      </trkpt>
      <trkpt lat="48.84179" lon="2.4338">
        <ele>46</ele>
        <time>2020-07-22T18:47:42Z</time>
      </trkpt>
      <trkpt lat="48.8418" lon="2.4338">
        <ele>46</ele>
        <time>2020-07-22T18:47:43Z</time>
      </trkpt>
      <trkpt lat="48.84181" lon="2.43381">
        <ele>46</ele>
        <time>2020-07-22T18:47:44Z</time>
      </trkpt>
      <trkpt lat="48.84182" lon="2.43381">
        <ele>46</ele>
        <time>2020-07-22T18:47:45Z</time>
      </trkpt>
      <trkpt lat="48.84183" lon="2.43381">
        <ele>46</ele>
        <time>2020-07-22T18:47:46Z</time>
      </trkpt>
      <trkpt lat="48.84184" lon="2.43381">
        <ele>46</ele>
        <time>2020-07-22T18:47:47Z</time>
      </trkpt>
      <trkpt lat="48.84185" lon="2.43381">
        <ele>46</ele>
        <time>2020-07-22T18:47:48Z</time>
      </trkpt>
      <trkpt lat="48.84186" lon="2.43381">
        <ele>46</ele>
        <time>2020-07-22T18:47:49Z</time>
      </trkpt>
      <trkpt lat="48.84187" lon="2.43381">
        <ele>46</ele>
        <time>2020-07-22T18:47:50Z</time>
      </trkpt>
      <trkpt lat="48.84188" lon="2.43381">
        <ele>46</ele>
        <time>2020-07-22T18:47:51Z</time>
      </trkpt>
      <trkpt lat="48.84189" lon="2.43381">
        <ele>46</ele>
        <time>2020-07-22T18:47:52Z</time>
      </trkpt>
      <trkpt lat="48.8419" lon="2.43381">
        <ele>46</ele>
        <time>2020-07-22T18:47:53Z</time>
      </trkpt>
      <trkpt lat="48.84191" lon="2.43382">
        <ele>46</ele>
        <time>2020-07-22T18:47:54Z</time>
      </trkpt>
      <trkpt lat="48.84192" lon="2.43382">
        <ele>46</ele>
        <time>2020-07-22T18:47:55Z</time>
      </trkpt>
      <trkpt lat="48.84193" lon="2.43382">
        <ele>46</ele>
        <time>2020-07-22T18:47:56Z</time>
      </trkpt>
      <trkpt lat="48.84194" lon="2.43383">
        <ele>46</ele>
        <time>2020-07-22T18:47:57Z</time>
      </trkpt>
      <trkpt lat="48.84195" lon="2.43383">
        <ele>46</ele>
        <time>2020-07-22T18:47:58Z</time>
      </trkpt>
      <trkpt lat="48.84196" lon="2.43383">
        <ele>46</ele>
        <time>2020-07-22T18:47:59Z</time>
      </trkpt>
      <trkpt lat="48.84197" lon="2.43383">
        <ele>46</ele>
        <time>2020-07-22T18:48:00Z</time>
      </trkpt>
      <trkpt lat="48.84198" lon="2.43383">
        <ele>46</ele>
        <time>2020-07-22T18:48:01Z</time>
      </trkpt>
      <trkpt lat="48.84199" lon="2.43383">
        <ele>46</ele>
        <time>2020-07-22T18:48:02Z</time>
      </trkpt>
      <trkpt lat="48.842" lon="2.43383">
        <ele>46</ele>
        <time>2020-07-22T18:48:03Z</time>
      </trkpt>
      <trkpt lat="48.84201" lon="2.43383">
        <ele>46</ele>
        <time>2020-07-22T18:48:04Z</time>
      </trkpt>
      <trkpt lat="48.84201" lon="2.43384">
        <ele>46</ele>
        <time>2020-07-22T18:48:05Z</time>
      </trkpt>
      <trkpt lat="48.84203" lon="2.43384">
        <ele>46</ele>
        <time>2020-07-22T18:48:06Z</time>
      </trkpt>
      <trkpt lat="48.84204" lon="2.43384">
        <ele>46</ele>
        <time>2020-07-22T18:48:07Z</time>
      </trkpt>
      <trkpt lat="48.84205" lon="2.43384">
        <ele>46</ele>
        <time>2020-07-22T18:48:08Z</time>
      </trkpt>
      <trkpt lat="48.84206" lon="2.43384">
        <ele>46</ele>
        <time>2020-07-22T18:48:09Z</time>
      </trkpt>
      <trkpt lat="48.84208" lon="2.43384">
        <ele>46</ele>
        <time>2020-07-22T18:48:10Z</time>
      </trkpt>
      <trkpt lat="48.84209" lon="2.43384">
        <ele>46</ele>
        <time>2020-07-22T18:48:11Z</time>
      </trkpt>
      <trkpt lat="48.8421" lon="2.43385">
        <ele>46</ele>
        <time>2020-07-22T18:48:12Z</time>
      </trkpt>
      <trkpt lat="48.84211" lon="2.43385">
        <ele>46</ele>
        <time>2020-07-22T18:48:13Z</time>
      </trkpt>
      <trkpt lat="48.84213" lon="2.43385">
        <ele>46</ele>
        <time>2020-07-22T18:48:14Z</time>
      </trkpt>
      <trkpt lat="48.84214" lon="2.43385">
        <ele>46</ele>
        <time>2020-07-22T18:48:15Z</time>
      </trkpt>
      <trkpt lat="48.84215" lon="2.43386">
        <ele>46</ele>
        <time>2020-07-22T18:48:16Z</time>
      </trkpt>
      <trkpt lat="48.84216" lon="2.43386">
        <ele>46</ele>
        <time>2020-07-22T18:48:17Z</time>
      </trkpt>
      <trkpt lat="48.84217" lon="2.43386">
        <ele>46</ele>
        <time>2020-07-22T18:48:18Z</time>
      </trkpt>
      <trkpt lat="48.84218" lon="2.43386">
        <ele>46</ele>
        <time>2020-07-22T18:48:19Z</time>
      </trkpt>
      <trkpt lat="48.84219" lon="2.43386">
        <ele>46</ele>
        <time>2020-07-22T18:48:20Z</time>
      </trkpt>
      <trkpt lat="48.8422" lon="2.43386">
        <ele>46</ele>
        <time>2020-07-22T18:48:21Z</time>
      </trkpt>
      <trkpt lat="48.84221" lon="2.43386">
        <ele>46</ele>
        <time>2020-07-22T18:48:22Z</time>
      </trkpt>
      <trkpt lat="48.84222" lon="2.43386">
        <ele>46</ele>
        <time>2020-07-22T18:48:23Z</time>
      </trkpt>
      <trkpt lat="48.84223" lon="2.43386">
        <ele>46</ele>
        <time>2020-07-22T18:48:24Z</time>
      </trkpt>
      <trkpt lat="48.84224" lon="2.43386">
        <ele>46</ele>
        <time>2020-07-22T18:48:25Z</time>
      </trkpt>
      <trkpt lat="48.84226" lon="2.43386">
        <ele>46</ele>
        <time>2020-07-22T18:48:26Z</time>
      </trkpt>
      <trkpt lat="48.84226" lon="2.43386">
        <ele>46</ele>
        <time>2020-07-22T18:48:27Z</time>
      </trkpt>
      <trkpt lat="48.84227" lon="2.43386">
        <ele>46</ele>
        <time>2020-07-22T18:48:28Z</time>
      </trkpt>
      <trkpt lat="48.84229" lon="2.43386">
        <ele>46</ele>
        <time>2020-07-22T18:48:29Z</time>
      </trkpt>
      <trkpt lat="48.8423" lon="2.43386">
        <ele>46</ele>
        <time>2020-07-22T18:48:30Z</time>
      </trkpt>
      <trkpt lat="48.84231" lon="2.43386">
        <ele>46</ele>
        <time>2020-07-22T18:48:31Z</time>
      </trkpt>
      <trkpt lat="48.84232" lon="2.43386">
        <ele>46</ele>
        <time>2020-07-22T18:48:32Z</time>
      </trkpt>
      <trkpt lat="48.84233" lon="2.43386">
        <ele>46</ele>
        <time>2020-07-22T18:48:33Z</time>
      </trkpt>
      <trkpt lat="48.84234" lon="2.43386">
        <ele>46</ele>
        <time>2020-07-22T18:48:34Z</time>
      </trkpt>
      <trkpt lat="48.84235" lon="2.43386">
        <ele>46</ele>
        <time>2020-07-22T18:48:35Z</time>
      </trkpt>
      <trkpt lat="48.84236" lon="2.43386">
        <ele>46</ele>
        <time>2020-07-22T18:48:36Z</time>
      </trkpt>
      <trkpt lat="48.84237" lon="2.43387">
        <ele>46</ele>
        <time>2020-07-22T18:48:37Z</time>
      </trkpt>
      <trkpt lat="48.84238" lon="2.43388">
        <ele>46</ele>
        <time>2020-07-22T18:48:38Z</time>
      </trkpt>
      <trkpt lat="48.84239" lon="2.43388">
        <ele>46</ele>
        <time>2020-07-22T18:48:39Z</time>
      </trkpt>
      <trkpt lat="48.8424" lon="2.43389">
        <ele>46</ele>
        <time>2020-07-22T18:48:40Z</time>
      </trkpt>
      <trkpt lat="48.84241" lon="2.43389">
        <ele>46</ele>
        <time>2020-07-22T18:48:41Z</time>
      </trkpt>
      <trkpt lat="48.84242" lon="2.43389">
        <ele>46</ele>
        <time>2020-07-22T18:48:42Z</time>
      </trkpt>
      <trkpt lat="48.84243" lon="2.4339">
        <ele>46</ele>
        <time>2020-07-22T18:48:43Z</time>
      </trkpt>
      <trkpt lat="48.84244" lon="2.4339">
        <ele>46</ele>
        <time>2020-07-22T18:48:44Z</time>
      </trkpt>
      <trkpt lat="48.84245" lon="2.4339">
        <ele>46</ele>
        <time>2020-07-22T18:48:45Z</time>
      </trkpt>
      <trkpt lat="48.84247" lon="2.4339">
        <ele>46</ele>
        <time>2020-07-22T18:48:46Z</time>
      </trkpt>
      <trkpt lat="48.84248" lon="2.43391">
        <ele>46</ele>
        <time>2020-07-22T18:48:47Z</time>
      </trkpt>
      <trkpt lat="48.84249" lon="2.43391">
        <ele>46</ele>
        <time>2020-07-22T18:48:48Z</time>
      </trkpt>
      <trkpt lat="48.8425" lon="2.43391">
        <ele>46</ele>
        <time>2020-07-22T18:48:49Z</time>
      </trkpt>
      <trkpt lat="48.84251" lon="2.43392">
        <ele>46</ele>
        <time>2020-07-22T18:48:50Z</time>
      </trkpt>
      <trkpt lat="48.84252" lon="2.43392">
        <ele>46</ele>
        <time>2020-07-22T18:48:51Z</time>
      </trkpt>
      <trkpt lat="48.84253" lon="2.43392">
        <ele>46</ele>
        <time>2020-07-22T18:48:52Z</time>
      </trkpt>
      <trkpt lat="48.84255" lon="2.43392">
        <ele>46</ele>
        <time>2020-07-22T18:48:53Z</time>
      </trkpt>
      <trkpt lat="48.84255" lon="2.43393">
        <ele>46</ele>
        <time>2020-07-22T18:48:54Z</time>
      </trkpt>
      <trkpt lat="48.84257" lon="2.43393">
        <ele>46</ele>
        <time>2020-07-22T18:48:55Z</time>
      </trkpt>
      <trkpt lat="48.84258" lon="2.43393">
        <ele>46</ele>
        <time>2020-07-22T18:48:56Z</time>
      </trkpt>
      <trkpt lat="48.84259" lon="2.43394">
        <ele>46</ele>
        <time>2020-07-22T18:48:57Z</time>
      </trkpt>
      <trkpt lat="48.8426" lon="2.43394">
        <ele>46</ele>
        <time>2020-07-22T18:48:58Z</time>
      </trkpt>
      <trkpt lat="48.84261" lon="2.43394">
        <ele>46</ele>
        <time>2020-07-22T18:48:59Z</time>
      </trkpt>
      <trkpt lat="48.84263" lon="2.43395">
        <ele>46</ele>
        <time>2020-07-22T18:49:00Z</time>
      </trkpt>
      <trkpt lat="48.84264" lon="2.43395">
        <ele>46</ele>
        <time>2020-07-22T18:49:01Z</time>
      </trkpt>
      <trkpt lat="48.84265" lon="2.43395">
        <ele>46</ele>
        <time>2020-07-22T18:49:02Z</time>
      </trkpt>
      <trkpt lat="48.84266" lon="2.43396">
        <ele>46</ele>
        <time>2020-07-22T18:49:03Z</time>
      </trkpt>
      <trkpt lat="48.84267" lon="2.43396">
        <ele>46</ele>
        <time>2020-07-22T18:49:04Z</time>
      </trkpt>
      <trkpt lat="48.84269" lon="2.43396">
        <ele>46</ele>
        <time>2020-07-22T18:49:05Z</time>
      </trkpt>
      <trkpt lat="48.8427" lon="2.43397">
        <ele>46</ele>
        <time>2020-07-22T18:49:06Z</time>
      </trkpt>
      <trkpt lat="48.84271" lon="2.43397">
        <ele>46</ele>
        <time>2020-07-22T18:49:07Z</time>
      </trkpt>
      <trkpt lat="48.84273" lon="2.43397">
        <ele>46</ele>
        <time>2020-07-22T18:49:08Z</time>
      </trkpt>
      <trkpt lat="48.84274" lon="2.43398">
        <ele>46</ele>
        <time>2020-07-22T18:49:09Z</time>
      </trkpt>
      <trkpt lat="48.84275" lon="2.43398">
        <ele>46</ele>
        <time>2020-07-22T18:49:10Z</time>
      </trkpt>
      <trkpt lat="48.84277" lon="2.43398">
        <ele>46</ele>
        <time>2020-07-22T18:49:11Z</time>
      </trkpt>
      <trkpt lat="48.84277" lon="2.43398">
        <ele>46</ele>
        <time>2020-07-22T18:49:12Z</time>
      </trkpt>
      <trkpt lat="48.84279" lon="2.43398">
        <ele>46</ele>
        <time>2020-07-22T18:49:13Z</time>
      </trkpt>
      <trkpt lat="48.84279" lon="2.43399">
        <ele>46</ele>
        <time>2020-07-22T18:49:14Z</time>
      </trkpt>
      <trkpt lat="48.8428" lon="2.43399">
        <ele>46</ele>
        <time>2020-07-22T18:49:15Z</time>
      </trkpt>
      <trkpt lat="48.84282" lon="2.43399">
        <ele>46</ele>
        <time>2020-07-22T18:49:16Z</time>
      </trkpt>
      <trkpt lat="48.84283" lon="2.434">
        <ele>46</ele>
        <time>2020-07-22T18:49:17Z</time>
      </trkpt>
      <trkpt lat="48.84284" lon="2.434">
        <ele>46</ele>
        <time>2020-07-22T18:49:18Z</time>
      </trkpt>
      <trkpt lat="48.84285" lon="2.43401">
        <ele>46</ele>
        <time>2020-07-22T18:49:19Z</time>
      </trkpt>
      <trkpt lat="48.84287" lon="2.43401">
        <ele>46</ele>
        <time>2020-07-22T18:49:20Z</time>
      </trkpt>
      <trkpt lat="48.84289" lon="2.43402">
        <ele>46</ele>
        <time>2020-07-22T18:49:21Z</time>
      </trkpt>
      <trkpt lat="48.8429" lon="2.43402">
        <ele>46</ele>
        <time>2020-07-22T18:49:22Z</time>
      </trkpt>
      <trkpt lat="48.84292" lon="2.43402">
        <ele>46</ele>
        <time>2020-07-22T18:49:23Z</time>
      </trkpt>
      <trkpt lat="48.84293" lon="2.43403">
        <ele>46</ele>
        <time>2020-07-22T18:49:24Z</time>
      </trkpt>
      <trkpt lat="48.84294" lon="2.43403">
        <ele>46</ele>
        <time>2020-07-22T18:49:25Z</time>
      </trkpt>
      <trkpt lat="48.84295" lon="2.43403">
        <ele>46</ele>
        <time>2020-07-22T18:49:26Z</time>
      </trkpt>
      <trkpt lat="48.84297" lon="2.43403">
        <ele>46</ele>
        <time>2020-07-22T18:49:27Z</time>
      </trkpt>
      <trkpt lat="48.84298" lon="2.43404">
        <ele>46</ele>
        <time>2020-07-22T18:49:28Z</time>
      </trkpt>
      <trkpt lat="48.84299" lon="2.43404">
        <ele>46</ele>
        <time>2020-07-22T18:49:29Z</time>
      </trkpt>
      <trkpt lat="48.843" lon="2.43404">
        <ele>46</ele>
        <time>2020-07-22T18:49:30Z</time>
      </trkpt>
      <trkpt lat="48.84301" lon="2.43404">
        <ele>46</ele>
        <time>2020-07-22T18:49:31Z</time>
      </trkpt>
      <trkpt lat="48.84303" lon="2.43404">
        <ele>46</ele>
        <time>2020-07-22T18:49:32Z</time>
      </trkpt>
      <trkpt lat="48.84304" lon="2.43404">
        <ele>46</ele>
        <time>2020-07-22T18:49:33Z</time>
      </trkpt>
      <trkpt lat="48.84305" lon="2.43404">
        <ele>46</ele>
        <time>2020-07-22T18:49:34Z</time>
      </trkpt>
      <trkpt lat="48.84306" lon="2.43404">
        <ele>46</ele>
        <time>2020-07-22T18:49:35Z</time>
      </trkpt>
      <trkpt lat="48.84308" lon="2.43405">
        <ele>46</ele>
        <time>2020-07-22T18:49:36Z</time>
      </trkpt>
      <trkpt lat="48.84309" lon="2.43404">
        <ele>46</ele>
        <time>2020-07-22T18:49:37Z</time>
      </trkpt>
      <trkpt lat="48.8431" lon="2.43404">
        <ele>46</ele>
        <time>2020-07-22T18:49:38Z</time>
      </trkpt>
      <trkpt lat="48.84311" lon="2.43404">
        <ele>46</ele>
        <time>2020-07-22T18:49:39Z</time>
      </trkpt>
      <trkpt lat="48.84312" lon="2.43404">
        <ele>46</ele>
        <time>2020-07-22T18:49:40Z</time>
      </trkpt>
      <trkpt lat="48.84313" lon="2.43404">
        <ele>46</ele>
        <time>2020-07-22T18:49:41Z</time>
      </trkpt>
      <trkpt lat="48.84314" lon="2.43404">
        <ele>46</ele>
        <time>2020-07-22T18:49:42Z</time>
      </trkpt>
      <trkpt lat="48.84315" lon="2.43405">
        <ele>46</ele>
        <time>2020-07-22T18:49:43Z</time>
      </trkpt>
      <trkpt lat="48.84317" lon="2.43405">
        <ele>46</ele>
        <time>2020-07-22T18:49:44Z</time>
      </trkpt>
      <trkpt lat="48.84317" lon="2.43406">
        <ele>46</ele>
        <time>2020-07-22T18:49:45Z</time>
      </trkpt>
      <trkpt lat="48.84319" lon="2.43407">
        <ele>46</ele>
        <time>2020-07-22T18:49:46Z</time>
      </trkpt>
      <trkpt lat="48.8432" lon="2.43408">
        <ele>46</ele>
        <time>2020-07-22T18:49:47Z</time>
      </trkpt>
      <trkpt lat="48.84321" lon="2.43409">
        <ele>46</ele>
        <time>2020-07-22T18:49:48Z</time>
      </trkpt>
      <trkpt lat="48.84323" lon="2.43409">
        <ele>46</ele>
        <time>2020-07-22T18:49:49Z</time>
      </trkpt>
      <trkpt lat="48.84324" lon="2.4341">
        <ele>46</ele>
        <time>2020-07-22T18:49:50Z</time>
      </trkpt>
      <trkpt lat="48.84325" lon="2.4341">
        <ele>46</ele>
        <time>2020-07-22T18:49:51Z</time>
      </trkpt>
      <trkpt lat="48.84326" lon="2.4341">
        <ele>46</ele>
        <time>2020-07-22T18:49:52Z</time>
      </trkpt>
      <trkpt lat="48.84327" lon="2.43411">
        <ele>46</ele>
        <time>2020-07-22T18:49:53Z</time>
      </trkpt>
      <trkpt lat="48.84329" lon="2.43411">
        <ele>46</ele>
        <time>2020-07-22T18:49:54Z</time>
      </trkpt>
      <trkpt lat="48.84329" lon="2.43411">
        <ele>46</ele>
        <time>2020-07-22T18:49:55Z</time>
      </trkpt>
      <trkpt lat="48.8433" lon="2.43411">
        <ele>46</ele>
        <time>2020-07-22T18:49:56Z</time>
      </trkpt>
      <trkpt lat="48.84331" lon="2.43412">
        <ele>46</ele>
        <time>2020-07-22T18:49:57Z</time>
      </trkpt>
      <trkpt lat="48.84333" lon="2.43412">
        <ele>46</ele>
        <time>2020-07-22T18:49:58Z</time>
      </trkpt>
      <trkpt lat="48.84333" lon="2.43413">
        <ele>46</ele>
        <time>2020-07-22T18:49:59Z</time>
      </trkpt>
      <trkpt lat="48.84335" lon="2.43413">
        <ele>46</ele>
        <time>2020-07-22T18:50:00Z</time>
      </trkpt>
      <trkpt lat="48.84336" lon="2.43414">
        <ele>46</ele>
        <time>2020-07-22T18:50:01Z</time>
      </trkpt>
      <trkpt lat="48.84337" lon="2.43414">
        <ele>46</ele>
        <time>2020-07-22T18:50:02Z</time>
      </trkpt>
      <trkpt lat="48.84338" lon="2.43415">
        <ele>46</ele>
        <time>2020-07-22T18:50:03Z</time>
      </trkpt>
      <trkpt lat="48.84339" lon="2.43415">
        <ele>46</ele>
        <time>2020-07-22T18:50:04Z</time>
      </trkpt>
      <trkpt lat="48.8434" lon="2.43415">
        <ele>46</ele>
        <time>2020-07-22T18:50:05Z</time>
      </trkpt>
      <trkpt lat="48.84341" lon="2.43416">
        <ele>46</ele>
        <time>2020-07-22T18:50:06Z</time>
      </trkpt>
      <trkpt lat="48.84342" lon="2.43416">
        <ele>46</ele>
        <time>2020-07-22T18:50:07Z</time>
      </trkpt>
      <trkpt lat="48.84343" lon="2.43416">
        <ele>47</ele>
        <time>2020-07-22T18:50:08Z</time>
      </trkpt>
      <trkpt lat="48.84344" lon="2.43416">
        <ele>47</ele>
        <time>2020-07-22T18:50:09Z</time>
      </trkpt>
      <trkpt lat="48.84345" lon="2.43417">
        <ele>47</ele>
        <time>2020-07-22T18:50:10Z</time>
      </trkpt>
      <trkpt lat="48.84346" lon="2.43417">
        <ele>47</ele>
        <time>2020-07-22T18:50:11Z</time>
      </trkpt>
      <trkpt lat="48.84348" lon="2.43417">
        <ele>47</ele>
        <time>2020-07-22T18:50:12Z</time>
      </trkpt>
      <trkpt lat="48.84349" lon="2.43418">
        <ele>47</ele>
        <time>2020-07-22T18:50:13Z</time>
      </trkpt>
      <trkpt lat="48.8435" lon="2.43418">
        <ele>47</ele>
        <time>2020-07-22T18:50:14Z</time>
      </trkpt>
      <trkpt lat="48.84351" lon="2.43419">
        <ele>47</ele>
        <time>2020-07-22T18:50:15Z</time>
      </trkpt>
      <trkpt lat="48.84353" lon="2.4342">
        <ele>47</ele>
        <time>2020-07-22T18:50:16Z</time>
      </trkpt>
      <trkpt lat="48.84354" lon="2.4342">
        <ele>47</ele>
        <time>2020-07-22T18:50:17Z</time>
      </trkpt>
      <trkpt lat="48.84354" lon="2.43421">
        <ele>47</ele>
        <time>2020-07-22T18:50:18Z</time>
      </trkpt>
      <trkpt lat="48.84356" lon="2.43422">
        <ele>47</ele>
        <time>2020-07-22T18:50:19Z</time>
      </trkpt>
      <trkpt lat="48.84357" lon="2.43422">
        <ele>47</ele>
        <time>2020-07-22T18:50:20Z</time>
      </trkpt>
      <trkpt lat="48.84358" lon="2.43423">
        <ele>47</ele>
        <time>2020-07-22T18:50:21Z</time>
      </trkpt>
      <trkpt lat="48.84359" lon="2.43423">
        <ele>47</ele>
        <time>2020-07-22T18:50:22Z</time>
      </trkpt>
      <trkpt lat="48.84361" lon="2.43424">
        <ele>47</ele>
        <time>2020-07-22T18:50:23Z</time>
      </trkpt>
      <trkpt lat="48.84361" lon="2.43425">
        <ele>46</ele>
        <time>2020-07-22T18:50:24Z</time>
      </trkpt>
      <trkpt lat="48.84362" lon="2.43425">
        <ele>46</ele>
        <time>2020-07-22T18:50:25Z</time>
      </trkpt>
      <trkpt lat="48.84364" lon="2.43426">
        <ele>46</ele>
        <time>2020-07-22T18:50:26Z</time>
      </trkpt>
      <trkpt lat="48.84365" lon="2.43427">
        <ele>46</ele>
        <time>2020-07-22T18:50:27Z</time>
      </trkpt>
      <trkpt lat="48.84366" lon="2.43428">
        <ele>46</ele>
        <time>2020-07-22T18:50:28Z</time>
      </trkpt>
      <trkpt lat="48.84367" lon="2.43428">
        <ele>46</ele>
        <time>2020-07-22T18:50:29Z</time>
      </trkpt>
      <trkpt lat="48.84369" lon="2.43429">
        <ele>46</ele>
        <time>2020-07-22T18:50:30Z</time>
      </trkpt>
      <trkpt lat="48.8437" lon="2.4343">
        <ele>46</ele>
        <time>2020-07-22T18:50:31Z</time>
      </trkpt>
      <trkpt lat="48.84371" lon="2.43431">
        <ele>46</ele>
        <time>2020-07-22T18:50:32Z</time>
      </trkpt>
      <trkpt lat="48.84372" lon="2.43431">
        <ele>46</ele>
        <time>2020-07-22T18:50:33Z</time>
      </trkpt>
      <trkpt lat="48.84374" lon="2.43432">
        <ele>46</ele>
        <time>2020-07-22T18:50:34Z</time>
      </trkpt>
      <trkpt lat="48.84375" lon="2.43433">
        <ele>46</ele>
        <time>2020-07-22T18:50:35Z</time>
      </trkpt>
      <trkpt lat="48.84376" lon="2.43434">
        <ele>46</ele>
        <time>2020-07-22T18:50:36Z</time>
      </trkpt>
      <trkpt lat="48.84377" lon="2.43435">
        <ele>46</ele>
        <time>2020-07-22T18:50:37Z</time>
      </trkpt>
      <trkpt lat="48.84377" lon="2.43436">
        <ele>46</ele>
        <time>2020-07-22T18:50:38Z</time>
      </trkpt>
      <trkpt lat="48.84378" lon="2.43436">
        <ele>46</ele>
        <time>2020-07-22T18:50:39Z</time>
      </trkpt>
      <trkpt lat="48.84379" lon="2.43437">
        <ele>46</ele>
        <time>2020-07-22T18:50:40Z</time>
      </trkpt>
      <trkpt lat="48.8438" lon="2.43437">
        <ele>46</ele>
        <time>2020-07-22T18:50:41Z</time>
      </trkpt>
      <trkpt lat="48.84381" lon="2.43438">
        <ele>46</ele>
        <time>2020-07-22T18:50:42Z</time>
      </trkpt>
      <trkpt lat="48.84382" lon="2.43438">
        <ele>46</ele>
        <time>2020-07-22T18:50:43Z</time>
      </trkpt>
      <trkpt lat="48.84383" lon="2.43438">
        <ele>46</ele>
        <time>2020-07-22T18:50:44Z</time>
      </trkpt>
      <trkpt lat="48.84384" lon="2.43439">
        <ele>46</ele>
        <time>2020-07-22T18:50:45Z</time>
      </trkpt>
      <trkpt lat="48.84386" lon="2.43439">
        <ele>46</ele>
        <time>2020-07-22T18:50:46Z</time>
      </trkpt>
      <trkpt lat="48.84386" lon="2.4344">
        <ele>46</ele>
        <time>2020-07-22T18:50:47Z</time>
      </trkpt>
      <trkpt lat="48.84387" lon="2.43441">
        <ele>46</ele>
        <time>2020-07-22T18:50:48Z</time>
      </trkpt>
      <trkpt lat="48.84388" lon="2.43442">
        <ele>46</ele>
        <time>2020-07-22T18:50:49Z</time>
      </trkpt>
      <trkpt lat="48.84389" lon="2.43443">
        <ele>46</ele>
        <time>2020-07-22T18:50:50Z</time>
      </trkpt>
      <trkpt lat="48.8439" lon="2.43444">
        <ele>46</ele>
        <time>2020-07-22T18:50:51Z</time>
      </trkpt>
      <trkpt lat="48.84391" lon="2.43445">
        <ele>46</ele>
        <time>2020-07-22T18:50:52Z</time>
      </trkpt>
      <trkpt lat="48.84392" lon="2.43445">
        <ele>46</ele>
        <time>2020-07-22T18:50:53Z</time>
      </trkpt>
      <trkpt lat="48.84393" lon="2.43446">
        <ele>46</ele>
        <time>2020-07-22T18:50:54Z</time>
      </trkpt>
      <trkpt lat="48.84394" lon="2.43446">
        <ele>46</ele>
        <time>2020-07-22T18:50:55Z</time>
      </trkpt>
      <trkpt lat="48.84395" lon="2.43447">
        <ele>46</ele>
        <time>2020-07-22T18:50:56Z</time>
      </trkpt>
      <trkpt lat="48.84396" lon="2.43447">
        <ele>46</ele>
        <time>2020-07-22T18:50:57Z</time>
      </trkpt>
      <trkpt lat="48.84398" lon="2.43447">
        <ele>46</ele>
        <time>2020-07-22T18:50:58Z</time>
      </trkpt>
      <trkpt lat="48.84399" lon="2.43447">
        <ele>46</ele>
        <time>2020-07-22T18:50:59Z</time>
      </trkpt>
      <trkpt lat="48.84401" lon="2.43446">
        <ele>46</ele>
        <time>2020-07-22T18:51:00Z</time>
      </trkpt>
      <trkpt lat="48.84403" lon="2.43446">
        <ele>46</ele>
        <time>2020-07-22T18:51:01Z</time>
      </trkpt>
      <trkpt lat="48.84404" lon="2.43446">
        <ele>46</ele>
        <time>2020-07-22T18:51:02Z</time>
      </trkpt>
      <trkpt lat="48.84406" lon="2.43446">
        <ele>46</ele>
        <time>2020-07-22T18:51:03Z</time>
      </trkpt>
      <trkpt lat="48.84409" lon="2.43445">
        <ele>46</ele>
        <time>2020-07-22T18:51:04Z</time>
      </trkpt>
      <trkpt lat="48.8441" lon="2.43445">
        <ele>46</ele>
        <time>2020-07-22T18:51:05Z</time>
      </trkpt>
      <trkpt lat="48.84412" lon="2.43446">
        <ele>46</ele>
        <time>2020-07-22T18:51:06Z</time>
      </trkpt>
      <trkpt lat="48.84413" lon="2.43446">
        <ele>46</ele>
        <time>2020-07-22T18:51:07Z</time>
      </trkpt>
      <trkpt lat="48.84414" lon="2.43445">
        <ele>46</ele>
        <time>2020-07-22T18:51:08Z</time>
      </trkpt>
      <trkpt lat="48.84415" lon="2.43445">
        <ele>46</ele>
        <time>2020-07-22T18:51:09Z</time>
      </trkpt>
      <trkpt lat="48.84416" lon="2.43445">
        <ele>46</ele>
        <time>2020-07-22T18:51:10Z</time>
      </trkpt>
      <trkpt lat="48.84417" lon="2.43446">
        <ele>46</ele>
        <time>2020-07-22T18:51:11Z</time>
      </trkpt>
      <trkpt lat="48.84418" lon="2.43446">
        <ele>46</ele>
        <time>2020-07-22T18:51:12Z</time>
      </trkpt>
      <trkpt lat="48.84419" lon="2.43446">
        <ele>46</ele>
        <time>2020-07-22T18:51:13Z</time>
      </trkpt>
      <trkpt lat="48.8442" lon="2.43447">
        <ele>46</ele>
        <time>2020-07-22T18:51:14Z</time>
      </trkpt>
      <trkpt lat="48.8442" lon="2.43447">
        <ele>46</ele>
        <time>2020-07-22T18:51:15Z</time>
      </trkpt>
      <trkpt lat="48.84421" lon="2.43447">
        <ele>46</ele>
        <time>2020-07-22T18:51:16Z</time>
      </trkpt>
      <trkpt lat="48.84422" lon="2.43448">
        <ele>46</ele>
        <time>2020-07-22T18:51:17Z</time>
      </trkpt>
      <trkpt lat="48.84423" lon="2.43449">
        <ele>46</ele>
        <time>2020-07-22T18:51:18Z</time>
      </trkpt>
      <trkpt lat="48.84425" lon="2.4345">
        <ele>46</ele>
        <time>2020-07-22T18:51:19Z</time>
      </trkpt>
      <trkpt lat="48.84427" lon="2.43451">
        <ele>46</ele>
        <time>2020-07-22T18:51:20Z</time>
      </trkpt>
      <trkpt lat="48.84428" lon="2.43452">
        <ele>46</ele>
        <time>2020-07-22T18:51:21Z</time>
      </trkpt>
      <trkpt lat="48.8443" lon="2.43453">
        <ele>46</ele>
        <time>2020-07-22T18:51:22Z</time>
      </trkpt>
      <trkpt lat="48.84431" lon="2.43454">
        <ele>46</ele>
        <time>2020-07-22T18:51:23Z</time>
      </trkpt>
      <trkpt lat="48.84432" lon="2.43454">
        <ele>46</ele>
        <time>2020-07-22T18:51:24Z</time>
      </trkpt>
      <trkpt lat="48.84434" lon="2.43454">
        <ele>46</ele>
        <time>2020-07-22T18:51:25Z</time>
      </trkpt>
      <trkpt lat="48.84435" lon="2.43454">
        <ele>46</ele>
        <time>2020-07-22T18:51:26Z</time>
      </trkpt>
      <trkpt lat="48.84436" lon="2.43454">
        <ele>46</ele>
        <time>2020-07-22T18:51:27Z</time>
      </trkpt>
      <trkpt lat="48.84438" lon="2.43454">
        <ele>46</ele>
        <time>2020-07-22T18:51:28Z</time>
      </trkpt>
      <trkpt lat="48.84439" lon="2.43454">
        <ele>46</ele>
        <time>2020-07-22T18:51:29Z</time>
      </trkpt>
      <trkpt lat="48.8444" lon="2.43454">
        <ele>46</ele>
        <time>2020-07-22T18:51:30Z</time>
      </trkpt>
      <trkpt lat="48.84441" lon="2.43455">
        <ele>46</ele>
        <time>2020-07-22T18:51:31Z</time>
      </trkpt>
      <trkpt lat="48.84442" lon="2.43455">
        <ele>46</ele>
        <time>2020-07-22T18:51:32Z</time>
      </trkpt>
      <trkpt lat="48.84443" lon="2.43456">
        <ele>46</ele>
        <time>2020-07-22T18:51:33Z</time>
      </trkpt>
      <trkpt lat="48.84444" lon="2.43457">
        <ele>46</ele>
        <time>2020-07-22T18:51:34Z</time>
      </trkpt>
      <trkpt lat="48.84444" lon="2.43458">
        <ele>46</ele>
        <time>2020-07-22T18:51:35Z</time>
      </trkpt>
      <trkpt lat="48.84445" lon="2.43459">
        <ele>46</ele>
        <time>2020-07-22T18:51:36Z</time>
      </trkpt>
      <trkpt lat="48.84445" lon="2.4346">
        <ele>46</ele>
        <time>2020-07-22T18:51:37Z</time>
      </trkpt>
      <trkpt lat="48.84446" lon="2.43461">
        <ele>47</ele>
        <time>2020-07-22T18:51:38Z</time>
      </trkpt>
      <trkpt lat="48.84446" lon="2.43462">
        <ele>47</ele>
        <time>2020-07-22T18:51:39Z</time>
      </trkpt>
      <trkpt lat="48.84448" lon="2.43462">
        <ele>47</ele>
        <time>2020-07-22T18:51:40Z</time>
      </trkpt>
      <trkpt lat="48.84448" lon="2.43463">
        <ele>47</ele>
        <time>2020-07-22T18:51:41Z</time>
      </trkpt>
      <trkpt lat="48.84449" lon="2.43463">
        <ele>47</ele>
        <time>2020-07-22T18:51:42Z</time>
      </trkpt>
      <trkpt lat="48.8445" lon="2.43464">
        <ele>47</ele>
        <time>2020-07-22T18:51:43Z</time>
      </trkpt>
      <trkpt lat="48.84451" lon="2.43464">
        <ele>47</ele>
        <time>2020-07-22T18:51:44Z</time>
      </trkpt>
      <trkpt lat="48.84452" lon="2.43464">
        <ele>47</ele>
        <time>2020-07-22T18:51:45Z</time>
      </trkpt>
      <trkpt lat="48.84453" lon="2.43465">
        <ele>47</ele>
        <time>2020-07-22T18:51:46Z</time>
      </trkpt>
      <trkpt lat="48.84454" lon="2.43465">
        <ele>47</ele>
        <time>2020-07-22T18:51:47Z</time>
      </trkpt>
      <trkpt lat="48.84455" lon="2.43465">
        <ele>47</ele>
        <time>2020-07-22T18:51:48Z</time>
      </trkpt>
      <trkpt lat="48.84456" lon="2.43465">
        <ele>47</ele>
        <time>2020-07-22T18:51:49Z</time>
      </trkpt>
      <trkpt lat="48.84457" lon="2.43465">
        <ele>47</ele>
        <time>2020-07-22T18:51:50Z</time>
      </trkpt>
      <trkpt lat="48.84458" lon="2.43466">
        <ele>47</ele>
        <time>2020-07-22T18:51:51Z</time>
      </trkpt>
      <trkpt lat="48.8446" lon="2.43466">
        <ele>47</ele>
        <time>2020-07-22T18:51:52Z</time>
      </trkpt>
      <trkpt lat="48.84461" lon="2.43467">
        <ele>47</ele>
        <time>2020-07-22T18:51:53Z</time>
      </trkpt>
      <trkpt lat="48.84462" lon="2.43467">
        <ele>47</ele>
        <time>2020-07-22T18:51:54Z</time>
      </trkpt>
      <trkpt lat="48.84464" lon="2.43468">
        <ele>47</ele>
        <time>2020-07-22T18:51:55Z</time>
      </trkpt>
      <trkpt lat="48.84466" lon="2.43468">
        <ele>47</ele>
        <time>2020-07-22T18:51:56Z</time>
      </trkpt>
      <trkpt lat="48.84467" lon="2.43469">
        <ele>47</ele>
        <time>2020-07-22T18:51:57Z</time>
      </trkpt>
      <trkpt lat="48.84469" lon="2.43469">
        <ele>47</ele>
        <time>2020-07-22T18:51:58Z</time>
      </trkpt>
      <trkpt lat="48.8447" lon="2.43469">
        <ele>47</ele>
        <time>2020-07-22T18:51:59Z</time>
      </trkpt>
      <trkpt lat="48.84472" lon="2.4347">
        <ele>47</ele>
        <time>2020-07-22T18:52:00Z</time>
      </trkpt>
      <trkpt lat="48.84473" lon="2.4347">
        <ele>47</ele>
        <time>2020-07-22T18:52:01Z</time>
      </trkpt>
      <trkpt lat="48.84474" lon="2.43471">
        <ele>47</ele>
        <time>2020-07-22T18:52:02Z</time>
      </trkpt>
      <trkpt lat="48.84475" lon="2.43471">
        <ele>47</ele>
        <time>2020-07-22T18:52:03Z</time>
      </trkpt>
      <trkpt lat="48.84477" lon="2.43471">
        <ele>46</ele>
        <time>2020-07-22T18:52:04Z</time>
      </trkpt>
      <trkpt lat="48.84478" lon="2.43471">
        <ele>46</ele>
        <time>2020-07-22T18:52:05Z</time>
      </trkpt>
      <trkpt lat="48.84479" lon="2.4347">
        <ele>46</ele>
        <time>2020-07-22T18:52:06Z</time>
      </trkpt>
      <trkpt lat="48.8448" lon="2.4347">
        <ele>46</ele>
        <time>2020-07-22T18:52:07Z</time>
      </trkpt>
      <trkpt lat="48.84481" lon="2.4347">
        <ele>46</ele>
        <time>2020-07-22T18:52:08Z</time>
      </trkpt>
      <trkpt lat="48.84481" lon="2.4347">
        <ele>46</ele>
        <time>2020-07-22T18:52:09Z</time>
      </trkpt>
      <trkpt lat="48.84482" lon="2.4347">
        <ele>46</ele>
        <time>2020-07-22T18:52:10Z</time>
      </trkpt>
      <trkpt lat="48.84483" lon="2.4347">
        <ele>46</ele>
        <time>2020-07-22T18:52:11Z</time>
      </trkpt>
      <trkpt lat="48.84484" lon="2.4347">
        <ele>46</ele>
        <time>2020-07-22T18:52:12Z</time>
      </trkpt>
      <trkpt lat="48.84485" lon="2.4347">
        <ele>46</ele>
        <time>2020-07-22T18:52:13Z</time>
      </trkpt>
      <trkpt lat="48.84486" lon="2.4347">
        <ele>46</ele>
        <time>2020-07-22T18:52:14Z</time>
      </trkpt>
      <trkpt lat="48.84486" lon="2.43471">
        <ele>46</ele>
        <time>2020-07-22T18:52:15Z</time>
      </trkpt>
      <trkpt lat="48.84487" lon="2.43471">
        <ele>46</ele>
        <time>2020-07-22T18:52:16Z</time>
      </trkpt>
      <trkpt lat="48.84487" lon="2.43471">
        <ele>46</ele>
        <time>2020-07-22T18:52:17Z</time>
      </trkpt>
      <trkpt lat="48.84488" lon="2.43471">
        <ele>46</ele>
        <time>2020-07-22T18:52:18Z</time>
      </trkpt>
      <trkpt lat="48.84488" lon="2.43471">
        <ele>46</ele>
        <time>2020-07-22T18:52:19Z</time>
      </trkpt>
      <trkpt lat="48.84488" lon="2.43471">
        <ele>46</ele>
        <time>2020-07-22T18:52:20Z</time>
      </trkpt>
      <trkpt lat="48.84489" lon="2.43471">
        <ele>46</ele>
        <time>2020-07-22T18:52:21Z</time>
      </trkpt>
      <trkpt lat="48.84489" lon="2.43471">
        <ele>46</ele>
        <time>2020-07-22T18:52:22Z</time>
      </trkpt>
      <trkpt lat="48.84491" lon="2.43472">
        <ele>46</ele>
        <time>2020-07-22T18:52:23Z</time>
      </trkpt>
      <trkpt lat="48.84491" lon="2.43472">
        <ele>46</ele>
        <time>2020-07-22T18:52:24Z</time>
      </trkpt>
      <trkpt lat="48.84492" lon="2.43473">
        <ele>46</ele>
        <time>2020-07-22T18:52:25Z</time>
      </trkpt>
      <trkpt lat="48.84493" lon="2.43473">
        <ele>46</ele>
        <time>2020-07-22T18:52:26Z</time>
      </trkpt>
      <trkpt lat="48.84494" lon="2.43474">
        <ele>46</ele>
        <time>2020-07-22T18:52:27Z</time>
      </trkpt>
      <trkpt lat="48.84495" lon="2.43475">
        <ele>46</ele>
        <time>2020-07-22T18:52:28Z</time>
      </trkpt>
      <trkpt lat="48.84496" lon="2.43475">
        <ele>46</ele>
        <time>2020-07-22T18:52:29Z</time>
      </trkpt>
      <trkpt lat="48.84496" lon="2.43476">
        <ele>46</ele>
        <time>2020-07-22T18:52:30Z</time>
      </trkpt>
      <trkpt lat="48.84496" lon="2.43476">
        <ele>46</ele>
        <time>2020-07-22T18:52:31Z</time>
      </trkpt>
      <trkpt lat="48.84496" lon="2.43477">
        <ele>46</ele>
        <time>2020-07-22T18:52:32Z</time>
      </trkpt>
      <trkpt lat="48.84496" lon="2.43478">
        <ele>46</ele>
        <time>2020-07-22T18:52:33Z</time>
      </trkpt>
      <trkpt lat="48.84496" lon="2.43479">
        <ele>46</ele>
        <time>2020-07-22T18:52:34Z</time>
      </trkpt>
      <trkpt lat="48.84495" lon="2.4348">
        <ele>46</ele>
        <time>2020-07-22T18:52:35Z</time>
      </trkpt>
      <trkpt lat="48.84495" lon="2.43482">
        <ele>46</ele>
        <time>2020-07-22T18:52:36Z</time>
      </trkpt>
      <trkpt lat="48.84494" lon="2.43483">
        <ele>46</ele>
        <time>2020-07-22T18:52:37Z</time>
      </trkpt>
      <trkpt lat="48.84494" lon="2.43484">
        <ele>46</ele>
        <time>2020-07-22T18:52:38Z</time>
      </trkpt>
      <trkpt lat="48.84494" lon="2.43486">
        <ele>46</ele>
        <time>2020-07-22T18:52:39Z</time>
      </trkpt>
      <trkpt lat="48.84495" lon="2.43488">
        <ele>46</ele>
        <time>2020-07-22T18:52:40Z</time>
      </trkpt>
      <trkpt lat="48.84495" lon="2.4349">
        <ele>46</ele>
        <time>2020-07-22T18:52:41Z</time>
      </trkpt>
      <trkpt lat="48.84496" lon="2.43492">
        <ele>46</ele>
        <time>2020-07-22T18:52:42Z</time>
      </trkpt>
      <trkpt lat="48.84496" lon="2.43494">
        <ele>46</ele>
        <time>2020-07-22T18:52:43Z</time>
      </trkpt>
      <trkpt lat="48.84496" lon="2.43495">
        <ele>46</ele>
        <time>2020-07-22T18:52:44Z</time>
      </trkpt>
      <trkpt lat="48.84498" lon="2.43496">
        <ele>46</ele>
        <time>2020-07-22T18:52:45Z</time>
      </trkpt>
      <trkpt lat="48.84498" lon="2.43497">
        <ele>46</ele>
        <time>2020-07-22T18:52:46Z</time>
      </trkpt>
      <trkpt lat="48.84499" lon="2.43498">
        <ele>46</ele>
        <time>2020-07-22T18:52:47Z</time>
      </trkpt>
      <trkpt lat="48.845" lon="2.43499">
        <ele>46</ele>
        <time>2020-07-22T18:52:48Z</time>
      </trkpt>
      <trkpt lat="48.84501" lon="2.435">
        <ele>46</ele>
        <time>2020-07-22T18:52:49Z</time>
      </trkpt>
      <trkpt lat="48.84502" lon="2.43501">
        <ele>46</ele>
        <time>2020-07-22T18:52:50Z</time>
      </trkpt>
      <trkpt lat="48.84502" lon="2.43502">
        <ele>46</ele>
        <time>2020-07-22T18:52:51Z</time>
      </trkpt>
      <trkpt lat="48.84503" lon="2.43503">
        <ele>46</ele>
        <time>2020-07-22T18:52:52Z</time>
      </trkpt>
      <trkpt lat="48.84504" lon="2.43504">
        <ele>46</ele>
        <time>2020-07-22T18:52:53Z</time>
      </trkpt>
      <trkpt lat="48.84505" lon="2.43506">
        <ele>46</ele>
        <time>2020-07-22T18:52:54Z</time>
      </trkpt>
      <trkpt lat="48.84506" lon="2.43507">
        <ele>46</ele>
        <time>2020-07-22T18:52:55Z</time>
      </trkpt>
      <trkpt lat="48.84506" lon="2.43507">
        <ele>46</ele>
        <time>2020-07-22T18:52:56Z</time>
      </trkpt>
      <trkpt lat="48.84507" lon="2.43508">
        <ele>46</ele>
        <time>2020-07-22T18:52:57Z</time>
      </trkpt>
      <trkpt lat="48.84507" lon="2.43509">
        <ele>46</ele>
        <time>2020-07-22T18:52:58Z</time>
      </trkpt>
      <trkpt lat="48.84507" lon="2.4351">
        <ele>46</ele>
        <time>2020-07-22T18:52:59Z</time>
      </trkpt>
      <trkpt lat="48.84508" lon="2.4351">
        <ele>46</ele>
        <time>2020-07-22T18:53:00Z</time>
      </trkpt>
      <trkpt lat="48.84508" lon="2.43511">
        <ele>46</ele>
        <time>2020-07-22T18:53:01Z</time>
      </trkpt>
      <trkpt lat="48.84509" lon="2.43511">
        <ele>46</ele>
        <time>2020-07-22T18:53:02Z</time>
      </trkpt>
      <trkpt lat="48.84509" lon="2.43511">
        <ele>46</ele>
        <time>2020-07-22T18:53:03Z</time>
      </trkpt>
      <trkpt lat="48.8451" lon="2.43512">
        <ele>46</ele>
        <time>2020-07-22T18:53:04Z</time>
      </trkpt>
      <trkpt lat="48.84511" lon="2.43513">
        <ele>46</ele>
        <time>2020-07-22T18:53:05Z</time>
      </trkpt>
      <trkpt lat="48.84512" lon="2.43513">
        <ele>46</ele>
        <time>2020-07-22T18:53:06Z</time>
      </trkpt>
      <trkpt lat="48.84513" lon="2.43514">
        <ele>46</ele>
        <time>2020-07-22T18:53:07Z</time>
      </trkpt>
      <trkpt lat="48.84514" lon="2.43514">
        <ele>46</ele>
        <time>2020-07-22T18:53:08Z</time>
      </trkpt>
      <trkpt lat="48.84515" lon="2.43515">
        <ele>46</ele>
        <time>2020-07-22T18:53:09Z</time>
      </trkpt>
      <trkpt lat="48.84515" lon="2.43515">
        <ele>46</ele>
        <time>2020-07-22T18:53:10Z</time>
      </trkpt>
      <trkpt lat="48.84516" lon="2.43515">
        <ele>46</ele>
        <time>2020-07-22T18:53:11Z</time>
      </trkpt>
      <trkpt lat="48.84517" lon="2.43515">
        <ele>46</ele>
        <time>2020-07-22T18:53:12Z</time>
      </trkpt>
      <trkpt lat="48.84518" lon="2.43515">
        <ele>46</ele>
        <time>2020-07-22T18:53:13Z</time>
      </trkpt>
      <trkpt lat="48.84518" lon="2.43515">
        <ele>46</ele>
        <time>2020-07-22T18:53:14Z</time>
      </trkpt>
      <trkpt lat="48.84519" lon="2.43515">
        <ele>46</ele>
        <time>2020-07-22T18:53:15Z</time>
      </trkpt>
      <trkpt lat="48.8452" lon="2.43514">
        <ele>46</ele>
        <time>2020-07-22T18:53:16Z</time>
      </trkpt>
      <trkpt lat="48.84521" lon="2.43514">
        <ele>46</ele>
        <time>2020-07-22T18:53:17Z</time>
      </trkpt>
      <trkpt lat="48.84522" lon="2.43514">
        <ele>46</ele>
        <time>2020-07-22T18:53:18Z</time>
      </trkpt>
      <trkpt lat="48.84522" lon="2.43514">
        <ele>46</ele>
        <time>2020-07-22T18:53:19Z</time>
      </trkpt>
      <trkpt lat="48.84523" lon="2.43514">
        <ele>46</ele>
        <time>2020-07-22T18:53:20Z</time>
      </trkpt>
      <trkpt lat="48.84524" lon="2.43515">
        <ele>46</ele>
        <time>2020-07-22T18:53:21Z</time>
      </trkpt>
      <trkpt lat="48.84525" lon="2.43515">
        <ele>46</ele>
        <time>2020-07-22T18:53:22Z</time>
      </trkpt>
      <trkpt lat="48.84526" lon="2.43515">
        <ele>46</ele>
        <time>2020-07-22T18:53:23Z</time>
      </trkpt>
      <trkpt lat="48.84526" lon="2.43515">
        <ele>46</ele>
        <time>2020-07-22T18:53:24Z</time>
      </trkpt>
      <trkpt lat="48.84527" lon="2.43515">
        <ele>46</ele>
        <time>2020-07-22T18:53:25Z</time>
      </trkpt>
      <trkpt lat="48.84528" lon="2.43514">
        <ele>46</ele>
        <time>2020-07-22T18:53:26Z</time>
      </trkpt>
      <trkpt lat="48.84529" lon="2.43514">
        <ele>46</ele>
        <time>2020-07-22T18:53:27Z</time>
      </trkpt>
      <trkpt lat="48.8453" lon="2.43514">
        <ele>46</ele>
        <time>2020-07-22T18:53:28Z</time>
      </trkpt>
      <trkpt lat="48.84531" lon="2.43514">
        <ele>46</ele>
        <time>2020-07-22T18:53:29Z</time>
      </trkpt>
      <trkpt lat="48.84531" lon="2.43515">
        <ele>46</ele>
        <time>2020-07-22T18:53:30Z</time>
      </trkpt>
      <trkpt lat="48.84533" lon="2.43515">
        <ele>46</ele>
        <time>2020-07-22T18:53:31Z</time>
      </trkpt>
      <trkpt lat="48.84533" lon="2.43515">
        <ele>46</ele>
        <time>2020-07-22T18:53:32Z</time>
      </trkpt>
      <trkpt lat="48.84535" lon="2.43516">
        <ele>46</ele>
        <time>2020-07-22T18:53:33Z</time>
      </trkpt>
      <trkpt lat="48.84535" lon="2.43517">
        <ele>46</ele>
        <time>2020-07-22T18:53:34Z</time>
      </trkpt>
      <trkpt lat="48.84536" lon="2.43517">
        <ele>46</ele>
        <time>2020-07-22T18:53:35Z</time>
      </trkpt>
      <trkpt lat="48.84538" lon="2.43518">
        <ele>46</ele>
        <time>2020-07-22T18:53:36Z</time>
      </trkpt>
      <trkpt lat="48.84538" lon="2.43519">
        <ele>46</ele>
        <time>2020-07-22T18:53:37Z</time>
      </trkpt>
      <trkpt lat="48.84539" lon="2.43519">
        <ele>46</ele>
        <time>2020-07-22T18:53:38Z</time>
      </trkpt>
      <trkpt lat="48.84539" lon="2.43519">
        <ele>45</ele>
        <time>2020-07-22T18:53:39Z</time>
      </trkpt>
      <trkpt lat="48.8454" lon="2.43519">
        <ele>45</ele>
        <time>2020-07-22T18:53:40Z</time>
      </trkpt>
      <trkpt lat="48.8454" lon="2.43518">
        <ele>45</ele>
        <time>2020-07-22T18:53:41Z</time>
      </trkpt>
      <trkpt lat="48.84539" lon="2.43518">
        <ele>45</ele>
        <time>2020-07-22T18:53:42Z</time>
      </trkpt>
      <trkpt lat="48.84539" lon="2.43517">
        <ele>45</ele>
        <time>2020-07-22T18:53:43Z</time>
      </trkpt>
      <trkpt lat="48.84539" lon="2.43516">
        <ele>45</ele>
        <time>2020-07-22T18:53:44Z</time>
      </trkpt>
      <trkpt lat="48.84539" lon="2.43516">
        <ele>45</ele>
        <time>2020-07-22T18:53:45Z</time>
      </trkpt>
      <trkpt lat="48.84539" lon="2.43515">
        <ele>45</ele>
        <time>2020-07-22T18:53:46Z</time>
      </trkpt>
      <trkpt lat="48.84539" lon="2.43515">
        <ele>45</ele>
        <time>2020-07-22T18:53:47Z</time>
      </trkpt>
      <trkpt lat="48.84539" lon="2.43514">
        <ele>45</ele>
        <time>2020-07-22T18:53:48Z</time>
      </trkpt>
      <trkpt lat="48.84539" lon="2.43514">
        <ele>45</ele>
        <time>2020-07-22T18:53:49Z</time>
      </trkpt>
      <trkpt lat="48.8454" lon="2.43513">
        <ele>45</ele>
        <time>2020-07-22T18:53:50Z</time>
      </trkpt>
      <trkpt lat="48.84541" lon="2.43513">
        <ele>45</ele>
        <time>2020-07-22T18:53:51Z</time>
      </trkpt>
      <trkpt lat="48.84541" lon="2.43512">
        <ele>45</ele>
        <time>2020-07-22T18:53:52Z</time>
      </trkpt>
      <trkpt lat="48.84542" lon="2.43512">
        <ele>45</ele>
        <time>2020-07-22T18:53:53Z</time>
      </trkpt>
      <trkpt lat="48.84543" lon="2.43512">
        <ele>45</ele>
        <time>2020-07-22T18:53:54Z</time>
      </trkpt>
      <trkpt lat="48.84544" lon="2.43512">
        <ele>45</ele>
        <time>2020-07-22T18:53:55Z</time>
      </trkpt>
      <trkpt lat="48.84545" lon="2.43511">
        <ele>45</ele>
        <time>2020-07-22T18:53:56Z</time>
      </trkpt>
      <trkpt lat="48.84546" lon="2.43511">
        <ele>45</ele>
        <time>2020-07-22T18:53:57Z</time>
      </trkpt>
      <trkpt lat="48.84547" lon="2.4351">
        <ele>46</ele>
        <time>2020-07-22T18:53:58Z</time>
      </trkpt>
      <trkpt lat="48.84547" lon="2.4351">
        <ele>46</ele>
        <time>2020-07-22T18:53:59Z</time>
      </trkpt>
      <trkpt lat="48.84548" lon="2.4351">
        <ele>46</ele>
        <time>2020-07-22T18:54:00Z</time>
      </trkpt>
      <trkpt lat="48.84549" lon="2.43509">
        <ele>46</ele>
        <time>2020-07-22T18:54:01Z</time>
      </trkpt>
      <trkpt lat="48.84549" lon="2.43509">
        <ele>46</ele>
        <time>2020-07-22T18:54:02Z</time>
      </trkpt>
      <trkpt lat="48.84551" lon="2.43509">
        <ele>46</ele>
        <time>2020-07-22T18:54:15Z</time>
      </trkpt>
      <trkpt lat="48.84551" lon="2.43509">
        <ele>46</ele>
        <time>2020-07-22T18:54:16Z</time>
      </trkpt>
      <trkpt lat="48.84552" lon="2.43509">
        <ele>46</ele>
        <time>2020-07-22T18:54:17Z</time>
      </trkpt>
      <trkpt lat="48.84553" lon="2.43509">
        <ele>46</ele>
        <time>2020-07-22T18:54:18Z</time>
      </trkpt>
      <trkpt lat="48.84554" lon="2.4351">
        <ele>45</ele>
        <time>2020-07-22T18:54:19Z</time>
      </trkpt>
      <trkpt lat="48.84555" lon="2.4351">
        <ele>45</ele>
        <time>2020-07-22T18:54:20Z</time>
      </trkpt>
      <trkpt lat="48.84556" lon="2.4351">
        <ele>45</ele>
        <time>2020-07-22T18:54:21Z</time>
      </trkpt>
      <trkpt lat="48.84557" lon="2.4351">
        <ele>45</ele>
        <time>2020-07-22T18:54:22Z</time>
      </trkpt>
      <trkpt lat="48.84559" lon="2.4351">
        <ele>45</ele>
        <time>2020-07-22T18:54:23Z</time>
      </trkpt>
      <trkpt lat="48.8456" lon="2.4351">
        <ele>45</ele>
        <time>2020-07-22T18:54:24Z</time>
      </trkpt>
      <trkpt lat="48.84561" lon="2.43511">
        <ele>45</ele>
        <time>2020-07-22T18:54:25Z</time>
      </trkpt>
      <trkpt lat="48.84562" lon="2.43511">
        <ele>45</ele>
        <time>2020-07-22T18:54:26Z</time>
      </trkpt>
      <trkpt lat="48.84563" lon="2.43511">
        <ele>45</ele>
        <time>2020-07-22T18:54:27Z</time>
      </trkpt>
      <trkpt lat="48.84563" lon="2.43511">
        <ele>45</ele>
        <time>2020-07-22T18:54:28Z</time>
      </trkpt>
      <trkpt lat="48.84564" lon="2.43511">
        <ele>45</ele>
        <time>2020-07-22T18:54:29Z</time>
      </trkpt>
      <trkpt lat="48.84565" lon="2.43511">
        <ele>45</ele>
        <time>2020-07-22T18:54:30Z</time>
      </trkpt>
      <trkpt lat="48.84565" lon="2.43511">
        <ele>45</ele>
        <time>2020-07-22T18:54:31Z</time>
      </trkpt>
      <trkpt lat="48.84566" lon="2.43511">
        <ele>45</ele>
        <time>2020-07-22T18:54:32Z</time>
      </trkpt>
      <trkpt lat="48.84567" lon="2.43511">
        <ele>45</ele>
        <time>2020-07-22T18:54:33Z</time>
      </trkpt>
      <trkpt lat="48.84567" lon="2.43511">
        <ele>45</ele>
        <time>2020-07-22T18:54:34Z</time>
      </trkpt>
      <trkpt lat="48.84568" lon="2.4351">
        <ele>45</ele>
        <time>2020-07-22T18:54:35Z</time>
      </trkpt>
      <trkpt lat="48.84569" lon="2.4351">
        <ele>45</ele>
        <time>2020-07-22T18:54:36Z</time>
      </trkpt>
      <trkpt lat="48.8457" lon="2.4351">
        <ele>45</ele>
        <time>2020-07-22T18:54:37Z</time>
      </trkpt>
      <trkpt lat="48.84571" lon="2.4351">
        <ele>45</ele>
        <time>2020-07-22T18:54:38Z</time>
      </trkpt>
      <trkpt lat="48.84572" lon="2.4351">
        <ele>45</ele>
        <time>2020-07-22T18:54:39Z</time>
      </trkpt>
      <trkpt lat="48.84573" lon="2.43511">
        <ele>45</ele>
        <time>2020-07-22T18:54:40Z</time>
      </trkpt>
      <trkpt lat="48.84573" lon="2.43511">
        <ele>45</ele>
        <time>2020-07-22T18:54:41Z</time>
      </trkpt>
      <trkpt lat="48.84573" lon="2.43511">
        <ele>45</ele>
        <time>2020-07-22T18:54:42Z</time>
      </trkpt>
      <trkpt lat="48.84573" lon="2.43512">
        <ele>46</ele>
        <time>2020-07-22T18:54:43Z</time>
      </trkpt>
      <trkpt lat="48.84573" lon="2.43512">
        <ele>46</ele>
        <time>2020-07-22T18:54:44Z</time>
      </trkpt>
      <trkpt lat="48.84573" lon="2.43512">
        <ele>46</ele>
        <time>2020-07-22T18:54:45Z</time>
      </trkpt>
      <trkpt lat="48.84574" lon="2.43513">
        <ele>46</ele>
        <time>2020-07-22T18:54:46Z</time>
      </trkpt>
      <trkpt lat="48.84575" lon="2.43513">
        <ele>46</ele>
        <time>2020-07-22T18:54:47Z</time>
      </trkpt>
      <trkpt lat="48.84575" lon="2.43513">
        <ele>46</ele>
        <time>2020-07-22T18:54:48Z</time>
      </trkpt>
      <trkpt lat="48.84576" lon="2.43513">
        <ele>46</ele>
        <time>2020-07-22T18:54:49Z</time>
      </trkpt>
      <trkpt lat="48.84576" lon="2.43513">
        <ele>46</ele>
        <time>2020-07-22T18:54:50Z</time>
      </trkpt>
      <trkpt lat="48.84577" lon="2.43513">
        <ele>46</ele>
        <time>2020-07-22T18:54:51Z</time>
      </trkpt>
      <trkpt lat="48.84578" lon="2.43512">
        <ele>46</ele>
        <time>2020-07-22T18:54:52Z</time>
      </trkpt>
      <trkpt lat="48.84578" lon="2.43512">
        <ele>46</ele>
        <time>2020-07-22T18:54:53Z</time>
      </trkpt>
      <trkpt lat="48.84579" lon="2.43511">
        <ele>46</ele>
        <time>2020-07-22T18:54:54Z</time>
      </trkpt>
      <trkpt lat="48.8458" lon="2.43511">
        <ele>46</ele>
        <time>2020-07-22T18:54:55Z</time>
      </trkpt>
      <trkpt lat="48.84581" lon="2.43511">
        <ele>46</ele>
        <time>2020-07-22T18:54:56Z</time>
      </trkpt>
      <trkpt lat="48.84581" lon="2.43511">
        <ele>46</ele>
        <time>2020-07-22T18:54:57Z</time>
      </trkpt>
      <trkpt lat="48.84582" lon="2.43511">
        <ele>46</ele>
        <time>2020-07-22T18:54:58Z</time>
      </trkpt>
      <trkpt lat="48.84583" lon="2.43512">
        <ele>46</ele>
        <time>2020-07-22T18:54:59Z</time>
      </trkpt>
      <trkpt lat="48.84583" lon="2.43512">
        <ele>46</ele>
        <time>2020-07-22T18:55:00Z</time>
      </trkpt>
      <trkpt lat="48.84584" lon="2.43512">
        <ele>46</ele>
        <time>2020-07-22T18:55:01Z</time>
      </trkpt>
      <trkpt lat="48.84585" lon="2.43513">
        <ele>46</ele>
        <time>2020-07-22T18:55:02Z</time>
      </trkpt>
      <trkpt lat="48.84585" lon="2.43513">
        <ele>46</ele>
        <time>2020-07-22T18:55:03Z</time>
      </trkpt>
      <trkpt lat="48.84586" lon="2.43513">
        <ele>46</ele>
        <time>2020-07-22T18:55:04Z</time>
      </trkpt>
      <trkpt lat="48.84587" lon="2.43513">
        <ele>46</ele>
        <time>2020-07-22T18:55:05Z</time>
      </trkpt>
      <trkpt lat="48.84588" lon="2.43512">
        <ele>46</ele>
        <time>2020-07-22T18:55:06Z</time>
      </trkpt>
      <trkpt lat="48.84589" lon="2.43512">
        <ele>46</ele>
        <time>2020-07-22T18:55:07Z</time>
      </trkpt>
      <trkpt lat="48.8459" lon="2.43512">
        <ele>46</ele>
        <time>2020-07-22T18:55:08Z</time>
      </trkpt>
      <trkpt lat="48.84591" lon="2.43512">
        <ele>46</ele>
        <time>2020-07-22T18:55:09Z</time>
      </trkpt>
      <trkpt lat="48.84592" lon="2.43513">
        <ele>46</ele>
        <time>2020-07-22T18:55:10Z</time>
      </trkpt>
      <trkpt lat="48.84593" lon="2.43513">
        <ele>46</ele>
        <time>2020-07-22T18:55:11Z</time>
      </trkpt>
      <trkpt lat="48.84593" lon="2.43513">
        <ele>46</ele>
        <time>2020-07-22T18:55:12Z</time>
      </trkpt>
      <trkpt lat="48.84594" lon="2.43513">
        <ele>46</ele>
        <time>2020-07-22T18:55:13Z</time>
      </trkpt>
      <trkpt lat="48.84595" lon="2.43513">
        <ele>46</ele>
        <time>2020-07-22T18:55:14Z</time>
      </trkpt>
      <trkpt lat="48.84596" lon="2.43514">
        <ele>46</ele>
        <time>2020-07-22T18:55:15Z</time>
      </trkpt>
      <trkpt lat="48.84597" lon="2.43514">
        <ele>46</ele>
        <time>2020-07-22T18:55:16Z</time>
      </trkpt>
      <trkpt lat="48.84597" lon="2.43514">
        <ele>46</ele>
        <time>2020-07-22T18:55:17Z</time>
      </trkpt>
      <trkpt lat="48.84599" lon="2.43514">
        <ele>46</ele>
        <time>2020-07-22T18:55:18Z</time>
      </trkpt>
      <trkpt lat="48.846" lon="2.43514">
        <ele>46</ele>
        <time>2020-07-22T18:55:19Z</time>
      </trkpt>
      <trkpt lat="48.84601" lon="2.43514">
        <ele>46</ele>
        <time>2020-07-22T18:55:20Z</time>
      </trkpt>
      <trkpt lat="48.84602" lon="2.43514">
        <ele>46</ele>
        <time>2020-07-22T18:55:21Z</time>
      </trkpt>
      <trkpt lat="48.84603" lon="2.43514">
        <ele>46</ele>
        <time>2020-07-22T18:55:22Z</time>
      </trkpt>
      <trkpt lat="48.84604" lon="2.43514">
        <ele>46</ele>
        <time>2020-07-22T18:55:23Z</time>
      </trkpt>
      <trkpt lat="48.84604" lon="2.43514">
        <ele>46</ele>
        <time>2020-07-22T18:55:24Z</time>
      </trkpt>
      <trkpt lat="48.84605" lon="2.43514">
        <ele>46</ele>
        <time>2020-07-22T18:55:25Z</time>
      </trkpt>
      <trkpt lat="48.84605" lon="2.43514">
        <ele>46</ele>
        <time>2020-07-22T18:55:26Z</time>
      </trkpt>
      <trkpt lat="48.84605" lon="2.43514">
        <ele>46</ele>
        <time>2020-07-22T18:55:27Z</time>
      </trkpt>
      <trkpt lat="48.84606" lon="2.43514">
        <ele>46</ele>
        <time>2020-07-22T18:55:28Z</time>
      </trkpt>
      <trkpt lat="48.84607" lon="2.43515">
        <ele>46</ele>
        <time>2020-07-22T18:55:29Z</time>
      </trkpt>
      <trkpt lat="48.84607" lon="2.43515">
        <ele>46</ele>
        <time>2020-07-22T18:55:30Z</time>
      </trkpt>
      <trkpt lat="48.84608" lon="2.43515">
        <ele>46</ele>
        <time>2020-07-22T18:55:31Z</time>
      </trkpt>
      <trkpt lat="48.84609" lon="2.43516">
        <ele>46</ele>
        <time>2020-07-22T18:55:32Z</time>
      </trkpt>
      <trkpt lat="48.8461" lon="2.43516">
        <ele>46</ele>
        <time>2020-07-22T18:55:33Z</time>
      </trkpt>
      <trkpt lat="48.8461" lon="2.43517">
        <ele>46</ele>
        <time>2020-07-22T18:55:34Z</time>
      </trkpt>
      <trkpt lat="48.84611" lon="2.43518">
        <ele>46</ele>
        <time>2020-07-22T18:55:35Z</time>
      </trkpt>
      <trkpt lat="48.84612" lon="2.43518">
        <ele>46</ele>
        <time>2020-07-22T18:55:36Z</time>
      </trkpt>
      <trkpt lat="48.84613" lon="2.43519">
        <ele>46</ele>
        <time>2020-07-22T18:55:37Z</time>
      </trkpt>
      <trkpt lat="48.84613" lon="2.43519">
        <ele>46</ele>
        <time>2020-07-22T18:55:38Z</time>
      </trkpt>
      <trkpt lat="48.84615" lon="2.43519">
        <ele>45</ele>
        <time>2020-07-22T18:55:39Z</time>
      </trkpt>
      <trkpt lat="48.84615" lon="2.4352">
        <ele>45</ele>
        <time>2020-07-22T18:55:40Z</time>
      </trkpt>
      <trkpt lat="48.84616" lon="2.4352">
        <ele>45</ele>
        <time>2020-07-22T18:55:41Z</time>
      </trkpt>
      <trkpt lat="48.84617" lon="2.4352">
        <ele>45</ele>
        <time>2020-07-22T18:55:42Z</time>
      </trkpt>
      <trkpt lat="48.84618" lon="2.43519">
        <ele>45</ele>
        <time>2020-07-22T18:55:43Z</time>
      </trkpt>
      <trkpt lat="48.84618" lon="2.43519">
        <ele>45</ele>
        <time>2020-07-22T18:55:44Z</time>
      </trkpt>
      <trkpt lat="48.84619" lon="2.43519">
        <ele>45</ele>
        <time>2020-07-22T18:55:45Z</time>
      </trkpt>
      <trkpt lat="48.84621" lon="2.43518">
        <ele>45</ele>
        <time>2020-07-22T18:55:46Z</time>
      </trkpt>
      <trkpt lat="48.84622" lon="2.43517">
        <ele>45</ele>
        <time>2020-07-22T18:55:47Z</time>
      </trkpt>
      <trkpt lat="48.84623" lon="2.43517">
        <ele>45</ele>
        <time>2020-07-22T18:55:48Z</time>
      </trkpt>
      <trkpt lat="48.84625" lon="2.43517">
        <ele>45</ele>
        <time>2020-07-22T18:55:49Z</time>
      </trkpt>
      <trkpt lat="48.84626" lon="2.43516">
        <ele>45</ele>
        <time>2020-07-22T18:55:50Z</time>
      </trkpt>
      <trkpt lat="48.84628" lon="2.43516">
        <ele>45</ele>
        <time>2020-07-22T18:55:51Z</time>
      </trkpt>
      <trkpt lat="48.84629" lon="2.43516">
        <ele>45</ele>
        <time>2020-07-22T18:55:52Z</time>
      </trkpt>
      <trkpt lat="48.84631" lon="2.43516">
        <ele>45</ele>
        <time>2020-07-22T18:55:53Z</time>
      </trkpt>
      <trkpt lat="48.84632" lon="2.43516">
        <ele>45</ele>
        <time>2020-07-22T18:55:54Z</time>
      </trkpt>
      <trkpt lat="48.84633" lon="2.43517">
        <ele>45</ele>
        <time>2020-07-22T18:55:55Z</time>
      </trkpt>
      <trkpt lat="48.84635" lon="2.43517">
        <ele>45</ele>
        <time>2020-07-22T18:55:56Z</time>
      </trkpt>
      <trkpt lat="48.84636" lon="2.43517">
        <ele>45</ele>
        <time>2020-07-22T18:55:57Z</time>
      </trkpt>
      <trkpt lat="48.84638" lon="2.43517">
        <ele>45</ele>
        <time>2020-07-22T18:55:58Z</time>
      </trkpt>
      <trkpt lat="48.84639" lon="2.43516">
        <ele>45</ele>
        <time>2020-07-22T18:55:59Z</time>
      </trkpt>
      <trkpt lat="48.84641" lon="2.43516">
        <ele>45</ele>
        <time>2020-07-22T18:56:00Z</time>
      </trkpt>
      <trkpt lat="48.84642" lon="2.43516">
        <ele>45</ele>
        <time>2020-07-22T18:56:01Z</time>
      </trkpt>
      <trkpt lat="48.84642" lon="2.43515">
        <ele>45</ele>
        <time>2020-07-22T18:56:02Z</time>
      </trkpt>
      <trkpt lat="48.84643" lon="2.43515">
        <ele>45</ele>
        <time>2020-07-22T18:56:03Z</time>
      </trkpt>
      <trkpt lat="48.84644" lon="2.43515">
        <ele>45</ele>
        <time>2020-07-22T18:56:04Z</time>
      </trkpt>
      <trkpt lat="48.84644" lon="2.43514">
        <ele>45</ele>
        <time>2020-07-22T18:56:05Z</time>
      </trkpt>
      <trkpt lat="48.84645" lon="2.43514">
        <ele>45</ele>
        <time>2020-07-22T18:56:06Z</time>
      </trkpt>
      <trkpt lat="48.84646" lon="2.43514">
        <ele>45</ele>
        <time>2020-07-22T18:56:07Z</time>
      </trkpt>
      <trkpt lat="48.84647" lon="2.43514">
        <ele>45</ele>
        <time>2020-07-22T18:56:08Z</time>
      </trkpt>
      <trkpt lat="48.84647" lon="2.43514">
        <ele>45</ele>
        <time>2020-07-22T18:56:09Z</time>
      </trkpt>
      <trkpt lat="48.84648" lon="2.43514">
        <ele>45</ele>
        <time>2020-07-22T18:56:10Z</time>
      </trkpt>
      <trkpt lat="48.84649" lon="2.43514">
        <ele>45</ele>
        <time>2020-07-22T18:56:11Z</time>
      </trkpt>
      <trkpt lat="48.8465" lon="2.43515">
        <ele>45</ele>
        <time>2020-07-22T18:56:12Z</time>
      </trkpt>
      <trkpt lat="48.84651" lon="2.43515">
        <ele>45</ele>
        <time>2020-07-22T18:56:13Z</time>
      </trkpt>
      <trkpt lat="48.84652" lon="2.43515">
        <ele>45</ele>
        <time>2020-07-22T18:56:14Z</time>
      </trkpt>
      <trkpt lat="48.84654" lon="2.43515">
        <ele>45</ele>
        <time>2020-07-22T18:56:15Z</time>
      </trkpt>
      <trkpt lat="48.84655" lon="2.43515">
        <ele>45</ele>
        <time>2020-07-22T18:56:16Z</time>
      </trkpt>
      <trkpt lat="48.84656" lon="2.43515">
        <ele>45</ele>
        <time>2020-07-22T18:56:17Z</time>
      </trkpt>
      <trkpt lat="48.84656" lon="2.43515">
        <ele>45</ele>
        <time>2020-07-22T18:56:18Z</time>
      </trkpt>
      <trkpt lat="48.84657" lon="2.43516">
        <ele>45</ele>
        <time>2020-07-22T18:56:19Z</time>
      </trkpt>
      <trkpt lat="48.84658" lon="2.43516">
        <ele>45</ele>
        <time>2020-07-22T18:56:20Z</time>
      </trkpt>
      <trkpt lat="48.84658" lon="2.43517">
        <ele>45</ele>
        <time>2020-07-22T18:56:21Z</time>
      </trkpt>
      <trkpt lat="48.84659" lon="2.43517">
        <ele>45</ele>
        <time>2020-07-22T18:56:22Z</time>
      </trkpt>
      <trkpt lat="48.8466" lon="2.43517">
        <ele>45</ele>
        <time>2020-07-22T18:56:23Z</time>
      </trkpt>
      <trkpt lat="48.8466" lon="2.43518">
        <ele>45</ele>
        <time>2020-07-22T18:56:24Z</time>
      </trkpt>
      <trkpt lat="48.84661" lon="2.43518">
        <ele>45</ele>
        <time>2020-07-22T18:56:25Z</time>
      </trkpt>
      <trkpt lat="48.84662" lon="2.43518">
        <ele>45</ele>
        <time>2020-07-22T18:56:26Z</time>
      </trkpt>
      <trkpt lat="48.84662" lon="2.43518">
        <ele>45</ele>
        <time>2020-07-22T18:56:27Z</time>
      </trkpt>
      <trkpt lat="48.84663" lon="2.43518">
        <ele>45</ele>
        <time>2020-07-22T18:56:28Z</time>
      </trkpt>
      <trkpt lat="48.84663" lon="2.43518">
        <ele>45</ele>
        <time>2020-07-22T18:56:29Z</time>
      </trkpt>
      <trkpt lat="48.84664" lon="2.43518">
        <ele>45</ele>
        <time>2020-07-22T18:56:30Z</time>
      </trkpt>
      <trkpt lat="48.84665" lon="2.43518">
        <ele>45</ele>
        <time>2020-07-22T18:56:31Z</time>
      </trkpt>
      <trkpt lat="48.84666" lon="2.43518">
        <ele>45</ele>
        <time>2020-07-22T18:56:32Z</time>
      </trkpt>
      <trkpt lat="48.84667" lon="2.43518">
        <ele>45</ele>
        <time>2020-07-22T18:56:33Z</time>
      </trkpt>
      <trkpt lat="48.84668" lon="2.43519">
        <ele>45</ele>
        <time>2020-07-22T18:56:34Z</time>
      </trkpt>
      <trkpt lat="48.8467" lon="2.4352">
        <ele>45</ele>
        <time>2020-07-22T18:56:35Z</time>
      </trkpt>
      <trkpt lat="48.84671" lon="2.4352">
        <ele>45</ele>
        <time>2020-07-22T18:56:36Z</time>
      </trkpt>
      <trkpt lat="48.84672" lon="2.43521">
        <ele>45</ele>
        <time>2020-07-22T18:56:37Z</time>
      </trkpt>
      <trkpt lat="48.84674" lon="2.43522">
        <ele>45</ele>
        <time>2020-07-22T18:56:38Z</time>
      </trkpt>
      <trkpt lat="48.84675" lon="2.43523">
        <ele>45</ele>
        <time>2020-07-22T18:56:39Z</time>
      </trkpt>
      <trkpt lat="48.84676" lon="2.43524">
        <ele>45</ele>
        <time>2020-07-22T18:56:40Z</time>
      </trkpt>
      <trkpt lat="48.84678" lon="2.43525">
        <ele>45</ele>
        <time>2020-07-22T18:56:41Z</time>
      </trkpt>
      <trkpt lat="48.84679" lon="2.43527">
        <ele>45</ele>
        <time>2020-07-22T18:56:42Z</time>
      </trkpt>
      <trkpt lat="48.8468" lon="2.43527">
        <ele>45</ele>
        <time>2020-07-22T18:56:43Z</time>
      </trkpt>
      <trkpt lat="48.84681" lon="2.43528">
        <ele>45</ele>
        <time>2020-07-22T18:56:44Z</time>
      </trkpt>
      <trkpt lat="48.84683" lon="2.43529">
        <ele>45</ele>
        <time>2020-07-22T18:56:45Z</time>
      </trkpt>
      <trkpt lat="48.84684" lon="2.43529">
        <ele>45</ele>
        <time>2020-07-22T18:56:46Z</time>
      </trkpt>
      <trkpt lat="48.84686" lon="2.43529">
        <ele>45</ele>
        <time>2020-07-22T18:56:47Z</time>
      </trkpt>
      <trkpt lat="48.84687" lon="2.4353">
        <ele>45</ele>
        <time>2020-07-22T18:56:48Z</time>
      </trkpt>
      <trkpt lat="48.84688" lon="2.4353">
        <ele>45</ele>
        <time>2020-07-22T18:56:49Z</time>
      </trkpt>
      <trkpt lat="48.84689" lon="2.4353">
        <ele>45</ele>
        <time>2020-07-22T18:56:50Z</time>
      </trkpt>
      <trkpt lat="48.8469" lon="2.4353">
        <ele>45</ele>
        <time>2020-07-22T18:56:51Z</time>
      </trkpt>
      <trkpt lat="48.84691" lon="2.4353">
        <ele>45</ele>
        <time>2020-07-22T18:56:52Z</time>
      </trkpt>
      <trkpt lat="48.84691" lon="2.43531">
        <ele>45</ele>
        <time>2020-07-22T18:56:53Z</time>
      </trkpt>
      <trkpt lat="48.84692" lon="2.43532">
        <ele>45</ele>
        <time>2020-07-22T18:56:54Z</time>
      </trkpt>
      <trkpt lat="48.84692" lon="2.43532">
        <ele>45</ele>
        <time>2020-07-22T18:56:55Z</time>
      </trkpt>
      <trkpt lat="48.84693" lon="2.43533">
        <ele>45</ele>
        <time>2020-07-22T18:56:56Z</time>
      </trkpt>
      <trkpt lat="48.84694" lon="2.43533">
        <ele>45</ele>
        <time>2020-07-22T18:56:57Z</time>
      </trkpt>
      <trkpt lat="48.84694" lon="2.43534">
        <ele>46</ele>
        <time>2020-07-22T18:56:58Z</time>
      </trkpt>
      <trkpt lat="48.84695" lon="2.43535">
        <ele>46</ele>
        <time>2020-07-22T18:57:17Z</time>
      </trkpt>
      <trkpt lat="48.84696" lon="2.43536">
        <ele>46</ele>
        <time>2020-07-22T18:57:18Z</time>
      </trkpt>
      <trkpt lat="48.84697" lon="2.43536">
        <ele>46</ele>
        <time>2020-07-22T18:57:19Z</time>
      </trkpt>
      <trkpt lat="48.84697" lon="2.43536">
        <ele>46</ele>
        <time>2020-07-22T18:57:20Z</time>
      </trkpt>
      <trkpt lat="48.84698" lon="2.43536">
        <ele>46</ele>
        <time>2020-07-22T18:57:21Z</time>
      </trkpt>
      <trkpt lat="48.84698" lon="2.43537">
        <ele>46</ele>
        <time>2020-07-22T18:57:22Z</time>
      </trkpt>
      <trkpt lat="48.84699" lon="2.43537">
        <ele>46</ele>
        <time>2020-07-22T18:57:23Z</time>
      </trkpt>
      <trkpt lat="48.847" lon="2.43537">
        <ele>46</ele>
        <time>2020-07-22T18:57:24Z</time>
      </trkpt>
      <trkpt lat="48.84701" lon="2.43537">
        <ele>46</ele>
        <time>2020-07-22T18:57:25Z</time>
      </trkpt>
      <trkpt lat="48.84702" lon="2.43537">
        <ele>46</ele>
        <time>2020-07-22T18:57:26Z</time>
      </trkpt>
      <trkpt lat="48.84703" lon="2.43537">
        <ele>46</ele>
        <time>2020-07-22T18:57:27Z</time>
      </trkpt>
      <trkpt lat="48.84704" lon="2.43537">
        <ele>46</ele>
        <time>2020-07-22T18:57:28Z</time>
      </trkpt>
      <trkpt lat="48.84705" lon="2.43538">
        <ele>46</ele>
        <time>2020-07-22T18:57:29Z</time>
      </trkpt>
      <trkpt lat="48.84706" lon="2.43538">
        <ele>46</ele>
        <time>2020-07-22T18:57:30Z</time>
      </trkpt>
      <trkpt lat="48.84707" lon="2.43539">
        <ele>46</ele>
        <time>2020-07-22T18:57:31Z</time>
      </trkpt>
      <trkpt lat="48.84708" lon="2.43539">
        <ele>46</ele>
        <time>2020-07-22T18:57:32Z</time>
      </trkpt>
      <trkpt lat="48.84708" lon="2.43539">
        <ele>46</ele>
        <time>2020-07-22T18:57:33Z</time>
      </trkpt>
      <trkpt lat="48.84709" lon="2.43539">
        <ele>46</ele>
        <time>2020-07-22T18:57:34Z</time>
      </trkpt>
      <trkpt lat="48.8471" lon="2.43538">
        <ele>46</ele>
        <time>2020-07-22T18:57:35Z</time>
      </trkpt>
      <trkpt lat="48.8471" lon="2.43538">
        <ele>46</ele>
        <time>2020-07-22T18:57:36Z</time>
      </trkpt>
      <trkpt lat="48.84711" lon="2.43537">
        <ele>46</ele>
        <time>2020-07-22T18:57:37Z</time>
      </trkpt>
      <trkpt lat="48.84712" lon="2.43536">
        <ele>46</ele>
        <time>2020-07-22T18:57:38Z</time>
      </trkpt>
      <trkpt lat="48.84712" lon="2.43534">
        <ele>46</ele>
        <time>2020-07-22T18:57:39Z</time>
      </trkpt>
      <trkpt lat="48.84713" lon="2.43532">
        <ele>46</ele>
        <time>2020-07-22T18:57:40Z</time>
      </trkpt>
      <trkpt lat="48.84714" lon="2.4353">
        <ele>46</ele>
        <time>2020-07-22T18:57:41Z</time>
      </trkpt>
      <trkpt lat="48.84715" lon="2.43529">
        <ele>46</ele>
        <time>2020-07-22T18:57:42Z</time>
      </trkpt>
      <trkpt lat="48.84716" lon="2.43527">
        <ele>46</ele>
        <time>2020-07-22T18:57:43Z</time>
      </trkpt>
      <trkpt lat="48.84717" lon="2.43525">
        <ele>46</ele>
        <time>2020-07-22T18:57:44Z</time>
      </trkpt>
      <trkpt lat="48.84718" lon="2.43522">
        <ele>46</ele>
        <time>2020-07-22T18:57:45Z</time>
      </trkpt>
      <trkpt lat="48.84719" lon="2.4352">
        <ele>46</ele>
        <time>2020-07-22T18:57:46Z</time>
      </trkpt>
      <trkpt lat="48.8472" lon="2.43518">
        <ele>46</ele>
        <time>2020-07-22T18:57:47Z</time>
      </trkpt>
      <trkpt lat="48.84721" lon="2.43516">
        <ele>46</ele>
        <time>2020-07-22T18:57:48Z</time>
      </trkpt>
      <trkpt lat="48.84722" lon="2.43514">
        <ele>46</ele>
        <time>2020-07-22T18:57:49Z</time>
      </trkpt>
      <trkpt lat="48.84723" lon="2.43512">
        <ele>46</ele>
        <time>2020-07-22T18:57:50Z</time>
      </trkpt>
      <trkpt lat="48.84723" lon="2.4351">
        <ele>46</ele>
        <time>2020-07-22T18:57:51Z</time>
      </trkpt>
      <trkpt lat="48.84724" lon="2.43507">
        <ele>46</ele>
        <time>2020-07-22T18:57:52Z</time>
      </trkpt>
      <trkpt lat="48.84725" lon="2.43505">
        <ele>46</ele>
        <time>2020-07-22T18:57:53Z</time>
      </trkpt>
      <trkpt lat="48.84726" lon="2.43502">
        <ele>46</ele>
        <time>2020-07-22T18:57:54Z</time>
      </trkpt>
      <trkpt lat="48.84726" lon="2.435">
        <ele>46</ele>
        <time>2020-07-22T18:57:55Z</time>
      </trkpt>
      <trkpt lat="48.84726" lon="2.43497">
        <ele>46</ele>
        <time>2020-07-22T18:57:56Z</time>
      </trkpt>
      <trkpt lat="48.84726" lon="2.43495">
        <ele>46</ele>
        <time>2020-07-22T18:57:57Z</time>
      </trkpt>
      <trkpt lat="48.84727" lon="2.43493">
        <ele>46</ele>
        <time>2020-07-22T18:57:58Z</time>
      </trkpt>
      <trkpt lat="48.84727" lon="2.4349">
        <ele>46</ele>
        <time>2020-07-22T18:57:59Z</time>
      </trkpt>
      <trkpt lat="48.84727" lon="2.43488">
        <ele>46</ele>
        <time>2020-07-22T18:58:00Z</time>
      </trkpt>
      <trkpt lat="48.84727" lon="2.43486">
        <ele>46</ele>
        <time>2020-07-22T18:58:01Z</time>
      </trkpt>
      <trkpt lat="48.84727" lon="2.43484">
        <ele>46</ele>
        <time>2020-07-22T18:58:02Z</time>
      </trkpt>
      <trkpt lat="48.84728" lon="2.43482">
        <ele>46</ele>
        <time>2020-07-22T18:58:03Z</time>
      </trkpt>
      <trkpt lat="48.84728" lon="2.4348">
        <ele>46</ele>
        <time>2020-07-22T18:58:04Z</time>
      </trkpt>
      <trkpt lat="48.84729" lon="2.43478">
        <ele>46</ele>
        <time>2020-07-22T18:58:05Z</time>
      </trkpt>
      <trkpt lat="48.84729" lon="2.43476">
        <ele>46</ele>
        <time>2020-07-22T18:58:06Z</time>
      </trkpt>
      <trkpt lat="48.8473" lon="2.43475">
        <ele>46</ele>
        <time>2020-07-22T18:58:07Z</time>
      </trkpt>
      <trkpt lat="48.84731" lon="2.43473">
        <ele>46</ele>
        <time>2020-07-22T18:58:08Z</time>
      </trkpt>
      <trkpt lat="48.84731" lon="2.43471">
        <ele>46</ele>
        <time>2020-07-22T18:58:09Z</time>
      </trkpt>
      <trkpt lat="48.84732" lon="2.4347">
        <ele>46</ele>
        <time>2020-07-22T18:58:10Z</time>
      </trkpt>
      <trkpt lat="48.84733" lon="2.43468">
        <ele>46</ele>
        <time>2020-07-22T18:58:11Z</time>
      </trkpt>
      <trkpt lat="48.84734" lon="2.43467">
        <ele>46</ele>
        <time>2020-07-22T18:58:12Z</time>
      </trkpt>
      <trkpt lat="48.84734" lon="2.43466">
        <ele>46</ele>
        <time>2020-07-22T18:58:13Z</time>
      </trkpt>
      <trkpt lat="48.84735" lon="2.43466">
        <ele>46</ele>
        <time>2020-07-22T18:58:14Z</time>
      </trkpt>
      <trkpt lat="48.84735" lon="2.43465">
        <ele>46</ele>
        <time>2020-07-22T18:58:15Z</time>
      </trkpt>
      <trkpt lat="48.84736" lon="2.43465">
        <ele>46</ele>
        <time>2020-07-22T18:58:16Z</time>
      </trkpt>
      <trkpt lat="48.84736" lon="2.43465">
        <ele>46</ele>
        <time>2020-07-22T18:58:17Z</time>
      </trkpt>
      <trkpt lat="48.84737" lon="2.43464">
        <ele>46</ele>
        <time>2020-07-22T18:58:18Z</time>
      </trkpt>
      <trkpt lat="48.84737" lon="2.43465">
        <ele>46</ele>
        <time>2020-07-22T18:58:19Z</time>
      </trkpt>
      <trkpt lat="48.84738" lon="2.43465">
        <ele>46</ele>
        <time>2020-07-22T18:58:20Z</time>
      </trkpt>
      <trkpt lat="48.84739" lon="2.43465">
        <ele>46</ele>
        <time>2020-07-22T18:58:21Z</time>
      </trkpt>
      <trkpt lat="48.8474" lon="2.43466">
        <ele>46</ele>
        <time>2020-07-22T18:58:22Z</time>
      </trkpt>
      <trkpt lat="48.84741" lon="2.43466">
        <ele>46</ele>
        <time>2020-07-22T18:58:23Z</time>
      </trkpt>
      <trkpt lat="48.84742" lon="2.43467">
        <ele>46</ele>
        <time>2020-07-22T18:58:24Z</time>
      </trkpt>
      <trkpt lat="48.84743" lon="2.43467">
        <ele>46</ele>
        <time>2020-07-22T18:58:25Z</time>
      </trkpt>
      <trkpt lat="48.84744" lon="2.43468">
        <ele>46</ele>
        <time>2020-07-22T18:58:26Z</time>
      </trkpt>
      <trkpt lat="48.84746" lon="2.43468">
        <ele>46</ele>
        <time>2020-07-22T18:58:27Z</time>
      </trkpt>
      <trkpt lat="48.84747" lon="2.43468">
        <ele>46</ele>
        <time>2020-07-22T18:58:28Z</time>
      </trkpt>
      <trkpt lat="48.84749" lon="2.43468">
        <ele>46</ele>
        <time>2020-07-22T18:58:29Z</time>
      </trkpt>
      <trkpt lat="48.8475" lon="2.43468">
        <ele>46</ele>
        <time>2020-07-22T18:58:30Z</time>
      </trkpt>
      <trkpt lat="48.84751" lon="2.43468">
        <ele>46</ele>
        <time>2020-07-22T18:58:31Z</time>
      </trkpt>
      <trkpt lat="48.84752" lon="2.43468">
        <ele>46</ele>
        <time>2020-07-22T18:58:32Z</time>
      </trkpt>
      <trkpt lat="48.84753" lon="2.43467">
        <ele>46</ele>
        <time>2020-07-22T18:58:33Z</time>
      </trkpt>
      <trkpt lat="48.84754" lon="2.43467">
        <ele>46</ele>
        <time>2020-07-22T18:58:34Z</time>
      </trkpt>
      <trkpt lat="48.84755" lon="2.43467">
        <ele>46</ele>
        <time>2020-07-22T18:58:35Z</time>
      </trkpt>
      <trkpt lat="48.84756" lon="2.43466">
        <ele>46</ele>
        <time>2020-07-22T18:58:36Z</time>
      </trkpt>
      <trkpt lat="48.84757" lon="2.43466">
        <ele>46</ele>
        <time>2020-07-22T18:58:37Z</time>
      </trkpt>
      <trkpt lat="48.84758" lon="2.43465">
        <ele>46</ele>
        <time>2020-07-22T18:58:38Z</time>
      </trkpt>
      <trkpt lat="48.84759" lon="2.43465">
        <ele>46</ele>
        <time>2020-07-22T18:58:39Z</time>
      </trkpt>
      <trkpt lat="48.8476" lon="2.43464">
        <ele>46</ele>
        <time>2020-07-22T18:58:40Z</time>
      </trkpt>
      <trkpt lat="48.84761" lon="2.43464">
        <ele>46</ele>
        <time>2020-07-22T18:58:41Z</time>
      </trkpt>
      <trkpt lat="48.84762" lon="2.43464">
        <ele>46</ele>
        <time>2020-07-22T18:58:42Z</time>
      </trkpt>
      <trkpt lat="48.84763" lon="2.43464">
        <ele>46</ele>
        <time>2020-07-22T18:58:43Z</time>
      </trkpt>
      <trkpt lat="48.84765" lon="2.43464">
        <ele>46</ele>
        <time>2020-07-22T18:58:44Z</time>
      </trkpt>
      <trkpt lat="48.84766" lon="2.43465">
        <ele>46</ele>
        <time>2020-07-22T18:58:45Z</time>
      </trkpt>
      <trkpt lat="48.84767" lon="2.43465">
        <ele>46</ele>
        <time>2020-07-22T18:58:46Z</time>
      </trkpt>
      <trkpt lat="48.84768" lon="2.43465">
        <ele>46</ele>
        <time>2020-07-22T18:58:47Z</time>
      </trkpt>
      <trkpt lat="48.84768" lon="2.43466">
        <ele>46</ele>
        <time>2020-07-22T18:58:48Z</time>
      </trkpt>
      <trkpt lat="48.84769" lon="2.43466">
        <ele>46</ele>
        <time>2020-07-22T18:58:49Z</time>
      </trkpt>
      <trkpt lat="48.84769" lon="2.43466">
        <ele>46</ele>
        <time>2020-07-22T18:58:50Z</time>
      </trkpt>
      <trkpt lat="48.8477" lon="2.43465">
        <ele>46</ele>
        <time>2020-07-22T18:58:51Z</time>
      </trkpt>
      <trkpt lat="48.8477" lon="2.43465">
        <ele>46</ele>
        <time>2020-07-22T18:58:52Z</time>
      </trkpt>
      <trkpt lat="48.84771" lon="2.43465">
        <ele>46</ele>
        <time>2020-07-22T18:58:53Z</time>
      </trkpt>
      <trkpt lat="48.84771" lon="2.43464">
        <ele>46</ele>
        <time>2020-07-22T18:59:02Z</time>
      </trkpt>
      <trkpt lat="48.84772" lon="2.43463">
        <ele>46</ele>
        <time>2020-07-22T18:59:03Z</time>
      </trkpt>
      <trkpt lat="48.84772" lon="2.43462">
        <ele>46</ele>
        <time>2020-07-22T18:59:04Z</time>
      </trkpt>
      <trkpt lat="48.84772" lon="2.43461">
        <ele>46</ele>
        <time>2020-07-22T18:59:05Z</time>
      </trkpt>
      <trkpt lat="48.84772" lon="2.4346">
        <ele>46</ele>
        <time>2020-07-22T18:59:06Z</time>
      </trkpt>
      <trkpt lat="48.84772" lon="2.4346">
        <ele>46</ele>
        <time>2020-07-22T18:59:07Z</time>
      </trkpt>
      <trkpt lat="48.84772" lon="2.43458">
        <ele>46</ele>
        <time>2020-07-22T18:59:08Z</time>
      </trkpt>
      <trkpt lat="48.84772" lon="2.43457">
        <ele>46</ele>
        <time>2020-07-22T18:59:09Z</time>
      </trkpt>
      <trkpt lat="48.84773" lon="2.43457">
        <ele>46</ele>
        <time>2020-07-22T18:59:10Z</time>
      </trkpt>
      <trkpt lat="48.84773" lon="2.43456">
        <ele>46</ele>
        <time>2020-07-22T18:59:11Z</time>
      </trkpt>
      <trkpt lat="48.84773" lon="2.43456">
        <ele>46</ele>
        <time>2020-07-22T18:59:12Z</time>
      </trkpt>
      <trkpt lat="48.84774" lon="2.43456">
        <ele>46</ele>
        <time>2020-07-22T18:59:13Z</time>
      </trkpt>
      <trkpt lat="48.84775" lon="2.43456">
        <ele>46</ele>
        <time>2020-07-22T18:59:14Z</time>
      </trkpt>
      <trkpt lat="48.84776" lon="2.43455">
        <ele>46</ele>
        <time>2020-07-22T18:59:15Z</time>
      </trkpt>
      <trkpt lat="48.84776" lon="2.43455">
        <ele>46</ele>
        <time>2020-07-22T18:59:16Z</time>
      </trkpt>
      <trkpt lat="48.84776" lon="2.43455">
        <ele>46</ele>
        <time>2020-07-22T18:59:17Z</time>
      </trkpt>
      <trkpt lat="48.84777" lon="2.43455">
        <ele>46</ele>
        <time>2020-07-22T18:59:18Z</time>
      </trkpt>
      <trkpt lat="48.84778" lon="2.43455">
        <ele>46</ele>
        <time>2020-07-22T18:59:19Z</time>
      </trkpt>
      <trkpt lat="48.84778" lon="2.43455">
        <ele>46</ele>
        <time>2020-07-22T18:59:20Z</time>
      </trkpt>
      <trkpt lat="48.84778" lon="2.43455">
        <ele>46</ele>
        <time>2020-07-22T18:59:21Z</time>
      </trkpt>
      <trkpt lat="48.84778" lon="2.43455">
        <ele>46</ele>
        <time>2020-07-22T18:59:22Z</time>
      </trkpt>
      <trkpt lat="48.84778" lon="2.43455">
        <ele>46</ele>
        <time>2020-07-22T18:59:23Z</time>
      </trkpt>
      <trkpt lat="48.84778" lon="2.43455">
        <ele>45</ele>
        <time>2020-07-22T18:59:24Z</time>
      </trkpt>
      <trkpt lat="48.84778" lon="2.43455">
        <ele>45</ele>
        <time>2020-07-22T18:59:25Z</time>
      </trkpt>
      <trkpt lat="48.84778" lon="2.43455">
        <ele>45</ele>
        <time>2020-07-22T18:59:26Z</time>
      </trkpt>
      <trkpt lat="48.84778" lon="2.43456">
        <ele>45</ele>
        <time>2020-07-22T18:59:27Z</time>
      </trkpt>
      <trkpt lat="48.84778" lon="2.43456">
        <ele>45</ele>
        <time>2020-07-22T18:59:28Z</time>
      </trkpt>
      <trkpt lat="48.84779" lon="2.43456">
        <ele>45</ele>
        <time>2020-07-22T18:59:29Z</time>
      </trkpt>
      <trkpt lat="48.84779" lon="2.43457">
        <ele>45</ele>
        <time>2020-07-22T18:59:30Z</time>
      </trkpt>
      <trkpt lat="48.8478" lon="2.43458">
        <ele>45</ele>
        <time>2020-07-22T18:59:40Z</time>
      </trkpt>
      <trkpt lat="48.8478" lon="2.43459">
        <ele>45</ele>
        <time>2020-07-22T18:59:41Z</time>
      </trkpt>
      <trkpt lat="48.84781" lon="2.4346">
        <ele>45</ele>
        <time>2020-07-22T18:59:42Z</time>
      </trkpt>
      <trkpt lat="48.84781" lon="2.43461">
        <ele>45</ele>
        <time>2020-07-22T18:59:43Z</time>
      </trkpt>
      <trkpt lat="48.84781" lon="2.43461">
        <ele>45</ele>
        <time>2020-07-22T18:59:44Z</time>
      </trkpt>
      <trkpt lat="48.84781" lon="2.43461">
        <ele>45</ele>
        <time>2020-07-22T18:59:45Z</time>
      </trkpt>
      <trkpt lat="48.84781" lon="2.43462">
        <ele>45</ele>
        <time>2020-07-22T18:59:46Z</time>
      </trkpt>
      <trkpt lat="48.84781" lon="2.43462">
        <ele>45</ele>
        <time>2020-07-22T18:59:47Z</time>
      </trkpt>
      <trkpt lat="48.8478" lon="2.43463">
        <ele>45</ele>
        <time>2020-07-22T18:59:48Z</time>
      </trkpt>
      <trkpt lat="48.84779" lon="2.43463">
        <ele>45</ele>
        <time>2020-07-22T18:59:49Z</time>
      </trkpt>
      <trkpt lat="48.84779" lon="2.43464">
        <ele>46</ele>
        <time>2020-07-22T18:59:50Z</time>
      </trkpt>
    </trkseg>
  </trk>
</gpx>